<?xml version="1.0" encoding="UTF-8" standalone="no" ?>
<gpx xmlns="http://www.topografix.com/GPX/1/1" xmlns:xsi="http://www.w3.org/2001/XMLSchema-instance" xsi:schemaLocation="http://www.topografix.com/GPX/1/1 http://www.topografix.com/GPX/1/1/gpx.xsd" version="1.1" creator="VisuGPX - https://www.visugpx.com">
  <metadata>
    <name>Tenailles 2010</name>
    <desc><![CDATA[Grand parcours de la randonnée organisée par le Club Alpin de Briançon.
De superbes descentes.
Le retour depuis la Roche-de-Rame, en pleine chaleur, était bien physique.]]></desc>
  </metadata>
  <trk>
    <name><![CDATA[Tenailles 2010 - 55 Km on GPSies.com]]></name>
    <trkseg>
      <trkpt lat="44.87029" lon="6.62844">
        <ele>1293.2</ele>
        <time>2010-07-04T06:06:38Z</time>
      </trkpt>
      <trkpt lat="44.87034" lon="6.62841">
        <ele>1294.49</ele>
        <time>2010-07-04T06:07:02Z</time>
      </trkpt>
      <trkpt lat="44.87033" lon="6.62841">
        <ele>1297.183</ele>
        <time>2010-07-04T06:07:10Z</time>
      </trkpt>
      <trkpt lat="44.87038" lon="6.62841">
        <ele>1296.406</ele>
        <time>2010-07-04T06:08:51Z</time>
      </trkpt>
      <trkpt lat="44.87028" lon="6.62849">
        <ele>1299.983</ele>
        <time>2010-07-04T06:09:31Z</time>
      </trkpt>
      <trkpt lat="44.87029" lon="6.62843">
        <ele>1286.106</ele>
        <time>2010-07-04T06:11:16Z</time>
      </trkpt>
      <trkpt lat="44.87029" lon="6.62839">
        <ele>1284.003</ele>
        <time>2010-07-04T06:12:16Z</time>
      </trkpt>
      <trkpt lat="44.8703" lon="6.62845">
        <ele>1287.184</ele>
        <time>2010-07-04T06:12:38Z</time>
      </trkpt>
      <trkpt lat="44.87033" lon="6.62857">
        <ele>1289.426</ele>
        <time>2010-07-04T06:12:45Z</time>
      </trkpt>
      <trkpt lat="44.8704" lon="6.62876">
        <ele>1293.327</ele>
        <time>2010-07-04T06:12:54Z</time>
      </trkpt>
      <trkpt lat="44.87049" lon="6.62899">
        <ele>1296.256</ele>
        <time>2010-07-04T06:13:03Z</time>
      </trkpt>
      <trkpt lat="44.87061" lon="6.62919">
        <ele>1299.068</ele>
        <time>2010-07-04T06:13:12Z</time>
      </trkpt>
      <trkpt lat="44.87069" lon="6.6294">
        <ele>1297.795</ele>
        <time>2010-07-04T06:13:19Z</time>
      </trkpt>
      <trkpt lat="44.87079" lon="6.6296">
        <ele>1294.993</ele>
        <time>2010-07-04T06:13:26Z</time>
      </trkpt>
      <trkpt lat="44.87092" lon="6.62987">
        <ele>1293.683</ele>
        <time>2010-07-04T06:13:32Z</time>
      </trkpt>
      <trkpt lat="44.87111" lon="6.63021">
        <ele>1293.313</ele>
        <time>2010-07-04T06:13:39Z</time>
      </trkpt>
      <trkpt lat="44.87118" lon="6.6303">
        <ele>1292.433</ele>
        <time>2010-07-04T06:13:41Z</time>
      </trkpt>
      <trkpt lat="44.87132" lon="6.63053">
        <ele>1292.464</ele>
        <time>2010-07-04T06:13:45Z</time>
      </trkpt>
      <trkpt lat="44.87144" lon="6.63088">
        <ele>1292.844</ele>
        <time>2010-07-04T06:13:51Z</time>
      </trkpt>
      <trkpt lat="44.8716" lon="6.63122">
        <ele>1294.646</ele>
        <time>2010-07-04T06:13:59Z</time>
      </trkpt>
      <trkpt lat="44.87181" lon="6.63145">
        <ele>1295.684</ele>
        <time>2010-07-04T06:14:07Z</time>
      </trkpt>
      <trkpt lat="44.87185" lon="6.63148">
        <ele>1295.694</ele>
        <time>2010-07-04T06:14:08Z</time>
      </trkpt>
      <trkpt lat="44.87196" lon="6.63168">
        <ele>1296.388</ele>
        <time>2010-07-04T06:14:12Z</time>
      </trkpt>
      <trkpt lat="44.87195" lon="6.63177">
        <ele>1296.996</ele>
        <time>2010-07-04T06:14:15Z</time>
      </trkpt>
      <trkpt lat="44.87187" lon="6.632">
        <ele>1298.707</ele>
        <time>2010-07-04T06:14:24Z</time>
      </trkpt>
      <trkpt lat="44.87186" lon="6.63218">
        <ele>1300.336</ele>
        <time>2010-07-04T06:14:31Z</time>
      </trkpt>
      <trkpt lat="44.87195" lon="6.63236">
        <ele>1302.317</ele>
        <time>2010-07-04T06:14:39Z</time>
      </trkpt>
      <trkpt lat="44.87203" lon="6.63258">
        <ele>1304.136</ele>
        <time>2010-07-04T06:14:48Z</time>
      </trkpt>
      <trkpt lat="44.872" lon="6.63271">
        <ele>1305.156</ele>
        <time>2010-07-04T06:14:53Z</time>
      </trkpt>
      <trkpt lat="44.87185" lon="6.63283">
        <ele>1306.966</ele>
        <time>2010-07-04T06:15:02Z</time>
      </trkpt>
      <trkpt lat="44.8717" lon="6.63289">
        <ele>1309.698</ele>
        <time>2010-07-04T06:15:12Z</time>
      </trkpt>
      <trkpt lat="44.87159" lon="6.63295">
        <ele>1312.107</ele>
        <time>2010-07-04T06:15:20Z</time>
      </trkpt>
      <trkpt lat="44.87152" lon="6.63312">
        <ele>1313.496</ele>
        <time>2010-07-04T06:15:28Z</time>
      </trkpt>
      <trkpt lat="44.87148" lon="6.63335">
        <ele>1315.777</ele>
        <time>2010-07-04T06:15:38Z</time>
      </trkpt>
      <trkpt lat="44.87141" lon="6.63351">
        <ele>1317.277</ele>
        <time>2010-07-04T06:15:46Z</time>
      </trkpt>
      <trkpt lat="44.87132" lon="6.6337">
        <ele>1319.047</ele>
        <time>2010-07-04T06:15:56Z</time>
      </trkpt>
      <trkpt lat="44.87127" lon="6.63384">
        <ele>1319.947</ele>
        <time>2010-07-04T06:16:03Z</time>
      </trkpt>
      <trkpt lat="44.87121" lon="6.63402">
        <ele>1320.096</ele>
        <time>2010-07-04T06:16:12Z</time>
      </trkpt>
      <trkpt lat="44.87115" lon="6.63424">
        <ele>1324.618</ele>
        <time>2010-07-04T06:16:23Z</time>
      </trkpt>
      <trkpt lat="44.87106" lon="6.63441">
        <ele>1328.087</ele>
        <time>2010-07-04T06:16:33Z</time>
      </trkpt>
      <trkpt lat="44.87097" lon="6.63458">
        <ele>1329.776</ele>
        <time>2010-07-04T06:16:42Z</time>
      </trkpt>
      <trkpt lat="44.87087" lon="6.63475">
        <ele>1331.786</ele>
        <time>2010-07-04T06:16:52Z</time>
      </trkpt>
      <trkpt lat="44.87079" lon="6.63493">
        <ele>1333.957</ele>
        <time>2010-07-04T06:17:02Z</time>
      </trkpt>
      <trkpt lat="44.87074" lon="6.63516">
        <ele>1338.829</ele>
        <time>2010-07-04T06:17:13Z</time>
      </trkpt>
      <trkpt lat="44.87072" lon="6.63538">
        <ele>1342.407</ele>
        <time>2010-07-04T06:17:23Z</time>
      </trkpt>
      <trkpt lat="44.87069" lon="6.63561">
        <ele>1343.366</ele>
        <time>2010-07-04T06:17:32Z</time>
      </trkpt>
      <trkpt lat="44.87061" lon="6.63586">
        <ele>1345.316</ele>
        <time>2010-07-04T06:17:43Z</time>
      </trkpt>
      <trkpt lat="44.8705" lon="6.63608">
        <ele>1347.467</ele>
        <time>2010-07-04T06:17:55Z</time>
      </trkpt>
      <trkpt lat="44.87041" lon="6.63627">
        <ele>1350.497</ele>
        <time>2010-07-04T06:18:05Z</time>
      </trkpt>
      <trkpt lat="44.87039" lon="6.63643">
        <ele>1353.749</ele>
        <time>2010-07-04T06:18:13Z</time>
      </trkpt>
      <trkpt lat="44.8704" lon="6.63662">
        <ele>1356.048</ele>
        <time>2010-07-04T06:18:22Z</time>
      </trkpt>
      <trkpt lat="44.87039" lon="6.63681">
        <ele>1357.047</ele>
        <time>2010-07-04T06:18:31Z</time>
      </trkpt>
      <trkpt lat="44.87037" lon="6.63704">
        <ele>1359.528</ele>
        <time>2010-07-04T06:18:42Z</time>
      </trkpt>
      <trkpt lat="44.87037" lon="6.63723">
        <ele>1361.448</ele>
        <time>2010-07-04T06:18:50Z</time>
      </trkpt>
      <trkpt lat="44.87031" lon="6.6373">
        <ele>1360.416</ele>
        <time>2010-07-04T06:18:55Z</time>
      </trkpt>
      <trkpt lat="44.87023" lon="6.63723">
        <ele>1360.136</ele>
        <time>2010-07-04T06:19:01Z</time>
      </trkpt>
      <trkpt lat="44.87016" lon="6.63705">
        <ele>1361.036</ele>
        <time>2010-07-04T06:19:10Z</time>
      </trkpt>
      <trkpt lat="44.8701" lon="6.63688">
        <ele>1362.606</ele>
        <time>2010-07-04T06:19:19Z</time>
      </trkpt>
      <trkpt lat="44.87003" lon="6.63666">
        <ele>1363.776</ele>
        <time>2010-07-04T06:19:29Z</time>
      </trkpt>
      <trkpt lat="44.87" lon="6.63638">
        <ele>1365.826</ele>
        <time>2010-07-04T06:19:41Z</time>
      </trkpt>
      <trkpt lat="44.86998" lon="6.63613">
        <ele>1366.606</ele>
        <time>2010-07-04T06:19:51Z</time>
      </trkpt>
      <trkpt lat="44.86998" lon="6.63589">
        <ele>1368.077</ele>
        <time>2010-07-04T06:20:00Z</time>
      </trkpt>
      <trkpt lat="44.86998" lon="6.63561">
        <ele>1374.757</ele>
        <time>2010-07-04T06:20:11Z</time>
      </trkpt>
      <trkpt lat="44.87004" lon="6.63544">
        <ele>1376.987</ele>
        <time>2010-07-04T06:20:18Z</time>
      </trkpt>
      <trkpt lat="44.87011" lon="6.63525">
        <ele>1377.146</ele>
        <time>2010-07-04T06:20:26Z</time>
      </trkpt>
      <trkpt lat="44.87012" lon="6.6352">
        <ele>1377.106</ele>
        <time>2010-07-04T06:20:28Z</time>
      </trkpt>
      <trkpt lat="44.87012" lon="6.63512">
        <ele>1382.58</ele>
        <time>2010-07-04T06:20:32Z</time>
      </trkpt>
      <trkpt lat="44.87012" lon="6.63487">
        <ele>1388.619</ele>
        <time>2010-07-04T06:20:43Z</time>
      </trkpt>
      <trkpt lat="44.8701" lon="6.63466">
        <ele>1385.906</ele>
        <time>2010-07-04T06:20:50Z</time>
      </trkpt>
      <trkpt lat="44.86997" lon="6.63452">
        <ele>1385.105</ele>
        <time>2010-07-04T06:20:58Z</time>
      </trkpt>
      <trkpt lat="44.8698" lon="6.6345">
        <ele>1385.386</ele>
        <time>2010-07-04T06:21:06Z</time>
      </trkpt>
      <trkpt lat="44.86979" lon="6.63459">
        <ele>1388.159</ele>
        <time>2010-07-04T06:21:10Z</time>
      </trkpt>
      <trkpt lat="44.86986" lon="6.63465">
        <ele>1390.099</ele>
        <time>2010-07-04T06:21:15Z</time>
      </trkpt>
      <trkpt lat="44.86999" lon="6.63472">
        <ele>1392.787</ele>
        <time>2010-07-04T06:21:23Z</time>
      </trkpt>
      <trkpt lat="44.86999" lon="6.63485">
        <ele>1395.038</ele>
        <time>2010-07-04T06:21:28Z</time>
      </trkpt>
      <trkpt lat="44.86988" lon="6.63497">
        <ele>1396.667</ele>
        <time>2010-07-04T06:21:35Z</time>
      </trkpt>
      <trkpt lat="44.86973" lon="6.63503">
        <ele>1400.138</ele>
        <time>2010-07-04T06:21:43Z</time>
      </trkpt>
      <trkpt lat="44.86964" lon="6.63494">
        <ele>1400.926</ele>
        <time>2010-07-04T06:21:49Z</time>
      </trkpt>
      <trkpt lat="44.86958" lon="6.63484">
        <ele>1401.616</ele>
        <time>2010-07-04T06:21:54Z</time>
      </trkpt>
      <trkpt lat="44.86953" lon="6.63464">
        <ele>1400.655</ele>
        <time>2010-07-04T06:22:02Z</time>
      </trkpt>
      <trkpt lat="44.86956" lon="6.63446">
        <ele>1400.315</ele>
        <time>2010-07-04T06:22:09Z</time>
      </trkpt>
      <trkpt lat="44.86952" lon="6.63432">
        <ele>1400.246</ele>
        <time>2010-07-04T06:22:15Z</time>
      </trkpt>
      <trkpt lat="44.86948" lon="6.63427">
        <ele>1401.597</ele>
        <time>2010-07-04T06:22:19Z</time>
      </trkpt>
      <trkpt lat="44.86943" lon="6.6342">
        <ele>1404.789</ele>
        <time>2010-07-04T06:22:25Z</time>
      </trkpt>
      <trkpt lat="44.86936" lon="6.63415">
        <ele>1406.747</ele>
        <time>2010-07-04T06:22:30Z</time>
      </trkpt>
      <trkpt lat="44.86926" lon="6.63412">
        <ele>1410.589</ele>
        <time>2010-07-04T06:22:36Z</time>
      </trkpt>
      <trkpt lat="44.86914" lon="6.63412">
        <ele>1415.23</ele>
        <time>2010-07-04T06:22:42Z</time>
      </trkpt>
      <trkpt lat="44.86903" lon="6.63415">
        <ele>1419.24</ele>
        <time>2010-07-04T06:22:48Z</time>
      </trkpt>
      <trkpt lat="44.86897" lon="6.63415">
        <ele>1419.938</ele>
        <time>2010-07-04T06:22:52Z</time>
      </trkpt>
      <trkpt lat="44.86891" lon="6.63406">
        <ele>1423.43</ele>
        <time>2010-07-04T06:22:59Z</time>
      </trkpt>
      <trkpt lat="44.86882" lon="6.63402">
        <ele>1421.429</ele>
        <time>2010-07-04T06:23:03Z</time>
      </trkpt>
      <trkpt lat="44.86868" lon="6.63387">
        <ele>1420.902</ele>
        <time>2010-07-04T06:23:12Z</time>
      </trkpt>
      <trkpt lat="44.86861" lon="6.63373">
        <ele>1424.77</ele>
        <time>2010-07-04T06:23:19Z</time>
      </trkpt>
      <trkpt lat="44.86854" lon="6.6336">
        <ele>1423.116</ele>
        <time>2010-07-04T06:23:25Z</time>
      </trkpt>
      <trkpt lat="44.86845" lon="6.63346">
        <ele>1423.126</ele>
        <time>2010-07-04T06:23:32Z</time>
      </trkpt>
      <trkpt lat="44.86839" lon="6.63338">
        <ele>1424.577</ele>
        <time>2010-07-04T06:23:37Z</time>
      </trkpt>
      <trkpt lat="44.86831" lon="6.63327">
        <ele>1424.217</ele>
        <time>2010-07-04T06:23:43Z</time>
      </trkpt>
      <trkpt lat="44.86822" lon="6.63317">
        <ele>1423.556</ele>
        <time>2010-07-04T06:23:49Z</time>
      </trkpt>
      <trkpt lat="44.86815" lon="6.63306">
        <ele>1423.625</ele>
        <time>2010-07-04T06:23:55Z</time>
      </trkpt>
      <trkpt lat="44.86802" lon="6.63296">
        <ele>1425.936</ele>
        <time>2010-07-04T06:24:03Z</time>
      </trkpt>
      <trkpt lat="44.86786" lon="6.63286">
        <ele>1428.417</ele>
        <time>2010-07-04T06:24:13Z</time>
      </trkpt>
      <trkpt lat="44.86774" lon="6.63279">
        <ele>1429.606</ele>
        <time>2010-07-04T06:24:21Z</time>
      </trkpt>
      <trkpt lat="44.86765" lon="6.63271">
        <ele>1431.337</ele>
        <time>2010-07-04T06:24:27Z</time>
      </trkpt>
      <trkpt lat="44.86755" lon="6.6326">
        <ele>1433.707</ele>
        <time>2010-07-04T06:24:34Z</time>
      </trkpt>
      <trkpt lat="44.86747" lon="6.63241">
        <ele>1433.876</ele>
        <time>2010-07-04T06:24:42Z</time>
      </trkpt>
      <trkpt lat="44.86743" lon="6.63227">
        <ele>1434.226</ele>
        <time>2010-07-04T06:24:49Z</time>
      </trkpt>
      <trkpt lat="44.86743" lon="6.63209">
        <ele>1434.066</ele>
        <time>2010-07-04T06:24:56Z</time>
      </trkpt>
      <trkpt lat="44.86744" lon="6.63207">
        <ele>1434.366</ele>
        <time>2010-07-04T06:24:57Z</time>
      </trkpt>
      <trkpt lat="44.86742" lon="6.63198">
        <ele>1434.867</ele>
        <time>2010-07-04T06:25:01Z</time>
      </trkpt>
      <trkpt lat="44.86737" lon="6.63174">
        <ele>1434.305</ele>
        <time>2010-07-04T06:25:10Z</time>
      </trkpt>
      <trkpt lat="44.86733" lon="6.63159">
        <ele>1434.945</ele>
        <time>2010-07-04T06:25:16Z</time>
      </trkpt>
      <trkpt lat="44.86726" lon="6.63141">
        <ele>1436.446</ele>
        <time>2010-07-04T06:25:24Z</time>
      </trkpt>
      <trkpt lat="44.86717" lon="6.6313">
        <ele>1438.206</ele>
        <time>2010-07-04T06:25:30Z</time>
      </trkpt>
      <trkpt lat="44.86706" lon="6.63118">
        <ele>1439.195</ele>
        <time>2010-07-04T06:25:37Z</time>
      </trkpt>
      <trkpt lat="44.86698" lon="6.63108">
        <ele>1439.995</ele>
        <time>2010-07-04T06:25:43Z</time>
      </trkpt>
      <trkpt lat="44.86688" lon="6.63095">
        <ele>1441.275</ele>
        <time>2010-07-04T06:25:51Z</time>
      </trkpt>
      <trkpt lat="44.86676" lon="6.63079">
        <ele>1444.726</ele>
        <time>2010-07-04T06:26:00Z</time>
      </trkpt>
      <trkpt lat="44.86674" lon="6.63077">
        <ele>1445.236</ele>
        <time>2010-07-04T06:26:01Z</time>
      </trkpt>
      <trkpt lat="44.86663" lon="6.63063">
        <ele>1447.525</ele>
        <time>2010-07-04T06:26:09Z</time>
      </trkpt>
      <trkpt lat="44.86656" lon="6.63052">
        <ele>1448.135</ele>
        <time>2010-07-04T06:26:15Z</time>
      </trkpt>
      <trkpt lat="44.86643" lon="6.63036">
        <ele>1448.375</ele>
        <time>2010-07-04T06:26:24Z</time>
      </trkpt>
      <trkpt lat="44.86634" lon="6.63027">
        <ele>1449.225</ele>
        <time>2010-07-04T06:26:30Z</time>
      </trkpt>
      <trkpt lat="44.86624" lon="6.63017">
        <ele>1450.596</ele>
        <time>2010-07-04T06:26:36Z</time>
      </trkpt>
      <trkpt lat="44.86617" lon="6.63006">
        <ele>1451.515</ele>
        <time>2010-07-04T06:26:42Z</time>
      </trkpt>
      <trkpt lat="44.86608" lon="6.63004">
        <ele>1451.885</ele>
        <time>2010-07-04T06:26:47Z</time>
      </trkpt>
      <trkpt lat="44.8659" lon="6.6301">
        <ele>1451.394</ele>
        <time>2010-07-04T06:26:54Z</time>
      </trkpt>
      <trkpt lat="44.86578" lon="6.63">
        <ele>1452.323</ele>
        <time>2010-07-04T06:26:59Z</time>
      </trkpt>
      <trkpt lat="44.86569" lon="6.62974">
        <ele>1453.014</ele>
        <time>2010-07-04T06:27:06Z</time>
      </trkpt>
      <trkpt lat="44.86563" lon="6.62955">
        <ele>1455.969</ele>
        <time>2010-07-04T06:27:12Z</time>
      </trkpt>
      <trkpt lat="44.86554" lon="6.62939">
        <ele>1458.456</ele>
        <time>2010-07-04T06:27:18Z</time>
      </trkpt>
      <trkpt lat="44.86539" lon="6.62928">
        <ele>1458.154</ele>
        <time>2010-07-04T06:27:25Z</time>
      </trkpt>
      <trkpt lat="44.86525" lon="6.62916">
        <ele>1458.644</ele>
        <time>2010-07-04T06:27:32Z</time>
      </trkpt>
      <trkpt lat="44.86515" lon="6.62916">
        <ele>1459.084</ele>
        <time>2010-07-04T06:27:37Z</time>
      </trkpt>
      <trkpt lat="44.86516" lon="6.62927">
        <ele>1460.115</ele>
        <time>2010-07-04T06:27:42Z</time>
      </trkpt>
      <trkpt lat="44.86517" lon="6.62929">
        <ele>1460.285</ele>
        <time>2010-07-04T06:27:43Z</time>
      </trkpt>
      <trkpt lat="44.86532" lon="6.62937">
        <ele>1460.895</ele>
        <time>2010-07-04T06:27:51Z</time>
      </trkpt>
      <trkpt lat="44.86544" lon="6.62951">
        <ele>1462.405</ele>
        <time>2010-07-04T06:27:58Z</time>
      </trkpt>
      <trkpt lat="44.86552" lon="6.62975">
        <ele>1466.087</ele>
        <time>2010-07-04T06:28:05Z</time>
      </trkpt>
      <trkpt lat="44.86556" lon="6.63005">
        <ele>1471.89</ele>
        <time>2010-07-04T06:28:13Z</time>
      </trkpt>
      <trkpt lat="44.86555" lon="6.63031">
        <ele>1472.595</ele>
        <time>2010-07-04T06:28:20Z</time>
      </trkpt>
      <trkpt lat="44.86561" lon="6.63057">
        <ele>1473.857</ele>
        <time>2010-07-04T06:28:27Z</time>
      </trkpt>
      <trkpt lat="44.86571" lon="6.63066">
        <ele>1478.569</ele>
        <time>2010-07-04T06:28:32Z</time>
      </trkpt>
      <trkpt lat="44.86584" lon="6.63065">
        <ele>1485.522</ele>
        <time>2010-07-04T06:28:38Z</time>
      </trkpt>
      <trkpt lat="44.86601" lon="6.63068">
        <ele>1485.687</ele>
        <time>2010-07-04T06:28:46Z</time>
      </trkpt>
      <trkpt lat="44.86608" lon="6.63083">
        <ele>1480.712</ele>
        <time>2010-07-04T06:28:51Z</time>
      </trkpt>
      <trkpt lat="44.8661" lon="6.63103">
        <ele>1480.777</ele>
        <time>2010-07-04T06:28:57Z</time>
      </trkpt>
      <trkpt lat="44.86611" lon="6.63118">
        <ele>1483.188</ele>
        <time>2010-07-04T06:29:03Z</time>
      </trkpt>
      <trkpt lat="44.86616" lon="6.63141">
        <ele>1479.555</ele>
        <time>2010-07-04T06:29:10Z</time>
      </trkpt>
      <trkpt lat="44.86618" lon="6.63161">
        <ele>1484.542</ele>
        <time>2010-07-04T06:29:17Z</time>
      </trkpt>
      <trkpt lat="44.86619" lon="6.63177">
        <ele>1489.579</ele>
        <time>2010-07-04T06:29:24Z</time>
      </trkpt>
      <trkpt lat="44.86622" lon="6.63205">
        <ele>1489.247</ele>
        <time>2010-07-04T06:29:32Z</time>
      </trkpt>
      <trkpt lat="44.86631" lon="6.63219">
        <ele>1489.516</ele>
        <time>2010-07-04T06:29:37Z</time>
      </trkpt>
      <trkpt lat="44.86645" lon="6.63241">
        <ele>1492.219</ele>
        <time>2010-07-04T06:29:45Z</time>
      </trkpt>
      <trkpt lat="44.86651" lon="6.63268">
        <ele>1488.594</ele>
        <time>2010-07-04T06:29:52Z</time>
      </trkpt>
      <trkpt lat="44.86657" lon="6.63301">
        <ele>1487.104</ele>
        <time>2010-07-04T06:30:01Z</time>
      </trkpt>
      <trkpt lat="44.86661" lon="6.63327">
        <ele>1491.785</ele>
        <time>2010-07-04T06:30:09Z</time>
      </trkpt>
      <trkpt lat="44.86665" lon="6.63347">
        <ele>1495.265</ele>
        <time>2010-07-04T06:30:15Z</time>
      </trkpt>
      <trkpt lat="44.86675" lon="6.63367">
        <ele>1493.434</ele>
        <time>2010-07-04T06:30:21Z</time>
      </trkpt>
      <trkpt lat="44.86686" lon="6.63389">
        <ele>1490.864</ele>
        <time>2010-07-04T06:30:28Z</time>
      </trkpt>
      <trkpt lat="44.86681" lon="6.63397">
        <ele>1491.185</ele>
        <time>2010-07-04T06:30:32Z</time>
      </trkpt>
      <trkpt lat="44.86675" lon="6.63388">
        <ele>1491.956</ele>
        <time>2010-07-04T06:30:37Z</time>
      </trkpt>
      <trkpt lat="44.86669" lon="6.63376">
        <ele>1494.356</ele>
        <time>2010-07-04T06:30:43Z</time>
      </trkpt>
      <trkpt lat="44.8666" lon="6.63357">
        <ele>1497.136</ele>
        <time>2010-07-04T06:30:52Z</time>
      </trkpt>
      <trkpt lat="44.86655" lon="6.63343">
        <ele>1498.517</ele>
        <time>2010-07-04T06:30:58Z</time>
      </trkpt>
      <trkpt lat="44.8665" lon="6.63324">
        <ele>1499.365</ele>
        <time>2010-07-04T06:31:05Z</time>
      </trkpt>
      <trkpt lat="44.86641" lon="6.6331">
        <ele>1501.626</ele>
        <time>2010-07-04T06:31:11Z</time>
      </trkpt>
      <trkpt lat="44.8663" lon="6.63298">
        <ele>1503.786</ele>
        <time>2010-07-04T06:31:18Z</time>
      </trkpt>
      <trkpt lat="44.86618" lon="6.63292">
        <ele>1504.704</ele>
        <time>2010-07-04T06:31:25Z</time>
      </trkpt>
      <trkpt lat="44.86602" lon="6.63297">
        <ele>1503.263</ele>
        <time>2010-07-04T06:31:32Z</time>
      </trkpt>
      <trkpt lat="44.86593" lon="6.63301">
        <ele>1506.335</ele>
        <time>2010-07-04T06:31:37Z</time>
      </trkpt>
      <trkpt lat="44.86582" lon="6.63302">
        <ele>1507.814</ele>
        <time>2010-07-04T06:31:43Z</time>
      </trkpt>
      <trkpt lat="44.8657" lon="6.63294">
        <ele>1508.694</ele>
        <time>2010-07-04T06:31:49Z</time>
      </trkpt>
      <trkpt lat="44.86563" lon="6.63279">
        <ele>1509.546</ele>
        <time>2010-07-04T06:31:55Z</time>
      </trkpt>
      <trkpt lat="44.86557" lon="6.63258">
        <ele>1509.593</ele>
        <time>2010-07-04T06:32:03Z</time>
      </trkpt>
      <trkpt lat="44.8655" lon="6.63247">
        <ele>1511.636</ele>
        <time>2010-07-04T06:32:08Z</time>
      </trkpt>
      <trkpt lat="44.8654" lon="6.63235">
        <ele>1513.686</ele>
        <time>2010-07-04T06:32:14Z</time>
      </trkpt>
      <trkpt lat="44.86527" lon="6.63222">
        <ele>1515.695</ele>
        <time>2010-07-04T06:32:21Z</time>
      </trkpt>
      <trkpt lat="44.86511" lon="6.63203">
        <ele>1516.884</ele>
        <time>2010-07-04T06:32:31Z</time>
      </trkpt>
      <trkpt lat="44.86499" lon="6.63194">
        <ele>1518.294</ele>
        <time>2010-07-04T06:32:38Z</time>
      </trkpt>
      <trkpt lat="44.86487" lon="6.63199">
        <ele>1519.506</ele>
        <time>2010-07-04T06:32:44Z</time>
      </trkpt>
      <trkpt lat="44.86482" lon="6.63214">
        <ele>1520.114</ele>
        <time>2010-07-04T06:32:50Z</time>
      </trkpt>
      <trkpt lat="44.86482" lon="6.6323">
        <ele>1515.611</ele>
        <time>2010-07-04T06:32:56Z</time>
      </trkpt>
      <trkpt lat="44.86486" lon="6.63244">
        <ele>1516.942</ele>
        <time>2010-07-04T06:33:02Z</time>
      </trkpt>
      <trkpt lat="44.86495" lon="6.63256">
        <ele>1522.174</ele>
        <time>2010-07-04T06:33:08Z</time>
      </trkpt>
      <trkpt lat="44.86511" lon="6.63269">
        <ele>1526.404</ele>
        <time>2010-07-04T06:33:16Z</time>
      </trkpt>
      <trkpt lat="44.86516" lon="6.63285">
        <ele>1520.343</ele>
        <time>2010-07-04T06:33:22Z</time>
      </trkpt>
      <trkpt lat="44.86516" lon="6.63309">
        <ele>1511.063</ele>
        <time>2010-07-04T06:33:30Z</time>
      </trkpt>
      <trkpt lat="44.86523" lon="6.63332">
        <ele>1514.604</ele>
        <time>2010-07-04T06:33:39Z</time>
      </trkpt>
      <trkpt lat="44.86533" lon="6.63352">
        <ele>1512.834</ele>
        <time>2010-07-04T06:33:47Z</time>
      </trkpt>
      <trkpt lat="44.86549" lon="6.63372">
        <ele>1521.027</ele>
        <time>2010-07-04T06:33:56Z</time>
      </trkpt>
      <trkpt lat="44.86555" lon="6.63387">
        <ele>1528.067</ele>
        <time>2010-07-04T06:34:02Z</time>
      </trkpt>
      <trkpt lat="44.86556" lon="6.63399">
        <ele>1532.246</ele>
        <time>2010-07-04T06:34:07Z</time>
      </trkpt>
      <trkpt lat="44.86554" lon="6.6342">
        <ele>1531.625</ele>
        <time>2010-07-04T06:34:15Z</time>
      </trkpt>
      <trkpt lat="44.86552" lon="6.63437">
        <ele>1538.095</ele>
        <time>2010-07-04T06:34:22Z</time>
      </trkpt>
      <trkpt lat="44.86547" lon="6.63459">
        <ele>1537.814</ele>
        <time>2010-07-04T06:34:29Z</time>
      </trkpt>
      <trkpt lat="44.86538" lon="6.63482">
        <ele>1543.135</ele>
        <time>2010-07-04T06:34:38Z</time>
      </trkpt>
      <trkpt lat="44.86538" lon="6.63497">
        <ele>1532.773</ele>
        <time>2010-07-04T06:34:43Z</time>
      </trkpt>
      <trkpt lat="44.86545" lon="6.63517">
        <ele>1532.003</ele>
        <time>2010-07-04T06:34:50Z</time>
      </trkpt>
      <trkpt lat="44.8655" lon="6.63534">
        <ele>1528.664</ele>
        <time>2010-07-04T06:34:57Z</time>
      </trkpt>
      <trkpt lat="44.86558" lon="6.63551">
        <ele>1530.544</ele>
        <time>2010-07-04T06:35:05Z</time>
      </trkpt>
      <trkpt lat="44.86557" lon="6.6357">
        <ele>1523.953</ele>
        <time>2010-07-04T06:35:12Z</time>
      </trkpt>
      <trkpt lat="44.86548" lon="6.63582">
        <ele>1527.625</ele>
        <time>2010-07-04T06:35:18Z</time>
      </trkpt>
      <trkpt lat="44.86535" lon="6.63596">
        <ele>1536.676</ele>
        <time>2010-07-04T06:35:26Z</time>
      </trkpt>
      <trkpt lat="44.86526" lon="6.63608">
        <ele>1538.975</ele>
        <time>2010-07-04T06:35:32Z</time>
      </trkpt>
      <trkpt lat="44.86514" lon="6.63624">
        <ele>1542.826</ele>
        <time>2010-07-04T06:35:40Z</time>
      </trkpt>
      <trkpt lat="44.86498" lon="6.63646">
        <ele>1543.467</ele>
        <time>2010-07-04T06:35:50Z</time>
      </trkpt>
      <trkpt lat="44.86494" lon="6.63663">
        <ele>1546.255</ele>
        <time>2010-07-04T06:35:56Z</time>
      </trkpt>
      <trkpt lat="44.865" lon="6.63681">
        <ele>1551.296</ele>
        <time>2010-07-04T06:36:02Z</time>
      </trkpt>
      <trkpt lat="44.86515" lon="6.6369">
        <ele>1552.255</ele>
        <time>2010-07-04T06:36:08Z</time>
      </trkpt>
      <trkpt lat="44.8653" lon="6.63709">
        <ele>1555.317</ele>
        <time>2010-07-04T06:36:16Z</time>
      </trkpt>
      <trkpt lat="44.86534" lon="6.6373">
        <ele>1556.518</ele>
        <time>2010-07-04T06:36:22Z</time>
      </trkpt>
      <trkpt lat="44.86538" lon="6.63751">
        <ele>1559.816</ele>
        <time>2010-07-04T06:36:28Z</time>
      </trkpt>
      <trkpt lat="44.86553" lon="6.63769">
        <ele>1559.196</ele>
        <time>2010-07-04T06:36:35Z</time>
      </trkpt>
      <trkpt lat="44.8656" lon="6.63789">
        <ele>1558.294</ele>
        <time>2010-07-04T06:36:41Z</time>
      </trkpt>
      <trkpt lat="44.86561" lon="6.63818">
        <ele>1561.388</ele>
        <time>2010-07-04T06:36:49Z</time>
      </trkpt>
      <trkpt lat="44.86568" lon="6.63851">
        <ele>1560.297</ele>
        <time>2010-07-04T06:36:58Z</time>
      </trkpt>
      <trkpt lat="44.86576" lon="6.63891">
        <ele>1561.825</ele>
        <time>2010-07-04T06:37:09Z</time>
      </trkpt>
      <trkpt lat="44.8658" lon="6.63917">
        <ele>1563.745</ele>
        <time>2010-07-04T06:37:16Z</time>
      </trkpt>
      <trkpt lat="44.86588" lon="6.6395">
        <ele>1562.735</ele>
        <time>2010-07-04T06:37:25Z</time>
      </trkpt>
      <trkpt lat="44.86587" lon="6.63977">
        <ele>1561.044</ele>
        <time>2010-07-04T06:37:32Z</time>
      </trkpt>
      <trkpt lat="44.86577" lon="6.63995">
        <ele>1562.515</ele>
        <time>2010-07-04T06:37:38Z</time>
      </trkpt>
      <trkpt lat="44.86561" lon="6.64012">
        <ele>1565.055</ele>
        <time>2010-07-04T06:37:45Z</time>
      </trkpt>
      <trkpt lat="44.86553" lon="6.64033">
        <ele>1568.938</ele>
        <time>2010-07-04T06:37:51Z</time>
      </trkpt>
      <trkpt lat="44.86544" lon="6.64062">
        <ele>1572.446</ele>
        <time>2010-07-04T06:37:59Z</time>
      </trkpt>
      <trkpt lat="44.86535" lon="6.64088">
        <ele>1575.056</ele>
        <time>2010-07-04T06:38:07Z</time>
      </trkpt>
      <trkpt lat="44.86519" lon="6.64118">
        <ele>1576.336</ele>
        <time>2010-07-04T06:38:17Z</time>
      </trkpt>
      <trkpt lat="44.86503" lon="6.64141">
        <ele>1578.575</ele>
        <time>2010-07-04T06:38:26Z</time>
      </trkpt>
      <trkpt lat="44.86488" lon="6.64166">
        <ele>1579.144</ele>
        <time>2010-07-04T06:38:34Z</time>
      </trkpt>
      <trkpt lat="44.86482" lon="6.64194">
        <ele>1585.536</ele>
        <time>2010-07-04T06:38:42Z</time>
      </trkpt>
      <trkpt lat="44.86474" lon="6.64222">
        <ele>1582.914</ele>
        <time>2010-07-04T06:38:49Z</time>
      </trkpt>
      <trkpt lat="44.86458" lon="6.64249">
        <ele>1580.774</ele>
        <time>2010-07-04T06:38:57Z</time>
      </trkpt>
      <trkpt lat="44.86436" lon="6.64285">
        <ele>1582.175</ele>
        <time>2010-07-04T06:39:07Z</time>
      </trkpt>
      <trkpt lat="44.86422" lon="6.64308">
        <ele>1583.306</ele>
        <time>2010-07-04T06:39:14Z</time>
      </trkpt>
      <trkpt lat="44.86406" lon="6.64319">
        <ele>1583.905</ele>
        <time>2010-07-04T06:39:20Z</time>
      </trkpt>
      <trkpt lat="44.8639" lon="6.64329">
        <ele>1583.794</ele>
        <time>2010-07-04T06:39:26Z</time>
      </trkpt>
      <trkpt lat="44.86378" lon="6.64351">
        <ele>1584.155</ele>
        <time>2010-07-04T06:39:33Z</time>
      </trkpt>
      <trkpt lat="44.86368" lon="6.64374">
        <ele>1584.975</ele>
        <time>2010-07-04T06:39:40Z</time>
      </trkpt>
      <trkpt lat="44.86348" lon="6.64396">
        <ele>1585.645</ele>
        <time>2010-07-04T06:39:49Z</time>
      </trkpt>
      <trkpt lat="44.86333" lon="6.64407">
        <ele>1586.625</ele>
        <time>2010-07-04T06:39:55Z</time>
      </trkpt>
      <trkpt lat="44.86314" lon="6.64422">
        <ele>1587.755</ele>
        <time>2010-07-04T06:40:03Z</time>
      </trkpt>
      <trkpt lat="44.86304" lon="6.6444">
        <ele>1589.205</ele>
        <time>2010-07-04T06:40:10Z</time>
      </trkpt>
      <trkpt lat="44.8629" lon="6.64467">
        <ele>1591.145</ele>
        <time>2010-07-04T06:40:21Z</time>
      </trkpt>
      <trkpt lat="44.86286" lon="6.64491">
        <ele>1591.625</ele>
        <time>2010-07-04T06:40:29Z</time>
      </trkpt>
      <trkpt lat="44.86284" lon="6.64515">
        <ele>1595.066</ele>
        <time>2010-07-04T06:40:37Z</time>
      </trkpt>
      <trkpt lat="44.86274" lon="6.64539">
        <ele>1598.146</ele>
        <time>2010-07-04T06:40:46Z</time>
      </trkpt>
      <trkpt lat="44.86264" lon="6.64555">
        <ele>1601.486</ele>
        <time>2010-07-04T06:40:53Z</time>
      </trkpt>
      <trkpt lat="44.86255" lon="6.64573">
        <ele>1604.036</ele>
        <time>2010-07-04T06:41:00Z</time>
      </trkpt>
      <trkpt lat="44.86239" lon="6.646">
        <ele>1606.265</ele>
        <time>2010-07-04T06:41:11Z</time>
      </trkpt>
      <trkpt lat="44.86224" lon="6.64619">
        <ele>1608.565</ele>
        <time>2010-07-04T06:41:20Z</time>
      </trkpt>
      <trkpt lat="44.86211" lon="6.64636">
        <ele>1609.205</ele>
        <time>2010-07-04T06:41:27Z</time>
      </trkpt>
      <trkpt lat="44.86197" lon="6.64658">
        <ele>1610.165</ele>
        <time>2010-07-04T06:41:35Z</time>
      </trkpt>
      <trkpt lat="44.8618" lon="6.64674">
        <ele>1611.335</ele>
        <time>2010-07-04T06:41:43Z</time>
      </trkpt>
      <trkpt lat="44.86157" lon="6.64689">
        <ele>1613.986</ele>
        <time>2010-07-04T06:41:53Z</time>
      </trkpt>
      <trkpt lat="44.8615" lon="6.64699">
        <ele>1615.486</ele>
        <time>2010-07-04T06:41:58Z</time>
      </trkpt>
      <trkpt lat="44.86132" lon="6.64709">
        <ele>1617.176</ele>
        <time>2010-07-04T06:42:07Z</time>
      </trkpt>
      <trkpt lat="44.86114" lon="6.6471">
        <ele>1618.396</ele>
        <time>2010-07-04T06:42:15Z</time>
      </trkpt>
      <trkpt lat="44.861" lon="6.64713">
        <ele>1619.806</ele>
        <time>2010-07-04T06:42:21Z</time>
      </trkpt>
      <trkpt lat="44.86086" lon="6.64721">
        <ele>1621.996</ele>
        <time>2010-07-04T06:42:27Z</time>
      </trkpt>
      <trkpt lat="44.86074" lon="6.64735">
        <ele>1625.547</ele>
        <time>2010-07-04T06:42:34Z</time>
      </trkpt>
      <trkpt lat="44.86064" lon="6.64752">
        <ele>1629.168</ele>
        <time>2010-07-04T06:42:41Z</time>
      </trkpt>
      <trkpt lat="44.86055" lon="6.64773">
        <ele>1631.157</ele>
        <time>2010-07-04T06:42:49Z</time>
      </trkpt>
      <trkpt lat="44.86043" lon="6.64791">
        <ele>1630.036</ele>
        <time>2010-07-04T06:42:57Z</time>
      </trkpt>
      <trkpt lat="44.86029" lon="6.64799">
        <ele>1628.715</ele>
        <time>2010-07-04T06:43:04Z</time>
      </trkpt>
      <trkpt lat="44.86011" lon="6.64804">
        <ele>1627.586</ele>
        <time>2010-07-04T06:43:12Z</time>
      </trkpt>
      <trkpt lat="44.85998" lon="6.64814">
        <ele>1628.616</ele>
        <time>2010-07-04T06:43:18Z</time>
      </trkpt>
      <trkpt lat="44.85979" lon="6.64837">
        <ele>1630.737</ele>
        <time>2010-07-04T06:43:27Z</time>
      </trkpt>
      <trkpt lat="44.85967" lon="6.64853">
        <ele>1632.286</ele>
        <time>2010-07-04T06:43:33Z</time>
      </trkpt>
      <trkpt lat="44.85961" lon="6.64872">
        <ele>1637.052</ele>
        <time>2010-07-04T06:43:39Z</time>
      </trkpt>
      <trkpt lat="44.85958" lon="6.64887">
        <ele>1640.672</ele>
        <time>2010-07-04T06:43:44Z</time>
      </trkpt>
      <trkpt lat="44.85949" lon="6.64912">
        <ele>1639.516</ele>
        <time>2010-07-04T06:43:51Z</time>
      </trkpt>
      <trkpt lat="44.85935" lon="6.64925">
        <ele>1637.276</ele>
        <time>2010-07-04T06:43:57Z</time>
      </trkpt>
      <trkpt lat="44.85913" lon="6.64935">
        <ele>1629.905</ele>
        <time>2010-07-04T06:44:05Z</time>
      </trkpt>
      <trkpt lat="44.85893" lon="6.64935">
        <ele>1631.427</ele>
        <time>2010-07-04T06:44:12Z</time>
      </trkpt>
      <trkpt lat="44.85873" lon="6.64932">
        <ele>1633.006</ele>
        <time>2010-07-04T06:44:19Z</time>
      </trkpt>
      <trkpt lat="44.85857" lon="6.64942">
        <ele>1634.546</ele>
        <time>2010-07-04T06:44:25Z</time>
      </trkpt>
      <trkpt lat="44.85847" lon="6.64963">
        <ele>1635.756</ele>
        <time>2010-07-04T06:44:31Z</time>
      </trkpt>
      <trkpt lat="44.85827" lon="6.65003">
        <ele>1640.417</ele>
        <time>2010-07-04T06:44:42Z</time>
      </trkpt>
      <trkpt lat="44.8582" lon="6.6503">
        <ele>1645.36</ele>
        <time>2010-07-04T06:44:49Z</time>
      </trkpt>
      <trkpt lat="44.8581" lon="6.65052">
        <ele>1654.745</ele>
        <time>2010-07-04T06:44:56Z</time>
      </trkpt>
      <trkpt lat="44.85795" lon="6.65073">
        <ele>1652.406</ele>
        <time>2010-07-04T06:45:04Z</time>
      </trkpt>
      <trkpt lat="44.85777" lon="6.6509">
        <ele>1652.159</ele>
        <time>2010-07-04T06:45:12Z</time>
      </trkpt>
      <trkpt lat="44.85758" lon="6.65097">
        <ele>1652.396</ele>
        <time>2010-07-04T06:45:19Z</time>
      </trkpt>
      <trkpt lat="44.85738" lon="6.65105">
        <ele>1651.875</ele>
        <time>2010-07-04T06:45:27Z</time>
      </trkpt>
      <trkpt lat="44.85726" lon="6.6512">
        <ele>1652.716</ele>
        <time>2010-07-04T06:45:32Z</time>
      </trkpt>
      <trkpt lat="44.85715" lon="6.65148">
        <ele>1654.377</ele>
        <time>2010-07-04T06:45:39Z</time>
      </trkpt>
      <trkpt lat="44.85699" lon="6.65166">
        <ele>1648.514</ele>
        <time>2010-07-04T06:45:45Z</time>
      </trkpt>
      <trkpt lat="44.8568" lon="6.65175">
        <ele>1642.55</ele>
        <time>2010-07-04T06:45:52Z</time>
      </trkpt>
      <trkpt lat="44.85658" lon="6.65172">
        <ele>1646.265</ele>
        <time>2010-07-04T06:46:00Z</time>
      </trkpt>
      <trkpt lat="44.85632" lon="6.65173">
        <ele>1650.719</ele>
        <time>2010-07-04T06:46:09Z</time>
      </trkpt>
      <trkpt lat="44.85618" lon="6.65188">
        <ele>1654.311</ele>
        <time>2010-07-04T06:46:15Z</time>
      </trkpt>
      <trkpt lat="44.85605" lon="6.65204">
        <ele>1657.897</ele>
        <time>2010-07-04T06:46:21Z</time>
      </trkpt>
      <trkpt lat="44.85587" lon="6.65226">
        <ele>1660.48</ele>
        <time>2010-07-04T06:46:30Z</time>
      </trkpt>
      <trkpt lat="44.85572" lon="6.65235">
        <ele>1662.329</ele>
        <time>2010-07-04T06:46:36Z</time>
      </trkpt>
      <trkpt lat="44.85549" lon="6.65239">
        <ele>1662.935</ele>
        <time>2010-07-04T06:46:44Z</time>
      </trkpt>
      <trkpt lat="44.85531" lon="6.65251">
        <ele>1663.897</ele>
        <time>2010-07-04T06:46:51Z</time>
      </trkpt>
      <trkpt lat="44.85514" lon="6.65267">
        <ele>1666.718</ele>
        <time>2010-07-04T06:46:58Z</time>
      </trkpt>
      <trkpt lat="44.85492" lon="6.65276">
        <ele>1668.588</ele>
        <time>2010-07-04T06:47:06Z</time>
      </trkpt>
      <trkpt lat="44.85466" lon="6.65285">
        <ele>1668.698</ele>
        <time>2010-07-04T06:47:15Z</time>
      </trkpt>
      <trkpt lat="44.85444" lon="6.65282">
        <ele>1669.166</ele>
        <time>2010-07-04T06:47:23Z</time>
      </trkpt>
      <trkpt lat="44.85429" lon="6.65284">
        <ele>1670.229</ele>
        <time>2010-07-04T06:47:28Z</time>
      </trkpt>
      <trkpt lat="44.85416" lon="6.65303">
        <ele>1673.22</ele>
        <time>2010-07-04T06:47:34Z</time>
      </trkpt>
      <trkpt lat="44.85396" lon="6.6533">
        <ele>1674.035</ele>
        <time>2010-07-04T06:47:41Z</time>
      </trkpt>
      <trkpt lat="44.85387" lon="6.65344">
        <ele>1673.104</ele>
        <time>2010-07-04T06:47:44Z</time>
      </trkpt>
      <trkpt lat="44.85379" lon="6.65352">
        <ele>1672.894</ele>
        <time>2010-07-04T06:47:46Z</time>
      </trkpt>
      <trkpt lat="44.8536" lon="6.65365">
        <ele>1672.174</ele>
        <time>2010-07-04T06:47:50Z</time>
      </trkpt>
      <trkpt lat="44.85323" lon="6.65372">
        <ele>1663.389</ele>
        <time>2010-07-04T06:47:56Z</time>
      </trkpt>
      <trkpt lat="44.85293" lon="6.65377">
        <ele>1662.372</ele>
        <time>2010-07-04T06:48:01Z</time>
      </trkpt>
      <trkpt lat="44.85274" lon="6.65401">
        <ele>1655.761</ele>
        <time>2010-07-04T06:48:05Z</time>
      </trkpt>
      <trkpt lat="44.85273" lon="6.6541">
        <ele>1655.391</ele>
        <time>2010-07-04T06:48:06Z</time>
      </trkpt>
      <trkpt lat="44.85257" lon="6.65461">
        <ele>1653.251</ele>
        <time>2010-07-04T06:48:12Z</time>
      </trkpt>
      <trkpt lat="44.85244" lon="6.6548">
        <ele>1654.714</ele>
        <time>2010-07-04T06:48:15Z</time>
      </trkpt>
      <trkpt lat="44.85221" lon="6.65498">
        <ele>1654.006</ele>
        <time>2010-07-04T06:48:20Z</time>
      </trkpt>
      <trkpt lat="44.85216" lon="6.65499">
        <ele>1653.684</ele>
        <time>2010-07-04T06:48:21Z</time>
      </trkpt>
      <trkpt lat="44.85203" lon="6.65503">
        <ele>1653.135</ele>
        <time>2010-07-04T06:48:24Z</time>
      </trkpt>
      <trkpt lat="44.85177" lon="6.65501">
        <ele>1655.725</ele>
        <time>2010-07-04T06:48:31Z</time>
      </trkpt>
      <trkpt lat="44.85154" lon="6.65494">
        <ele>1658.746</ele>
        <time>2010-07-04T06:48:39Z</time>
      </trkpt>
      <trkpt lat="44.85125" lon="6.65484">
        <ele>1662.236</ele>
        <time>2010-07-04T06:48:49Z</time>
      </trkpt>
      <trkpt lat="44.85104" lon="6.65492">
        <ele>1666.407</ele>
        <time>2010-07-04T06:48:56Z</time>
      </trkpt>
      <trkpt lat="44.85073" lon="6.65512">
        <ele>1657.882</ele>
        <time>2010-07-04T06:49:08Z</time>
      </trkpt>
      <trkpt lat="44.85052" lon="6.65531">
        <ele>1618.424</ele>
        <time>2010-07-04T06:49:16Z</time>
      </trkpt>
      <trkpt lat="44.85049" lon="6.65534">
        <ele>1615.275</ele>
        <time>2010-07-04T06:49:18Z</time>
      </trkpt>
      <trkpt lat="44.85047" lon="6.65536">
        <ele>1611.362</ele>
        <time>2010-07-04T06:49:22Z</time>
      </trkpt>
      <trkpt lat="44.85054" lon="6.65536">
        <ele>1598.703</ele>
        <time>2010-07-04T06:49:27Z</time>
      </trkpt>
      <trkpt lat="44.85055" lon="6.65537">
        <ele>1590.643</ele>
        <time>2010-07-04T06:49:31Z</time>
      </trkpt>
      <trkpt lat="44.85055" lon="6.65538">
        <ele>1584.989</ele>
        <time>2010-07-04T06:49:41Z</time>
      </trkpt>
      <trkpt lat="44.85054" lon="6.65539">
        <ele>1578.869</ele>
        <time>2010-07-04T06:49:45Z</time>
      </trkpt>
      <trkpt lat="44.85043" lon="6.65547">
        <ele>1576.611</ele>
        <time>2010-07-04T06:49:52Z</time>
      </trkpt>
      <trkpt lat="44.85022" lon="6.65561">
        <ele>1560.837</ele>
        <time>2010-07-04T06:50:01Z</time>
      </trkpt>
      <trkpt lat="44.84998" lon="6.65573">
        <ele>1562.552</ele>
        <time>2010-07-04T06:50:10Z</time>
      </trkpt>
      <trkpt lat="44.84975" lon="6.6559">
        <ele>1571.125</ele>
        <time>2010-07-04T06:50:19Z</time>
      </trkpt>
      <trkpt lat="44.84953" lon="6.65616">
        <ele>1592.541</ele>
        <time>2010-07-04T06:50:30Z</time>
      </trkpt>
      <trkpt lat="44.84929" lon="6.65642">
        <ele>1642.147</ele>
        <time>2010-07-04T06:50:42Z</time>
      </trkpt>
      <trkpt lat="44.84909" lon="6.6566">
        <ele>1667.108</ele>
        <time>2010-07-04T06:50:51Z</time>
      </trkpt>
      <trkpt lat="44.84894" lon="6.65677">
        <ele>1674.68</ele>
        <time>2010-07-04T06:50:59Z</time>
      </trkpt>
      <trkpt lat="44.84871" lon="6.65696">
        <ele>1676.369</ele>
        <time>2010-07-04T06:51:09Z</time>
      </trkpt>
      <trkpt lat="44.84849" lon="6.65701">
        <ele>1679.096</ele>
        <time>2010-07-04T06:51:17Z</time>
      </trkpt>
      <trkpt lat="44.84816" lon="6.65706">
        <ele>1683.009</ele>
        <time>2010-07-04T06:51:29Z</time>
      </trkpt>
      <trkpt lat="44.84793" lon="6.65715">
        <ele>1688.435</ele>
        <time>2010-07-04T06:51:38Z</time>
      </trkpt>
      <trkpt lat="44.84774" lon="6.65727">
        <ele>1685.519</ele>
        <time>2010-07-04T06:51:46Z</time>
      </trkpt>
      <trkpt lat="44.84754" lon="6.65738">
        <ele>1684.873</ele>
        <time>2010-07-04T06:51:54Z</time>
      </trkpt>
      <trkpt lat="44.84724" lon="6.65743">
        <ele>1691.834</ele>
        <time>2010-07-04T06:52:05Z</time>
      </trkpt>
      <trkpt lat="44.84703" lon="6.65747">
        <ele>1692.794</ele>
        <time>2010-07-04T06:52:13Z</time>
      </trkpt>
      <trkpt lat="44.84686" lon="6.6575">
        <ele>1696.525</ele>
        <time>2010-07-04T06:52:20Z</time>
      </trkpt>
      <trkpt lat="44.84674" lon="6.65755">
        <ele>1697.085</ele>
        <time>2010-07-04T06:52:26Z</time>
      </trkpt>
      <trkpt lat="44.84659" lon="6.65769">
        <ele>1699.595</ele>
        <time>2010-07-04T06:52:35Z</time>
      </trkpt>
      <trkpt lat="44.84645" lon="6.65782">
        <ele>1703.806</ele>
        <time>2010-07-04T06:52:43Z</time>
      </trkpt>
      <trkpt lat="44.84633" lon="6.65797">
        <ele>1707.685</ele>
        <time>2010-07-04T06:52:52Z</time>
      </trkpt>
      <trkpt lat="44.84623" lon="6.6581">
        <ele>1709.395</ele>
        <time>2010-07-04T06:52:59Z</time>
      </trkpt>
      <trkpt lat="44.84611" lon="6.65827">
        <ele>1710.474</ele>
        <time>2010-07-04T06:53:08Z</time>
      </trkpt>
      <trkpt lat="44.84597" lon="6.65845">
        <ele>1710.994</ele>
        <time>2010-07-04T06:53:18Z</time>
      </trkpt>
      <trkpt lat="44.84581" lon="6.65864">
        <ele>1711.704</ele>
        <time>2010-07-04T06:53:29Z</time>
      </trkpt>
      <trkpt lat="44.84567" lon="6.65875">
        <ele>1711.944</ele>
        <time>2010-07-04T06:53:37Z</time>
      </trkpt>
      <trkpt lat="44.8455" lon="6.65881">
        <ele>1712.584</ele>
        <time>2010-07-04T06:53:45Z</time>
      </trkpt>
      <trkpt lat="44.84528" lon="6.65889">
        <ele>1715.255</ele>
        <time>2010-07-04T06:53:55Z</time>
      </trkpt>
      <trkpt lat="44.84508" lon="6.65903">
        <ele>1715.714</ele>
        <time>2010-07-04T06:54:05Z</time>
      </trkpt>
      <trkpt lat="44.84498" lon="6.65922">
        <ele>1716.114</ele>
        <time>2010-07-04T06:54:12Z</time>
      </trkpt>
      <trkpt lat="44.84483" lon="6.6594">
        <ele>1717.916</ele>
        <time>2010-07-04T06:54:21Z</time>
      </trkpt>
      <trkpt lat="44.84465" lon="6.65956">
        <ele>1720.485</ele>
        <time>2010-07-04T06:54:31Z</time>
      </trkpt>
      <trkpt lat="44.84449" lon="6.65967">
        <ele>1723.116</ele>
        <time>2010-07-04T06:54:40Z</time>
      </trkpt>
      <trkpt lat="44.84428" lon="6.6598">
        <ele>1726.756</ele>
        <time>2010-07-04T06:54:52Z</time>
      </trkpt>
      <trkpt lat="44.84406" lon="6.65994">
        <ele>1730.075</ele>
        <time>2010-07-04T06:55:04Z</time>
      </trkpt>
      <trkpt lat="44.84386" lon="6.66009">
        <ele>1731.334</ele>
        <time>2010-07-04T06:55:15Z</time>
      </trkpt>
      <trkpt lat="44.84366" lon="6.66018">
        <ele>1732.094</ele>
        <time>2010-07-04T06:55:24Z</time>
      </trkpt>
      <trkpt lat="44.8434" lon="6.66028">
        <ele>1732.385</ele>
        <time>2010-07-04T06:55:33Z</time>
      </trkpt>
      <trkpt lat="44.84322" lon="6.6603">
        <ele>1732.905</ele>
        <time>2010-07-04T06:55:39Z</time>
      </trkpt>
      <trkpt lat="44.84303" lon="6.66019">
        <ele>1733.997</ele>
        <time>2010-07-04T06:55:46Z</time>
      </trkpt>
      <trkpt lat="44.84285" lon="6.66012">
        <ele>1737.119</ele>
        <time>2010-07-04T06:55:54Z</time>
      </trkpt>
      <trkpt lat="44.84264" lon="6.66007">
        <ele>1739.837</ele>
        <time>2010-07-04T06:56:04Z</time>
      </trkpt>
      <trkpt lat="44.84242" lon="6.66006">
        <ele>1739.593</ele>
        <time>2010-07-04T06:56:12Z</time>
      </trkpt>
      <trkpt lat="44.84215" lon="6.66008">
        <ele>1739.663</ele>
        <time>2010-07-04T06:56:21Z</time>
      </trkpt>
      <trkpt lat="44.8419" lon="6.66012">
        <ele>1742.196</ele>
        <time>2010-07-04T06:56:30Z</time>
      </trkpt>
      <trkpt lat="44.84169" lon="6.66015">
        <ele>1744.398</ele>
        <time>2010-07-04T06:56:40Z</time>
      </trkpt>
      <trkpt lat="44.8415" lon="6.66022">
        <ele>1745.124</ele>
        <time>2010-07-04T06:56:49Z</time>
      </trkpt>
      <trkpt lat="44.84132" lon="6.66028">
        <ele>1744.913</ele>
        <time>2010-07-04T06:56:57Z</time>
      </trkpt>
      <trkpt lat="44.84114" lon="6.66038">
        <ele>1745.314</ele>
        <time>2010-07-04T06:57:06Z</time>
      </trkpt>
      <trkpt lat="44.84095" lon="6.66044">
        <ele>1745.923</ele>
        <time>2010-07-04T06:57:15Z</time>
      </trkpt>
      <trkpt lat="44.84078" lon="6.66041">
        <ele>1747.343</ele>
        <time>2010-07-04T06:57:23Z</time>
      </trkpt>
      <trkpt lat="44.84062" lon="6.66035">
        <ele>1749.173</ele>
        <time>2010-07-04T06:57:31Z</time>
      </trkpt>
      <trkpt lat="44.84045" lon="6.66029">
        <ele>1753.252</ele>
        <time>2010-07-04T06:57:40Z</time>
      </trkpt>
      <trkpt lat="44.84033" lon="6.66024">
        <ele>1751.039</ele>
        <time>2010-07-04T06:57:47Z</time>
      </trkpt>
      <trkpt lat="44.84016" lon="6.66018">
        <ele>1759.858</ele>
        <time>2010-07-04T06:57:56Z</time>
      </trkpt>
      <trkpt lat="44.84" lon="6.66014">
        <ele>1757.391</ele>
        <time>2010-07-04T06:58:05Z</time>
      </trkpt>
      <trkpt lat="44.83984" lon="6.6601">
        <ele>1758.572</ele>
        <time>2010-07-04T06:58:13Z</time>
      </trkpt>
      <trkpt lat="44.83969" lon="6.66007">
        <ele>1764.669</ele>
        <time>2010-07-04T06:58:21Z</time>
      </trkpt>
      <trkpt lat="44.83963" lon="6.65998">
        <ele>1766.576</ele>
        <time>2010-07-04T06:58:26Z</time>
      </trkpt>
      <trkpt lat="44.83966" lon="6.65978">
        <ele>1766.694</ele>
        <time>2010-07-04T06:58:33Z</time>
      </trkpt>
      <trkpt lat="44.83976" lon="6.65957">
        <ele>1766.674</ele>
        <time>2010-07-04T06:58:39Z</time>
      </trkpt>
      <trkpt lat="44.83988" lon="6.65957">
        <ele>1767.183</ele>
        <time>2010-07-04T06:58:44Z</time>
      </trkpt>
      <trkpt lat="44.84004" lon="6.65957">
        <ele>1768.275</ele>
        <time>2010-07-04T06:58:51Z</time>
      </trkpt>
      <trkpt lat="44.84018" lon="6.65944">
        <ele>1769.064</ele>
        <time>2010-07-04T06:58:58Z</time>
      </trkpt>
      <trkpt lat="44.8403" lon="6.65927">
        <ele>1771.787</ele>
        <time>2010-07-04T06:59:06Z</time>
      </trkpt>
      <trkpt lat="44.84037" lon="6.65912">
        <ele>1774.438</ele>
        <time>2010-07-04T06:59:12Z</time>
      </trkpt>
      <trkpt lat="44.84046" lon="6.6589">
        <ele>1776.217</ele>
        <time>2010-07-04T06:59:20Z</time>
      </trkpt>
      <trkpt lat="44.8404" lon="6.65887">
        <ele>1778.935</ele>
        <time>2010-07-04T06:59:25Z</time>
      </trkpt>
      <trkpt lat="44.84027" lon="6.65899">
        <ele>1779.325</ele>
        <time>2010-07-04T06:59:34Z</time>
      </trkpt>
      <trkpt lat="44.84012" lon="6.65905">
        <ele>1780.704</ele>
        <time>2010-07-04T06:59:42Z</time>
      </trkpt>
      <trkpt lat="44.84002" lon="6.65905">
        <ele>1781.674</ele>
        <time>2010-07-04T06:59:48Z</time>
      </trkpt>
      <trkpt lat="44.83989" lon="6.65903">
        <ele>1784.037</ele>
        <time>2010-07-04T06:59:55Z</time>
      </trkpt>
      <trkpt lat="44.83975" lon="6.659">
        <ele>1783.924</ele>
        <time>2010-07-04T07:00:01Z</time>
      </trkpt>
      <trkpt lat="44.83957" lon="6.65897">
        <ele>1785.987</ele>
        <time>2010-07-04T07:00:09Z</time>
      </trkpt>
      <trkpt lat="44.83933" lon="6.65892">
        <ele>1787.996</ele>
        <time>2010-07-04T07:00:20Z</time>
      </trkpt>
      <trkpt lat="44.83913" lon="6.65888">
        <ele>1790.588</ele>
        <time>2010-07-04T07:00:30Z</time>
      </trkpt>
      <trkpt lat="44.83894" lon="6.65884">
        <ele>1793.658</ele>
        <time>2010-07-04T07:00:40Z</time>
      </trkpt>
      <trkpt lat="44.83876" lon="6.65881">
        <ele>1795.626</ele>
        <time>2010-07-04T07:00:49Z</time>
      </trkpt>
      <trkpt lat="44.83863" lon="6.6588">
        <ele>1796.173</ele>
        <time>2010-07-04T07:00:56Z</time>
      </trkpt>
      <trkpt lat="44.8384" lon="6.65876">
        <ele>1796.906</ele>
        <time>2010-07-04T07:01:07Z</time>
      </trkpt>
      <trkpt lat="44.83824" lon="6.65864">
        <ele>1800.385</ele>
        <time>2010-07-04T07:01:16Z</time>
      </trkpt>
      <trkpt lat="44.83807" lon="6.65854">
        <ele>1803.045</ele>
        <time>2010-07-04T07:01:24Z</time>
      </trkpt>
      <trkpt lat="44.83792" lon="6.65851">
        <ele>1801.802</ele>
        <time>2010-07-04T07:01:31Z</time>
      </trkpt>
      <trkpt lat="44.83775" lon="6.65845">
        <ele>1803.604</ele>
        <time>2010-07-04T07:01:39Z</time>
      </trkpt>
      <trkpt lat="44.8376" lon="6.65834">
        <ele>1805.293</ele>
        <time>2010-07-04T07:01:47Z</time>
      </trkpt>
      <trkpt lat="44.83742" lon="6.65832">
        <ele>1806.563</ele>
        <time>2010-07-04T07:01:55Z</time>
      </trkpt>
      <trkpt lat="44.83722" lon="6.65834">
        <ele>1808.026</ele>
        <time>2010-07-04T07:02:04Z</time>
      </trkpt>
      <trkpt lat="44.83704" lon="6.65837">
        <ele>1809.706</ele>
        <time>2010-07-04T07:02:12Z</time>
      </trkpt>
      <trkpt lat="44.8369" lon="6.65831">
        <ele>1808.213</ele>
        <time>2010-07-04T07:02:19Z</time>
      </trkpt>
      <trkpt lat="44.83695" lon="6.65819">
        <ele>1808.653</ele>
        <time>2010-07-04T07:02:24Z</time>
      </trkpt>
      <trkpt lat="44.83698" lon="6.65819">
        <ele>1808.793</ele>
        <time>2010-07-04T07:02:25Z</time>
      </trkpt>
      <trkpt lat="44.8372" lon="6.65814">
        <ele>1810.503</ele>
        <time>2010-07-04T07:02:35Z</time>
      </trkpt>
      <trkpt lat="44.83737" lon="6.6581">
        <ele>1813.294</ele>
        <time>2010-07-04T07:02:43Z</time>
      </trkpt>
      <trkpt lat="44.83758" lon="6.65804">
        <ele>1814.523</ele>
        <time>2010-07-04T07:02:53Z</time>
      </trkpt>
      <trkpt lat="44.83777" lon="6.65805">
        <ele>1815.283</ele>
        <time>2010-07-04T07:03:02Z</time>
      </trkpt>
      <trkpt lat="44.83785" lon="6.65804">
        <ele>1815.504</ele>
        <time>2010-07-04T07:03:06Z</time>
      </trkpt>
      <trkpt lat="44.83786" lon="6.65795">
        <ele>1816.024</ele>
        <time>2010-07-04T07:03:10Z</time>
      </trkpt>
      <trkpt lat="44.83776" lon="6.65792">
        <ele>1817.054</ele>
        <time>2010-07-04T07:03:15Z</time>
      </trkpt>
      <trkpt lat="44.83759" lon="6.65788">
        <ele>1818.363</ele>
        <time>2010-07-04T07:03:23Z</time>
      </trkpt>
      <trkpt lat="44.83745" lon="6.65783">
        <ele>1819.626</ele>
        <time>2010-07-04T07:03:30Z</time>
      </trkpt>
      <trkpt lat="44.83732" lon="6.65779">
        <ele>1822.614</ele>
        <time>2010-07-04T07:03:37Z</time>
      </trkpt>
      <trkpt lat="44.83718" lon="6.65775">
        <ele>1823.823</ele>
        <time>2010-07-04T07:03:45Z</time>
      </trkpt>
      <trkpt lat="44.83697" lon="6.6577">
        <ele>1830.715</ele>
        <time>2010-07-04T07:03:56Z</time>
      </trkpt>
      <trkpt lat="44.83682" lon="6.65759">
        <ele>1836.096</ele>
        <time>2010-07-04T07:04:06Z</time>
      </trkpt>
      <trkpt lat="44.83676" lon="6.6575">
        <ele>1839.648</ele>
        <time>2010-07-04T07:04:12Z</time>
      </trkpt>
      <trkpt lat="44.83669" lon="6.65743">
        <ele>1840.025</ele>
        <time>2010-07-04T07:04:17Z</time>
      </trkpt>
      <trkpt lat="44.83655" lon="6.65735">
        <ele>1839.493</ele>
        <time>2010-07-04T07:04:25Z</time>
      </trkpt>
      <trkpt lat="44.83641" lon="6.65731">
        <ele>1840.448</ele>
        <time>2010-07-04T07:04:32Z</time>
      </trkpt>
      <trkpt lat="44.83625" lon="6.65723">
        <ele>1840.433</ele>
        <time>2010-07-04T07:04:40Z</time>
      </trkpt>
      <trkpt lat="44.8361" lon="6.6571">
        <ele>1840.813</ele>
        <time>2010-07-04T07:04:49Z</time>
      </trkpt>
      <trkpt lat="44.83598" lon="6.65697">
        <ele>1840.253</ele>
        <time>2010-07-04T07:04:57Z</time>
      </trkpt>
      <trkpt lat="44.83587" lon="6.65684">
        <ele>1840.063</ele>
        <time>2010-07-04T07:05:04Z</time>
      </trkpt>
      <trkpt lat="44.83568" lon="6.65669">
        <ele>1840.933</ele>
        <time>2010-07-04T07:05:15Z</time>
      </trkpt>
      <trkpt lat="44.83552" lon="6.6566">
        <ele>1845.424</ele>
        <time>2010-07-04T07:05:24Z</time>
      </trkpt>
      <trkpt lat="44.83532" lon="6.65651">
        <ele>1850.504</ele>
        <time>2010-07-04T07:05:35Z</time>
      </trkpt>
      <trkpt lat="44.83521" lon="6.65648">
        <ele>1853.375</ele>
        <time>2010-07-04T07:05:40Z</time>
      </trkpt>
      <trkpt lat="44.83507" lon="6.65641">
        <ele>1855.513</ele>
        <time>2010-07-04T07:05:48Z</time>
      </trkpt>
      <trkpt lat="44.83497" lon="6.65637">
        <ele>1853.962</ele>
        <time>2010-07-04T07:05:54Z</time>
      </trkpt>
      <trkpt lat="44.83486" lon="6.65632">
        <ele>1855.662</ele>
        <time>2010-07-04T07:06:00Z</time>
      </trkpt>
      <trkpt lat="44.83469" lon="6.65627">
        <ele>1859.443</ele>
        <time>2010-07-04T07:06:08Z</time>
      </trkpt>
      <trkpt lat="44.83456" lon="6.65624">
        <ele>1862.544</ele>
        <time>2010-07-04T07:06:15Z</time>
      </trkpt>
      <trkpt lat="44.83437" lon="6.65621">
        <ele>1865.284</ele>
        <time>2010-07-04T07:06:23Z</time>
      </trkpt>
      <trkpt lat="44.83419" lon="6.65614">
        <ele>1867.303</ele>
        <time>2010-07-04T07:06:31Z</time>
      </trkpt>
      <trkpt lat="44.83404" lon="6.65604">
        <ele>1867.223</ele>
        <time>2010-07-04T07:06:38Z</time>
      </trkpt>
      <trkpt lat="44.83385" lon="6.65588">
        <ele>1868.445</ele>
        <time>2010-07-04T07:06:48Z</time>
      </trkpt>
      <trkpt lat="44.83373" lon="6.65577">
        <ele>1871.7</ele>
        <time>2010-07-04T07:06:54Z</time>
      </trkpt>
      <trkpt lat="44.83358" lon="6.65567">
        <ele>1874.417</ele>
        <time>2010-07-04T07:07:02Z</time>
      </trkpt>
      <trkpt lat="44.83336" lon="6.65548">
        <ele>1874.796</ele>
        <time>2010-07-04T07:07:13Z</time>
      </trkpt>
      <trkpt lat="44.83318" lon="6.65539">
        <ele>1875.905</ele>
        <time>2010-07-04T07:07:21Z</time>
      </trkpt>
      <trkpt lat="44.83301" lon="6.65528">
        <ele>1875.633</ele>
        <time>2010-07-04T07:07:29Z</time>
      </trkpt>
      <trkpt lat="44.83293" lon="6.65508">
        <ele>1874.891</ele>
        <time>2010-07-04T07:07:35Z</time>
      </trkpt>
      <trkpt lat="44.8328" lon="6.65492">
        <ele>1873.07</ele>
        <time>2010-07-04T07:07:41Z</time>
      </trkpt>
      <trkpt lat="44.8327" lon="6.65491">
        <ele>1870.926</ele>
        <time>2010-07-04T07:07:45Z</time>
      </trkpt>
      <trkpt lat="44.83266" lon="6.65482">
        <ele>1871.301</ele>
        <time>2010-07-04T07:07:49Z</time>
      </trkpt>
      <trkpt lat="44.83262" lon="6.65469">
        <ele>1871.6</ele>
        <time>2010-07-04T07:07:53Z</time>
      </trkpt>
      <trkpt lat="44.8325" lon="6.65472">
        <ele>1871.068</ele>
        <time>2010-07-04T07:07:58Z</time>
      </trkpt>
      <trkpt lat="44.83231" lon="6.65493">
        <ele>1870.739</ele>
        <time>2010-07-04T07:08:06Z</time>
      </trkpt>
      <trkpt lat="44.83229" lon="6.65503">
        <ele>1870.799</ele>
        <time>2010-07-04T07:08:10Z</time>
      </trkpt>
      <trkpt lat="44.83236" lon="6.6552">
        <ele>1872.142</ele>
        <time>2010-07-04T07:08:15Z</time>
      </trkpt>
      <trkpt lat="44.83244" lon="6.65534">
        <ele>1874.865</ele>
        <time>2010-07-04T07:08:21Z</time>
      </trkpt>
      <trkpt lat="44.83253" lon="6.65552">
        <ele>1880.801</ele>
        <time>2010-07-04T07:08:30Z</time>
      </trkpt>
      <trkpt lat="44.83261" lon="6.65557">
        <ele>1884.713</ele>
        <time>2010-07-04T07:08:35Z</time>
      </trkpt>
      <trkpt lat="44.83273" lon="6.65564">
        <ele>1887.378</ele>
        <time>2010-07-04T07:08:42Z</time>
      </trkpt>
      <trkpt lat="44.83284" lon="6.65573">
        <ele>1890.021</ele>
        <time>2010-07-04T07:08:49Z</time>
      </trkpt>
      <trkpt lat="44.83294" lon="6.65587">
        <ele>1894.119</ele>
        <time>2010-07-04T07:08:57Z</time>
      </trkpt>
      <trkpt lat="44.83302" lon="6.65603">
        <ele>1895.087</ele>
        <time>2010-07-04T07:09:05Z</time>
      </trkpt>
      <trkpt lat="44.83307" lon="6.65619">
        <ele>1899.189</ele>
        <time>2010-07-04T07:09:13Z</time>
      </trkpt>
      <trkpt lat="44.83309" lon="6.65623">
        <ele>1899.449</ele>
        <time>2010-07-04T07:09:15Z</time>
      </trkpt>
      <trkpt lat="44.83311" lon="6.65636">
        <ele>1900.289</ele>
        <time>2010-07-04T07:09:20Z</time>
      </trkpt>
      <trkpt lat="44.83315" lon="6.65653">
        <ele>1902.428</ele>
        <time>2010-07-04T07:09:27Z</time>
      </trkpt>
      <trkpt lat="44.83316" lon="6.65672">
        <ele>1910.88</ele>
        <time>2010-07-04T07:09:36Z</time>
      </trkpt>
      <trkpt lat="44.83323" lon="6.6569">
        <ele>1910.714</ele>
        <time>2010-07-04T07:09:43Z</time>
      </trkpt>
      <trkpt lat="44.83332" lon="6.65701">
        <ele>1911.784</ele>
        <time>2010-07-04T07:09:49Z</time>
      </trkpt>
      <trkpt lat="44.83345" lon="6.6572">
        <ele>1909.158</ele>
        <time>2010-07-04T07:09:57Z</time>
      </trkpt>
      <trkpt lat="44.8336" lon="6.65744">
        <ele>1906.446</ele>
        <time>2010-07-04T07:10:05Z</time>
      </trkpt>
      <trkpt lat="44.83377" lon="6.65751">
        <ele>1904.555</ele>
        <time>2010-07-04T07:10:11Z</time>
      </trkpt>
      <trkpt lat="44.83392" lon="6.65768">
        <ele>1902.714</ele>
        <time>2010-07-04T07:10:17Z</time>
      </trkpt>
      <trkpt lat="44.83405" lon="6.65795">
        <ele>1903.507</ele>
        <time>2010-07-04T07:10:24Z</time>
      </trkpt>
      <trkpt lat="44.83426" lon="6.65814">
        <ele>1902.074</ele>
        <time>2010-07-04T07:10:31Z</time>
      </trkpt>
      <trkpt lat="44.83451" lon="6.65849">
        <ele>1901.877</ele>
        <time>2010-07-04T07:10:40Z</time>
      </trkpt>
      <trkpt lat="44.8347" lon="6.65883">
        <ele>1903.537</ele>
        <time>2010-07-04T07:10:48Z</time>
      </trkpt>
      <trkpt lat="44.83489" lon="6.65901">
        <ele>1904.085</ele>
        <time>2010-07-04T07:10:54Z</time>
      </trkpt>
      <trkpt lat="44.83505" lon="6.65924">
        <ele>1904.796</ele>
        <time>2010-07-04T07:11:00Z</time>
      </trkpt>
      <trkpt lat="44.83521" lon="6.65952">
        <ele>1905.336</ele>
        <time>2010-07-04T07:11:07Z</time>
      </trkpt>
      <trkpt lat="44.8354" lon="6.65978">
        <ele>1905.776</ele>
        <time>2010-07-04T07:11:14Z</time>
      </trkpt>
      <trkpt lat="44.83557" lon="6.65986">
        <ele>1907.438</ele>
        <time>2010-07-04T07:11:19Z</time>
      </trkpt>
      <trkpt lat="44.83579" lon="6.65991">
        <ele>1909.963</ele>
        <time>2010-07-04T07:11:25Z</time>
      </trkpt>
      <trkpt lat="44.83591" lon="6.66004">
        <ele>1907.83</ele>
        <time>2010-07-04T07:11:29Z</time>
      </trkpt>
      <trkpt lat="44.83595" lon="6.66025">
        <ele>1908.478</ele>
        <time>2010-07-04T07:11:34Z</time>
      </trkpt>
      <trkpt lat="44.836" lon="6.66054">
        <ele>1911.096</ele>
        <time>2010-07-04T07:11:41Z</time>
      </trkpt>
      <trkpt lat="44.83609" lon="6.66069">
        <ele>1913.538</ele>
        <time>2010-07-04T07:11:47Z</time>
      </trkpt>
      <trkpt lat="44.83621" lon="6.66091">
        <ele>1917.023</ele>
        <time>2010-07-04T07:11:56Z</time>
      </trkpt>
      <trkpt lat="44.83633" lon="6.66109">
        <ele>1918.772</ele>
        <time>2010-07-04T07:12:04Z</time>
      </trkpt>
      <trkpt lat="44.8364" lon="6.6613">
        <ele>1922.672</ele>
        <time>2010-07-04T07:12:13Z</time>
      </trkpt>
      <trkpt lat="44.83646" lon="6.66147">
        <ele>1927.156</ele>
        <time>2010-07-04T07:12:21Z</time>
      </trkpt>
      <trkpt lat="44.83657" lon="6.66168">
        <ele>1927.491</ele>
        <time>2010-07-04T07:12:30Z</time>
      </trkpt>
      <trkpt lat="44.83664" lon="6.66186">
        <ele>1931.475</ele>
        <time>2010-07-04T07:12:38Z</time>
      </trkpt>
      <trkpt lat="44.83669" lon="6.662">
        <ele>1932.022</ele>
        <time>2010-07-04T07:12:44Z</time>
      </trkpt>
      <trkpt lat="44.83676" lon="6.66217">
        <ele>1930.319</ele>
        <time>2010-07-04T07:12:52Z</time>
      </trkpt>
      <trkpt lat="44.83686" lon="6.66225">
        <ele>1930.46</ele>
        <time>2010-07-04T07:12:59Z</time>
      </trkpt>
      <trkpt lat="44.83689" lon="6.66229">
        <ele>1930.258</ele>
        <time>2010-07-04T07:13:01Z</time>
      </trkpt>
      <trkpt lat="44.83686" lon="6.66241">
        <ele>1928.385</ele>
        <time>2010-07-04T07:13:07Z</time>
      </trkpt>
      <trkpt lat="44.83679" lon="6.66242">
        <ele>1926.875</ele>
        <time>2010-07-04T07:13:11Z</time>
      </trkpt>
      <trkpt lat="44.83664" lon="6.66234">
        <ele>1925.176</ele>
        <time>2010-07-04T07:13:22Z</time>
      </trkpt>
      <trkpt lat="44.83657" lon="6.66228">
        <ele>1922.742</ele>
        <time>2010-07-04T07:13:28Z</time>
      </trkpt>
      <trkpt lat="44.83645" lon="6.66217">
        <ele>1920.393</ele>
        <time>2010-07-04T07:13:37Z</time>
      </trkpt>
      <trkpt lat="44.83633" lon="6.6621">
        <ele>1922.095</ele>
        <time>2010-07-04T07:13:45Z</time>
      </trkpt>
      <trkpt lat="44.83625" lon="6.66194">
        <ele>1929.051</ele>
        <time>2010-07-04T07:13:54Z</time>
      </trkpt>
      <trkpt lat="44.83614" lon="6.6618">
        <ele>1931.219</ele>
        <time>2010-07-04T07:14:03Z</time>
      </trkpt>
      <trkpt lat="44.83602" lon="6.66173">
        <ele>1932.509</ele>
        <time>2010-07-04T07:14:10Z</time>
      </trkpt>
      <trkpt lat="44.83589" lon="6.66167">
        <ele>1932.427</ele>
        <time>2010-07-04T07:14:18Z</time>
      </trkpt>
      <trkpt lat="44.83578" lon="6.66164">
        <ele>1932.646</ele>
        <time>2010-07-04T07:14:25Z</time>
      </trkpt>
      <trkpt lat="44.83569" lon="6.66162">
        <ele>1932.245</ele>
        <time>2010-07-04T07:14:31Z</time>
      </trkpt>
      <trkpt lat="44.83566" lon="6.66172">
        <ele>1934.725</ele>
        <time>2010-07-04T07:14:37Z</time>
      </trkpt>
      <trkpt lat="44.83571" lon="6.66175">
        <ele>1937.976</ele>
        <time>2010-07-04T07:14:41Z</time>
      </trkpt>
      <trkpt lat="44.83585" lon="6.66178">
        <ele>1944.566</ele>
        <time>2010-07-04T07:14:50Z</time>
      </trkpt>
      <trkpt lat="44.8359" lon="6.66188">
        <ele>1947.172</ele>
        <time>2010-07-04T07:14:56Z</time>
      </trkpt>
      <trkpt lat="44.83595" lon="6.66204">
        <ele>1949.497</ele>
        <time>2010-07-04T07:15:04Z</time>
      </trkpt>
      <trkpt lat="44.836" lon="6.66218">
        <ele>1951.785</ele>
        <time>2010-07-04T07:15:11Z</time>
      </trkpt>
      <trkpt lat="44.83606" lon="6.66232">
        <ele>1953.366</ele>
        <time>2010-07-04T07:15:18Z</time>
      </trkpt>
      <trkpt lat="44.83613" lon="6.66253">
        <ele>1957.499</ele>
        <time>2010-07-04T07:15:28Z</time>
      </trkpt>
      <trkpt lat="44.8362" lon="6.66272">
        <ele>1957.675</ele>
        <time>2010-07-04T07:15:37Z</time>
      </trkpt>
      <trkpt lat="44.83624" lon="6.66292">
        <ele>1963.196</ele>
        <time>2010-07-04T07:15:46Z</time>
      </trkpt>
      <trkpt lat="44.83629" lon="6.66311">
        <ele>1963.926</ele>
        <time>2010-07-04T07:15:53Z</time>
      </trkpt>
      <trkpt lat="44.83634" lon="6.66333">
        <ele>1969.016</ele>
        <time>2010-07-04T07:16:02Z</time>
      </trkpt>
      <trkpt lat="44.83644" lon="6.66348">
        <ele>1969.543</ele>
        <time>2010-07-04T07:16:09Z</time>
      </trkpt>
      <trkpt lat="44.83655" lon="6.66362">
        <ele>1969.545</ele>
        <time>2010-07-04T07:16:17Z</time>
      </trkpt>
      <trkpt lat="44.83663" lon="6.66376">
        <ele>1972.246</ele>
        <time>2010-07-04T07:16:25Z</time>
      </trkpt>
      <trkpt lat="44.83672" lon="6.6639">
        <ele>1972.981</ele>
        <time>2010-07-04T07:16:33Z</time>
      </trkpt>
      <trkpt lat="44.83678" lon="6.664">
        <ele>1975.795</ele>
        <time>2010-07-04T07:16:39Z</time>
      </trkpt>
      <trkpt lat="44.8368" lon="6.66403">
        <ele>1977.387</ele>
        <time>2010-07-04T07:16:41Z</time>
      </trkpt>
      <trkpt lat="44.83681" lon="6.66418">
        <ele>1981.238</ele>
        <time>2010-07-04T07:16:48Z</time>
      </trkpt>
      <trkpt lat="44.83683" lon="6.66439">
        <ele>1981.297</ele>
        <time>2010-07-04T07:16:56Z</time>
      </trkpt>
      <trkpt lat="44.83688" lon="6.66447">
        <ele>1985.709</ele>
        <time>2010-07-04T07:17:01Z</time>
      </trkpt>
      <trkpt lat="44.83698" lon="6.66454">
        <ele>1988.078</ele>
        <time>2010-07-04T07:17:08Z</time>
      </trkpt>
      <trkpt lat="44.8371" lon="6.66463">
        <ele>1988.057</ele>
        <time>2010-07-04T07:17:16Z</time>
      </trkpt>
      <trkpt lat="44.83721" lon="6.66472">
        <ele>1989.357</ele>
        <time>2010-07-04T07:17:24Z</time>
      </trkpt>
      <trkpt lat="44.83726" lon="6.66484">
        <ele>1992.817</ele>
        <time>2010-07-04T07:17:31Z</time>
      </trkpt>
      <trkpt lat="44.83726" lon="6.66493">
        <ele>1991.917</ele>
        <time>2010-07-04T07:17:34Z</time>
      </trkpt>
      <trkpt lat="44.83715" lon="6.66502">
        <ele>1986.643</ele>
        <time>2010-07-04T07:17:41Z</time>
      </trkpt>
      <trkpt lat="44.83702" lon="6.66499">
        <ele>1984.334</ele>
        <time>2010-07-04T07:17:49Z</time>
      </trkpt>
      <trkpt lat="44.8369" lon="6.66499">
        <ele>1984.475</ele>
        <time>2010-07-04T07:17:56Z</time>
      </trkpt>
      <trkpt lat="44.83677" lon="6.66498">
        <ele>1985.805</ele>
        <time>2010-07-04T07:18:04Z</time>
      </trkpt>
      <trkpt lat="44.83667" lon="6.66499">
        <ele>1988.456</ele>
        <time>2010-07-04T07:18:11Z</time>
      </trkpt>
      <trkpt lat="44.83656" lon="6.66497">
        <ele>1986.805</ele>
        <time>2010-07-04T07:18:17Z</time>
      </trkpt>
      <trkpt lat="44.83647" lon="6.66497">
        <ele>1987.218</ele>
        <time>2010-07-04T07:18:23Z</time>
      </trkpt>
      <trkpt lat="44.83646" lon="6.66509">
        <ele>1989.109</ele>
        <time>2010-07-04T07:18:29Z</time>
      </trkpt>
      <trkpt lat="44.83647" lon="6.6651">
        <ele>1989.746</ele>
        <time>2010-07-04T07:18:30Z</time>
      </trkpt>
      <trkpt lat="44.83659" lon="6.66527">
        <ele>1994.236</ele>
        <time>2010-07-04T07:18:40Z</time>
      </trkpt>
      <trkpt lat="44.83668" lon="6.66544">
        <ele>1998.447</ele>
        <time>2010-07-04T07:18:49Z</time>
      </trkpt>
      <trkpt lat="44.83677" lon="6.6656">
        <ele>2001.766</ele>
        <time>2010-07-04T07:18:58Z</time>
      </trkpt>
      <trkpt lat="44.83688" lon="6.66575">
        <ele>2002.456</ele>
        <time>2010-07-04T07:19:07Z</time>
      </trkpt>
      <trkpt lat="44.83698" lon="6.66585">
        <ele>2003.616</ele>
        <time>2010-07-04T07:19:15Z</time>
      </trkpt>
      <trkpt lat="44.83698" lon="6.66597">
        <ele>2005.216</ele>
        <time>2010-07-04T07:19:21Z</time>
      </trkpt>
      <trkpt lat="44.83691" lon="6.66613">
        <ele>2008.237</ele>
        <time>2010-07-04T07:19:30Z</time>
      </trkpt>
      <trkpt lat="44.83687" lon="6.6663">
        <ele>2009.776</ele>
        <time>2010-07-04T07:19:38Z</time>
      </trkpt>
      <trkpt lat="44.83678" lon="6.66633">
        <ele>2009.215</ele>
        <time>2010-07-04T07:19:44Z</time>
      </trkpt>
      <trkpt lat="44.83667" lon="6.66633">
        <ele>2011.556</ele>
        <time>2010-07-04T07:19:51Z</time>
      </trkpt>
      <trkpt lat="44.83657" lon="6.66639">
        <ele>2011.414</ele>
        <time>2010-07-04T07:19:57Z</time>
      </trkpt>
      <trkpt lat="44.83643" lon="6.6665">
        <ele>2010.664</ele>
        <time>2010-07-04T07:20:05Z</time>
      </trkpt>
      <trkpt lat="44.83628" lon="6.66663">
        <ele>2013.495</ele>
        <time>2010-07-04T07:20:14Z</time>
      </trkpt>
      <trkpt lat="44.83618" lon="6.66671">
        <ele>2013.854</ele>
        <time>2010-07-04T07:20:21Z</time>
      </trkpt>
      <trkpt lat="44.83611" lon="6.66687">
        <ele>2017.987</ele>
        <time>2010-07-04T07:20:29Z</time>
      </trkpt>
      <trkpt lat="44.83606" lon="6.66704">
        <ele>2018.546</ele>
        <time>2010-07-04T07:20:36Z</time>
      </trkpt>
      <trkpt lat="44.83601" lon="6.66721">
        <ele>2019.665</ele>
        <time>2010-07-04T07:20:43Z</time>
      </trkpt>
      <trkpt lat="44.83594" lon="6.6673">
        <ele>2019.705</ele>
        <time>2010-07-04T07:20:49Z</time>
      </trkpt>
      <trkpt lat="44.83582" lon="6.66745">
        <ele>2022.445</ele>
        <time>2010-07-04T07:20:58Z</time>
      </trkpt>
      <trkpt lat="44.83577" lon="6.66759">
        <ele>2024.296</ele>
        <time>2010-07-04T07:21:05Z</time>
      </trkpt>
      <trkpt lat="44.83567" lon="6.66774">
        <ele>2023.124</ele>
        <time>2010-07-04T07:21:13Z</time>
      </trkpt>
      <trkpt lat="44.83553" lon="6.66784">
        <ele>2023.855</ele>
        <time>2010-07-04T07:21:21Z</time>
      </trkpt>
      <trkpt lat="44.83546" lon="6.668">
        <ele>2026.067</ele>
        <time>2010-07-04T07:21:28Z</time>
      </trkpt>
      <trkpt lat="44.8354" lon="6.66821">
        <ele>2027.935</ele>
        <time>2010-07-04T07:21:36Z</time>
      </trkpt>
      <trkpt lat="44.83534" lon="6.66839">
        <ele>2033.336</ele>
        <time>2010-07-04T07:21:44Z</time>
      </trkpt>
      <trkpt lat="44.83529" lon="6.66863">
        <ele>2033.604</ele>
        <time>2010-07-04T07:21:53Z</time>
      </trkpt>
      <trkpt lat="44.8352" lon="6.66883">
        <ele>2036.656</ele>
        <time>2010-07-04T07:22:02Z</time>
      </trkpt>
      <trkpt lat="44.83509" lon="6.66899">
        <ele>2037.776</ele>
        <time>2010-07-04T07:22:11Z</time>
      </trkpt>
      <trkpt lat="44.83499" lon="6.66915">
        <ele>2039.485</ele>
        <time>2010-07-04T07:22:20Z</time>
      </trkpt>
      <trkpt lat="44.8349" lon="6.66926">
        <ele>2041.115</ele>
        <time>2010-07-04T07:22:27Z</time>
      </trkpt>
      <trkpt lat="44.83479" lon="6.66937">
        <ele>2043.587</ele>
        <time>2010-07-04T07:22:35Z</time>
      </trkpt>
      <trkpt lat="44.83465" lon="6.66944">
        <ele>2046.316</ele>
        <time>2010-07-04T07:22:44Z</time>
      </trkpt>
      <trkpt lat="44.83455" lon="6.66947">
        <ele>2047.046</ele>
        <time>2010-07-04T07:22:50Z</time>
      </trkpt>
      <trkpt lat="44.83443" lon="6.66954">
        <ele>2049.165</ele>
        <time>2010-07-04T07:22:57Z</time>
      </trkpt>
      <trkpt lat="44.83434" lon="6.66969">
        <ele>2048.344</ele>
        <time>2010-07-04T07:23:04Z</time>
      </trkpt>
      <trkpt lat="44.83423" lon="6.66977">
        <ele>2049.635</ele>
        <time>2010-07-04T07:23:10Z</time>
      </trkpt>
      <trkpt lat="44.83412" lon="6.66979">
        <ele>2051.196</ele>
        <time>2010-07-04T07:23:16Z</time>
      </trkpt>
      <trkpt lat="44.834" lon="6.66986">
        <ele>2050.795</ele>
        <time>2010-07-04T07:23:23Z</time>
      </trkpt>
      <trkpt lat="44.83386" lon="6.67003">
        <ele>2051.414</ele>
        <time>2010-07-04T07:23:32Z</time>
      </trkpt>
      <trkpt lat="44.83376" lon="6.6702">
        <ele>2054.68</ele>
        <time>2010-07-04T07:23:40Z</time>
      </trkpt>
      <trkpt lat="44.83371" lon="6.67034">
        <ele>2055.495</ele>
        <time>2010-07-04T07:23:46Z</time>
      </trkpt>
      <trkpt lat="44.83362" lon="6.67047">
        <ele>2055.834</ele>
        <time>2010-07-04T07:23:53Z</time>
      </trkpt>
      <trkpt lat="44.83349" lon="6.67055">
        <ele>2055.394</ele>
        <time>2010-07-04T07:24:00Z</time>
      </trkpt>
      <trkpt lat="44.83338" lon="6.67065">
        <ele>2058.797</ele>
        <time>2010-07-04T07:24:08Z</time>
      </trkpt>
      <trkpt lat="44.83326" lon="6.67075">
        <ele>2061.305</ele>
        <time>2010-07-04T07:24:16Z</time>
      </trkpt>
      <trkpt lat="44.83312" lon="6.6708">
        <ele>2063.566</ele>
        <time>2010-07-04T07:24:24Z</time>
      </trkpt>
      <trkpt lat="44.83301" lon="6.67088">
        <ele>2066.11</ele>
        <time>2010-07-04T07:24:31Z</time>
      </trkpt>
      <trkpt lat="44.83285" lon="6.671">
        <ele>2068.476</ele>
        <time>2010-07-04T07:24:39Z</time>
      </trkpt>
      <trkpt lat="44.8327" lon="6.67107">
        <ele>2070.927</ele>
        <time>2010-07-04T07:24:47Z</time>
      </trkpt>
      <trkpt lat="44.83258" lon="6.67111">
        <ele>2072.876</ele>
        <time>2010-07-04T07:24:53Z</time>
      </trkpt>
      <trkpt lat="44.83245" lon="6.67119">
        <ele>2076.798</ele>
        <time>2010-07-04T07:25:00Z</time>
      </trkpt>
      <trkpt lat="44.83233" lon="6.6713">
        <ele>2079.217</ele>
        <time>2010-07-04T07:25:06Z</time>
      </trkpt>
      <trkpt lat="44.83222" lon="6.67146">
        <ele>2078.465</ele>
        <time>2010-07-04T07:25:13Z</time>
      </trkpt>
      <trkpt lat="44.83208" lon="6.67159">
        <ele>2075.644</ele>
        <time>2010-07-04T07:25:21Z</time>
      </trkpt>
      <trkpt lat="44.83194" lon="6.67168">
        <ele>2075.454</ele>
        <time>2010-07-04T07:25:27Z</time>
      </trkpt>
      <trkpt lat="44.83181" lon="6.67178">
        <ele>2076.314</ele>
        <time>2010-07-04T07:25:34Z</time>
      </trkpt>
      <trkpt lat="44.83163" lon="6.67188">
        <ele>2074.384</ele>
        <time>2010-07-04T07:25:43Z</time>
      </trkpt>
      <trkpt lat="44.83147" lon="6.67198">
        <ele>2074.735</ele>
        <time>2010-07-04T07:25:51Z</time>
      </trkpt>
      <trkpt lat="44.83136" lon="6.67205">
        <ele>2074.244</ele>
        <time>2010-07-04T07:25:57Z</time>
      </trkpt>
      <trkpt lat="44.8312" lon="6.6722">
        <ele>2077.745</ele>
        <time>2010-07-04T07:26:06Z</time>
      </trkpt>
      <trkpt lat="44.83107" lon="6.6723">
        <ele>2078.415</ele>
        <time>2010-07-04T07:26:13Z</time>
      </trkpt>
      <trkpt lat="44.83092" lon="6.6724">
        <ele>2080.676</ele>
        <time>2010-07-04T07:26:21Z</time>
      </trkpt>
      <trkpt lat="44.83083" lon="6.67248">
        <ele>2085.056</ele>
        <time>2010-07-04T07:26:28Z</time>
      </trkpt>
      <trkpt lat="44.83069" lon="6.67255">
        <ele>2086.156</ele>
        <time>2010-07-04T07:26:35Z</time>
      </trkpt>
      <trkpt lat="44.83058" lon="6.67264">
        <ele>2086.685</ele>
        <time>2010-07-04T07:26:42Z</time>
      </trkpt>
      <trkpt lat="44.83042" lon="6.67277">
        <ele>2087.679</ele>
        <time>2010-07-04T07:26:51Z</time>
      </trkpt>
      <trkpt lat="44.83025" lon="6.67289">
        <ele>2088.194</ele>
        <time>2010-07-04T07:27:00Z</time>
      </trkpt>
      <trkpt lat="44.83012" lon="6.67302">
        <ele>2088.534</ele>
        <time>2010-07-04T07:27:08Z</time>
      </trkpt>
      <trkpt lat="44.83" lon="6.67314">
        <ele>2088.474</ele>
        <time>2010-07-04T07:27:16Z</time>
      </trkpt>
      <trkpt lat="44.82984" lon="6.6733">
        <ele>2090.165</ele>
        <time>2010-07-04T07:27:26Z</time>
      </trkpt>
      <trkpt lat="44.82972" lon="6.67342">
        <ele>2092.595</ele>
        <time>2010-07-04T07:27:35Z</time>
      </trkpt>
      <trkpt lat="44.82956" lon="6.67353">
        <ele>2094.345</ele>
        <time>2010-07-04T07:27:44Z</time>
      </trkpt>
      <trkpt lat="44.82941" lon="6.67367">
        <ele>2096.415</ele>
        <time>2010-07-04T07:27:53Z</time>
      </trkpt>
      <trkpt lat="44.82928" lon="6.67386">
        <ele>2098.515</ele>
        <time>2010-07-04T07:28:02Z</time>
      </trkpt>
      <trkpt lat="44.82919" lon="6.67403">
        <ele>2100.194</ele>
        <time>2010-07-04T07:28:08Z</time>
      </trkpt>
      <trkpt lat="44.82905" lon="6.67422">
        <ele>2101.104</ele>
        <time>2010-07-04T07:28:15Z</time>
      </trkpt>
      <trkpt lat="44.82887" lon="6.67439">
        <ele>2101.263</ele>
        <time>2010-07-04T07:28:22Z</time>
      </trkpt>
      <trkpt lat="44.82872" lon="6.67464">
        <ele>2100.722</ele>
        <time>2010-07-04T07:28:28Z</time>
      </trkpt>
      <trkpt lat="44.82859" lon="6.6749">
        <ele>2100.482</ele>
        <time>2010-07-04T07:28:33Z</time>
      </trkpt>
      <trkpt lat="44.82834" lon="6.67526">
        <ele>2100.343</ele>
        <time>2010-07-04T07:28:41Z</time>
      </trkpt>
      <trkpt lat="44.82815" lon="6.67544">
        <ele>2099.842</ele>
        <time>2010-07-04T07:28:46Z</time>
      </trkpt>
      <trkpt lat="44.82803" lon="6.67552">
        <ele>2099.622</ele>
        <time>2010-07-04T07:28:49Z</time>
      </trkpt>
      <trkpt lat="44.8279" lon="6.67566">
        <ele>2099.633</ele>
        <time>2010-07-04T07:28:53Z</time>
      </trkpt>
      <trkpt lat="44.82778" lon="6.6759">
        <ele>2100.374</ele>
        <time>2010-07-04T07:29:00Z</time>
      </trkpt>
      <trkpt lat="44.82765" lon="6.67603">
        <ele>2102.515</ele>
        <time>2010-07-04T07:29:08Z</time>
      </trkpt>
      <trkpt lat="44.82761" lon="6.67616">
        <ele>2104.665</ele>
        <time>2010-07-04T07:29:14Z</time>
      </trkpt>
      <trkpt lat="44.82769" lon="6.67631">
        <ele>2107.266</ele>
        <time>2010-07-04T07:29:21Z</time>
      </trkpt>
      <trkpt lat="44.82782" lon="6.67643">
        <ele>2110.145</ele>
        <time>2010-07-04T07:29:30Z</time>
      </trkpt>
      <trkpt lat="44.82791" lon="6.67654">
        <ele>2111.995</ele>
        <time>2010-07-04T07:29:37Z</time>
      </trkpt>
      <trkpt lat="44.82802" lon="6.67668">
        <ele>2114.085</ele>
        <time>2010-07-04T07:29:46Z</time>
      </trkpt>
      <trkpt lat="44.8281" lon="6.67682">
        <ele>2115.995</ele>
        <time>2010-07-04T07:29:54Z</time>
      </trkpt>
      <trkpt lat="44.82819" lon="6.67697">
        <ele>2117.945</ele>
        <time>2010-07-04T07:30:03Z</time>
      </trkpt>
      <trkpt lat="44.8283" lon="6.67705">
        <ele>2119.725</ele>
        <time>2010-07-04T07:30:11Z</time>
      </trkpt>
      <trkpt lat="44.82836" lon="6.67718">
        <ele>2120.545</ele>
        <time>2010-07-04T07:30:18Z</time>
      </trkpt>
      <trkpt lat="44.82829" lon="6.67728">
        <ele>2121.035</ele>
        <time>2010-07-04T07:30:24Z</time>
      </trkpt>
      <trkpt lat="44.82814" lon="6.67735">
        <ele>2121.675</ele>
        <time>2010-07-04T07:30:33Z</time>
      </trkpt>
      <trkpt lat="44.82796" lon="6.67738">
        <ele>2123.015</ele>
        <time>2010-07-04T07:30:43Z</time>
      </trkpt>
      <trkpt lat="44.82781" lon="6.67744">
        <ele>2125.736</ele>
        <time>2010-07-04T07:30:52Z</time>
      </trkpt>
      <trkpt lat="44.82769" lon="6.67749">
        <ele>2125.265</ele>
        <time>2010-07-04T07:30:59Z</time>
      </trkpt>
      <trkpt lat="44.82755" lon="6.67753">
        <ele>2126.045</ele>
        <time>2010-07-04T07:31:07Z</time>
      </trkpt>
      <trkpt lat="44.8274" lon="6.67761">
        <ele>2127.355</ele>
        <time>2010-07-04T07:31:15Z</time>
      </trkpt>
      <trkpt lat="44.82727" lon="6.67767">
        <ele>2128.435</ele>
        <time>2010-07-04T07:31:22Z</time>
      </trkpt>
      <trkpt lat="44.82712" lon="6.67776">
        <ele>2131.616</ele>
        <time>2010-07-04T07:31:30Z</time>
      </trkpt>
      <trkpt lat="44.82698" lon="6.67783">
        <ele>2132.165</ele>
        <time>2010-07-04T07:31:38Z</time>
      </trkpt>
      <trkpt lat="44.82681" lon="6.6779">
        <ele>2132.585</ele>
        <time>2010-07-04T07:31:47Z</time>
      </trkpt>
      <trkpt lat="44.82668" lon="6.67796">
        <ele>2134.525</ele>
        <time>2010-07-04T07:31:55Z</time>
      </trkpt>
      <trkpt lat="44.82657" lon="6.67804">
        <ele>2136.385</ele>
        <time>2010-07-04T07:32:02Z</time>
      </trkpt>
      <trkpt lat="44.82646" lon="6.67806">
        <ele>2137.275</ele>
        <time>2010-07-04T07:32:09Z</time>
      </trkpt>
      <trkpt lat="44.82625" lon="6.67811">
        <ele>2138.304</ele>
        <time>2010-07-04T07:32:21Z</time>
      </trkpt>
      <trkpt lat="44.82608" lon="6.67818">
        <ele>2139.294</ele>
        <time>2010-07-04T07:32:31Z</time>
      </trkpt>
      <trkpt lat="44.82593" lon="6.67822">
        <ele>2140.765</ele>
        <time>2010-07-04T07:32:40Z</time>
      </trkpt>
      <trkpt lat="44.82579" lon="6.67816">
        <ele>2142.675</ele>
        <time>2010-07-04T07:32:49Z</time>
      </trkpt>
      <trkpt lat="44.82568" lon="6.67814">
        <ele>2144.415</ele>
        <time>2010-07-04T07:32:56Z</time>
      </trkpt>
      <trkpt lat="44.82561" lon="6.67822">
        <ele>2145.235</ele>
        <time>2010-07-04T07:33:02Z</time>
      </trkpt>
      <trkpt lat="44.82559" lon="6.67836">
        <ele>2147.215</ele>
        <time>2010-07-04T07:33:09Z</time>
      </trkpt>
      <trkpt lat="44.82556" lon="6.6785">
        <ele>2149.635</ele>
        <time>2010-07-04T07:33:16Z</time>
      </trkpt>
      <trkpt lat="44.82546" lon="6.67855">
        <ele>2152.295</ele>
        <time>2010-07-04T07:33:23Z</time>
      </trkpt>
      <trkpt lat="44.8253" lon="6.67847">
        <ele>2154.214</ele>
        <time>2010-07-04T07:33:33Z</time>
      </trkpt>
      <trkpt lat="44.82519" lon="6.67833">
        <ele>2156.765</ele>
        <time>2010-07-04T07:33:42Z</time>
      </trkpt>
      <trkpt lat="44.82512" lon="6.67827">
        <ele>2157.895</ele>
        <time>2010-07-04T07:33:47Z</time>
      </trkpt>
      <trkpt lat="44.82498" lon="6.67837">
        <ele>2158.644</ele>
        <time>2010-07-04T07:33:56Z</time>
      </trkpt>
      <trkpt lat="44.82494" lon="6.67854">
        <ele>2160.636</ele>
        <time>2010-07-04T07:34:04Z</time>
      </trkpt>
      <trkpt lat="44.82488" lon="6.67867">
        <ele>2163.095</ele>
        <time>2010-07-04T07:34:11Z</time>
      </trkpt>
      <trkpt lat="44.82476" lon="6.67869">
        <ele>2164.324</ele>
        <time>2010-07-04T07:34:18Z</time>
      </trkpt>
      <trkpt lat="44.82465" lon="6.6786">
        <ele>2165.254</ele>
        <time>2010-07-04T07:34:26Z</time>
      </trkpt>
      <trkpt lat="44.82454" lon="6.67853">
        <ele>2166.865</ele>
        <time>2010-07-04T07:34:33Z</time>
      </trkpt>
      <trkpt lat="44.8244" lon="6.67854">
        <ele>2168.125</ele>
        <time>2010-07-04T07:34:42Z</time>
      </trkpt>
      <trkpt lat="44.82432" lon="6.67866">
        <ele>2169.125</ele>
        <time>2010-07-04T07:34:49Z</time>
      </trkpt>
      <trkpt lat="44.82422" lon="6.6788">
        <ele>2171.225</ele>
        <time>2010-07-04T07:34:58Z</time>
      </trkpt>
      <trkpt lat="44.82413" lon="6.67873">
        <ele>2171.984</ele>
        <time>2010-07-04T07:35:04Z</time>
      </trkpt>
      <trkpt lat="44.82402" lon="6.67856">
        <ele>2173.034</ele>
        <time>2010-07-04T07:35:14Z</time>
      </trkpt>
      <trkpt lat="44.82393" lon="6.67854">
        <ele>2173.634</ele>
        <time>2010-07-04T07:35:19Z</time>
      </trkpt>
      <trkpt lat="44.82386" lon="6.67869">
        <ele>2175.525</ele>
        <time>2010-07-04T07:35:27Z</time>
      </trkpt>
      <trkpt lat="44.82389" lon="6.67889">
        <ele>2177.705</ele>
        <time>2010-07-04T07:35:35Z</time>
      </trkpt>
      <trkpt lat="44.82395" lon="6.67907">
        <ele>2179.455</ele>
        <time>2010-07-04T07:35:44Z</time>
      </trkpt>
      <trkpt lat="44.824" lon="6.67926">
        <ele>2180.094</ele>
        <time>2010-07-04T07:35:52Z</time>
      </trkpt>
      <trkpt lat="44.82398" lon="6.67943">
        <ele>2180.894</ele>
        <time>2010-07-04T07:35:59Z</time>
      </trkpt>
      <trkpt lat="44.8239" lon="6.67959">
        <ele>2181.215</ele>
        <time>2010-07-04T07:36:07Z</time>
      </trkpt>
      <trkpt lat="44.82379" lon="6.67961">
        <ele>2182.115</ele>
        <time>2010-07-04T07:36:14Z</time>
      </trkpt>
      <trkpt lat="44.82365" lon="6.67954">
        <ele>2183.525</ele>
        <time>2010-07-04T07:36:23Z</time>
      </trkpt>
      <trkpt lat="44.82348" lon="6.67946">
        <ele>2185.505</ele>
        <time>2010-07-04T07:36:33Z</time>
      </trkpt>
      <trkpt lat="44.82328" lon="6.67942">
        <ele>2187.455</ele>
        <time>2010-07-04T07:36:43Z</time>
      </trkpt>
      <trkpt lat="44.82308" lon="6.67945">
        <ele>2189.865</ele>
        <time>2010-07-04T07:36:54Z</time>
      </trkpt>
      <trkpt lat="44.82299" lon="6.67948">
        <ele>2191.535</ele>
        <time>2010-07-04T07:37:00Z</time>
      </trkpt>
      <trkpt lat="44.82281" lon="6.67951">
        <ele>2192.824</ele>
        <time>2010-07-04T07:37:10Z</time>
      </trkpt>
      <trkpt lat="44.82266" lon="6.67957">
        <ele>2193.994</ele>
        <time>2010-07-04T07:37:19Z</time>
      </trkpt>
      <trkpt lat="44.82251" lon="6.67965">
        <ele>2195.654</ele>
        <time>2010-07-04T07:37:28Z</time>
      </trkpt>
      <trkpt lat="44.82236" lon="6.6798">
        <ele>2197.154</ele>
        <time>2010-07-04T07:37:38Z</time>
      </trkpt>
      <trkpt lat="44.8222" lon="6.67991">
        <ele>2198.904</ele>
        <time>2010-07-04T07:37:48Z</time>
      </trkpt>
      <trkpt lat="44.82208" lon="6.67999">
        <ele>2200.384</ele>
        <time>2010-07-04T07:37:56Z</time>
      </trkpt>
      <trkpt lat="44.82196" lon="6.68007">
        <ele>2201.934</ele>
        <time>2010-07-04T07:38:04Z</time>
      </trkpt>
      <trkpt lat="44.82184" lon="6.68007">
        <ele>2203.685</ele>
        <time>2010-07-04T07:38:11Z</time>
      </trkpt>
      <trkpt lat="44.82171" lon="6.68002">
        <ele>2205.414</ele>
        <time>2010-07-04T07:38:19Z</time>
      </trkpt>
      <trkpt lat="44.82156" lon="6.67998">
        <ele>2207.875</ele>
        <time>2010-07-04T07:38:28Z</time>
      </trkpt>
      <trkpt lat="44.82141" lon="6.67994">
        <ele>2210.154</ele>
        <time>2010-07-04T07:38:37Z</time>
      </trkpt>
      <trkpt lat="44.82128" lon="6.67993">
        <ele>2212.155</ele>
        <time>2010-07-04T07:38:45Z</time>
      </trkpt>
      <trkpt lat="44.82111" lon="6.67996">
        <ele>2213.894</ele>
        <time>2010-07-04T07:38:55Z</time>
      </trkpt>
      <trkpt lat="44.82097" lon="6.68005">
        <ele>2215.264</ele>
        <time>2010-07-04T07:39:04Z</time>
      </trkpt>
      <trkpt lat="44.82085" lon="6.6801">
        <ele>2216.675</ele>
        <time>2010-07-04T07:39:12Z</time>
      </trkpt>
      <trkpt lat="44.82075" lon="6.68019">
        <ele>2217.814</ele>
        <time>2010-07-04T07:39:19Z</time>
      </trkpt>
      <trkpt lat="44.82063" lon="6.68024">
        <ele>2219.144</ele>
        <time>2010-07-04T07:39:27Z</time>
      </trkpt>
      <trkpt lat="44.82055" lon="6.6801">
        <ele>2220.244</ele>
        <time>2010-07-04T07:39:34Z</time>
      </trkpt>
      <trkpt lat="44.82045" lon="6.68004">
        <ele>2221.334</ele>
        <time>2010-07-04T07:39:40Z</time>
      </trkpt>
      <trkpt lat="44.8203" lon="6.68002">
        <ele>2222.833</ele>
        <time>2010-07-04T07:39:49Z</time>
      </trkpt>
      <trkpt lat="44.82019" lon="6.68004">
        <ele>2221.753</ele>
        <time>2010-07-04T07:39:57Z</time>
      </trkpt>
      <trkpt lat="44.8202" lon="6.68004">
        <ele>2221.352</ele>
        <time>2010-07-04T07:40:02Z</time>
      </trkpt>
      <trkpt lat="44.8202" lon="6.67997">
        <ele>2222.183</ele>
        <time>2010-07-04T07:40:09Z</time>
      </trkpt>
      <trkpt lat="44.82018" lon="6.67999">
        <ele>2218.712</ele>
        <time>2010-07-04T07:40:45Z</time>
      </trkpt>
      <trkpt lat="44.82018" lon="6.68">
        <ele>2216.792</ele>
        <time>2010-07-04T07:40:55Z</time>
      </trkpt>
      <trkpt lat="44.82018" lon="6.68001">
        <ele>2215.882</ele>
        <time>2010-07-04T07:41:02Z</time>
      </trkpt>
      <trkpt lat="44.82016" lon="6.68004">
        <ele>2218.093</ele>
        <time>2010-07-04T07:41:48Z</time>
      </trkpt>
      <trkpt lat="44.82016" lon="6.68006">
        <ele>2218.953</ele>
        <time>2010-07-04T07:41:55Z</time>
      </trkpt>
      <trkpt lat="44.82016" lon="6.68006">
        <ele>2221.052</ele>
        <time>2010-07-04T07:42:14Z</time>
      </trkpt>
      <trkpt lat="44.82016" lon="6.68005">
        <ele>2220.842</ele>
        <time>2010-07-04T07:42:22Z</time>
      </trkpt>
      <trkpt lat="44.82006" lon="6.68008">
        <ele>2221.744</ele>
        <time>2010-07-04T07:42:30Z</time>
      </trkpt>
      <trkpt lat="44.81996" lon="6.68008">
        <ele>2222.713</ele>
        <time>2010-07-04T07:42:37Z</time>
      </trkpt>
      <trkpt lat="44.81982" lon="6.67999">
        <ele>2223.594</ele>
        <time>2010-07-04T07:42:47Z</time>
      </trkpt>
      <trkpt lat="44.81977" lon="6.68">
        <ele>2223.954</ele>
        <time>2010-07-04T07:42:50Z</time>
      </trkpt>
      <trkpt lat="44.81972" lon="6.68004">
        <ele>2225.796</ele>
        <time>2010-07-04T07:42:54Z</time>
      </trkpt>
      <trkpt lat="44.81968" lon="6.68007">
        <ele>2227.126</ele>
        <time>2010-07-04T07:42:57Z</time>
      </trkpt>
      <trkpt lat="44.81964" lon="6.68022">
        <ele>2229.505</ele>
        <time>2010-07-04T07:43:05Z</time>
      </trkpt>
      <trkpt lat="44.81965" lon="6.68034">
        <ele>2231.545</ele>
        <time>2010-07-04T07:43:11Z</time>
      </trkpt>
      <trkpt lat="44.81964" lon="6.68045">
        <ele>2232.154</ele>
        <time>2010-07-04T07:43:17Z</time>
      </trkpt>
      <trkpt lat="44.81963" lon="6.68056">
        <ele>2232.803</ele>
        <time>2010-07-04T07:43:23Z</time>
      </trkpt>
      <trkpt lat="44.81954" lon="6.68066">
        <ele>2233.033</ele>
        <time>2010-07-04T07:43:31Z</time>
      </trkpt>
      <trkpt lat="44.81953" lon="6.68067">
        <ele>2233.043</ele>
        <time>2010-07-04T07:43:32Z</time>
      </trkpt>
      <trkpt lat="44.81945" lon="6.68078">
        <ele>2234.715</ele>
        <time>2010-07-04T07:43:39Z</time>
      </trkpt>
      <trkpt lat="44.81938" lon="6.68086">
        <ele>2236.426</ele>
        <time>2010-07-04T07:43:45Z</time>
      </trkpt>
      <trkpt lat="44.81925" lon="6.68098">
        <ele>2238.974</ele>
        <time>2010-07-04T07:43:56Z</time>
      </trkpt>
      <trkpt lat="44.81917" lon="6.68104">
        <ele>2240.054</ele>
        <time>2010-07-04T07:44:03Z</time>
      </trkpt>
      <trkpt lat="44.81909" lon="6.6811">
        <ele>2241.445</ele>
        <time>2010-07-04T07:44:10Z</time>
      </trkpt>
      <trkpt lat="44.81903" lon="6.68122">
        <ele>2243.505</ele>
        <time>2010-07-04T07:44:17Z</time>
      </trkpt>
      <trkpt lat="44.81903" lon="6.68129">
        <ele>2243.955</ele>
        <time>2010-07-04T07:44:21Z</time>
      </trkpt>
      <trkpt lat="44.81902" lon="6.68146">
        <ele>2246.215</ele>
        <time>2010-07-04T07:44:30Z</time>
      </trkpt>
      <trkpt lat="44.81898" lon="6.68156">
        <ele>2247.584</ele>
        <time>2010-07-04T07:44:37Z</time>
      </trkpt>
      <trkpt lat="44.81892" lon="6.68163">
        <ele>2248.335</ele>
        <time>2010-07-04T07:44:42Z</time>
      </trkpt>
      <trkpt lat="44.81882" lon="6.68176">
        <ele>2251.005</ele>
        <time>2010-07-04T07:44:52Z</time>
      </trkpt>
      <trkpt lat="44.81877" lon="6.68184">
        <ele>2252.534</ele>
        <time>2010-07-04T07:44:59Z</time>
      </trkpt>
      <trkpt lat="44.81869" lon="6.6819">
        <ele>2253.464</ele>
        <time>2010-07-04T07:45:05Z</time>
      </trkpt>
      <trkpt lat="44.81864" lon="6.68193">
        <ele>2254.274</ele>
        <time>2010-07-04T07:45:10Z</time>
      </trkpt>
      <trkpt lat="44.81863" lon="6.68193">
        <ele>2254.493</ele>
        <time>2010-07-04T07:45:17Z</time>
      </trkpt>
      <trkpt lat="44.8186" lon="6.68194">
        <ele>2256.373</ele>
        <time>2010-07-04T07:45:32Z</time>
      </trkpt>
      <trkpt lat="44.81856" lon="6.68197">
        <ele>2257.764</ele>
        <time>2010-07-04T07:45:41Z</time>
      </trkpt>
      <trkpt lat="44.8185" lon="6.68199">
        <ele>2259.634</ele>
        <time>2010-07-04T07:45:50Z</time>
      </trkpt>
      <trkpt lat="44.81847" lon="6.682">
        <ele>2260.654</ele>
        <time>2010-07-04T07:45:58Z</time>
      </trkpt>
      <trkpt lat="44.81843" lon="6.68205">
        <ele>2260.764</ele>
        <time>2010-07-04T07:46:06Z</time>
      </trkpt>
      <trkpt lat="44.8184" lon="6.68205">
        <ele>2261.615</ele>
        <time>2010-07-04T07:46:13Z</time>
      </trkpt>
      <trkpt lat="44.81836" lon="6.68206">
        <ele>2263.174</ele>
        <time>2010-07-04T07:46:22Z</time>
      </trkpt>
      <trkpt lat="44.81833" lon="6.68208">
        <ele>2263.394</ele>
        <time>2010-07-04T07:46:29Z</time>
      </trkpt>
      <trkpt lat="44.8183" lon="6.6821">
        <ele>2262.574</ele>
        <time>2010-07-04T07:46:36Z</time>
      </trkpt>
      <trkpt lat="44.81825" lon="6.68213">
        <ele>2263.354</ele>
        <time>2010-07-04T07:46:45Z</time>
      </trkpt>
      <trkpt lat="44.81823" lon="6.68215">
        <ele>2263.493</ele>
        <time>2010-07-04T07:46:52Z</time>
      </trkpt>
      <trkpt lat="44.8182" lon="6.68217">
        <ele>2263.904</ele>
        <time>2010-07-04T07:47:00Z</time>
      </trkpt>
      <trkpt lat="44.81814" lon="6.68221">
        <ele>2264.834</ele>
        <time>2010-07-04T07:47:09Z</time>
      </trkpt>
      <trkpt lat="44.81809" lon="6.68225">
        <ele>2265.904</ele>
        <time>2010-07-04T07:47:18Z</time>
      </trkpt>
      <trkpt lat="44.81806" lon="6.68227">
        <ele>2268.724</ele>
        <time>2010-07-04T07:47:26Z</time>
      </trkpt>
      <trkpt lat="44.81802" lon="6.68228">
        <ele>2270.884</ele>
        <time>2010-07-04T07:47:34Z</time>
      </trkpt>
      <trkpt lat="44.81798" lon="6.68231">
        <ele>2271.844</ele>
        <time>2010-07-04T07:47:43Z</time>
      </trkpt>
      <trkpt lat="44.81795" lon="6.68234">
        <ele>2272.223</ele>
        <time>2010-07-04T07:47:52Z</time>
      </trkpt>
      <trkpt lat="44.81792" lon="6.68236">
        <ele>2272.773</ele>
        <time>2010-07-04T07:48:00Z</time>
      </trkpt>
      <trkpt lat="44.8179" lon="6.68238">
        <ele>2272.643</ele>
        <time>2010-07-04T07:48:06Z</time>
      </trkpt>
      <trkpt lat="44.81786" lon="6.6824">
        <ele>2273.073</ele>
        <time>2010-07-04T07:48:14Z</time>
      </trkpt>
      <trkpt lat="44.81782" lon="6.68242">
        <ele>2273.613</ele>
        <time>2010-07-04T07:48:23Z</time>
      </trkpt>
      <trkpt lat="44.81779" lon="6.68246">
        <ele>2274.334</ele>
        <time>2010-07-04T07:48:31Z</time>
      </trkpt>
      <trkpt lat="44.81776" lon="6.6825">
        <ele>2275.454</ele>
        <time>2010-07-04T07:48:40Z</time>
      </trkpt>
      <trkpt lat="44.81773" lon="6.68254">
        <ele>2276.634</ele>
        <time>2010-07-04T07:48:48Z</time>
      </trkpt>
      <trkpt lat="44.8177" lon="6.68257">
        <ele>2279.164</ele>
        <time>2010-07-04T07:48:56Z</time>
      </trkpt>
      <trkpt lat="44.81769" lon="6.68257">
        <ele>2277.483</ele>
        <time>2010-07-04T07:49:18Z</time>
      </trkpt>
      <trkpt lat="44.81761" lon="6.68267">
        <ele>2278.083</ele>
        <time>2010-07-04T07:49:24Z</time>
      </trkpt>
      <trkpt lat="44.81752" lon="6.68278">
        <ele>2278.924</ele>
        <time>2010-07-04T07:49:31Z</time>
      </trkpt>
      <trkpt lat="44.81747" lon="6.6829">
        <ele>2280.415</ele>
        <time>2010-07-04T07:49:37Z</time>
      </trkpt>
      <trkpt lat="44.81742" lon="6.68305">
        <ele>2281.234</ele>
        <time>2010-07-04T07:49:44Z</time>
      </trkpt>
      <trkpt lat="44.81736" lon="6.68323">
        <ele>2281.654</ele>
        <time>2010-07-04T07:49:53Z</time>
      </trkpt>
      <trkpt lat="44.8173" lon="6.6834">
        <ele>2284.295</ele>
        <time>2010-07-04T07:50:01Z</time>
      </trkpt>
      <trkpt lat="44.81726" lon="6.6835">
        <ele>2286.595</ele>
        <time>2010-07-04T07:50:07Z</time>
      </trkpt>
      <trkpt lat="44.81722" lon="6.68365">
        <ele>2288.734</ele>
        <time>2010-07-04T07:50:15Z</time>
      </trkpt>
      <trkpt lat="44.81718" lon="6.68374">
        <ele>2289.613</ele>
        <time>2010-07-04T07:50:23Z</time>
      </trkpt>
      <trkpt lat="44.81717" lon="6.68374">
        <ele>2293.034</ele>
        <time>2010-07-04T07:50:38Z</time>
      </trkpt>
      <trkpt lat="44.81716" lon="6.68377">
        <ele>2295.494</ele>
        <time>2010-07-04T07:50:45Z</time>
      </trkpt>
      <trkpt lat="44.81714" lon="6.68381">
        <ele>2295.403</ele>
        <time>2010-07-04T07:50:52Z</time>
      </trkpt>
      <trkpt lat="44.81713" lon="6.68388">
        <ele>2294.633</ele>
        <time>2010-07-04T07:51:02Z</time>
      </trkpt>
      <trkpt lat="44.81713" lon="6.68391">
        <ele>2294.013</ele>
        <time>2010-07-04T07:51:09Z</time>
      </trkpt>
      <trkpt lat="44.81713" lon="6.68396">
        <ele>2292.843</ele>
        <time>2010-07-04T07:51:17Z</time>
      </trkpt>
      <trkpt lat="44.81713" lon="6.68403">
        <ele>2293.042</ele>
        <time>2010-07-04T07:51:28Z</time>
      </trkpt>
      <trkpt lat="44.81711" lon="6.6841">
        <ele>2293.894</ele>
        <time>2010-07-04T07:51:38Z</time>
      </trkpt>
      <trkpt lat="44.81711" lon="6.68414">
        <ele>2294.413</ele>
        <time>2010-07-04T07:51:45Z</time>
      </trkpt>
      <trkpt lat="44.81709" lon="6.68418">
        <ele>2295.643</ele>
        <time>2010-07-04T07:51:52Z</time>
      </trkpt>
      <trkpt lat="44.81707" lon="6.68425">
        <ele>2295.593</ele>
        <time>2010-07-04T07:52:01Z</time>
      </trkpt>
      <trkpt lat="44.81703" lon="6.68429">
        <ele>2297.753</ele>
        <time>2010-07-04T07:52:09Z</time>
      </trkpt>
      <trkpt lat="44.81699" lon="6.68431">
        <ele>2300.853</ele>
        <time>2010-07-04T07:52:17Z</time>
      </trkpt>
      <trkpt lat="44.81695" lon="6.68434">
        <ele>2304.244</ele>
        <time>2010-07-04T07:52:25Z</time>
      </trkpt>
      <trkpt lat="44.81693" lon="6.68437">
        <ele>2306.584</ele>
        <time>2010-07-04T07:52:32Z</time>
      </trkpt>
      <trkpt lat="44.81689" lon="6.68438">
        <ele>2309.594</ele>
        <time>2010-07-04T07:52:40Z</time>
      </trkpt>
      <trkpt lat="44.81684" lon="6.68437">
        <ele>2312.054</ele>
        <time>2010-07-04T07:52:49Z</time>
      </trkpt>
      <trkpt lat="44.8168" lon="6.68438">
        <ele>2313.574</ele>
        <time>2010-07-04T07:52:56Z</time>
      </trkpt>
      <trkpt lat="44.81676" lon="6.68439">
        <ele>2314.804</ele>
        <time>2010-07-04T07:53:03Z</time>
      </trkpt>
      <trkpt lat="44.81672" lon="6.68445">
        <ele>2313.673</ele>
        <time>2010-07-04T07:53:12Z</time>
      </trkpt>
      <trkpt lat="44.81669" lon="6.68452">
        <ele>2313.243</ele>
        <time>2010-07-04T07:53:23Z</time>
      </trkpt>
      <trkpt lat="44.81665" lon="6.68458">
        <ele>2314.773</ele>
        <time>2010-07-04T07:53:34Z</time>
      </trkpt>
      <trkpt lat="44.81661" lon="6.68463">
        <ele>2316.743</ele>
        <time>2010-07-04T07:53:44Z</time>
      </trkpt>
      <trkpt lat="44.81658" lon="6.68469">
        <ele>2316.323</ele>
        <time>2010-07-04T07:53:52Z</time>
      </trkpt>
      <trkpt lat="44.81657" lon="6.68475">
        <ele>2317.863</ele>
        <time>2010-07-04T07:54:00Z</time>
      </trkpt>
      <trkpt lat="44.81657" lon="6.68474">
        <ele>2320.323</ele>
        <time>2010-07-04T07:54:11Z</time>
      </trkpt>
      <trkpt lat="44.81656" lon="6.68474">
        <ele>2320.693</ele>
        <time>2010-07-04T07:54:14Z</time>
      </trkpt>
      <trkpt lat="44.81654" lon="6.68479">
        <ele>2321.604</ele>
        <time>2010-07-04T07:54:18Z</time>
      </trkpt>
      <trkpt lat="44.81643" lon="6.68486">
        <ele>2324.314</ele>
        <time>2010-07-04T07:54:26Z</time>
      </trkpt>
      <trkpt lat="44.81638" lon="6.68497">
        <ele>2326.254</ele>
        <time>2010-07-04T07:54:33Z</time>
      </trkpt>
      <trkpt lat="44.81636" lon="6.68513">
        <ele>2327.804</ele>
        <time>2010-07-04T07:54:42Z</time>
      </trkpt>
      <trkpt lat="44.81631" lon="6.68525">
        <ele>2329.014</ele>
        <time>2010-07-04T07:54:50Z</time>
      </trkpt>
      <trkpt lat="44.81627" lon="6.68528">
        <ele>2329.344</ele>
        <time>2010-07-04T07:54:53Z</time>
      </trkpt>
      <trkpt lat="44.81627" lon="6.68533">
        <ele>2329.564</ele>
        <time>2010-07-04T07:54:56Z</time>
      </trkpt>
      <trkpt lat="44.81635" lon="6.68536">
        <ele>2330.804</ele>
        <time>2010-07-04T07:55:02Z</time>
      </trkpt>
      <trkpt lat="44.81636" lon="6.6854">
        <ele>2331.554</ele>
        <time>2010-07-04T07:55:06Z</time>
      </trkpt>
      <trkpt lat="44.81638" lon="6.68544">
        <ele>2332.993</ele>
        <time>2010-07-04T07:55:13Z</time>
      </trkpt>
      <trkpt lat="44.81638" lon="6.68552">
        <ele>2335.114</ele>
        <time>2010-07-04T07:55:23Z</time>
      </trkpt>
      <trkpt lat="44.81636" lon="6.68561">
        <ele>2336.143</ele>
        <time>2010-07-04T07:55:33Z</time>
      </trkpt>
      <trkpt lat="44.81633" lon="6.68569">
        <ele>2334.132</ele>
        <time>2010-07-04T07:55:41Z</time>
      </trkpt>
      <trkpt lat="44.81632" lon="6.68568">
        <ele>2337.164</ele>
        <time>2010-07-04T07:55:49Z</time>
      </trkpt>
      <trkpt lat="44.81632" lon="6.6857">
        <ele>2338.093</ele>
        <time>2010-07-04T07:55:57Z</time>
      </trkpt>
      <trkpt lat="44.81628" lon="6.68586">
        <ele>2338.594</ele>
        <time>2010-07-04T07:56:06Z</time>
      </trkpt>
      <trkpt lat="44.81624" lon="6.68602">
        <ele>2340.524</ele>
        <time>2010-07-04T07:56:15Z</time>
      </trkpt>
      <trkpt lat="44.81623" lon="6.68611">
        <ele>2340.273</ele>
        <time>2010-07-04T07:56:21Z</time>
      </trkpt>
      <trkpt lat="44.81623" lon="6.68608">
        <ele>2344.433</ele>
        <time>2010-07-04T07:56:29Z</time>
      </trkpt>
      <trkpt lat="44.81622" lon="6.68615">
        <ele>2346.004</ele>
        <time>2010-07-04T07:56:37Z</time>
      </trkpt>
      <trkpt lat="44.8162" lon="6.68621">
        <ele>2346.703</ele>
        <time>2010-07-04T07:56:44Z</time>
      </trkpt>
      <trkpt lat="44.81619" lon="6.68628">
        <ele>2346.273</ele>
        <time>2010-07-04T07:56:50Z</time>
      </trkpt>
      <trkpt lat="44.81615" lon="6.6864">
        <ele>2344.333</ele>
        <time>2010-07-04T07:57:02Z</time>
      </trkpt>
      <trkpt lat="44.81613" lon="6.68648">
        <ele>2343.003</ele>
        <time>2010-07-04T07:57:11Z</time>
      </trkpt>
      <trkpt lat="44.81611" lon="6.68656">
        <ele>2343.103</ele>
        <time>2010-07-04T07:57:20Z</time>
      </trkpt>
      <trkpt lat="44.81608" lon="6.68664">
        <ele>2343.586</ele>
        <time>2010-07-04T07:57:30Z</time>
      </trkpt>
      <trkpt lat="44.81605" lon="6.68671">
        <ele>2344.313</ele>
        <time>2010-07-04T07:57:40Z</time>
      </trkpt>
      <trkpt lat="44.81603" lon="6.68679">
        <ele>2345.474</ele>
        <time>2010-07-04T07:57:49Z</time>
      </trkpt>
      <trkpt lat="44.816" lon="6.68688">
        <ele>2346.213</ele>
        <time>2010-07-04T07:58:00Z</time>
      </trkpt>
      <trkpt lat="44.81597" lon="6.68696">
        <ele>2344.852</ele>
        <time>2010-07-04T07:58:08Z</time>
      </trkpt>
      <trkpt lat="44.81594" lon="6.68694">
        <ele>2355.726</ele>
        <time>2010-07-04T07:58:14Z</time>
      </trkpt>
      <trkpt lat="44.8159" lon="6.68704">
        <ele>2351.302</ele>
        <time>2010-07-04T07:58:23Z</time>
      </trkpt>
      <trkpt lat="44.81586" lon="6.68716">
        <ele>2344.991</ele>
        <time>2010-07-04T07:58:34Z</time>
      </trkpt>
      <trkpt lat="44.81583" lon="6.68717">
        <ele>2350.524</ele>
        <time>2010-07-04T07:58:42Z</time>
      </trkpt>
      <trkpt lat="44.81582" lon="6.68722">
        <ele>2350.414</ele>
        <time>2010-07-04T07:58:48Z</time>
      </trkpt>
      <trkpt lat="44.8158" lon="6.68725">
        <ele>2351.244</ele>
        <time>2010-07-04T07:58:54Z</time>
      </trkpt>
      <trkpt lat="44.81579" lon="6.68722">
        <ele>2359.378</ele>
        <time>2010-07-04T07:58:59Z</time>
      </trkpt>
      <trkpt lat="44.81578" lon="6.68727">
        <ele>2359.885</ele>
        <time>2010-07-04T07:59:06Z</time>
      </trkpt>
      <trkpt lat="44.81575" lon="6.68732">
        <ele>2361.934</ele>
        <time>2010-07-04T07:59:16Z</time>
      </trkpt>
      <trkpt lat="44.81571" lon="6.68732">
        <ele>2372.467</ele>
        <time>2010-07-04T07:59:25Z</time>
      </trkpt>
      <trkpt lat="44.81569" lon="6.68739">
        <ele>2374.635</ele>
        <time>2010-07-04T07:59:35Z</time>
      </trkpt>
      <trkpt lat="44.81565" lon="6.68748">
        <ele>2369.192</ele>
        <time>2010-07-04T07:59:44Z</time>
      </trkpt>
      <trkpt lat="44.81561" lon="6.68747">
        <ele>2376.546</ele>
        <time>2010-07-04T07:59:52Z</time>
      </trkpt>
      <trkpt lat="44.81558" lon="6.68752">
        <ele>2375.465</ele>
        <time>2010-07-04T07:59:59Z</time>
      </trkpt>
      <trkpt lat="44.81555" lon="6.68752">
        <ele>2379.626</ele>
        <time>2010-07-04T08:00:06Z</time>
      </trkpt>
      <trkpt lat="44.8155" lon="6.68756">
        <ele>2381.484</ele>
        <time>2010-07-04T08:00:15Z</time>
      </trkpt>
      <trkpt lat="44.81548" lon="6.68762">
        <ele>2378.832</ele>
        <time>2010-07-04T08:00:21Z</time>
      </trkpt>
      <trkpt lat="44.81545" lon="6.68766">
        <ele>2376.732</ele>
        <time>2010-07-04T08:00:29Z</time>
      </trkpt>
      <trkpt lat="44.81539" lon="6.68768">
        <ele>2379.864</ele>
        <time>2010-07-04T08:00:34Z</time>
      </trkpt>
      <trkpt lat="44.81526" lon="6.6877">
        <ele>2381.104</ele>
        <time>2010-07-04T08:00:42Z</time>
      </trkpt>
      <trkpt lat="44.81516" lon="6.68764">
        <ele>2384.795</ele>
        <time>2010-07-04T08:00:49Z</time>
      </trkpt>
      <trkpt lat="44.81509" lon="6.68764">
        <ele>2387.775</ele>
        <time>2010-07-04T08:00:55Z</time>
      </trkpt>
      <trkpt lat="44.81511" lon="6.68765">
        <ele>2390.494</ele>
        <time>2010-07-04T08:01:07Z</time>
      </trkpt>
      <trkpt lat="44.8151" lon="6.68765">
        <ele>2392.973</ele>
        <time>2010-07-04T08:01:27Z</time>
      </trkpt>
      <trkpt lat="44.81504" lon="6.68766">
        <ele>2394.184</ele>
        <time>2010-07-04T08:01:38Z</time>
      </trkpt>
      <trkpt lat="44.815" lon="6.68765">
        <ele>2395.524</ele>
        <time>2010-07-04T08:01:47Z</time>
      </trkpt>
      <trkpt lat="44.81494" lon="6.68765">
        <ele>2397.084</ele>
        <time>2010-07-04T08:01:56Z</time>
      </trkpt>
      <trkpt lat="44.8149" lon="6.68767">
        <ele>2400.824</ele>
        <time>2010-07-04T08:02:07Z</time>
      </trkpt>
      <trkpt lat="44.81485" lon="6.68767">
        <ele>2402.984</ele>
        <time>2010-07-04T08:02:16Z</time>
      </trkpt>
      <trkpt lat="44.81481" lon="6.68766">
        <ele>2404.154</ele>
        <time>2010-07-04T08:02:25Z</time>
      </trkpt>
      <trkpt lat="44.81476" lon="6.68765">
        <ele>2405.494</ele>
        <time>2010-07-04T08:02:35Z</time>
      </trkpt>
      <trkpt lat="44.8147" lon="6.68764">
        <ele>2406.944</ele>
        <time>2010-07-04T08:02:45Z</time>
      </trkpt>
      <trkpt lat="44.81464" lon="6.68764">
        <ele>2408.264</ele>
        <time>2010-07-04T08:02:55Z</time>
      </trkpt>
      <trkpt lat="44.8146" lon="6.68762">
        <ele>2409.924</ele>
        <time>2010-07-04T08:03:03Z</time>
      </trkpt>
      <trkpt lat="44.81456" lon="6.6876">
        <ele>2411.465</ele>
        <time>2010-07-04T08:03:12Z</time>
      </trkpt>
      <trkpt lat="44.81452" lon="6.68758">
        <ele>2413.004</ele>
        <time>2010-07-04T08:03:21Z</time>
      </trkpt>
      <trkpt lat="44.81448" lon="6.68755">
        <ele>2413.804</ele>
        <time>2010-07-04T08:03:29Z</time>
      </trkpt>
      <trkpt lat="44.81443" lon="6.68753">
        <ele>2414.764</ele>
        <time>2010-07-04T08:03:39Z</time>
      </trkpt>
      <trkpt lat="44.81438" lon="6.68752">
        <ele>2415.854</ele>
        <time>2010-07-04T08:03:47Z</time>
      </trkpt>
      <trkpt lat="44.81436" lon="6.68755">
        <ele>2416.124</ele>
        <time>2010-07-04T08:03:55Z</time>
      </trkpt>
      <trkpt lat="44.81434" lon="6.68758">
        <ele>2416.563</ele>
        <time>2010-07-04T08:04:00Z</time>
      </trkpt>
      <trkpt lat="44.8143" lon="6.68761">
        <ele>2417.653</ele>
        <time>2010-07-04T08:04:07Z</time>
      </trkpt>
      <trkpt lat="44.8143" lon="6.68762">
        <ele>2418.743</ele>
        <time>2010-07-04T08:04:16Z</time>
      </trkpt>
      <trkpt lat="44.81429" lon="6.68762">
        <ele>2418.983</ele>
        <time>2010-07-04T08:04:25Z</time>
      </trkpt>
      <trkpt lat="44.81424" lon="6.68767">
        <ele>2420.334</ele>
        <time>2010-07-04T08:04:31Z</time>
      </trkpt>
      <trkpt lat="44.81414" lon="6.68774">
        <ele>2425.285</ele>
        <time>2010-07-04T08:04:39Z</time>
      </trkpt>
      <trkpt lat="44.81407" lon="6.68783">
        <ele>2428.825</ele>
        <time>2010-07-04T08:04:46Z</time>
      </trkpt>
      <trkpt lat="44.81406" lon="6.68786">
        <ele>2428.884</ele>
        <time>2010-07-04T08:04:48Z</time>
      </trkpt>
      <trkpt lat="44.81406" lon="6.68788">
        <ele>2427.812</ele>
        <time>2010-07-04T08:04:53Z</time>
      </trkpt>
      <trkpt lat="44.81403" lon="6.68792">
        <ele>2424.501</ele>
        <time>2010-07-04T08:05:04Z</time>
      </trkpt>
      <trkpt lat="44.814" lon="6.68794">
        <ele>2423.392</ele>
        <time>2010-07-04T08:05:10Z</time>
      </trkpt>
      <trkpt lat="44.81397" lon="6.68796">
        <ele>2423.323</ele>
        <time>2010-07-04T08:05:16Z</time>
      </trkpt>
      <trkpt lat="44.81391" lon="6.68796">
        <ele>2422.362</ele>
        <time>2010-07-04T08:05:27Z</time>
      </trkpt>
      <trkpt lat="44.81387" lon="6.68793">
        <ele>2422.262</ele>
        <time>2010-07-04T08:05:36Z</time>
      </trkpt>
      <trkpt lat="44.81383" lon="6.68788">
        <ele>2422.623</ele>
        <time>2010-07-04T08:05:46Z</time>
      </trkpt>
      <trkpt lat="44.81378" lon="6.68786">
        <ele>2423.023</ele>
        <time>2010-07-04T08:05:55Z</time>
      </trkpt>
      <trkpt lat="44.81374" lon="6.68784">
        <ele>2423.493</ele>
        <time>2010-07-04T08:06:04Z</time>
      </trkpt>
      <trkpt lat="44.81369" lon="6.68776">
        <ele>2431.625</ele>
        <time>2010-07-04T08:06:14Z</time>
      </trkpt>
      <trkpt lat="44.81366" lon="6.68773">
        <ele>2432.354</ele>
        <time>2010-07-04T08:06:20Z</time>
      </trkpt>
      <trkpt lat="44.81365" lon="6.68769">
        <ele>2432.984</ele>
        <time>2010-07-04T08:06:25Z</time>
      </trkpt>
      <trkpt lat="44.81363" lon="6.68762">
        <ele>2434.883</ele>
        <time>2010-07-04T08:06:34Z</time>
      </trkpt>
      <trkpt lat="44.81362" lon="6.68759">
        <ele>2434.454</ele>
        <time>2010-07-04T08:06:39Z</time>
      </trkpt>
      <trkpt lat="44.81358" lon="6.68756">
        <ele>2435.953</ele>
        <time>2010-07-04T08:06:48Z</time>
      </trkpt>
      <trkpt lat="44.81353" lon="6.68753">
        <ele>2437.234</ele>
        <time>2010-07-04T08:06:58Z</time>
      </trkpt>
      <trkpt lat="44.81348" lon="6.6875">
        <ele>2438.564</ele>
        <time>2010-07-04T08:07:08Z</time>
      </trkpt>
      <trkpt lat="44.81343" lon="6.68747">
        <ele>2440.074</ele>
        <time>2010-07-04T08:07:18Z</time>
      </trkpt>
      <trkpt lat="44.81338" lon="6.68743">
        <ele>2443.094</ele>
        <time>2010-07-04T08:07:28Z</time>
      </trkpt>
      <trkpt lat="44.81335" lon="6.68741">
        <ele>2442.773</ele>
        <time>2010-07-04T08:07:36Z</time>
      </trkpt>
      <trkpt lat="44.81331" lon="6.68738">
        <ele>2443.434</ele>
        <time>2010-07-04T08:07:47Z</time>
      </trkpt>
      <trkpt lat="44.8133" lon="6.68736">
        <ele>2445.034</ele>
        <time>2010-07-04T08:07:54Z</time>
      </trkpt>
      <trkpt lat="44.81326" lon="6.68732">
        <ele>2446.283</ele>
        <time>2010-07-04T08:08:04Z</time>
      </trkpt>
      <trkpt lat="44.81321" lon="6.68729">
        <ele>2446.904</ele>
        <time>2010-07-04T08:08:12Z</time>
      </trkpt>
      <trkpt lat="44.81317" lon="6.68727">
        <ele>2447.684</ele>
        <time>2010-07-04T08:08:21Z</time>
      </trkpt>
      <trkpt lat="44.81312" lon="6.68727">
        <ele>2448.913</ele>
        <time>2010-07-04T08:08:31Z</time>
      </trkpt>
      <trkpt lat="44.81308" lon="6.68726">
        <ele>2449.694</ele>
        <time>2010-07-04T08:08:39Z</time>
      </trkpt>
      <trkpt lat="44.81304" lon="6.68728">
        <ele>2450.643</ele>
        <time>2010-07-04T08:08:46Z</time>
      </trkpt>
      <trkpt lat="44.81301" lon="6.68729">
        <ele>2451.438</ele>
        <time>2010-07-04T08:08:54Z</time>
      </trkpt>
      <trkpt lat="44.81296" lon="6.68731">
        <ele>2452.594</ele>
        <time>2010-07-04T08:09:03Z</time>
      </trkpt>
      <trkpt lat="44.81299" lon="6.68734">
        <ele>2453.083</ele>
        <time>2010-07-04T08:09:09Z</time>
      </trkpt>
      <trkpt lat="44.81301" lon="6.68735">
        <ele>2453.903</ele>
        <time>2010-07-04T08:09:15Z</time>
      </trkpt>
      <trkpt lat="44.81303" lon="6.68738">
        <ele>2453.713</ele>
        <time>2010-07-04T08:09:24Z</time>
      </trkpt>
      <trkpt lat="44.81298" lon="6.68738">
        <ele>2455.734</ele>
        <time>2010-07-04T08:09:34Z</time>
      </trkpt>
      <trkpt lat="44.81297" lon="6.68742">
        <ele>2456.493</ele>
        <time>2010-07-04T08:09:41Z</time>
      </trkpt>
      <trkpt lat="44.81299" lon="6.68743">
        <ele>2457.424</ele>
        <time>2010-07-04T08:09:46Z</time>
      </trkpt>
      <trkpt lat="44.81298" lon="6.68746">
        <ele>2458.163</ele>
        <time>2010-07-04T08:09:52Z</time>
      </trkpt>
      <trkpt lat="44.81299" lon="6.68749">
        <ele>2458.534</ele>
        <time>2010-07-04T08:09:57Z</time>
      </trkpt>
      <trkpt lat="44.81301" lon="6.68753">
        <ele>2459.444</ele>
        <time>2010-07-04T08:10:04Z</time>
      </trkpt>
      <trkpt lat="44.81298" lon="6.68753">
        <ele>2461.434</ele>
        <time>2010-07-04T08:10:10Z</time>
      </trkpt>
      <trkpt lat="44.81296" lon="6.68755">
        <ele>2461.563</ele>
        <time>2010-07-04T08:10:16Z</time>
      </trkpt>
      <trkpt lat="44.81299" lon="6.68762">
        <ele>2462.013</ele>
        <time>2010-07-04T08:10:25Z</time>
      </trkpt>
      <trkpt lat="44.81295" lon="6.68761">
        <ele>2463.524</ele>
        <time>2010-07-04T08:10:32Z</time>
      </trkpt>
      <trkpt lat="44.81293" lon="6.68762">
        <ele>2464.573</ele>
        <time>2010-07-04T08:10:39Z</time>
      </trkpt>
      <trkpt lat="44.81292" lon="6.68762">
        <ele>2464.623</ele>
        <time>2010-07-04T08:10:41Z</time>
      </trkpt>
      <trkpt lat="44.81281" lon="6.68767">
        <ele>2466.244</ele>
        <time>2010-07-04T08:10:49Z</time>
      </trkpt>
      <trkpt lat="44.81267" lon="6.68775">
        <ele>2467.284</ele>
        <time>2010-07-04T08:10:56Z</time>
      </trkpt>
      <trkpt lat="44.81254" lon="6.68777">
        <ele>2469.064</ele>
        <time>2010-07-04T08:11:04Z</time>
      </trkpt>
      <trkpt lat="44.81246" lon="6.68781">
        <ele>2471.18</ele>
        <time>2010-07-04T08:11:10Z</time>
      </trkpt>
      <trkpt lat="44.81239" lon="6.68782">
        <ele>2472.264</ele>
        <time>2010-07-04T08:11:17Z</time>
      </trkpt>
      <trkpt lat="44.81239" lon="6.6878">
        <ele>2473.773</ele>
        <time>2010-07-04T08:11:43Z</time>
      </trkpt>
      <trkpt lat="44.81242" lon="6.68777">
        <ele>2474.012</ele>
        <time>2010-07-04T08:11:47Z</time>
      </trkpt>
      <trkpt lat="44.81242" lon="6.68772">
        <ele>2474.102</ele>
        <time>2010-07-04T08:11:52Z</time>
      </trkpt>
      <trkpt lat="44.81242" lon="6.6877">
        <ele>2475.203</ele>
        <time>2010-07-04T08:13:13Z</time>
      </trkpt>
      <trkpt lat="44.81239" lon="6.68776">
        <ele>2475.352</ele>
        <time>2010-07-04T08:13:20Z</time>
      </trkpt>
      <trkpt lat="44.8124" lon="6.68777">
        <ele>2472.872</ele>
        <time>2010-07-04T08:13:28Z</time>
      </trkpt>
      <trkpt lat="44.81241" lon="6.68775">
        <ele>2473.552</ele>
        <time>2010-07-04T08:13:35Z</time>
      </trkpt>
      <trkpt lat="44.81241" lon="6.68775">
        <ele>2473.693</ele>
        <time>2010-07-04T08:13:36Z</time>
      </trkpt>
      <trkpt lat="44.81245" lon="6.68784">
        <ele>2473.753</ele>
        <time>2010-07-04T08:13:40Z</time>
      </trkpt>
      <trkpt lat="44.81246" lon="6.68787">
        <ele>2474.214</ele>
        <time>2010-07-04T08:13:41Z</time>
      </trkpt>
      <trkpt lat="44.81243" lon="6.688">
        <ele>2476.704</ele>
        <time>2010-07-04T08:13:47Z</time>
      </trkpt>
      <trkpt lat="44.81237" lon="6.68812">
        <ele>2476.18</ele>
        <time>2010-07-04T08:13:53Z</time>
      </trkpt>
      <trkpt lat="44.81232" lon="6.68817">
        <ele>2475.292</ele>
        <time>2010-07-04T08:13:58Z</time>
      </trkpt>
      <trkpt lat="44.8123" lon="6.68819">
        <ele>2474.802</ele>
        <time>2010-07-04T08:14:03Z</time>
      </trkpt>
      <trkpt lat="44.81226" lon="6.68824">
        <ele>2473.431</ele>
        <time>2010-07-04T08:14:10Z</time>
      </trkpt>
      <trkpt lat="44.81225" lon="6.68824">
        <ele>2472.891</ele>
        <time>2010-07-04T08:14:13Z</time>
      </trkpt>
      <trkpt lat="44.81224" lon="6.68823">
        <ele>2472.45</ele>
        <time>2010-07-04T08:14:15Z</time>
      </trkpt>
      <trkpt lat="44.81222" lon="6.68818">
        <ele>2470.491</ele>
        <time>2010-07-04T08:14:22Z</time>
      </trkpt>
      <trkpt lat="44.81222" lon="6.68818">
        <ele>2470.382</ele>
        <time>2010-07-04T08:14:24Z</time>
      </trkpt>
      <trkpt lat="44.81214" lon="6.68816">
        <ele>2467.999</ele>
        <time>2010-07-04T08:14:30Z</time>
      </trkpt>
      <trkpt lat="44.81208" lon="6.68819">
        <ele>2465.128</ele>
        <time>2010-07-04T08:14:35Z</time>
      </trkpt>
      <trkpt lat="44.81205" lon="6.68831">
        <ele>2462.948</ele>
        <time>2010-07-04T08:14:39Z</time>
      </trkpt>
      <trkpt lat="44.81201" lon="6.68852">
        <ele>2460.27</ele>
        <time>2010-07-04T08:14:45Z</time>
      </trkpt>
      <trkpt lat="44.81198" lon="6.68862">
        <ele>2459.1</ele>
        <time>2010-07-04T08:14:50Z</time>
      </trkpt>
      <trkpt lat="44.81197" lon="6.68874">
        <ele>2458.401</ele>
        <time>2010-07-04T08:14:55Z</time>
      </trkpt>
      <trkpt lat="44.81196" lon="6.68876">
        <ele>2457.071</ele>
        <time>2010-07-04T08:15:00Z</time>
      </trkpt>
      <trkpt lat="44.81193" lon="6.68887">
        <ele>2454.869</ele>
        <time>2010-07-04T08:15:05Z</time>
      </trkpt>
      <trkpt lat="44.81191" lon="6.68906">
        <ele>2451.625</ele>
        <time>2010-07-04T08:15:10Z</time>
      </trkpt>
      <trkpt lat="44.81188" lon="6.68941">
        <ele>2446.466</ele>
        <time>2010-07-04T08:15:17Z</time>
      </trkpt>
      <trkpt lat="44.81189" lon="6.68945">
        <ele>2445.747</ele>
        <time>2010-07-04T08:15:18Z</time>
      </trkpt>
      <trkpt lat="44.81185" lon="6.68948">
        <ele>2443.547</ele>
        <time>2010-07-04T08:15:21Z</time>
      </trkpt>
      <trkpt lat="44.81183" lon="6.68944">
        <ele>2442.827</ele>
        <time>2010-07-04T08:15:22Z</time>
      </trkpt>
      <trkpt lat="44.81174" lon="6.68912">
        <ele>2439.449</ele>
        <time>2010-07-04T08:15:29Z</time>
      </trkpt>
      <trkpt lat="44.81174" lon="6.68908">
        <ele>2439.01</ele>
        <time>2010-07-04T08:15:30Z</time>
      </trkpt>
      <trkpt lat="44.8117" lon="6.68907">
        <ele>2436.808</ele>
        <time>2010-07-04T08:15:34Z</time>
      </trkpt>
      <trkpt lat="44.81169" lon="6.68924">
        <ele>2434.969</ele>
        <time>2010-07-04T08:15:38Z</time>
      </trkpt>
      <trkpt lat="44.81167" lon="6.68929">
        <ele>2433.218</ele>
        <time>2010-07-04T08:15:41Z</time>
      </trkpt>
      <trkpt lat="44.81162" lon="6.6892">
        <ele>2431.297</ele>
        <time>2010-07-04T08:15:44Z</time>
      </trkpt>
      <trkpt lat="44.81161" lon="6.68916">
        <ele>2430.647</ele>
        <time>2010-07-04T08:15:45Z</time>
      </trkpt>
      <trkpt lat="44.8116" lon="6.68907">
        <ele>2429.447</ele>
        <time>2010-07-04T08:15:47Z</time>
      </trkpt>
      <trkpt lat="44.81156" lon="6.68907">
        <ele>2427.439</ele>
        <time>2010-07-04T08:15:51Z</time>
      </trkpt>
      <trkpt lat="44.81155" lon="6.6891">
        <ele>2426.928</ele>
        <time>2010-07-04T08:15:52Z</time>
      </trkpt>
      <trkpt lat="44.81152" lon="6.68933">
        <ele>2423.195</ele>
        <time>2010-07-04T08:15:57Z</time>
      </trkpt>
      <trkpt lat="44.81149" lon="6.68955">
        <ele>2419.577</ele>
        <time>2010-07-04T08:16:02Z</time>
      </trkpt>
      <trkpt lat="44.81144" lon="6.68953">
        <ele>2417.308</ele>
        <time>2010-07-04T08:16:06Z</time>
      </trkpt>
      <trkpt lat="44.81139" lon="6.68938">
        <ele>2414.977</ele>
        <time>2010-07-04T08:16:09Z</time>
      </trkpt>
      <trkpt lat="44.81128" lon="6.68911">
        <ele>2410.677</ele>
        <time>2010-07-04T08:16:15Z</time>
      </trkpt>
      <trkpt lat="44.81128" lon="6.68908">
        <ele>2410.189</ele>
        <time>2010-07-04T08:16:16Z</time>
      </trkpt>
      <trkpt lat="44.81124" lon="6.6891">
        <ele>2407.677</ele>
        <time>2010-07-04T08:16:20Z</time>
      </trkpt>
      <trkpt lat="44.81118" lon="6.68924">
        <ele>2403.516</ele>
        <time>2010-07-04T08:16:25Z</time>
      </trkpt>
      <trkpt lat="44.81112" lon="6.68945">
        <ele>2398.006</ele>
        <time>2010-07-04T08:16:31Z</time>
      </trkpt>
      <trkpt lat="44.81105" lon="6.68953">
        <ele>2394.386</ele>
        <time>2010-07-04T08:16:35Z</time>
      </trkpt>
      <trkpt lat="44.81095" lon="6.68968">
        <ele>2388.957</ele>
        <time>2010-07-04T08:16:41Z</time>
      </trkpt>
      <trkpt lat="44.81084" lon="6.68993">
        <ele>2382.907</ele>
        <time>2010-07-04T08:16:48Z</time>
      </trkpt>
      <trkpt lat="44.81081" lon="6.69009">
        <ele>2379.587</ele>
        <time>2010-07-04T08:16:53Z</time>
      </trkpt>
      <trkpt lat="44.81074" lon="6.69023">
        <ele>2375.817</ele>
        <time>2010-07-04T08:16:58Z</time>
      </trkpt>
      <trkpt lat="44.81074" lon="6.69026">
        <ele>2375.329</ele>
        <time>2010-07-04T08:16:59Z</time>
      </trkpt>
      <trkpt lat="44.81072" lon="6.69027">
        <ele>2374.508</ele>
        <time>2010-07-04T08:17:01Z</time>
      </trkpt>
      <trkpt lat="44.81066" lon="6.69037">
        <ele>2371.878</ele>
        <time>2010-07-04T08:17:07Z</time>
      </trkpt>
      <trkpt lat="44.81057" lon="6.69047">
        <ele>2368.057</ele>
        <time>2010-07-04T08:17:13Z</time>
      </trkpt>
      <trkpt lat="44.81048" lon="6.69056">
        <ele>2365.197</ele>
        <time>2010-07-04T08:17:17Z</time>
      </trkpt>
      <trkpt lat="44.8103" lon="6.69071">
        <ele>2361.007</ele>
        <time>2010-07-04T08:17:23Z</time>
      </trkpt>
      <trkpt lat="44.81015" lon="6.69085">
        <ele>2357.948</ele>
        <time>2010-07-04T08:17:28Z</time>
      </trkpt>
      <trkpt lat="44.81004" lon="6.69092">
        <ele>2354.776</ele>
        <time>2010-07-04T08:17:32Z</time>
      </trkpt>
      <trkpt lat="44.80989" lon="6.691">
        <ele>2351.217</ele>
        <time>2010-07-04T08:17:37Z</time>
      </trkpt>
      <trkpt lat="44.8097" lon="6.69111">
        <ele>2346.648</ele>
        <time>2010-07-04T08:17:43Z</time>
      </trkpt>
      <trkpt lat="44.80959" lon="6.69124">
        <ele>2343.347</ele>
        <time>2010-07-04T08:17:48Z</time>
      </trkpt>
      <trkpt lat="44.80948" lon="6.69141">
        <ele>2338.647</ele>
        <time>2010-07-04T08:17:54Z</time>
      </trkpt>
      <trkpt lat="44.80939" lon="6.69158">
        <ele>2334.986</ele>
        <time>2010-07-04T08:17:59Z</time>
      </trkpt>
      <trkpt lat="44.80933" lon="6.69176">
        <ele>2332.268</ele>
        <time>2010-07-04T08:18:03Z</time>
      </trkpt>
      <trkpt lat="44.80927" lon="6.69194">
        <ele>2328.706</ele>
        <time>2010-07-04T08:18:08Z</time>
      </trkpt>
      <trkpt lat="44.80921" lon="6.69201">
        <ele>2326.036</ele>
        <time>2010-07-04T08:18:11Z</time>
      </trkpt>
      <trkpt lat="44.80913" lon="6.69212">
        <ele>2322.105</ele>
        <time>2010-07-04T08:18:16Z</time>
      </trkpt>
      <trkpt lat="44.80911" lon="6.69215">
        <ele>2321.497</ele>
        <time>2010-07-04T08:18:17Z</time>
      </trkpt>
      <trkpt lat="44.80899" lon="6.69229">
        <ele>2317.977</ele>
        <time>2010-07-04T08:18:22Z</time>
      </trkpt>
      <trkpt lat="44.80885" lon="6.69246">
        <ele>2313.917</ele>
        <time>2010-07-04T08:18:28Z</time>
      </trkpt>
      <trkpt lat="44.8088" lon="6.69254">
        <ele>2311.697</ele>
        <time>2010-07-04T08:18:31Z</time>
      </trkpt>
      <trkpt lat="44.80876" lon="6.6925">
        <ele>2309.398</ele>
        <time>2010-07-04T08:18:35Z</time>
      </trkpt>
      <trkpt lat="44.80873" lon="6.69238">
        <ele>2307.928</ele>
        <time>2010-07-04T08:18:38Z</time>
      </trkpt>
      <trkpt lat="44.80872" lon="6.69227">
        <ele>2306.649</ele>
        <time>2010-07-04T08:18:42Z</time>
      </trkpt>
      <trkpt lat="44.80867" lon="6.69231">
        <ele>2304.968</ele>
        <time>2010-07-04T08:18:46Z</time>
      </trkpt>
      <trkpt lat="44.80863" lon="6.69234">
        <ele>2303.659</ele>
        <time>2010-07-04T08:18:49Z</time>
      </trkpt>
      <trkpt lat="44.80857" lon="6.69241">
        <ele>2301.038</ele>
        <time>2010-07-04T08:18:54Z</time>
      </trkpt>
      <trkpt lat="44.80849" lon="6.69248">
        <ele>2299.057</ele>
        <time>2010-07-04T08:18:57Z</time>
      </trkpt>
      <trkpt lat="44.8083" lon="6.69261">
        <ele>2295.197</ele>
        <time>2010-07-04T08:19:03Z</time>
      </trkpt>
      <trkpt lat="44.80816" lon="6.69265">
        <ele>2293.699</ele>
        <time>2010-07-04T08:19:08Z</time>
      </trkpt>
      <trkpt lat="44.80798" lon="6.69273">
        <ele>2291.078</ele>
        <time>2010-07-04T08:19:13Z</time>
      </trkpt>
      <trkpt lat="44.8078" lon="6.69279">
        <ele>2288.559</ele>
        <time>2010-07-04T08:19:18Z</time>
      </trkpt>
      <trkpt lat="44.80769" lon="6.69287">
        <ele>2286.067</ele>
        <time>2010-07-04T08:19:22Z</time>
      </trkpt>
      <trkpt lat="44.80755" lon="6.69296">
        <ele>2283.738</ele>
        <time>2010-07-04T08:19:26Z</time>
      </trkpt>
      <trkpt lat="44.80736" lon="6.69321">
        <ele>2279.406</ele>
        <time>2010-07-04T08:19:32Z</time>
      </trkpt>
      <trkpt lat="44.80725" lon="6.6934">
        <ele>2276.017</ele>
        <time>2010-07-04T08:19:36Z</time>
      </trkpt>
      <trkpt lat="44.80717" lon="6.69365">
        <ele>2271.745</ele>
        <time>2010-07-04T08:19:40Z</time>
      </trkpt>
      <trkpt lat="44.80708" lon="6.69386">
        <ele>2268.263</ele>
        <time>2010-07-04T08:19:43Z</time>
      </trkpt>
      <trkpt lat="44.80684" lon="6.69415">
        <ele>2262.184</ele>
        <time>2010-07-04T08:19:49Z</time>
      </trkpt>
      <trkpt lat="44.80664" lon="6.69437">
        <ele>2256.725</ele>
        <time>2010-07-04T08:19:54Z</time>
      </trkpt>
      <trkpt lat="44.80652" lon="6.69456">
        <ele>2252.835</ele>
        <time>2010-07-04T08:19:58Z</time>
      </trkpt>
      <trkpt lat="44.8063" lon="6.69473">
        <ele>2247.786</ele>
        <time>2010-07-04T08:20:04Z</time>
      </trkpt>
      <trkpt lat="44.80624" lon="6.69475">
        <ele>2246.136</ele>
        <time>2010-07-04T08:20:06Z</time>
      </trkpt>
      <trkpt lat="44.8061" lon="6.6947">
        <ele>2243.347</ele>
        <time>2010-07-04T08:20:10Z</time>
      </trkpt>
      <trkpt lat="44.80593" lon="6.69467">
        <ele>2240.717</ele>
        <time>2010-07-04T08:20:14Z</time>
      </trkpt>
      <trkpt lat="44.80585" lon="6.69474">
        <ele>2239.529</ele>
        <time>2010-07-04T08:20:17Z</time>
      </trkpt>
      <trkpt lat="44.8058" lon="6.69487">
        <ele>2237.047</ele>
        <time>2010-07-04T08:20:21Z</time>
      </trkpt>
      <trkpt lat="44.80577" lon="6.695">
        <ele>2234.357</ele>
        <time>2010-07-04T08:20:25Z</time>
      </trkpt>
      <trkpt lat="44.80575" lon="6.69504">
        <ele>2233.04</ele>
        <time>2010-07-04T08:20:28Z</time>
      </trkpt>
      <trkpt lat="44.80581" lon="6.69513">
        <ele>2231.057</ele>
        <time>2010-07-04T08:20:31Z</time>
      </trkpt>
      <trkpt lat="44.80589" lon="6.69524">
        <ele>2228.606</ele>
        <time>2010-07-04T08:20:34Z</time>
      </trkpt>
      <trkpt lat="44.80591" lon="6.69539">
        <ele>2226.117</ele>
        <time>2010-07-04T08:20:37Z</time>
      </trkpt>
      <trkpt lat="44.80601" lon="6.69567">
        <ele>2223.209</ele>
        <time>2010-07-04T08:20:42Z</time>
      </trkpt>
      <trkpt lat="44.80599" lon="6.6958">
        <ele>2222.19</ele>
        <time>2010-07-04T08:20:45Z</time>
      </trkpt>
      <trkpt lat="44.80592" lon="6.69597">
        <ele>2219.256</ele>
        <time>2010-07-04T08:20:49Z</time>
      </trkpt>
      <trkpt lat="44.80585" lon="6.69603">
        <ele>2216.774</ele>
        <time>2010-07-04T08:20:51Z</time>
      </trkpt>
      <trkpt lat="44.80574" lon="6.69613">
        <ele>2213.855</ele>
        <time>2010-07-04T08:20:54Z</time>
      </trkpt>
      <trkpt lat="44.80547" lon="6.69634">
        <ele>2207.877</ele>
        <time>2010-07-04T08:21:01Z</time>
      </trkpt>
      <trkpt lat="44.80548" lon="6.69627">
        <ele>2205.959</ele>
        <time>2010-07-04T08:21:05Z</time>
      </trkpt>
      <trkpt lat="44.80547" lon="6.69622">
        <ele>2204.76</ele>
        <time>2010-07-04T08:21:08Z</time>
      </trkpt>
      <trkpt lat="44.80545" lon="6.69622">
        <ele>2204.289</ele>
        <time>2010-07-04T08:21:09Z</time>
      </trkpt>
      <trkpt lat="44.80528" lon="6.69622">
        <ele>2200.808</ele>
        <time>2010-07-04T08:21:15Z</time>
      </trkpt>
      <trkpt lat="44.80512" lon="6.69622">
        <ele>2195.768</ele>
        <time>2010-07-04T08:21:22Z</time>
      </trkpt>
      <trkpt lat="44.8051" lon="6.69622">
        <ele>2194.939</ele>
        <time>2010-07-04T08:21:24Z</time>
      </trkpt>
      <trkpt lat="44.80515" lon="6.69612">
        <ele>2193.089</ele>
        <time>2010-07-04T08:21:28Z</time>
      </trkpt>
      <trkpt lat="44.8052" lon="6.6959">
        <ele>2189.348</ele>
        <time>2010-07-04T08:21:34Z</time>
      </trkpt>
      <trkpt lat="44.80508" lon="6.69575">
        <ele>2187.277</ele>
        <time>2010-07-04T08:21:40Z</time>
      </trkpt>
      <trkpt lat="44.80504" lon="6.69573">
        <ele>2185.967</ele>
        <time>2010-07-04T08:21:42Z</time>
      </trkpt>
      <trkpt lat="44.80497" lon="6.69566">
        <ele>2183.318</ele>
        <time>2010-07-04T08:21:47Z</time>
      </trkpt>
      <trkpt lat="44.80496" lon="6.69567">
        <ele>2182.768</ele>
        <time>2010-07-04T08:21:48Z</time>
      </trkpt>
      <trkpt lat="44.80494" lon="6.6957">
        <ele>2181.648</ele>
        <time>2010-07-04T08:21:51Z</time>
      </trkpt>
      <trkpt lat="44.80488" lon="6.69563">
        <ele>2179.528</ele>
        <time>2010-07-04T08:21:56Z</time>
      </trkpt>
      <trkpt lat="44.80487" lon="6.69561">
        <ele>2178.998</ele>
        <time>2010-07-04T08:21:57Z</time>
      </trkpt>
      <trkpt lat="44.80484" lon="6.69555">
        <ele>2177.529</ele>
        <time>2010-07-04T08:22:00Z</time>
      </trkpt>
      <trkpt lat="44.80482" lon="6.69551">
        <ele>2176.421</ele>
        <time>2010-07-04T08:22:06Z</time>
      </trkpt>
      <trkpt lat="44.80482" lon="6.69551">
        <ele>2176.051</ele>
        <time>2010-07-04T08:22:08Z</time>
      </trkpt>
      <trkpt lat="44.80477" lon="6.69563">
        <ele>2173.408</ele>
        <time>2010-07-04T08:22:13Z</time>
      </trkpt>
      <trkpt lat="44.80477" lon="6.69579">
        <ele>2170.989</ele>
        <time>2010-07-04T08:22:18Z</time>
      </trkpt>
      <trkpt lat="44.80475" lon="6.6959">
        <ele>2169.008</ele>
        <time>2010-07-04T08:22:21Z</time>
      </trkpt>
      <trkpt lat="44.80466" lon="6.69595">
        <ele>2165.417</ele>
        <time>2010-07-04T08:22:26Z</time>
      </trkpt>
      <trkpt lat="44.80454" lon="6.69607">
        <ele>2161.636</ele>
        <time>2010-07-04T08:22:31Z</time>
      </trkpt>
      <trkpt lat="44.80442" lon="6.69619">
        <ele>2156.514</ele>
        <time>2010-07-04T08:22:36Z</time>
      </trkpt>
      <trkpt lat="44.80428" lon="6.69643">
        <ele>2151.497</ele>
        <time>2010-07-04T08:22:42Z</time>
      </trkpt>
      <trkpt lat="44.80426" lon="6.69637">
        <ele>2149.739</ele>
        <time>2010-07-04T08:22:46Z</time>
      </trkpt>
      <trkpt lat="44.80427" lon="6.69632">
        <ele>2149.289</ele>
        <time>2010-07-04T08:22:47Z</time>
      </trkpt>
      <trkpt lat="44.80427" lon="6.69623">
        <ele>2147.689</ele>
        <time>2010-07-04T08:22:51Z</time>
      </trkpt>
      <trkpt lat="44.80418" lon="6.69634">
        <ele>2144.385</ele>
        <time>2010-07-04T08:22:55Z</time>
      </trkpt>
      <trkpt lat="44.80415" lon="6.69639">
        <ele>2143.254</ele>
        <time>2010-07-04T08:22:56Z</time>
      </trkpt>
      <trkpt lat="44.80403" lon="6.69659">
        <ele>2139.775</ele>
        <time>2010-07-04T08:23:00Z</time>
      </trkpt>
      <trkpt lat="44.80402" lon="6.69675">
        <ele>2137.537</ele>
        <time>2010-07-04T08:23:04Z</time>
      </trkpt>
      <trkpt lat="44.80398" lon="6.69674">
        <ele>2136.229</ele>
        <time>2010-07-04T08:23:08Z</time>
      </trkpt>
      <trkpt lat="44.80396" lon="6.69665">
        <ele>2135.95</ele>
        <time>2010-07-04T08:23:10Z</time>
      </trkpt>
      <trkpt lat="44.80398" lon="6.6964">
        <ele>2135.11</ele>
        <time>2010-07-04T08:23:14Z</time>
      </trkpt>
      <trkpt lat="44.80398" lon="6.69604">
        <ele>2134.211</ele>
        <time>2010-07-04T08:23:19Z</time>
      </trkpt>
      <trkpt lat="44.80392" lon="6.69571">
        <ele>2134.173</ele>
        <time>2010-07-04T08:23:25Z</time>
      </trkpt>
      <trkpt lat="44.80381" lon="6.69545">
        <ele>2134.463</ele>
        <time>2010-07-04T08:23:30Z</time>
      </trkpt>
      <trkpt lat="44.80366" lon="6.69539">
        <ele>2135.934</ele>
        <time>2010-07-04T08:23:34Z</time>
      </trkpt>
      <trkpt lat="44.80359" lon="6.69539">
        <ele>2136.704</ele>
        <time>2010-07-04T08:23:36Z</time>
      </trkpt>
      <trkpt lat="44.80335" lon="6.69527">
        <ele>2136.711</ele>
        <time>2010-07-04T08:23:42Z</time>
      </trkpt>
      <trkpt lat="44.80326" lon="6.69519">
        <ele>2136.26</ele>
        <time>2010-07-04T08:23:44Z</time>
      </trkpt>
      <trkpt lat="44.80298" lon="6.6951">
        <ele>2135.901</ele>
        <time>2010-07-04T08:23:49Z</time>
      </trkpt>
      <trkpt lat="44.80292" lon="6.69509">
        <ele>2135.811</ele>
        <time>2010-07-04T08:23:50Z</time>
      </trkpt>
      <trkpt lat="44.80269" lon="6.69499">
        <ele>2135.301</ele>
        <time>2010-07-04T08:23:54Z</time>
      </trkpt>
      <trkpt lat="44.8025" lon="6.69483">
        <ele>2135.762</ele>
        <time>2010-07-04T08:23:58Z</time>
      </trkpt>
      <trkpt lat="44.80231" lon="6.69478">
        <ele>2137.154</ele>
        <time>2010-07-04T08:24:03Z</time>
      </trkpt>
      <trkpt lat="44.80228" lon="6.69479">
        <ele>2137.273</ele>
        <time>2010-07-04T08:24:04Z</time>
      </trkpt>
      <trkpt lat="44.80216" lon="6.69484">
        <ele>2138.493</ele>
        <time>2010-07-04T08:24:09Z</time>
      </trkpt>
      <trkpt lat="44.80216" lon="6.69487">
        <ele>2141.634</ele>
        <time>2010-07-04T08:24:15Z</time>
      </trkpt>
      <trkpt lat="44.80215" lon="6.69487">
        <ele>2143.693</ele>
        <time>2010-07-04T08:24:22Z</time>
      </trkpt>
      <trkpt lat="44.80217" lon="6.69488">
        <ele>2145.083</ele>
        <time>2010-07-04T08:24:27Z</time>
      </trkpt>
      <trkpt lat="44.80222" lon="6.69487">
        <ele>2148.544</ele>
        <time>2010-07-04T08:24:35Z</time>
      </trkpt>
      <trkpt lat="44.8022" lon="6.69489">
        <ele>2147.062</ele>
        <time>2010-07-04T08:24:41Z</time>
      </trkpt>
      <trkpt lat="44.80219" lon="6.69488">
        <ele>2144.511</ele>
        <time>2010-07-04T08:24:46Z</time>
      </trkpt>
      <trkpt lat="44.80222" lon="6.69488">
        <ele>2146.472</ele>
        <time>2010-07-04T08:24:52Z</time>
      </trkpt>
      <trkpt lat="44.80228" lon="6.69486">
        <ele>2145.861</ele>
        <time>2010-07-04T08:25:00Z</time>
      </trkpt>
      <trkpt lat="44.80235" lon="6.69482">
        <ele>2142.36</ele>
        <time>2010-07-04T08:25:09Z</time>
      </trkpt>
      <trkpt lat="44.80223" lon="6.69473">
        <ele>2121.614</ele>
        <time>2010-07-04T08:29:27Z</time>
      </trkpt>
      <trkpt lat="44.80217" lon="6.69483">
        <ele>2136.06</ele>
        <time>2010-07-04T08:29:45Z</time>
      </trkpt>
      <trkpt lat="44.80214" lon="6.69495">
        <ele>2142.884</ele>
        <time>2010-07-04T08:29:56Z</time>
      </trkpt>
      <trkpt lat="44.80224" lon="6.69473">
        <ele>2122.116</ele>
        <time>2010-07-04T08:33:39Z</time>
      </trkpt>
      <trkpt lat="44.80221" lon="6.69489">
        <ele>2138.298</ele>
        <time>2010-07-04T08:35:29Z</time>
      </trkpt>
      <trkpt lat="44.80219" lon="6.69481">
        <ele>2128.706</ele>
        <time>2010-07-04T08:38:21Z</time>
      </trkpt>
      <trkpt lat="44.80219" lon="6.69482">
        <ele>2132.352</ele>
        <time>2010-07-04T08:38:27Z</time>
      </trkpt>
      <trkpt lat="44.80217" lon="6.69486">
        <ele>2134.225</ele>
        <time>2010-07-04T08:38:32Z</time>
      </trkpt>
      <trkpt lat="44.80215" lon="6.69489">
        <ele>2138.185</ele>
        <time>2010-07-04T08:38:39Z</time>
      </trkpt>
      <trkpt lat="44.80216" lon="6.69487">
        <ele>2138.942</ele>
        <time>2010-07-04T08:38:56Z</time>
      </trkpt>
      <trkpt lat="44.80217" lon="6.69485">
        <ele>2138.052</ele>
        <time>2010-07-04T08:39:01Z</time>
      </trkpt>
      <trkpt lat="44.80218" lon="6.69483">
        <ele>2137.953</ele>
        <time>2010-07-04T08:39:06Z</time>
      </trkpt>
      <trkpt lat="44.80218" lon="6.69479">
        <ele>2133.822</ele>
        <time>2010-07-04T08:39:23Z</time>
      </trkpt>
      <trkpt lat="44.80217" lon="6.69481">
        <ele>2134.264</ele>
        <time>2010-07-04T08:39:25Z</time>
      </trkpt>
      <trkpt lat="44.80216" lon="6.69482">
        <ele>2134.926</ele>
        <time>2010-07-04T08:39:29Z</time>
      </trkpt>
      <trkpt lat="44.80213" lon="6.69483">
        <ele>2136.552</ele>
        <time>2010-07-04T08:39:35Z</time>
      </trkpt>
      <trkpt lat="44.80213" lon="6.69483">
        <ele>2137.843</ele>
        <time>2010-07-04T08:39:41Z</time>
      </trkpt>
      <trkpt lat="44.80213" lon="6.69484">
        <ele>2138.134</ele>
        <time>2010-07-04T08:39:42Z</time>
      </trkpt>
      <trkpt lat="44.80204" lon="6.6949">
        <ele>2139.236</ele>
        <time>2010-07-04T08:39:48Z</time>
      </trkpt>
      <trkpt lat="44.8019" lon="6.6949">
        <ele>2141.065</ele>
        <time>2010-07-04T08:39:55Z</time>
      </trkpt>
      <trkpt lat="44.80177" lon="6.69491">
        <ele>2143.595</ele>
        <time>2010-07-04T08:40:03Z</time>
      </trkpt>
      <trkpt lat="44.80166" lon="6.69494">
        <ele>2146.18</ele>
        <time>2010-07-04T08:40:10Z</time>
      </trkpt>
      <trkpt lat="44.80155" lon="6.69498">
        <ele>2148.874</ele>
        <time>2010-07-04T08:40:18Z</time>
      </trkpt>
      <trkpt lat="44.80142" lon="6.69505">
        <ele>2148.764</ele>
        <time>2010-07-04T08:40:26Z</time>
      </trkpt>
      <trkpt lat="44.80129" lon="6.69509">
        <ele>2151.956</ele>
        <time>2010-07-04T08:40:35Z</time>
      </trkpt>
      <trkpt lat="44.80117" lon="6.69504">
        <ele>2150.549</ele>
        <time>2010-07-04T08:40:43Z</time>
      </trkpt>
      <trkpt lat="44.80103" lon="6.69489">
        <ele>2150.798</ele>
        <time>2010-07-04T08:40:54Z</time>
      </trkpt>
      <trkpt lat="44.80095" lon="6.69477">
        <ele>2152.321</ele>
        <time>2010-07-04T08:41:02Z</time>
      </trkpt>
      <trkpt lat="44.80087" lon="6.6946">
        <ele>2155.066</ele>
        <time>2010-07-04T08:41:12Z</time>
      </trkpt>
      <trkpt lat="44.80083" lon="6.69446">
        <ele>2156.991</ele>
        <time>2010-07-04T08:41:20Z</time>
      </trkpt>
      <trkpt lat="44.80073" lon="6.69442">
        <ele>2158.583</ele>
        <time>2010-07-04T08:41:28Z</time>
      </trkpt>
      <trkpt lat="44.80061" lon="6.69445">
        <ele>2159.463</ele>
        <time>2010-07-04T08:41:36Z</time>
      </trkpt>
      <trkpt lat="44.80049" lon="6.69452">
        <ele>2162.118</ele>
        <time>2010-07-04T08:41:46Z</time>
      </trkpt>
      <trkpt lat="44.80039" lon="6.69455">
        <ele>2166.416</ele>
        <time>2010-07-04T08:41:54Z</time>
      </trkpt>
      <trkpt lat="44.80026" lon="6.69448">
        <ele>2167.285</ele>
        <time>2010-07-04T08:42:03Z</time>
      </trkpt>
      <trkpt lat="44.80018" lon="6.69433">
        <ele>2168.549</ele>
        <time>2010-07-04T08:42:13Z</time>
      </trkpt>
      <trkpt lat="44.80015" lon="6.69425">
        <ele>2169.992</ele>
        <time>2010-07-04T08:42:18Z</time>
      </trkpt>
      <trkpt lat="44.8002" lon="6.69416">
        <ele>2170.857</ele>
        <time>2010-07-04T08:42:25Z</time>
      </trkpt>
      <trkpt lat="44.80024" lon="6.69423">
        <ele>2171.994</ele>
        <time>2010-07-04T08:42:31Z</time>
      </trkpt>
      <trkpt lat="44.80031" lon="6.6943">
        <ele>2173.747</ele>
        <time>2010-07-04T08:42:39Z</time>
      </trkpt>
      <trkpt lat="44.8004" lon="6.69427">
        <ele>2176.232</ele>
        <time>2010-07-04T08:42:47Z</time>
      </trkpt>
      <trkpt lat="44.80042" lon="6.69419">
        <ele>2176.787</ele>
        <time>2010-07-04T08:42:51Z</time>
      </trkpt>
      <trkpt lat="44.80037" lon="6.69411">
        <ele>2177.673</ele>
        <time>2010-07-04T08:42:57Z</time>
      </trkpt>
      <trkpt lat="44.80032" lon="6.69407">
        <ele>2178.257</ele>
        <time>2010-07-04T08:43:01Z</time>
      </trkpt>
      <trkpt lat="44.80021" lon="6.69391">
        <ele>2180.418</ele>
        <time>2010-07-04T08:43:12Z</time>
      </trkpt>
      <trkpt lat="44.80012" lon="6.69378">
        <ele>2182.458</ele>
        <time>2010-07-04T08:43:21Z</time>
      </trkpt>
      <trkpt lat="44.80006" lon="6.69362">
        <ele>2185.714</ele>
        <time>2010-07-04T08:43:31Z</time>
      </trkpt>
      <trkpt lat="44.79999" lon="6.69351">
        <ele>2188.576</ele>
        <time>2010-07-04T08:43:39Z</time>
      </trkpt>
      <trkpt lat="44.79992" lon="6.69343">
        <ele>2190.565</ele>
        <time>2010-07-04T08:43:46Z</time>
      </trkpt>
      <trkpt lat="44.79986" lon="6.6933">
        <ele>2193.143</ele>
        <time>2010-07-04T08:43:54Z</time>
      </trkpt>
      <trkpt lat="44.7998" lon="6.69321">
        <ele>2195.174</ele>
        <time>2010-07-04T08:44:01Z</time>
      </trkpt>
      <trkpt lat="44.79973" lon="6.69311">
        <ele>2197.735</ele>
        <time>2010-07-04T08:44:09Z</time>
      </trkpt>
      <trkpt lat="44.79967" lon="6.693">
        <ele>2199.629</ele>
        <time>2010-07-04T08:44:17Z</time>
      </trkpt>
      <trkpt lat="44.79959" lon="6.69301">
        <ele>2201.744</ele>
        <time>2010-07-04T08:44:24Z</time>
      </trkpt>
      <trkpt lat="44.79954" lon="6.69301">
        <ele>2202.554</ele>
        <time>2010-07-04T08:44:28Z</time>
      </trkpt>
      <trkpt lat="44.79952" lon="6.6929">
        <ele>2204.01</ele>
        <time>2010-07-04T08:44:35Z</time>
      </trkpt>
      <trkpt lat="44.79953" lon="6.69287">
        <ele>2204.331</ele>
        <time>2010-07-04T08:44:37Z</time>
      </trkpt>
      <trkpt lat="44.79962" lon="6.69278">
        <ele>2205.855</ele>
        <time>2010-07-04T08:44:45Z</time>
      </trkpt>
      <trkpt lat="44.79965" lon="6.69266">
        <ele>2207.05</ele>
        <time>2010-07-04T08:44:52Z</time>
      </trkpt>
      <trkpt lat="44.79963" lon="6.69251">
        <ele>2208.947</ele>
        <time>2010-07-04T08:45:00Z</time>
      </trkpt>
      <trkpt lat="44.79959" lon="6.69237">
        <ele>2212.063</ele>
        <time>2010-07-04T08:45:08Z</time>
      </trkpt>
      <trkpt lat="44.79956" lon="6.69221">
        <ele>2219.828</ele>
        <time>2010-07-04T08:45:17Z</time>
      </trkpt>
      <trkpt lat="44.79953" lon="6.69205">
        <ele>2223.909</ele>
        <time>2010-07-04T08:45:26Z</time>
      </trkpt>
      <trkpt lat="44.79944" lon="6.69195">
        <ele>2220.602</ele>
        <time>2010-07-04T08:45:34Z</time>
      </trkpt>
      <trkpt lat="44.79936" lon="6.6918">
        <ele>2221.183</ele>
        <time>2010-07-04T08:45:44Z</time>
      </trkpt>
      <trkpt lat="44.79928" lon="6.69165">
        <ele>2217.966</ele>
        <time>2010-07-04T08:45:53Z</time>
      </trkpt>
      <trkpt lat="44.79919" lon="6.69155">
        <ele>2218.342</ele>
        <time>2010-07-04T08:46:02Z</time>
      </trkpt>
      <trkpt lat="44.79908" lon="6.69145">
        <ele>2219.539</ele>
        <time>2010-07-04T08:46:11Z</time>
      </trkpt>
      <trkpt lat="44.79898" lon="6.69135">
        <ele>2220.516</ele>
        <time>2010-07-04T08:46:18Z</time>
      </trkpt>
      <trkpt lat="44.79884" lon="6.69121">
        <ele>2220.073</ele>
        <time>2010-07-04T08:46:26Z</time>
      </trkpt>
      <trkpt lat="44.79866" lon="6.69104">
        <ele>2219.701</ele>
        <time>2010-07-04T08:46:35Z</time>
      </trkpt>
      <trkpt lat="44.7985" lon="6.69086">
        <ele>2219.401</ele>
        <time>2010-07-04T08:46:43Z</time>
      </trkpt>
      <trkpt lat="44.79833" lon="6.69067">
        <ele>2218.671</ele>
        <time>2010-07-04T08:46:50Z</time>
      </trkpt>
      <trkpt lat="44.79808" lon="6.69039">
        <ele>2218.575</ele>
        <time>2010-07-04T08:46:59Z</time>
      </trkpt>
      <trkpt lat="44.79796" lon="6.69022">
        <ele>2218.905</ele>
        <time>2010-07-04T08:47:05Z</time>
      </trkpt>
      <trkpt lat="44.79784" lon="6.69005">
        <ele>2219.312</ele>
        <time>2010-07-04T08:47:11Z</time>
      </trkpt>
      <trkpt lat="44.79769" lon="6.68998">
        <ele>2220.794</ele>
        <time>2010-07-04T08:47:16Z</time>
      </trkpt>
      <trkpt lat="44.79748" lon="6.68992">
        <ele>2221.437</ele>
        <time>2010-07-04T08:47:23Z</time>
      </trkpt>
      <trkpt lat="44.79736" lon="6.68998">
        <ele>2222.906</ele>
        <time>2010-07-04T08:47:27Z</time>
      </trkpt>
      <trkpt lat="44.79725" lon="6.68993">
        <ele>2223.593</ele>
        <time>2010-07-04T08:47:31Z</time>
      </trkpt>
      <trkpt lat="44.79712" lon="6.68978">
        <ele>2225.268</ele>
        <time>2010-07-04T08:47:39Z</time>
      </trkpt>
      <trkpt lat="44.79697" lon="6.68975">
        <ele>2226.318</ele>
        <time>2010-07-04T08:47:47Z</time>
      </trkpt>
      <trkpt lat="44.79679" lon="6.68964">
        <ele>2227.847</ele>
        <time>2010-07-04T08:47:58Z</time>
      </trkpt>
      <trkpt lat="44.7967" lon="6.68958">
        <ele>2228.665</ele>
        <time>2010-07-04T08:48:05Z</time>
      </trkpt>
      <trkpt lat="44.79657" lon="6.68961">
        <ele>2230.339</ele>
        <time>2010-07-04T08:48:14Z</time>
      </trkpt>
      <trkpt lat="44.79654" lon="6.68961">
        <ele>2230.589</ele>
        <time>2010-07-04T08:48:20Z</time>
      </trkpt>
      <trkpt lat="44.79655" lon="6.68961">
        <ele>2230.669</ele>
        <time>2010-07-04T08:48:27Z</time>
      </trkpt>
      <trkpt lat="44.79653" lon="6.68958">
        <ele>2231.949</ele>
        <time>2010-07-04T08:48:42Z</time>
      </trkpt>
      <trkpt lat="44.79651" lon="6.68954">
        <ele>2233.442</ele>
        <time>2010-07-04T08:48:47Z</time>
      </trkpt>
      <trkpt lat="44.79649" lon="6.68948">
        <ele>2234.082</ele>
        <time>2010-07-04T08:48:53Z</time>
      </trkpt>
      <trkpt lat="44.79645" lon="6.68944">
        <ele>2234.88</ele>
        <time>2010-07-04T08:49:01Z</time>
      </trkpt>
      <trkpt lat="44.79642" lon="6.68938">
        <ele>2234.273</ele>
        <time>2010-07-04T08:49:09Z</time>
      </trkpt>
      <trkpt lat="44.79639" lon="6.68934">
        <ele>2234.441</ele>
        <time>2010-07-04T08:49:17Z</time>
      </trkpt>
      <trkpt lat="44.79635" lon="6.68927">
        <ele>2236.72</ele>
        <time>2010-07-04T08:49:27Z</time>
      </trkpt>
      <trkpt lat="44.79632" lon="6.68924">
        <ele>2238.364</ele>
        <time>2010-07-04T08:49:32Z</time>
      </trkpt>
      <trkpt lat="44.7963" lon="6.68922">
        <ele>2239.464</ele>
        <time>2010-07-04T08:49:38Z</time>
      </trkpt>
      <trkpt lat="44.79628" lon="6.68916">
        <ele>2241.98</ele>
        <time>2010-07-04T08:49:47Z</time>
      </trkpt>
      <trkpt lat="44.79625" lon="6.68912">
        <ele>2242.208</ele>
        <time>2010-07-04T08:49:56Z</time>
      </trkpt>
      <trkpt lat="44.79621" lon="6.68906">
        <ele>2242.591</ele>
        <time>2010-07-04T08:50:06Z</time>
      </trkpt>
      <trkpt lat="44.79615" lon="6.68903">
        <ele>2244.266</ele>
        <time>2010-07-04T08:50:15Z</time>
      </trkpt>
      <trkpt lat="44.79609" lon="6.68901">
        <ele>2246.398</ele>
        <time>2010-07-04T08:50:24Z</time>
      </trkpt>
      <trkpt lat="44.79606" lon="6.68894">
        <ele>2247.217</ele>
        <time>2010-07-04T08:50:34Z</time>
      </trkpt>
      <trkpt lat="44.79603" lon="6.68889">
        <ele>2247.928</ele>
        <time>2010-07-04T08:50:43Z</time>
      </trkpt>
      <trkpt lat="44.79599" lon="6.68886">
        <ele>2250.211</ele>
        <time>2010-07-04T08:50:52Z</time>
      </trkpt>
      <trkpt lat="44.79595" lon="6.68882">
        <ele>2252.518</ele>
        <time>2010-07-04T08:51:01Z</time>
      </trkpt>
      <trkpt lat="44.79591" lon="6.68876">
        <ele>2253.8</ele>
        <time>2010-07-04T08:51:11Z</time>
      </trkpt>
      <trkpt lat="44.79587" lon="6.68873">
        <ele>2255.269</ele>
        <time>2010-07-04T08:51:19Z</time>
      </trkpt>
      <trkpt lat="44.79584" lon="6.68872">
        <ele>2256.379</ele>
        <time>2010-07-04T08:51:24Z</time>
      </trkpt>
      <trkpt lat="44.79579" lon="6.68869">
        <ele>2258.559</ele>
        <time>2010-07-04T08:51:33Z</time>
      </trkpt>
      <trkpt lat="44.79578" lon="6.68869">
        <ele>2258.78</ele>
        <time>2010-07-04T08:51:34Z</time>
      </trkpt>
      <trkpt lat="44.79572" lon="6.68866">
        <ele>2260.147</ele>
        <time>2010-07-04T08:51:43Z</time>
      </trkpt>
      <trkpt lat="44.79566" lon="6.68866">
        <ele>2260.947</ele>
        <time>2010-07-04T08:51:52Z</time>
      </trkpt>
      <trkpt lat="44.79561" lon="6.68864">
        <ele>2261.949</ele>
        <time>2010-07-04T08:52:00Z</time>
      </trkpt>
      <trkpt lat="44.79557" lon="6.6886">
        <ele>2263.148</ele>
        <time>2010-07-04T08:52:08Z</time>
      </trkpt>
      <trkpt lat="44.79551" lon="6.68854">
        <ele>2265.61</ele>
        <time>2010-07-04T08:52:18Z</time>
      </trkpt>
      <trkpt lat="44.79548" lon="6.68854">
        <ele>2267.689</ele>
        <time>2010-07-04T08:52:24Z</time>
      </trkpt>
      <trkpt lat="44.79544" lon="6.68851">
        <ele>2269.191</ele>
        <time>2010-07-04T08:52:31Z</time>
      </trkpt>
      <trkpt lat="44.79533" lon="6.68845">
        <ele>2271.133</ele>
        <time>2010-07-04T08:52:39Z</time>
      </trkpt>
      <trkpt lat="44.79518" lon="6.68835">
        <ele>2274.708</ele>
        <time>2010-07-04T08:52:49Z</time>
      </trkpt>
      <trkpt lat="44.7951" lon="6.6883">
        <ele>2276.662</ele>
        <time>2010-07-04T08:52:56Z</time>
      </trkpt>
      <trkpt lat="44.79499" lon="6.68824">
        <ele>2278.948</ele>
        <time>2010-07-04T08:53:04Z</time>
      </trkpt>
      <trkpt lat="44.79496" lon="6.68823">
        <ele>2279.766</ele>
        <time>2010-07-04T08:53:09Z</time>
      </trkpt>
      <trkpt lat="44.79492" lon="6.68822">
        <ele>2281.375</ele>
        <time>2010-07-04T08:53:21Z</time>
      </trkpt>
      <trkpt lat="44.79489" lon="6.6882">
        <ele>2281.918</ele>
        <time>2010-07-04T08:53:27Z</time>
      </trkpt>
      <trkpt lat="44.79484" lon="6.68817">
        <ele>2283.559</ele>
        <time>2010-07-04T08:53:36Z</time>
      </trkpt>
      <trkpt lat="44.79479" lon="6.68813">
        <ele>2282.758</ele>
        <time>2010-07-04T08:53:46Z</time>
      </trkpt>
      <trkpt lat="44.79476" lon="6.68808">
        <ele>2282.381</ele>
        <time>2010-07-04T08:53:54Z</time>
      </trkpt>
      <trkpt lat="44.79472" lon="6.68805">
        <ele>2281.992</ele>
        <time>2010-07-04T08:54:01Z</time>
      </trkpt>
      <trkpt lat="44.79466" lon="6.68803">
        <ele>2282.491</ele>
        <time>2010-07-04T08:54:10Z</time>
      </trkpt>
      <trkpt lat="44.79464" lon="6.68803">
        <ele>2282.835</ele>
        <time>2010-07-04T08:54:17Z</time>
      </trkpt>
      <trkpt lat="44.79454" lon="6.68805">
        <ele>2285.855</ele>
        <time>2010-07-04T08:54:24Z</time>
      </trkpt>
      <trkpt lat="44.79452" lon="6.68806">
        <ele>2286.947</ele>
        <time>2010-07-04T08:54:28Z</time>
      </trkpt>
      <trkpt lat="44.79451" lon="6.68808">
        <ele>2288.134</ele>
        <time>2010-07-04T08:54:36Z</time>
      </trkpt>
      <trkpt lat="44.7945" lon="6.68802">
        <ele>2289.392</ele>
        <time>2010-07-04T08:54:42Z</time>
      </trkpt>
      <trkpt lat="44.79451" lon="6.68801">
        <ele>2289.521</ele>
        <time>2010-07-04T08:54:43Z</time>
      </trkpt>
      <trkpt lat="44.79453" lon="6.68797">
        <ele>2290.371</ele>
        <time>2010-07-04T08:54:47Z</time>
      </trkpt>
      <trkpt lat="44.79451" lon="6.68788">
        <ele>2294.092</ele>
        <time>2010-07-04T08:54:58Z</time>
      </trkpt>
      <trkpt lat="44.79446" lon="6.68783">
        <ele>2298.052</ele>
        <time>2010-07-04T08:55:07Z</time>
      </trkpt>
      <trkpt lat="44.79441" lon="6.6878">
        <ele>2301.839</ele>
        <time>2010-07-04T08:55:16Z</time>
      </trkpt>
      <trkpt lat="44.7944" lon="6.68774">
        <ele>2303.554</ele>
        <time>2010-07-04T08:55:24Z</time>
      </trkpt>
      <trkpt lat="44.79441" lon="6.68771">
        <ele>2304.5</ele>
        <time>2010-07-04T08:55:29Z</time>
      </trkpt>
      <trkpt lat="44.79442" lon="6.68764">
        <ele>2305.551</ele>
        <time>2010-07-04T08:55:38Z</time>
      </trkpt>
      <trkpt lat="44.79441" lon="6.68758">
        <ele>2306.76</ele>
        <time>2010-07-04T08:55:45Z</time>
      </trkpt>
      <trkpt lat="44.79441" lon="6.68752">
        <ele>2308.211</ele>
        <time>2010-07-04T08:55:53Z</time>
      </trkpt>
      <trkpt lat="44.7944" lon="6.68744">
        <ele>2309.561</ele>
        <time>2010-07-04T08:56:01Z</time>
      </trkpt>
      <trkpt lat="44.79436" lon="6.68741">
        <ele>2311.503</ele>
        <time>2010-07-04T08:56:08Z</time>
      </trkpt>
      <trkpt lat="44.79433" lon="6.68734">
        <ele>2312.938</ele>
        <time>2010-07-04T08:56:16Z</time>
      </trkpt>
      <trkpt lat="44.79433" lon="6.68733">
        <ele>2313.416</ele>
        <time>2010-07-04T08:56:24Z</time>
      </trkpt>
      <trkpt lat="44.79433" lon="6.68729">
        <ele>2313.951</ele>
        <time>2010-07-04T08:56:30Z</time>
      </trkpt>
      <trkpt lat="44.7943" lon="6.68722">
        <ele>2314.106</ele>
        <time>2010-07-04T08:56:36Z</time>
      </trkpt>
      <trkpt lat="44.7943" lon="6.68715">
        <ele>2314.319</ele>
        <time>2010-07-04T08:56:42Z</time>
      </trkpt>
      <trkpt lat="44.79427" lon="6.68712">
        <ele>2315.684</ele>
        <time>2010-07-04T08:56:48Z</time>
      </trkpt>
      <trkpt lat="44.79422" lon="6.6871">
        <ele>2317.31</ele>
        <time>2010-07-04T08:56:55Z</time>
      </trkpt>
      <trkpt lat="44.79419" lon="6.68705">
        <ele>2317.676</ele>
        <time>2010-07-04T08:57:00Z</time>
      </trkpt>
      <trkpt lat="44.79411" lon="6.68694">
        <ele>2319.414</ele>
        <time>2010-07-04T08:57:07Z</time>
      </trkpt>
      <trkpt lat="44.79403" lon="6.68676">
        <ele>2320.479</ele>
        <time>2010-07-04T08:57:14Z</time>
      </trkpt>
      <trkpt lat="44.79401" lon="6.68658">
        <ele>2319.133</ele>
        <time>2010-07-04T08:57:17Z</time>
      </trkpt>
      <trkpt lat="44.79392" lon="6.68636">
        <ele>2319.31</ele>
        <time>2010-07-04T08:57:21Z</time>
      </trkpt>
      <trkpt lat="44.79375" lon="6.68624">
        <ele>2320.395</ele>
        <time>2010-07-04T08:57:28Z</time>
      </trkpt>
      <trkpt lat="44.79371" lon="6.68623">
        <ele>2320.887</ele>
        <time>2010-07-04T08:57:30Z</time>
      </trkpt>
      <trkpt lat="44.79365" lon="6.68617">
        <ele>2321.832</ele>
        <time>2010-07-04T08:57:34Z</time>
      </trkpt>
      <trkpt lat="44.79354" lon="6.68592">
        <ele>2321.396</ele>
        <time>2010-07-04T08:57:44Z</time>
      </trkpt>
      <trkpt lat="44.79346" lon="6.68571">
        <ele>2319.597</ele>
        <time>2010-07-04T08:57:51Z</time>
      </trkpt>
      <trkpt lat="44.7934" lon="6.68558">
        <ele>2318.498</ele>
        <time>2010-07-04T08:57:57Z</time>
      </trkpt>
      <trkpt lat="44.79335" lon="6.68542">
        <ele>2318.039</ele>
        <time>2010-07-04T08:58:02Z</time>
      </trkpt>
      <trkpt lat="44.79325" lon="6.68521">
        <ele>2318.312</ele>
        <time>2010-07-04T08:58:08Z</time>
      </trkpt>
      <trkpt lat="44.79323" lon="6.68502">
        <ele>2318.925</ele>
        <time>2010-07-04T08:58:15Z</time>
      </trkpt>
      <trkpt lat="44.7932" lon="6.68483">
        <ele>2321.394</ele>
        <time>2010-07-04T08:58:23Z</time>
      </trkpt>
      <trkpt lat="44.79318" lon="6.68472">
        <ele>2323.707</ele>
        <time>2010-07-04T08:58:28Z</time>
      </trkpt>
      <trkpt lat="44.79314" lon="6.68454">
        <ele>2326.498</ele>
        <time>2010-07-04T08:58:36Z</time>
      </trkpt>
      <trkpt lat="44.79314" lon="6.68446">
        <ele>2327.487</ele>
        <time>2010-07-04T08:58:40Z</time>
      </trkpt>
      <trkpt lat="44.79317" lon="6.68426">
        <ele>2329.021</ele>
        <time>2010-07-04T08:58:49Z</time>
      </trkpt>
      <trkpt lat="44.79317" lon="6.68408">
        <ele>2332.172</ele>
        <time>2010-07-04T08:58:58Z</time>
      </trkpt>
      <trkpt lat="44.79316" lon="6.68392">
        <ele>2333.938</ele>
        <time>2010-07-04T08:59:06Z</time>
      </trkpt>
      <trkpt lat="44.79316" lon="6.68381">
        <ele>2334.757</ele>
        <time>2010-07-04T08:59:12Z</time>
      </trkpt>
      <trkpt lat="44.79317" lon="6.6838">
        <ele>2334.521</ele>
        <time>2010-07-04T08:59:20Z</time>
      </trkpt>
      <trkpt lat="44.79318" lon="6.68374">
        <ele>2335.53</ele>
        <time>2010-07-04T08:59:26Z</time>
      </trkpt>
      <trkpt lat="44.7932" lon="6.68359">
        <ele>2337.32</ele>
        <time>2010-07-04T08:59:38Z</time>
      </trkpt>
      <trkpt lat="44.79317" lon="6.68355">
        <ele>2343.746</ele>
        <time>2010-07-04T08:59:47Z</time>
      </trkpt>
      <trkpt lat="44.79316" lon="6.68345">
        <ele>2345.439</ele>
        <time>2010-07-04T08:59:57Z</time>
      </trkpt>
      <trkpt lat="44.79315" lon="6.68337">
        <ele>2347.662</ele>
        <time>2010-07-04T09:00:06Z</time>
      </trkpt>
      <trkpt lat="44.79313" lon="6.68334">
        <ele>2350.361</ele>
        <time>2010-07-04T09:00:12Z</time>
      </trkpt>
      <trkpt lat="44.79312" lon="6.68325">
        <ele>2351.253</ele>
        <time>2010-07-04T09:00:21Z</time>
      </trkpt>
      <trkpt lat="44.79311" lon="6.68319">
        <ele>2351.786</ele>
        <time>2010-07-04T09:00:27Z</time>
      </trkpt>
      <trkpt lat="44.79307" lon="6.68314">
        <ele>2353.363</ele>
        <time>2010-07-04T09:00:34Z</time>
      </trkpt>
      <trkpt lat="44.79304" lon="6.68309">
        <ele>2353.807</ele>
        <time>2010-07-04T09:00:39Z</time>
      </trkpt>
      <trkpt lat="44.79304" lon="6.68296">
        <ele>2351.204</ele>
        <time>2010-07-04T09:00:47Z</time>
      </trkpt>
      <trkpt lat="44.79304" lon="6.68282">
        <ele>2349.106</ele>
        <time>2010-07-04T09:00:57Z</time>
      </trkpt>
      <trkpt lat="44.79303" lon="6.68273">
        <ele>2350.123</ele>
        <time>2010-07-04T09:01:06Z</time>
      </trkpt>
      <trkpt lat="44.79302" lon="6.68261">
        <ele>2352.706</ele>
        <time>2010-07-04T09:01:18Z</time>
      </trkpt>
      <trkpt lat="44.79301" lon="6.68262">
        <ele>2356.837</ele>
        <time>2010-07-04T09:01:26Z</time>
      </trkpt>
      <trkpt lat="44.79301" lon="6.68261">
        <ele>2356.878</ele>
        <time>2010-07-04T09:01:30Z</time>
      </trkpt>
      <trkpt lat="44.793" lon="6.68252">
        <ele>2357.86</ele>
        <time>2010-07-04T09:01:35Z</time>
      </trkpt>
      <trkpt lat="44.79299" lon="6.68233">
        <ele>2360.311</ele>
        <time>2010-07-04T09:01:43Z</time>
      </trkpt>
      <trkpt lat="44.79299" lon="6.6823">
        <ele>2361.267</ele>
        <time>2010-07-04T09:01:45Z</time>
      </trkpt>
      <trkpt lat="44.793" lon="6.68217">
        <ele>2363.094</ele>
        <time>2010-07-04T09:01:51Z</time>
      </trkpt>
      <trkpt lat="44.79301" lon="6.68213">
        <ele>2363.413</ele>
        <time>2010-07-04T09:01:53Z</time>
      </trkpt>
      <trkpt lat="44.79297" lon="6.682">
        <ele>2365.819</ele>
        <time>2010-07-04T09:02:00Z</time>
      </trkpt>
      <trkpt lat="44.79296" lon="6.68197">
        <ele>2366.231</ele>
        <time>2010-07-04T09:02:02Z</time>
      </trkpt>
      <trkpt lat="44.79291" lon="6.68186">
        <ele>2367.931</ele>
        <time>2010-07-04T09:02:09Z</time>
      </trkpt>
      <trkpt lat="44.79286" lon="6.68172">
        <ele>2370.281</ele>
        <time>2010-07-04T09:02:18Z</time>
      </trkpt>
      <trkpt lat="44.79283" lon="6.68157">
        <ele>2372.391</ele>
        <time>2010-07-04T09:02:26Z</time>
      </trkpt>
      <trkpt lat="44.79284" lon="6.68142">
        <ele>2373.941</ele>
        <time>2010-07-04T09:02:33Z</time>
      </trkpt>
      <trkpt lat="44.79279" lon="6.68126">
        <ele>2374.916</ele>
        <time>2010-07-04T09:02:41Z</time>
      </trkpt>
      <trkpt lat="44.79273" lon="6.68103">
        <ele>2375.041</ele>
        <time>2010-07-04T09:02:50Z</time>
      </trkpt>
      <trkpt lat="44.79268" lon="6.6808">
        <ele>2375.292</ele>
        <time>2010-07-04T09:02:58Z</time>
      </trkpt>
      <trkpt lat="44.79257" lon="6.68059">
        <ele>2375.103</ele>
        <time>2010-07-04T09:03:06Z</time>
      </trkpt>
      <trkpt lat="44.7925" lon="6.68045">
        <ele>2375.619</ele>
        <time>2010-07-04T09:03:11Z</time>
      </trkpt>
      <trkpt lat="44.79241" lon="6.68025">
        <ele>2376.106</ele>
        <time>2010-07-04T09:03:19Z</time>
      </trkpt>
      <trkpt lat="44.79233" lon="6.68006">
        <ele>2376.361</ele>
        <time>2010-07-04T09:03:27Z</time>
      </trkpt>
      <trkpt lat="44.79225" lon="6.67987">
        <ele>2377.989</ele>
        <time>2010-07-04T09:03:35Z</time>
      </trkpt>
      <trkpt lat="44.79222" lon="6.67969">
        <ele>2379.331</ele>
        <time>2010-07-04T09:03:42Z</time>
      </trkpt>
      <trkpt lat="44.79218" lon="6.6795">
        <ele>2380.647</ele>
        <time>2010-07-04T09:03:50Z</time>
      </trkpt>
      <trkpt lat="44.79215" lon="6.67933">
        <ele>2381.617</ele>
        <time>2010-07-04T09:03:58Z</time>
      </trkpt>
      <trkpt lat="44.79216" lon="6.6792">
        <ele>2382.172</ele>
        <time>2010-07-04T09:04:04Z</time>
      </trkpt>
      <trkpt lat="44.79216" lon="6.67917">
        <ele>2382.35</ele>
        <time>2010-07-04T09:04:05Z</time>
      </trkpt>
      <trkpt lat="44.79214" lon="6.67914">
        <ele>2383.639</ele>
        <time>2010-07-04T09:04:10Z</time>
      </trkpt>
      <trkpt lat="44.7921" lon="6.67912">
        <ele>2383.882</ele>
        <time>2010-07-04T09:04:13Z</time>
      </trkpt>
      <trkpt lat="44.79208" lon="6.67904">
        <ele>2384.053</ele>
        <time>2010-07-04T09:04:17Z</time>
      </trkpt>
      <trkpt lat="44.79205" lon="6.67883">
        <ele>2384.353</ele>
        <time>2010-07-04T09:04:25Z</time>
      </trkpt>
      <trkpt lat="44.79206" lon="6.67864">
        <ele>2384.231</ele>
        <time>2010-07-04T09:04:31Z</time>
      </trkpt>
      <trkpt lat="44.79207" lon="6.67834">
        <ele>2383.942</ele>
        <time>2010-07-04T09:04:40Z</time>
      </trkpt>
      <trkpt lat="44.79204" lon="6.67811">
        <ele>2383.964</ele>
        <time>2010-07-04T09:04:47Z</time>
      </trkpt>
      <trkpt lat="44.79201" lon="6.67792">
        <ele>2384.544</ele>
        <time>2010-07-04T09:04:53Z</time>
      </trkpt>
      <trkpt lat="44.79199" lon="6.6778">
        <ele>2384.802</ele>
        <time>2010-07-04T09:04:59Z</time>
      </trkpt>
      <trkpt lat="44.79199" lon="6.67769">
        <ele>2385.208</ele>
        <time>2010-07-04T09:05:04Z</time>
      </trkpt>
      <trkpt lat="44.79199" lon="6.67745">
        <ele>2386.387</ele>
        <time>2010-07-04T09:05:13Z</time>
      </trkpt>
      <trkpt lat="44.792" lon="6.67722">
        <ele>2387.657</ele>
        <time>2010-07-04T09:05:22Z</time>
      </trkpt>
      <trkpt lat="44.79202" lon="6.67703">
        <ele>2388.776</ele>
        <time>2010-07-04T09:05:29Z</time>
      </trkpt>
      <trkpt lat="44.792" lon="6.67682">
        <ele>2389.158</ele>
        <time>2010-07-04T09:05:35Z</time>
      </trkpt>
      <trkpt lat="44.79193" lon="6.67658">
        <ele>2388.448</ele>
        <time>2010-07-04T09:05:40Z</time>
      </trkpt>
      <trkpt lat="44.79188" lon="6.67625">
        <ele>2387.978</ele>
        <time>2010-07-04T09:05:45Z</time>
      </trkpt>
      <trkpt lat="44.79182" lon="6.67574">
        <ele>2387.449</ele>
        <time>2010-07-04T09:05:54Z</time>
      </trkpt>
      <trkpt lat="44.79177" lon="6.67542">
        <ele>2387.795</ele>
        <time>2010-07-04T09:06:01Z</time>
      </trkpt>
      <trkpt lat="44.79174" lon="6.67528">
        <ele>2387.006</ele>
        <time>2010-07-04T09:06:04Z</time>
      </trkpt>
      <trkpt lat="44.79174" lon="6.67506">
        <ele>2387.384</ele>
        <time>2010-07-04T09:06:08Z</time>
      </trkpt>
      <trkpt lat="44.79175" lon="6.67503">
        <ele>2387.515</ele>
        <time>2010-07-04T09:06:09Z</time>
      </trkpt>
      <trkpt lat="44.79179" lon="6.67489">
        <ele>2388.689</ele>
        <time>2010-07-04T09:06:16Z</time>
      </trkpt>
      <trkpt lat="44.79178" lon="6.67475">
        <ele>2390.531</ele>
        <time>2010-07-04T09:06:22Z</time>
      </trkpt>
      <trkpt lat="44.79177" lon="6.67459">
        <ele>2393.047</ele>
        <time>2010-07-04T09:06:29Z</time>
      </trkpt>
      <trkpt lat="44.79177" lon="6.67453">
        <ele>2394.106</ele>
        <time>2010-07-04T09:06:32Z</time>
      </trkpt>
      <trkpt lat="44.7918" lon="6.6744">
        <ele>2396.773</ele>
        <time>2010-07-04T09:06:39Z</time>
      </trkpt>
      <trkpt lat="44.79179" lon="6.67425">
        <ele>2398.867</ele>
        <time>2010-07-04T09:06:46Z</time>
      </trkpt>
      <trkpt lat="44.7918" lon="6.67407">
        <ele>2400.492</ele>
        <time>2010-07-04T09:06:55Z</time>
      </trkpt>
      <trkpt lat="44.79181" lon="6.67385">
        <ele>2402.419</ele>
        <time>2010-07-04T09:07:07Z</time>
      </trkpt>
      <trkpt lat="44.79184" lon="6.6737">
        <ele>2403.625</ele>
        <time>2010-07-04T09:07:15Z</time>
      </trkpt>
      <trkpt lat="44.79184" lon="6.67363">
        <ele>2403.987</ele>
        <time>2010-07-04T09:07:21Z</time>
      </trkpt>
      <trkpt lat="44.79184" lon="6.67361">
        <ele>2403.877</ele>
        <time>2010-07-04T09:07:44Z</time>
      </trkpt>
      <trkpt lat="44.79184" lon="6.67357">
        <ele>2404.959</ele>
        <time>2010-07-04T09:07:50Z</time>
      </trkpt>
      <trkpt lat="44.79183" lon="6.67345">
        <ele>2405.907</ele>
        <time>2010-07-04T09:08:00Z</time>
      </trkpt>
      <trkpt lat="44.79183" lon="6.67337">
        <ele>2406.798</ele>
        <time>2010-07-04T09:08:08Z</time>
      </trkpt>
      <trkpt lat="44.79183" lon="6.67329">
        <ele>2407.157</ele>
        <time>2010-07-04T09:08:17Z</time>
      </trkpt>
      <trkpt lat="44.79185" lon="6.67323">
        <ele>2407.357</ele>
        <time>2010-07-04T09:08:26Z</time>
      </trkpt>
      <trkpt lat="44.79186" lon="6.67316">
        <ele>2408.768</ele>
        <time>2010-07-04T09:08:36Z</time>
      </trkpt>
      <trkpt lat="44.79186" lon="6.67309">
        <ele>2410.278</ele>
        <time>2010-07-04T09:08:46Z</time>
      </trkpt>
      <trkpt lat="44.79186" lon="6.67301">
        <ele>2412.058</ele>
        <time>2010-07-04T09:08:57Z</time>
      </trkpt>
      <trkpt lat="44.79187" lon="6.67295">
        <ele>2413.568</ele>
        <time>2010-07-04T09:09:05Z</time>
      </trkpt>
      <trkpt lat="44.79188" lon="6.67288">
        <ele>2415.248</ele>
        <time>2010-07-04T09:09:16Z</time>
      </trkpt>
      <trkpt lat="44.79188" lon="6.67281">
        <ele>2416.868</ele>
        <time>2010-07-04T09:09:26Z</time>
      </trkpt>
      <trkpt lat="44.79188" lon="6.67272">
        <ele>2418.798</ele>
        <time>2010-07-04T09:09:39Z</time>
      </trkpt>
      <trkpt lat="44.79187" lon="6.67265">
        <ele>2420.157</ele>
        <time>2010-07-04T09:09:50Z</time>
      </trkpt>
      <trkpt lat="44.79186" lon="6.67259">
        <ele>2420.827</ele>
        <time>2010-07-04T09:10:00Z</time>
      </trkpt>
      <trkpt lat="44.79187" lon="6.67259">
        <ele>2420.406</ele>
        <time>2010-07-04T09:10:11Z</time>
      </trkpt>
      <trkpt lat="44.79186" lon="6.67252">
        <ele>2420.437</ele>
        <time>2010-07-04T09:10:20Z</time>
      </trkpt>
      <trkpt lat="44.79184" lon="6.67237">
        <ele>2422.678</ele>
        <time>2010-07-04T09:10:27Z</time>
      </trkpt>
      <trkpt lat="44.79182" lon="6.67221">
        <ele>2424.839</ele>
        <time>2010-07-04T09:10:35Z</time>
      </trkpt>
      <trkpt lat="44.7918" lon="6.67207">
        <ele>2427.159</ele>
        <time>2010-07-04T09:10:42Z</time>
      </trkpt>
      <trkpt lat="44.79177" lon="6.6719">
        <ele>2430.35</ele>
        <time>2010-07-04T09:10:51Z</time>
      </trkpt>
      <trkpt lat="44.79175" lon="6.67175">
        <ele>2432.448</ele>
        <time>2010-07-04T09:11:00Z</time>
      </trkpt>
      <trkpt lat="44.79173" lon="6.67164">
        <ele>2435.909</ele>
        <time>2010-07-04T09:11:08Z</time>
      </trkpt>
      <trkpt lat="44.79172" lon="6.67168">
        <ele>2438.896</ele>
        <time>2010-07-04T09:11:22Z</time>
      </trkpt>
      <trkpt lat="44.79171" lon="6.67164">
        <ele>2438.978</ele>
        <time>2010-07-04T09:11:37Z</time>
      </trkpt>
      <trkpt lat="44.79169" lon="6.67157">
        <ele>2441.507</ele>
        <time>2010-07-04T09:11:47Z</time>
      </trkpt>
      <trkpt lat="44.79168" lon="6.67152">
        <ele>2443.168</ele>
        <time>2010-07-04T09:11:56Z</time>
      </trkpt>
      <trkpt lat="44.79166" lon="6.67151">
        <ele>2444.458</ele>
        <time>2010-07-04T09:12:01Z</time>
      </trkpt>
      <trkpt lat="44.79163" lon="6.67147">
        <ele>2445.317</ele>
        <time>2010-07-04T09:12:07Z</time>
      </trkpt>
      <trkpt lat="44.79163" lon="6.67141">
        <ele>2446.068</ele>
        <time>2010-07-04T09:12:14Z</time>
      </trkpt>
      <trkpt lat="44.79164" lon="6.6714">
        <ele>2446.068</ele>
        <time>2010-07-04T09:12:15Z</time>
      </trkpt>
      <trkpt lat="44.79165" lon="6.67132">
        <ele>2446.547</ele>
        <time>2010-07-04T09:12:24Z</time>
      </trkpt>
      <trkpt lat="44.79165" lon="6.67131">
        <ele>2446.547</ele>
        <time>2010-07-04T09:12:25Z</time>
      </trkpt>
      <trkpt lat="44.79162" lon="6.67123">
        <ele>2447.277</ele>
        <time>2010-07-04T09:12:33Z</time>
      </trkpt>
      <trkpt lat="44.79159" lon="6.67122">
        <ele>2447.978</ele>
        <time>2010-07-04T09:12:37Z</time>
      </trkpt>
      <trkpt lat="44.79152" lon="6.67119">
        <ele>2449.558</ele>
        <time>2010-07-04T09:12:47Z</time>
      </trkpt>
      <trkpt lat="44.79148" lon="6.67118">
        <ele>2450.397</ele>
        <time>2010-07-04T09:12:53Z</time>
      </trkpt>
      <trkpt lat="44.79144" lon="6.67114">
        <ele>2451.278</ele>
        <time>2010-07-04T09:13:00Z</time>
      </trkpt>
      <trkpt lat="44.79141" lon="6.67112">
        <ele>2452.318</ele>
        <time>2010-07-04T09:13:06Z</time>
      </trkpt>
      <trkpt lat="44.79139" lon="6.67109">
        <ele>2453.447</ele>
        <time>2010-07-04T09:13:13Z</time>
      </trkpt>
      <trkpt lat="44.79136" lon="6.67107">
        <ele>2453.937</ele>
        <time>2010-07-04T09:13:20Z</time>
      </trkpt>
      <trkpt lat="44.79129" lon="6.67097">
        <ele>2455.598</ele>
        <time>2010-07-04T09:13:26Z</time>
      </trkpt>
      <trkpt lat="44.79124" lon="6.6709">
        <ele>2456.447</ele>
        <time>2010-07-04T09:13:31Z</time>
      </trkpt>
      <trkpt lat="44.79116" lon="6.6708">
        <ele>2456.697</ele>
        <time>2010-07-04T09:13:37Z</time>
      </trkpt>
      <trkpt lat="44.79107" lon="6.67068">
        <ele>2457.648</ele>
        <time>2010-07-04T09:13:45Z</time>
      </trkpt>
      <trkpt lat="44.79103" lon="6.67064">
        <ele>2458.659</ele>
        <time>2010-07-04T09:13:48Z</time>
      </trkpt>
      <trkpt lat="44.79102" lon="6.67064">
        <ele>2459.317</ele>
        <time>2010-07-04T09:13:53Z</time>
      </trkpt>
      <trkpt lat="44.79097" lon="6.67064">
        <ele>2460.858</ele>
        <time>2010-07-04T09:14:00Z</time>
      </trkpt>
      <trkpt lat="44.79092" lon="6.67062">
        <ele>2463.418</ele>
        <time>2010-07-04T09:14:10Z</time>
      </trkpt>
      <trkpt lat="44.79085" lon="6.6706">
        <ele>2466.138</ele>
        <time>2010-07-04T09:14:21Z</time>
      </trkpt>
      <trkpt lat="44.79079" lon="6.67059">
        <ele>2468.387</ele>
        <time>2010-07-04T09:14:31Z</time>
      </trkpt>
      <trkpt lat="44.79073" lon="6.67054">
        <ele>2470.407</ele>
        <time>2010-07-04T09:14:42Z</time>
      </trkpt>
      <trkpt lat="44.7907" lon="6.67052">
        <ele>2471.077</ele>
        <time>2010-07-04T09:14:51Z</time>
      </trkpt>
      <trkpt lat="44.79071" lon="6.67052">
        <ele>2470.556</ele>
        <time>2010-07-04T09:14:59Z</time>
      </trkpt>
      <trkpt lat="44.79071" lon="6.67052">
        <ele>2469.567</ele>
        <time>2010-07-04T09:15:23Z</time>
      </trkpt>
      <trkpt lat="44.79062" lon="6.67042">
        <ele>2469.586</ele>
        <time>2010-07-04T09:15:30Z</time>
      </trkpt>
      <trkpt lat="44.79049" lon="6.67026">
        <ele>2468.566</ele>
        <time>2010-07-04T09:15:36Z</time>
      </trkpt>
      <trkpt lat="44.79043" lon="6.67014">
        <ele>2467.575</ele>
        <time>2010-07-04T09:15:41Z</time>
      </trkpt>
      <trkpt lat="44.79037" lon="6.67011">
        <ele>2467.587</ele>
        <time>2010-07-04T09:15:45Z</time>
      </trkpt>
      <trkpt lat="44.79028" lon="6.67005">
        <ele>2468.547</ele>
        <time>2010-07-04T09:15:52Z</time>
      </trkpt>
      <trkpt lat="44.79021" lon="6.67009">
        <ele>2469.428</ele>
        <time>2010-07-04T09:15:58Z</time>
      </trkpt>
      <trkpt lat="44.79014" lon="6.67011">
        <ele>2470.829</ele>
        <time>2010-07-04T09:16:03Z</time>
      </trkpt>
      <trkpt lat="44.79002" lon="6.67015">
        <ele>2471.798</ele>
        <time>2010-07-04T09:16:10Z</time>
      </trkpt>
      <trkpt lat="44.78988" lon="6.67017">
        <ele>2473.738</ele>
        <time>2010-07-04T09:16:19Z</time>
      </trkpt>
      <trkpt lat="44.78975" lon="6.67021">
        <ele>2476.499</ele>
        <time>2010-07-04T09:16:27Z</time>
      </trkpt>
      <trkpt lat="44.78963" lon="6.67023">
        <ele>2478.799</ele>
        <time>2010-07-04T09:16:35Z</time>
      </trkpt>
      <trkpt lat="44.78953" lon="6.67024">
        <ele>2480.198</ele>
        <time>2010-07-04T09:16:42Z</time>
      </trkpt>
      <trkpt lat="44.78945" lon="6.67026">
        <ele>2482.178</ele>
        <time>2010-07-04T09:16:48Z</time>
      </trkpt>
      <trkpt lat="44.78943" lon="6.67028">
        <ele>2482.937</ele>
        <time>2010-07-04T09:16:52Z</time>
      </trkpt>
      <trkpt lat="44.78938" lon="6.67028">
        <ele>2483.457</ele>
        <time>2010-07-04T09:16:58Z</time>
      </trkpt>
      <trkpt lat="44.78924" lon="6.67032">
        <ele>2484.267</ele>
        <time>2010-07-04T09:17:08Z</time>
      </trkpt>
      <trkpt lat="44.78916" lon="6.67031">
        <ele>2485.878</ele>
        <time>2010-07-04T09:17:13Z</time>
      </trkpt>
      <trkpt lat="44.78906" lon="6.6703">
        <ele>2487.107</ele>
        <time>2010-07-04T09:17:21Z</time>
      </trkpt>
      <trkpt lat="44.78893" lon="6.67032">
        <ele>2488.767</ele>
        <time>2010-07-04T09:17:30Z</time>
      </trkpt>
      <trkpt lat="44.78881" lon="6.67033">
        <ele>2489.987</ele>
        <time>2010-07-04T09:17:38Z</time>
      </trkpt>
      <trkpt lat="44.78866" lon="6.67035">
        <ele>2491.207</ele>
        <time>2010-07-04T09:17:48Z</time>
      </trkpt>
      <trkpt lat="44.78853" lon="6.67043">
        <ele>2491.967</ele>
        <time>2010-07-04T09:17:57Z</time>
      </trkpt>
      <trkpt lat="44.78837" lon="6.67054">
        <ele>2492.406</ele>
        <time>2010-07-04T09:18:05Z</time>
      </trkpt>
      <trkpt lat="44.78814" lon="6.67062">
        <ele>2490.983</ele>
        <time>2010-07-04T09:18:12Z</time>
      </trkpt>
      <trkpt lat="44.78798" lon="6.67065">
        <ele>2488.972</ele>
        <time>2010-07-04T09:18:15Z</time>
      </trkpt>
      <trkpt lat="44.78776" lon="6.67066">
        <ele>2487.694</ele>
        <time>2010-07-04T09:18:19Z</time>
      </trkpt>
      <trkpt lat="44.78755" lon="6.6708">
        <ele>2487.536</ele>
        <time>2010-07-04T09:18:24Z</time>
      </trkpt>
      <trkpt lat="44.78751" lon="6.67087">
        <ele>2487.606</ele>
        <time>2010-07-04T09:18:26Z</time>
      </trkpt>
      <trkpt lat="44.78732" lon="6.67105">
        <ele>2487.956</ele>
        <time>2010-07-04T09:18:33Z</time>
      </trkpt>
      <trkpt lat="44.78723" lon="6.67109">
        <ele>2488.316</ele>
        <time>2010-07-04T09:18:38Z</time>
      </trkpt>
      <trkpt lat="44.78717" lon="6.67122">
        <ele>2489.017</ele>
        <time>2010-07-04T09:18:44Z</time>
      </trkpt>
      <trkpt lat="44.7871" lon="6.67133">
        <ele>2489.977</ele>
        <time>2010-07-04T09:18:49Z</time>
      </trkpt>
      <trkpt lat="44.78698" lon="6.67147">
        <ele>2490.066</ele>
        <time>2010-07-04T09:18:56Z</time>
      </trkpt>
      <trkpt lat="44.7869" lon="6.67153">
        <ele>2489.856</ele>
        <time>2010-07-04T09:19:02Z</time>
      </trkpt>
      <trkpt lat="44.78686" lon="6.67155">
        <ele>2490.077</ele>
        <time>2010-07-04T09:19:05Z</time>
      </trkpt>
      <trkpt lat="44.78677" lon="6.67161">
        <ele>2491.559</ele>
        <time>2010-07-04T09:19:12Z</time>
      </trkpt>
      <trkpt lat="44.78668" lon="6.67159">
        <ele>2493.609</ele>
        <time>2010-07-04T09:19:17Z</time>
      </trkpt>
      <trkpt lat="44.78661" lon="6.67161">
        <ele>2495.438</ele>
        <time>2010-07-04T09:19:22Z</time>
      </trkpt>
      <trkpt lat="44.7865" lon="6.67159">
        <ele>2496.097</ele>
        <time>2010-07-04T09:19:28Z</time>
      </trkpt>
      <trkpt lat="44.7864" lon="6.67163">
        <ele>2496.156</ele>
        <time>2010-07-04T09:19:33Z</time>
      </trkpt>
      <trkpt lat="44.78623" lon="6.67175">
        <ele>2496.746</ele>
        <time>2010-07-04T09:19:42Z</time>
      </trkpt>
      <trkpt lat="44.78611" lon="6.67188">
        <ele>2497.196</ele>
        <time>2010-07-04T09:19:49Z</time>
      </trkpt>
      <trkpt lat="44.78599" lon="6.67196">
        <ele>2497.707</ele>
        <time>2010-07-04T09:19:55Z</time>
      </trkpt>
      <trkpt lat="44.78584" lon="6.67201">
        <ele>2496.306</ele>
        <time>2010-07-04T09:20:01Z</time>
      </trkpt>
      <trkpt lat="44.78567" lon="6.6721">
        <ele>2496.428</ele>
        <time>2010-07-04T09:20:08Z</time>
      </trkpt>
      <trkpt lat="44.78554" lon="6.67221">
        <ele>2497.938</ele>
        <time>2010-07-04T09:20:15Z</time>
      </trkpt>
      <trkpt lat="44.78544" lon="6.67233">
        <ele>2501.127</ele>
        <time>2010-07-04T09:20:23Z</time>
      </trkpt>
      <trkpt lat="44.78535" lon="6.67241">
        <ele>2503.707</ele>
        <time>2010-07-04T09:20:30Z</time>
      </trkpt>
      <trkpt lat="44.78527" lon="6.67249">
        <ele>2505.677</ele>
        <time>2010-07-04T09:20:36Z</time>
      </trkpt>
      <trkpt lat="44.78513" lon="6.67263">
        <ele>2508.007</ele>
        <time>2010-07-04T09:20:47Z</time>
      </trkpt>
      <trkpt lat="44.78501" lon="6.67267">
        <ele>2508.666</ele>
        <time>2010-07-04T09:20:55Z</time>
      </trkpt>
      <trkpt lat="44.78492" lon="6.6727">
        <ele>2508.836</ele>
        <time>2010-07-04T09:21:00Z</time>
      </trkpt>
      <trkpt lat="44.78483" lon="6.67274">
        <ele>2508.126</ele>
        <time>2010-07-04T09:21:05Z</time>
      </trkpt>
      <trkpt lat="44.78469" lon="6.67284">
        <ele>2508.396</ele>
        <time>2010-07-04T09:21:12Z</time>
      </trkpt>
      <trkpt lat="44.7846" lon="6.67295">
        <ele>2508.615</ele>
        <time>2010-07-04T09:21:18Z</time>
      </trkpt>
      <trkpt lat="44.78452" lon="6.67305">
        <ele>2508.456</ele>
        <time>2010-07-04T09:21:24Z</time>
      </trkpt>
      <trkpt lat="44.78441" lon="6.6731">
        <ele>2509.577</ele>
        <time>2010-07-04T09:21:31Z</time>
      </trkpt>
      <trkpt lat="44.7843" lon="6.67314">
        <ele>2509.056</ele>
        <time>2010-07-04T09:21:36Z</time>
      </trkpt>
      <trkpt lat="44.78413" lon="6.67322">
        <ele>2508.365</ele>
        <time>2010-07-04T09:21:44Z</time>
      </trkpt>
      <trkpt lat="44.78395" lon="6.67335">
        <ele>2505.483</ele>
        <time>2010-07-04T09:21:51Z</time>
      </trkpt>
      <trkpt lat="44.78388" lon="6.67345">
        <ele>2505.085</ele>
        <time>2010-07-04T09:21:56Z</time>
      </trkpt>
      <trkpt lat="44.78376" lon="6.67358">
        <ele>2505.065</ele>
        <time>2010-07-04T09:22:04Z</time>
      </trkpt>
      <trkpt lat="44.78373" lon="6.67361">
        <ele>2504.205</ele>
        <time>2010-07-04T09:22:11Z</time>
      </trkpt>
      <trkpt lat="44.78373" lon="6.67361">
        <ele>2504.236</ele>
        <time>2010-07-04T09:22:12Z</time>
      </trkpt>
      <trkpt lat="44.78372" lon="6.67363">
        <ele>2504.355</ele>
        <time>2010-07-04T09:22:16Z</time>
      </trkpt>
      <trkpt lat="44.78368" lon="6.67363">
        <ele>2504.606</ele>
        <time>2010-07-04T09:22:23Z</time>
      </trkpt>
      <trkpt lat="44.78367" lon="6.67363">
        <ele>2504.756</ele>
        <time>2010-07-04T09:22:28Z</time>
      </trkpt>
      <trkpt lat="44.78367" lon="6.67363">
        <ele>2504.756</ele>
        <time>2010-07-04T09:22:29Z</time>
      </trkpt>
      <trkpt lat="44.78361" lon="6.67374">
        <ele>2505.616</ele>
        <time>2010-07-04T09:22:37Z</time>
      </trkpt>
      <trkpt lat="44.78353" lon="6.67386">
        <ele>2507.948</ele>
        <time>2010-07-04T09:22:44Z</time>
      </trkpt>
      <trkpt lat="44.78344" lon="6.67397">
        <ele>2509.667</ele>
        <time>2010-07-04T09:22:52Z</time>
      </trkpt>
      <trkpt lat="44.78338" lon="6.67405">
        <ele>2511.396</ele>
        <time>2010-07-04T09:22:59Z</time>
      </trkpt>
      <trkpt lat="44.78336" lon="6.67402">
        <ele>2511.487</ele>
        <time>2010-07-04T09:23:13Z</time>
      </trkpt>
      <trkpt lat="44.78324" lon="6.674">
        <ele>2515.797</ele>
        <time>2010-07-04T09:23:45Z</time>
      </trkpt>
      <trkpt lat="44.78324" lon="6.67401">
        <ele>2518.227</ele>
        <time>2010-07-04T09:23:52Z</time>
      </trkpt>
      <trkpt lat="44.78323" lon="6.67406">
        <ele>2520.557</ele>
        <time>2010-07-04T09:23:59Z</time>
      </trkpt>
      <trkpt lat="44.78321" lon="6.6741">
        <ele>2521.997</ele>
        <time>2010-07-04T09:24:06Z</time>
      </trkpt>
      <trkpt lat="44.78315" lon="6.67416">
        <ele>2523.297</ele>
        <time>2010-07-04T09:24:15Z</time>
      </trkpt>
      <trkpt lat="44.7831" lon="6.67418">
        <ele>2522.537</ele>
        <time>2010-07-04T09:24:22Z</time>
      </trkpt>
      <trkpt lat="44.78306" lon="6.6742">
        <ele>2522.636</ele>
        <time>2010-07-04T09:24:29Z</time>
      </trkpt>
      <trkpt lat="44.78305" lon="6.6742">
        <ele>2523.056</ele>
        <time>2010-07-04T09:24:35Z</time>
      </trkpt>
      <trkpt lat="44.78304" lon="6.6742">
        <ele>2522.698</ele>
        <time>2010-07-04T09:24:45Z</time>
      </trkpt>
      <trkpt lat="44.78303" lon="6.67428">
        <ele>2522.466</ele>
        <time>2010-07-04T09:24:51Z</time>
      </trkpt>
      <trkpt lat="44.78297" lon="6.67441">
        <ele>2523.237</ele>
        <time>2010-07-04T09:24:58Z</time>
      </trkpt>
      <trkpt lat="44.78289" lon="6.6745">
        <ele>2523.696</ele>
        <time>2010-07-04T09:25:04Z</time>
      </trkpt>
      <trkpt lat="44.78277" lon="6.67465">
        <ele>2524.636</ele>
        <time>2010-07-04T09:25:13Z</time>
      </trkpt>
      <trkpt lat="44.7827" lon="6.67481">
        <ele>2524.085</ele>
        <time>2010-07-04T09:25:18Z</time>
      </trkpt>
      <trkpt lat="44.78271" lon="6.67496">
        <ele>2522.842</ele>
        <time>2010-07-04T09:25:21Z</time>
      </trkpt>
      <trkpt lat="44.7826" lon="6.67532">
        <ele>2520.352</ele>
        <time>2010-07-04T09:25:26Z</time>
      </trkpt>
      <trkpt lat="44.78242" lon="6.67551">
        <ele>2520.327</ele>
        <time>2010-07-04T09:25:30Z</time>
      </trkpt>
      <trkpt lat="44.78231" lon="6.6756">
        <ele>2521.647</ele>
        <time>2010-07-04T09:25:34Z</time>
      </trkpt>
      <trkpt lat="44.78217" lon="6.67574">
        <ele>2519.349</ele>
        <time>2010-07-04T09:25:38Z</time>
      </trkpt>
      <trkpt lat="44.78198" lon="6.67596">
        <ele>2514.478</ele>
        <time>2010-07-04T09:25:42Z</time>
      </trkpt>
      <trkpt lat="44.78178" lon="6.67603">
        <ele>2512.002</ele>
        <time>2010-07-04T09:25:46Z</time>
      </trkpt>
      <trkpt lat="44.78172" lon="6.676">
        <ele>2511.484</ele>
        <time>2010-07-04T09:25:49Z</time>
      </trkpt>
      <trkpt lat="44.78172" lon="6.676">
        <ele>2510.746</ele>
        <time>2010-07-04T09:26:00Z</time>
      </trkpt>
      <trkpt lat="44.78171" lon="6.676">
        <ele>2511.386</ele>
        <time>2010-07-04T09:26:08Z</time>
      </trkpt>
      <trkpt lat="44.78171" lon="6.676">
        <ele>2512.216</ele>
        <time>2010-07-04T09:26:32Z</time>
      </trkpt>
      <trkpt lat="44.78173" lon="6.676">
        <ele>2509.726</ele>
        <time>2010-07-04T09:27:16Z</time>
      </trkpt>
      <trkpt lat="44.78172" lon="6.676">
        <ele>2510.136</ele>
        <time>2010-07-04T09:27:26Z</time>
      </trkpt>
      <trkpt lat="44.78173" lon="6.67599">
        <ele>2510.406</ele>
        <time>2010-07-04T09:27:29Z</time>
      </trkpt>
      <trkpt lat="44.78178" lon="6.67603">
        <ele>2511.006</ele>
        <time>2010-07-04T09:27:39Z</time>
      </trkpt>
      <trkpt lat="44.78179" lon="6.67601">
        <ele>2508.336</ele>
        <time>2010-07-04T09:28:08Z</time>
      </trkpt>
      <trkpt lat="44.78172" lon="6.67588">
        <ele>2506.923</ele>
        <time>2010-07-04T09:28:14Z</time>
      </trkpt>
      <trkpt lat="44.78158" lon="6.67562">
        <ele>2502.721</ele>
        <time>2010-07-04T09:28:20Z</time>
      </trkpt>
      <trkpt lat="44.78147" lon="6.67558">
        <ele>2500.652</ele>
        <time>2010-07-04T09:28:24Z</time>
      </trkpt>
      <trkpt lat="44.7813" lon="6.67569">
        <ele>2500.164</ele>
        <time>2010-07-04T09:28:30Z</time>
      </trkpt>
      <trkpt lat="44.78114" lon="6.67584">
        <ele>2497.823</ele>
        <time>2010-07-04T09:28:36Z</time>
      </trkpt>
      <trkpt lat="44.78109" lon="6.67593">
        <ele>2495.833</ele>
        <time>2010-07-04T09:28:41Z</time>
      </trkpt>
      <trkpt lat="44.78105" lon="6.67598">
        <ele>2494.133</ele>
        <time>2010-07-04T09:28:47Z</time>
      </trkpt>
      <trkpt lat="44.78103" lon="6.67602">
        <ele>2492.634</ele>
        <time>2010-07-04T09:28:53Z</time>
      </trkpt>
      <trkpt lat="44.78102" lon="6.67603">
        <ele>2492.213</ele>
        <time>2010-07-04T09:28:56Z</time>
      </trkpt>
      <trkpt lat="44.78099" lon="6.67602">
        <ele>2492.466</ele>
        <time>2010-07-04T09:29:02Z</time>
      </trkpt>
      <trkpt lat="44.78094" lon="6.67601">
        <ele>2492.895</ele>
        <time>2010-07-04T09:29:07Z</time>
      </trkpt>
      <trkpt lat="44.7809" lon="6.67597">
        <ele>2492.454</ele>
        <time>2010-07-04T09:29:09Z</time>
      </trkpt>
      <trkpt lat="44.78073" lon="6.67596">
        <ele>2488.869</ele>
        <time>2010-07-04T09:29:14Z</time>
      </trkpt>
      <trkpt lat="44.78055" lon="6.67597">
        <ele>2486.661</ele>
        <time>2010-07-04T09:29:18Z</time>
      </trkpt>
      <trkpt lat="44.78036" lon="6.67599">
        <ele>2485.564</ele>
        <time>2010-07-04T09:29:22Z</time>
      </trkpt>
      <trkpt lat="44.7802" lon="6.67598">
        <ele>2484.813</ele>
        <time>2010-07-04T09:29:27Z</time>
      </trkpt>
      <trkpt lat="44.78017" lon="6.67599">
        <ele>2483.963</ele>
        <time>2010-07-04T09:29:30Z</time>
      </trkpt>
      <trkpt lat="44.78014" lon="6.676">
        <ele>2482.695</ele>
        <time>2010-07-04T09:29:37Z</time>
      </trkpt>
      <trkpt lat="44.78011" lon="6.67597">
        <ele>2483.276</ele>
        <time>2010-07-04T09:29:42Z</time>
      </trkpt>
      <trkpt lat="44.78008" lon="6.67579">
        <ele>2481.422</ele>
        <time>2010-07-04T09:29:47Z</time>
      </trkpt>
      <trkpt lat="44.78008" lon="6.67573">
        <ele>2480.932</ele>
        <time>2010-07-04T09:29:48Z</time>
      </trkpt>
      <trkpt lat="44.78012" lon="6.67542">
        <ele>2477.922</ele>
        <time>2010-07-04T09:29:54Z</time>
      </trkpt>
      <trkpt lat="44.78019" lon="6.67524">
        <ele>2475.751</ele>
        <time>2010-07-04T09:29:59Z</time>
      </trkpt>
      <trkpt lat="44.78028" lon="6.67503">
        <ele>2472.551</ele>
        <time>2010-07-04T09:30:05Z</time>
      </trkpt>
      <trkpt lat="44.78045" lon="6.67485">
        <ele>2468.911</ele>
        <time>2010-07-04T09:30:11Z</time>
      </trkpt>
      <trkpt lat="44.78056" lon="6.67471">
        <ele>2467.764</ele>
        <time>2010-07-04T09:30:16Z</time>
      </trkpt>
      <trkpt lat="44.78067" lon="6.67459">
        <ele>2466.923</ele>
        <time>2010-07-04T09:30:20Z</time>
      </trkpt>
      <trkpt lat="44.78087" lon="6.67442">
        <ele>2463.7</ele>
        <time>2010-07-04T09:30:26Z</time>
      </trkpt>
      <trkpt lat="44.78099" lon="6.67421">
        <ele>2461.021</ele>
        <time>2010-07-04T09:30:31Z</time>
      </trkpt>
      <trkpt lat="44.7811" lon="6.67407">
        <ele>2459.452</ele>
        <time>2010-07-04T09:30:35Z</time>
      </trkpt>
      <trkpt lat="44.78128" lon="6.67397">
        <ele>2458.024</ele>
        <time>2010-07-04T09:30:41Z</time>
      </trkpt>
      <trkpt lat="44.78148" lon="6.67392">
        <ele>2457.814</ele>
        <time>2010-07-04T09:30:48Z</time>
      </trkpt>
      <trkpt lat="44.78161" lon="6.67379">
        <ele>2457.705</ele>
        <time>2010-07-04T09:30:53Z</time>
      </trkpt>
      <trkpt lat="44.78165" lon="6.67372">
        <ele>2457.695</ele>
        <time>2010-07-04T09:30:55Z</time>
      </trkpt>
      <trkpt lat="44.78163" lon="6.67355">
        <ele>2457.415</ele>
        <time>2010-07-04T09:31:00Z</time>
      </trkpt>
      <trkpt lat="44.78163" lon="6.67348">
        <ele>2457.375</ele>
        <time>2010-07-04T09:31:02Z</time>
      </trkpt>
      <trkpt lat="44.7815" lon="6.67334">
        <ele>2458.627</ele>
        <time>2010-07-04T09:31:08Z</time>
      </trkpt>
      <trkpt lat="44.78142" lon="6.67329">
        <ele>2458.956</ele>
        <time>2010-07-04T09:31:13Z</time>
      </trkpt>
      <trkpt lat="44.78135" lon="6.67314">
        <ele>2460.108</ele>
        <time>2010-07-04T09:31:19Z</time>
      </trkpt>
      <trkpt lat="44.78127" lon="6.67295">
        <ele>2460.846</ele>
        <time>2010-07-04T09:31:26Z</time>
      </trkpt>
      <trkpt lat="44.78119" lon="6.67273">
        <ele>2460.675</ele>
        <time>2010-07-04T09:31:34Z</time>
      </trkpt>
      <trkpt lat="44.7811" lon="6.67254">
        <ele>2459.884</ele>
        <time>2010-07-04T09:31:41Z</time>
      </trkpt>
      <trkpt lat="44.78096" lon="6.67243">
        <ele>2459.845</ele>
        <time>2010-07-04T09:31:47Z</time>
      </trkpt>
      <trkpt lat="44.78077" lon="6.67237">
        <ele>2460.186</ele>
        <time>2010-07-04T09:31:53Z</time>
      </trkpt>
      <trkpt lat="44.78058" lon="6.67231">
        <ele>2460.846</ele>
        <time>2010-07-04T09:31:59Z</time>
      </trkpt>
      <trkpt lat="44.78043" lon="6.67227">
        <ele>2461.136</ele>
        <time>2010-07-04T09:32:04Z</time>
      </trkpt>
      <trkpt lat="44.78027" lon="6.67219">
        <ele>2461.366</ele>
        <time>2010-07-04T09:32:10Z</time>
      </trkpt>
      <trkpt lat="44.78014" lon="6.67206">
        <ele>2460.724</ele>
        <time>2010-07-04T09:32:16Z</time>
      </trkpt>
      <trkpt lat="44.78" lon="6.67202">
        <ele>2459.774</ele>
        <time>2010-07-04T09:32:21Z</time>
      </trkpt>
      <trkpt lat="44.77986" lon="6.67195">
        <ele>2458.573</ele>
        <time>2010-07-04T09:32:27Z</time>
      </trkpt>
      <trkpt lat="44.77975" lon="6.67183">
        <ele>2456.562</ele>
        <time>2010-07-04T09:32:32Z</time>
      </trkpt>
      <trkpt lat="44.77966" lon="6.67166">
        <ele>2454.802</ele>
        <time>2010-07-04T09:32:38Z</time>
      </trkpt>
      <trkpt lat="44.77961" lon="6.67159">
        <ele>2454.273</ele>
        <time>2010-07-04T09:32:40Z</time>
      </trkpt>
      <trkpt lat="44.77956" lon="6.67138">
        <ele>2453.614</ele>
        <time>2010-07-04T09:32:45Z</time>
      </trkpt>
      <trkpt lat="44.77957" lon="6.67117">
        <ele>2451.882</ele>
        <time>2010-07-04T09:32:50Z</time>
      </trkpt>
      <trkpt lat="44.77957" lon="6.67112">
        <ele>2451.272</ele>
        <time>2010-07-04T09:32:51Z</time>
      </trkpt>
      <trkpt lat="44.77951" lon="6.67098">
        <ele>2451.195</ele>
        <time>2010-07-04T09:32:55Z</time>
      </trkpt>
      <trkpt lat="44.77948" lon="6.67081">
        <ele>2450.554</ele>
        <time>2010-07-04T09:32:59Z</time>
      </trkpt>
      <trkpt lat="44.77942" lon="6.67052">
        <ele>2450.045</ele>
        <time>2010-07-04T09:33:05Z</time>
      </trkpt>
      <trkpt lat="44.77932" lon="6.67028">
        <ele>2450.706</ele>
        <time>2010-07-04T09:33:11Z</time>
      </trkpt>
      <trkpt lat="44.77914" lon="6.67004">
        <ele>2450.785</ele>
        <time>2010-07-04T09:33:18Z</time>
      </trkpt>
      <trkpt lat="44.77907" lon="6.66986">
        <ele>2450.063</ele>
        <time>2010-07-04T09:33:22Z</time>
      </trkpt>
      <trkpt lat="44.77896" lon="6.66954">
        <ele>2448.773</ele>
        <time>2010-07-04T09:33:28Z</time>
      </trkpt>
      <trkpt lat="44.77884" lon="6.66932">
        <ele>2448.253</ele>
        <time>2010-07-04T09:33:33Z</time>
      </trkpt>
      <trkpt lat="44.77878" lon="6.66909">
        <ele>2447.094</ele>
        <time>2010-07-04T09:33:39Z</time>
      </trkpt>
      <trkpt lat="44.77879" lon="6.6688">
        <ele>2443.951</ele>
        <time>2010-07-04T09:33:45Z</time>
      </trkpt>
      <trkpt lat="44.77886" lon="6.66859">
        <ele>2443.163</ele>
        <time>2010-07-04T09:33:50Z</time>
      </trkpt>
      <trkpt lat="44.77891" lon="6.66836">
        <ele>2442.204</ele>
        <time>2010-07-04T09:33:55Z</time>
      </trkpt>
      <trkpt lat="44.77898" lon="6.66815">
        <ele>2441.304</ele>
        <time>2010-07-04T09:34:00Z</time>
      </trkpt>
      <trkpt lat="44.77901" lon="6.66801">
        <ele>2441.164</ele>
        <time>2010-07-04T09:34:06Z</time>
      </trkpt>
      <trkpt lat="44.77901" lon="6.66799">
        <ele>2440.833</ele>
        <time>2010-07-04T09:34:07Z</time>
      </trkpt>
      <trkpt lat="44.77904" lon="6.66784">
        <ele>2438.64</ele>
        <time>2010-07-04T09:34:12Z</time>
      </trkpt>
      <trkpt lat="44.77903" lon="6.66764">
        <ele>2437.643</ele>
        <time>2010-07-04T09:34:17Z</time>
      </trkpt>
      <trkpt lat="44.77899" lon="6.66757">
        <ele>2437.453</ele>
        <time>2010-07-04T09:34:19Z</time>
      </trkpt>
      <trkpt lat="44.77894" lon="6.66744">
        <ele>2437.294</ele>
        <time>2010-07-04T09:34:24Z</time>
      </trkpt>
      <trkpt lat="44.77893" lon="6.66721">
        <ele>2436.333</ele>
        <time>2010-07-04T09:34:30Z</time>
      </trkpt>
      <trkpt lat="44.77889" lon="6.66699">
        <ele>2434.601</ele>
        <time>2010-07-04T09:34:36Z</time>
      </trkpt>
      <trkpt lat="44.77888" lon="6.66679">
        <ele>2432.601</ele>
        <time>2010-07-04T09:34:41Z</time>
      </trkpt>
      <trkpt lat="44.77889" lon="6.66657">
        <ele>2430.36</ele>
        <time>2010-07-04T09:34:47Z</time>
      </trkpt>
      <trkpt lat="44.77883" lon="6.6666">
        <ele>2428.11</ele>
        <time>2010-07-04T09:34:52Z</time>
      </trkpt>
      <trkpt lat="44.7788" lon="6.66662">
        <ele>2427.212</ele>
        <time>2010-07-04T09:34:55Z</time>
      </trkpt>
      <trkpt lat="44.77882" lon="6.66653">
        <ele>2426.382</ele>
        <time>2010-07-04T09:34:59Z</time>
      </trkpt>
      <trkpt lat="44.77884" lon="6.66624">
        <ele>2425.082</ele>
        <time>2010-07-04T09:35:06Z</time>
      </trkpt>
      <trkpt lat="44.77882" lon="6.66612">
        <ele>2424.031</ele>
        <time>2010-07-04T09:35:09Z</time>
      </trkpt>
      <trkpt lat="44.77877" lon="6.66617">
        <ele>2422.089</ele>
        <time>2010-07-04T09:35:13Z</time>
      </trkpt>
      <trkpt lat="44.77876" lon="6.66634">
        <ele>2419.67</ele>
        <time>2010-07-04T09:35:18Z</time>
      </trkpt>
      <trkpt lat="44.77866" lon="6.6665">
        <ele>2415.607</ele>
        <time>2010-07-04T09:35:23Z</time>
      </trkpt>
      <trkpt lat="44.77857" lon="6.66665">
        <ele>2412.018</ele>
        <time>2010-07-04T09:35:28Z</time>
      </trkpt>
      <trkpt lat="44.77848" lon="6.66686">
        <ele>2406.075</ele>
        <time>2010-07-04T09:35:34Z</time>
      </trkpt>
      <trkpt lat="44.77843" lon="6.66698">
        <ele>2402.724</ele>
        <time>2010-07-04T09:35:37Z</time>
      </trkpt>
      <trkpt lat="44.77835" lon="6.66725">
        <ele>2397.176</ele>
        <time>2010-07-04T09:35:42Z</time>
      </trkpt>
      <trkpt lat="44.77827" lon="6.6675">
        <ele>2391.775</ele>
        <time>2010-07-04T09:35:47Z</time>
      </trkpt>
      <trkpt lat="44.77818" lon="6.66743">
        <ele>2388.977</ele>
        <time>2010-07-04T09:35:51Z</time>
      </trkpt>
      <trkpt lat="44.77802" lon="6.66735">
        <ele>2385.668</ele>
        <time>2010-07-04T09:35:56Z</time>
      </trkpt>
      <trkpt lat="44.77787" lon="6.66732">
        <ele>2382.227</ele>
        <time>2010-07-04T09:36:01Z</time>
      </trkpt>
      <trkpt lat="44.77781" lon="6.66731">
        <ele>2380.707</ele>
        <time>2010-07-04T09:36:03Z</time>
      </trkpt>
      <trkpt lat="44.77765" lon="6.66723">
        <ele>2377.279</ele>
        <time>2010-07-04T09:36:08Z</time>
      </trkpt>
      <trkpt lat="44.77755" lon="6.66719">
        <ele>2374.656</ele>
        <time>2010-07-04T09:36:12Z</time>
      </trkpt>
      <trkpt lat="44.77753" lon="6.66728">
        <ele>2372.249</ele>
        <time>2010-07-04T09:36:16Z</time>
      </trkpt>
      <trkpt lat="44.77759" lon="6.66757">
        <ele>2367.078</ele>
        <time>2010-07-04T09:36:22Z</time>
      </trkpt>
      <trkpt lat="44.77762" lon="6.66782">
        <ele>2363.519</ele>
        <time>2010-07-04T09:36:27Z</time>
      </trkpt>
      <trkpt lat="44.77763" lon="6.66786">
        <ele>2362.779</ele>
        <time>2010-07-04T09:36:28Z</time>
      </trkpt>
      <trkpt lat="44.77759" lon="6.66804">
        <ele>2360.038</ele>
        <time>2010-07-04T09:36:32Z</time>
      </trkpt>
      <trkpt lat="44.77747" lon="6.66821">
        <ele>2356.86</ele>
        <time>2010-07-04T09:36:38Z</time>
      </trkpt>
      <trkpt lat="44.77742" lon="6.66816">
        <ele>2354.499</ele>
        <time>2010-07-04T09:36:42Z</time>
      </trkpt>
      <trkpt lat="44.77736" lon="6.66799">
        <ele>2351.288</ele>
        <time>2010-07-04T09:36:47Z</time>
      </trkpt>
      <trkpt lat="44.7773" lon="6.66785">
        <ele>2348.728</ele>
        <time>2010-07-04T09:36:51Z</time>
      </trkpt>
      <trkpt lat="44.77718" lon="6.6677">
        <ele>2345.018</ele>
        <time>2010-07-04T09:36:56Z</time>
      </trkpt>
      <trkpt lat="44.77704" lon="6.66761">
        <ele>2342.509</ele>
        <time>2010-07-04T09:37:01Z</time>
      </trkpt>
      <trkpt lat="44.77695" lon="6.66751">
        <ele>2340.379</ele>
        <time>2010-07-04T09:37:05Z</time>
      </trkpt>
      <trkpt lat="44.77689" lon="6.66731">
        <ele>2337.239</ele>
        <time>2010-07-04T09:37:10Z</time>
      </trkpt>
      <trkpt lat="44.77681" lon="6.66708">
        <ele>2331.857</ele>
        <time>2010-07-04T09:37:16Z</time>
      </trkpt>
      <trkpt lat="44.77679" lon="6.66701">
        <ele>2330.528</ele>
        <time>2010-07-04T09:37:18Z</time>
      </trkpt>
      <trkpt lat="44.77672" lon="6.66707">
        <ele>2329.211</ele>
        <time>2010-07-04T09:37:22Z</time>
      </trkpt>
      <trkpt lat="44.77663" lon="6.66721">
        <ele>2327.37</ele>
        <time>2010-07-04T09:37:27Z</time>
      </trkpt>
      <trkpt lat="44.7766" lon="6.6671">
        <ele>2325.438</ele>
        <time>2010-07-04T09:37:30Z</time>
      </trkpt>
      <trkpt lat="44.77659" lon="6.66682">
        <ele>2320.007</ele>
        <time>2010-07-04T09:37:37Z</time>
      </trkpt>
      <trkpt lat="44.77661" lon="6.66665">
        <ele>2316.909</ele>
        <time>2010-07-04T09:37:42Z</time>
      </trkpt>
      <trkpt lat="44.7766" lon="6.6665">
        <ele>2314.811</ele>
        <time>2010-07-04T09:37:47Z</time>
      </trkpt>
      <trkpt lat="44.77657" lon="6.66636">
        <ele>2311.918</ele>
        <time>2010-07-04T09:37:52Z</time>
      </trkpt>
      <trkpt lat="44.7765" lon="6.6662">
        <ele>2308.538</ele>
        <time>2010-07-04T09:37:57Z</time>
      </trkpt>
      <trkpt lat="44.77646" lon="6.66605">
        <ele>2306.108</ele>
        <time>2010-07-04T09:38:01Z</time>
      </trkpt>
      <trkpt lat="44.77645" lon="6.66586">
        <ele>2303.339</ele>
        <time>2010-07-04T09:38:06Z</time>
      </trkpt>
      <trkpt lat="44.77647" lon="6.66565">
        <ele>2299.649</ele>
        <time>2010-07-04T09:38:13Z</time>
      </trkpt>
      <trkpt lat="44.77646" lon="6.66562">
        <ele>2298.311</ele>
        <time>2010-07-04T09:38:16Z</time>
      </trkpt>
      <trkpt lat="44.7764" lon="6.66566">
        <ele>2296.63</ele>
        <time>2010-07-04T09:38:20Z</time>
      </trkpt>
      <trkpt lat="44.77625" lon="6.66582">
        <ele>2292.599</ele>
        <time>2010-07-04T09:38:27Z</time>
      </trkpt>
      <trkpt lat="44.77611" lon="6.66593">
        <ele>2288.627</ele>
        <time>2010-07-04T09:38:33Z</time>
      </trkpt>
      <trkpt lat="44.77607" lon="6.66595">
        <ele>2287.43</ele>
        <time>2010-07-04T09:38:36Z</time>
      </trkpt>
      <trkpt lat="44.77607" lon="6.66574">
        <ele>2284.069</ele>
        <time>2010-07-04T09:38:42Z</time>
      </trkpt>
      <trkpt lat="44.77607" lon="6.6657">
        <ele>2283.418</ele>
        <time>2010-07-04T09:38:43Z</time>
      </trkpt>
      <trkpt lat="44.776" lon="6.66568">
        <ele>2281.219</ele>
        <time>2010-07-04T09:38:47Z</time>
      </trkpt>
      <trkpt lat="44.77593" lon="6.66571">
        <ele>2278.608</ele>
        <time>2010-07-04T09:38:51Z</time>
      </trkpt>
      <trkpt lat="44.77591" lon="6.66564">
        <ele>2276.939</ele>
        <time>2010-07-04T09:38:54Z</time>
      </trkpt>
      <trkpt lat="44.77595" lon="6.66547">
        <ele>2273.868</ele>
        <time>2010-07-04T09:38:59Z</time>
      </trkpt>
      <trkpt lat="44.77601" lon="6.66528">
        <ele>2269.58</ele>
        <time>2010-07-04T09:39:06Z</time>
      </trkpt>
      <trkpt lat="44.77602" lon="6.66527">
        <ele>2269.089</ele>
        <time>2010-07-04T09:39:07Z</time>
      </trkpt>
      <trkpt lat="44.77608" lon="6.66517">
        <ele>2266.587</ele>
        <time>2010-07-04T09:39:12Z</time>
      </trkpt>
      <trkpt lat="44.77611" lon="6.66511">
        <ele>2265.132</ele>
        <time>2010-07-04T09:39:19Z</time>
      </trkpt>
      <trkpt lat="44.7761" lon="6.66509">
        <ele>2265.393</ele>
        <time>2010-07-04T09:39:25Z</time>
      </trkpt>
      <trkpt lat="44.77608" lon="6.66503">
        <ele>2264.762</ele>
        <time>2010-07-04T09:39:28Z</time>
      </trkpt>
      <trkpt lat="44.77607" lon="6.66486">
        <ele>2262.72</ele>
        <time>2010-07-04T09:39:33Z</time>
      </trkpt>
      <trkpt lat="44.77606" lon="6.66482">
        <ele>2261.978</ele>
        <time>2010-07-04T09:39:34Z</time>
      </trkpt>
      <trkpt lat="44.77595" lon="6.66466">
        <ele>2256.996</ele>
        <time>2010-07-04T09:39:39Z</time>
      </trkpt>
      <trkpt lat="44.77584" lon="6.66456">
        <ele>2252.685</ele>
        <time>2010-07-04T09:39:43Z</time>
      </trkpt>
      <trkpt lat="44.77567" lon="6.66436">
        <ele>2246.505</ele>
        <time>2010-07-04T09:39:49Z</time>
      </trkpt>
      <trkpt lat="44.77554" lon="6.66424">
        <ele>2242.435</ele>
        <time>2010-07-04T09:39:53Z</time>
      </trkpt>
      <trkpt lat="44.77541" lon="6.66408">
        <ele>2238.806</ele>
        <time>2010-07-04T09:39:57Z</time>
      </trkpt>
      <trkpt lat="44.77527" lon="6.66388">
        <ele>2235.61</ele>
        <time>2010-07-04T09:40:02Z</time>
      </trkpt>
      <trkpt lat="44.77517" lon="6.66372">
        <ele>2234.391</ele>
        <time>2010-07-04T09:40:07Z</time>
      </trkpt>
      <trkpt lat="44.77505" lon="6.66353">
        <ele>2233.011</ele>
        <time>2010-07-04T09:40:13Z</time>
      </trkpt>
      <trkpt lat="44.7749" lon="6.6633">
        <ele>2230.89</ele>
        <time>2010-07-04T09:40:19Z</time>
      </trkpt>
      <trkpt lat="44.7748" lon="6.66315">
        <ele>2229.149</ele>
        <time>2010-07-04T09:40:23Z</time>
      </trkpt>
      <trkpt lat="44.77467" lon="6.66282">
        <ele>2224.858</ele>
        <time>2010-07-04T09:40:29Z</time>
      </trkpt>
      <trkpt lat="44.77465" lon="6.66271">
        <ele>2223.508</ele>
        <time>2010-07-04T09:40:31Z</time>
      </trkpt>
      <trkpt lat="44.77462" lon="6.66249">
        <ele>2220.807</ele>
        <time>2010-07-04T09:40:35Z</time>
      </trkpt>
      <trkpt lat="44.77456" lon="6.66236">
        <ele>2218.697</ele>
        <time>2010-07-04T09:40:38Z</time>
      </trkpt>
      <trkpt lat="44.77454" lon="6.66213">
        <ele>2215.838</ele>
        <time>2010-07-04T09:40:43Z</time>
      </trkpt>
      <trkpt lat="44.77452" lon="6.66206">
        <ele>2214.86</ele>
        <time>2010-07-04T09:40:47Z</time>
      </trkpt>
      <trkpt lat="44.77447" lon="6.66195">
        <ele>2212.618</ele>
        <time>2010-07-04T09:40:51Z</time>
      </trkpt>
      <trkpt lat="44.77438" lon="6.66175">
        <ele>2209.808</ele>
        <time>2010-07-04T09:40:56Z</time>
      </trkpt>
      <trkpt lat="44.77431" lon="6.66157">
        <ele>2207.076</ele>
        <time>2010-07-04T09:41:00Z</time>
      </trkpt>
      <trkpt lat="44.77419" lon="6.6614">
        <ele>2203.316</ele>
        <time>2010-07-04T09:41:04Z</time>
      </trkpt>
      <trkpt lat="44.77405" lon="6.66124">
        <ele>2200.688</ele>
        <time>2010-07-04T09:41:09Z</time>
      </trkpt>
      <trkpt lat="44.77397" lon="6.66105">
        <ele>2196.506</ele>
        <time>2010-07-04T09:41:14Z</time>
      </trkpt>
      <trkpt lat="44.77396" lon="6.6609">
        <ele>2193.707</ele>
        <time>2010-07-04T09:41:18Z</time>
      </trkpt>
      <trkpt lat="44.77392" lon="6.66075">
        <ele>2191.58</ele>
        <time>2010-07-04T09:41:23Z</time>
      </trkpt>
      <trkpt lat="44.77389" lon="6.6606">
        <ele>2191.163</ele>
        <time>2010-07-04T09:41:28Z</time>
      </trkpt>
      <trkpt lat="44.77387" lon="6.66043">
        <ele>2191.473</ele>
        <time>2010-07-04T09:41:33Z</time>
      </trkpt>
      <trkpt lat="44.77381" lon="6.66026">
        <ele>2190.32</ele>
        <time>2010-07-04T09:41:37Z</time>
      </trkpt>
      <trkpt lat="44.77365" lon="6.65994">
        <ele>2188.67</ele>
        <time>2010-07-04T09:41:43Z</time>
      </trkpt>
      <trkpt lat="44.7736" lon="6.65973">
        <ele>2186.518</ele>
        <time>2010-07-04T09:41:47Z</time>
      </trkpt>
      <trkpt lat="44.77354" lon="6.65942">
        <ele>2184.619</ele>
        <time>2010-07-04T09:41:53Z</time>
      </trkpt>
      <trkpt lat="44.77351" lon="6.65929">
        <ele>2183.9</ele>
        <time>2010-07-04T09:41:57Z</time>
      </trkpt>
      <trkpt lat="44.77349" lon="6.65914">
        <ele>2181.738</ele>
        <time>2010-07-04T09:42:02Z</time>
      </trkpt>
      <trkpt lat="44.77342" lon="6.65888">
        <ele>2179.118</ele>
        <time>2010-07-04T09:42:08Z</time>
      </trkpt>
      <trkpt lat="44.77334" lon="6.65874">
        <ele>2177.457</ele>
        <time>2010-07-04T09:42:12Z</time>
      </trkpt>
      <trkpt lat="44.77333" lon="6.65859">
        <ele>2174.808</ele>
        <time>2010-07-04T09:42:17Z</time>
      </trkpt>
      <trkpt lat="44.7733" lon="6.65849">
        <ele>2172.246</ele>
        <time>2010-07-04T09:42:21Z</time>
      </trkpt>
      <trkpt lat="44.77328" lon="6.65826">
        <ele>2169.208</ele>
        <time>2010-07-04T09:42:26Z</time>
      </trkpt>
      <trkpt lat="44.77325" lon="6.658">
        <ele>2164.876</ele>
        <time>2010-07-04T09:42:32Z</time>
      </trkpt>
      <trkpt lat="44.7732" lon="6.65795">
        <ele>2162.904</ele>
        <time>2010-07-04T09:42:34Z</time>
      </trkpt>
      <trkpt lat="44.773" lon="6.65782">
        <ele>2157.815</ele>
        <time>2010-07-04T09:42:40Z</time>
      </trkpt>
      <trkpt lat="44.77287" lon="6.65779">
        <ele>2155.438</ele>
        <time>2010-07-04T09:42:45Z</time>
      </trkpt>
      <trkpt lat="44.7728" lon="6.65781">
        <ele>2153.758</ele>
        <time>2010-07-04T09:42:50Z</time>
      </trkpt>
      <trkpt lat="44.77277" lon="6.65782">
        <ele>2152.91</ele>
        <time>2010-07-04T09:42:54Z</time>
      </trkpt>
      <trkpt lat="44.77278" lon="6.65783">
        <ele>2153.322</ele>
        <time>2010-07-04T09:42:58Z</time>
      </trkpt>
      <trkpt lat="44.77282" lon="6.6578">
        <ele>2155.333</ele>
        <time>2010-07-04T09:43:05Z</time>
      </trkpt>
      <trkpt lat="44.77286" lon="6.65778">
        <ele>2157.403</ele>
        <time>2010-07-04T09:43:11Z</time>
      </trkpt>
      <trkpt lat="44.77288" lon="6.65778">
        <ele>2158.533</ele>
        <time>2010-07-04T09:43:16Z</time>
      </trkpt>
      <trkpt lat="44.77287" lon="6.65777">
        <ele>2158.262</ele>
        <time>2010-07-04T09:43:22Z</time>
      </trkpt>
      <trkpt lat="44.77279" lon="6.65779">
        <ele>2156.159</ele>
        <time>2010-07-04T09:43:29Z</time>
      </trkpt>
      <trkpt lat="44.7727" lon="6.65782">
        <ele>2153.498</ele>
        <time>2010-07-04T09:43:35Z</time>
      </trkpt>
      <trkpt lat="44.77262" lon="6.65782">
        <ele>2151.148</ele>
        <time>2010-07-04T09:43:40Z</time>
      </trkpt>
      <trkpt lat="44.7725" lon="6.6578">
        <ele>2149.739</ele>
        <time>2010-07-04T09:43:44Z</time>
      </trkpt>
      <trkpt lat="44.77241" lon="6.65778">
        <ele>2148.087</ele>
        <time>2010-07-04T09:43:47Z</time>
      </trkpt>
      <trkpt lat="44.77244" lon="6.65771">
        <ele>2145.547</ele>
        <time>2010-07-04T09:43:51Z</time>
      </trkpt>
      <trkpt lat="44.77246" lon="6.65769">
        <ele>2144.866</ele>
        <time>2010-07-04T09:43:52Z</time>
      </trkpt>
      <trkpt lat="44.77245" lon="6.65761">
        <ele>2142.138</ele>
        <time>2010-07-04T09:43:57Z</time>
      </trkpt>
      <trkpt lat="44.77243" lon="6.65759">
        <ele>2141.408</ele>
        <time>2010-07-04T09:43:59Z</time>
      </trkpt>
      <trkpt lat="44.77234" lon="6.65761">
        <ele>2138.427</ele>
        <time>2010-07-04T09:44:05Z</time>
      </trkpt>
      <trkpt lat="44.77229" lon="6.65761">
        <ele>2136.667</ele>
        <time>2010-07-04T09:44:08Z</time>
      </trkpt>
      <trkpt lat="44.77225" lon="6.6576">
        <ele>2135.366</ele>
        <time>2010-07-04T09:44:10Z</time>
      </trkpt>
      <trkpt lat="44.77227" lon="6.65749">
        <ele>2132.626</ele>
        <time>2010-07-04T09:44:15Z</time>
      </trkpt>
      <trkpt lat="44.77228" lon="6.65745">
        <ele>2131.947</ele>
        <time>2010-07-04T09:44:16Z</time>
      </trkpt>
      <trkpt lat="44.77238" lon="6.65732">
        <ele>2127.846</ele>
        <time>2010-07-04T09:44:22Z</time>
      </trkpt>
      <trkpt lat="44.77232" lon="6.65729">
        <ele>2125.986</ele>
        <time>2010-07-04T09:44:25Z</time>
      </trkpt>
      <trkpt lat="44.7723" lon="6.65729">
        <ele>2125.457</ele>
        <time>2010-07-04T09:44:26Z</time>
      </trkpt>
      <trkpt lat="44.7722" lon="6.6573">
        <ele>2122.308</ele>
        <time>2010-07-04T09:44:33Z</time>
      </trkpt>
      <trkpt lat="44.7722" lon="6.65731">
        <ele>2122.041</ele>
        <time>2010-07-04T09:44:37Z</time>
      </trkpt>
      <trkpt lat="44.7722" lon="6.65731">
        <ele>2121.991</ele>
        <time>2010-07-04T09:44:40Z</time>
      </trkpt>
      <trkpt lat="44.77223" lon="6.65729">
        <ele>2123.463</ele>
        <time>2010-07-04T09:44:46Z</time>
      </trkpt>
      <trkpt lat="44.77227" lon="6.65729">
        <ele>2125.453</ele>
        <time>2010-07-04T09:44:53Z</time>
      </trkpt>
      <trkpt lat="44.77227" lon="6.65729">
        <ele>2125.663</ele>
        <time>2010-07-04T09:44:54Z</time>
      </trkpt>
      <trkpt lat="44.77229" lon="6.65729">
        <ele>2126.302</ele>
        <time>2010-07-04T09:45:00Z</time>
      </trkpt>
      <trkpt lat="44.77221" lon="6.65729">
        <ele>2123.799</ele>
        <time>2010-07-04T09:45:07Z</time>
      </trkpt>
      <trkpt lat="44.77218" lon="6.6573">
        <ele>2122.269</ele>
        <time>2010-07-04T09:45:12Z</time>
      </trkpt>
      <trkpt lat="44.77218" lon="6.65731">
        <ele>2121.701</ele>
        <time>2010-07-04T09:45:16Z</time>
      </trkpt>
      <trkpt lat="44.77217" lon="6.65731">
        <ele>2121.341</ele>
        <time>2010-07-04T09:45:19Z</time>
      </trkpt>
      <trkpt lat="44.77216" lon="6.65731">
        <ele>2121.071</ele>
        <time>2010-07-04T09:45:23Z</time>
      </trkpt>
      <trkpt lat="44.7721" lon="6.65732">
        <ele>2118.869</ele>
        <time>2010-07-04T09:45:29Z</time>
      </trkpt>
      <trkpt lat="44.77204" lon="6.65735">
        <ele>2116.578</ele>
        <time>2010-07-04T09:45:34Z</time>
      </trkpt>
      <trkpt lat="44.77193" lon="6.65735">
        <ele>2113.045</ele>
        <time>2010-07-04T09:45:39Z</time>
      </trkpt>
      <trkpt lat="44.77182" lon="6.65734">
        <ele>2110.628</ele>
        <time>2010-07-04T09:45:45Z</time>
      </trkpt>
      <trkpt lat="44.77171" lon="6.65733">
        <ele>2107.967</ele>
        <time>2010-07-04T09:45:51Z</time>
      </trkpt>
      <trkpt lat="44.7716" lon="6.65731">
        <ele>2104.676</ele>
        <time>2010-07-04T09:45:56Z</time>
      </trkpt>
      <trkpt lat="44.77145" lon="6.65729">
        <ele>2100.305</ele>
        <time>2010-07-04T09:46:02Z</time>
      </trkpt>
      <trkpt lat="44.77136" lon="6.65719">
        <ele>2095.896</ele>
        <time>2010-07-04T09:46:08Z</time>
      </trkpt>
      <trkpt lat="44.7712" lon="6.65707">
        <ele>2092.998</ele>
        <time>2010-07-04T09:46:14Z</time>
      </trkpt>
      <trkpt lat="44.77117" lon="6.65702">
        <ele>2091.806</ele>
        <time>2010-07-04T09:46:16Z</time>
      </trkpt>
      <trkpt lat="44.77126" lon="6.65697">
        <ele>2088.066</ele>
        <time>2010-07-04T09:46:21Z</time>
      </trkpt>
      <trkpt lat="44.77129" lon="6.65698">
        <ele>2087.326</ele>
        <time>2010-07-04T09:46:22Z</time>
      </trkpt>
      <trkpt lat="44.77135" lon="6.657">
        <ele>2086.307</ele>
        <time>2010-07-04T09:46:24Z</time>
      </trkpt>
      <trkpt lat="44.77143" lon="6.65694">
        <ele>2083.538</ele>
        <time>2010-07-04T09:46:29Z</time>
      </trkpt>
      <trkpt lat="44.7715" lon="6.65688">
        <ele>2080.896</ele>
        <time>2010-07-04T09:46:33Z</time>
      </trkpt>
      <trkpt lat="44.77156" lon="6.65681">
        <ele>2077.886</ele>
        <time>2010-07-04T09:46:37Z</time>
      </trkpt>
      <trkpt lat="44.77151" lon="6.65671">
        <ele>2073.754</ele>
        <time>2010-07-04T09:46:42Z</time>
      </trkpt>
      <trkpt lat="44.77131" lon="6.65655">
        <ele>2068.475</ele>
        <time>2010-07-04T09:46:48Z</time>
      </trkpt>
      <trkpt lat="44.77123" lon="6.65644">
        <ele>2065.395</ele>
        <time>2010-07-04T09:46:52Z</time>
      </trkpt>
      <trkpt lat="44.77109" lon="6.65626">
        <ele>2060.854</ele>
        <time>2010-07-04T09:46:57Z</time>
      </trkpt>
      <trkpt lat="44.77096" lon="6.65609">
        <ele>2056.374</ele>
        <time>2010-07-04T09:47:02Z</time>
      </trkpt>
      <trkpt lat="44.77079" lon="6.65591">
        <ele>2051.595</ele>
        <time>2010-07-04T09:47:08Z</time>
      </trkpt>
      <trkpt lat="44.77086" lon="6.65584">
        <ele>2048.693</ele>
        <time>2010-07-04T09:47:12Z</time>
      </trkpt>
      <trkpt lat="44.77105" lon="6.65584">
        <ele>2045.495</ele>
        <time>2010-07-04T09:47:17Z</time>
      </trkpt>
      <trkpt lat="44.77118" lon="6.65582">
        <ele>2042.946</ele>
        <time>2010-07-04T09:47:21Z</time>
      </trkpt>
      <trkpt lat="44.77116" lon="6.65576">
        <ele>2041.027</ele>
        <time>2010-07-04T09:47:25Z</time>
      </trkpt>
      <trkpt lat="44.77112" lon="6.65571">
        <ele>2039.836</ele>
        <time>2010-07-04T09:47:27Z</time>
      </trkpt>
      <trkpt lat="44.77115" lon="6.65565">
        <ele>2037.226</ele>
        <time>2010-07-04T09:47:31Z</time>
      </trkpt>
      <trkpt lat="44.77125" lon="6.65561">
        <ele>2034.775</ele>
        <time>2010-07-04T09:47:34Z</time>
      </trkpt>
      <trkpt lat="44.77146" lon="6.65559">
        <ele>2029.945</ele>
        <time>2010-07-04T09:47:40Z</time>
      </trkpt>
      <trkpt lat="44.77154" lon="6.65557">
        <ele>2028.184</ele>
        <time>2010-07-04T09:47:42Z</time>
      </trkpt>
      <trkpt lat="44.77174" lon="6.65555">
        <ele>2024.145</ele>
        <time>2010-07-04T09:47:47Z</time>
      </trkpt>
      <trkpt lat="44.77186" lon="6.65557">
        <ele>2021.886</ele>
        <time>2010-07-04T09:47:51Z</time>
      </trkpt>
      <trkpt lat="44.77188" lon="6.65553">
        <ele>2019.896</ele>
        <time>2010-07-04T09:47:55Z</time>
      </trkpt>
      <trkpt lat="44.77183" lon="6.6554">
        <ele>2018.297</ele>
        <time>2010-07-04T09:47:59Z</time>
      </trkpt>
      <trkpt lat="44.77167" lon="6.65511">
        <ele>2012.214</ele>
        <time>2010-07-04T09:48:06Z</time>
      </trkpt>
      <trkpt lat="44.77157" lon="6.65495">
        <ele>2008.304</ele>
        <time>2010-07-04T09:48:10Z</time>
      </trkpt>
      <trkpt lat="44.77152" lon="6.65487">
        <ele>2006.209</ele>
        <time>2010-07-04T09:48:12Z</time>
      </trkpt>
      <trkpt lat="44.77142" lon="6.6547">
        <ele>2002.314</ele>
        <time>2010-07-04T09:48:16Z</time>
      </trkpt>
      <trkpt lat="44.77127" lon="6.65439">
        <ele>1995.434</ele>
        <time>2010-07-04T09:48:23Z</time>
      </trkpt>
      <trkpt lat="44.7712" lon="6.65414">
        <ele>1989.893</ele>
        <time>2010-07-04T09:48:28Z</time>
      </trkpt>
      <trkpt lat="44.77112" lon="6.65403">
        <ele>1987.136</ele>
        <time>2010-07-04T09:48:32Z</time>
      </trkpt>
      <trkpt lat="44.77107" lon="6.654">
        <ele>1985.859</ele>
        <time>2010-07-04T09:48:38Z</time>
      </trkpt>
      <trkpt lat="44.77103" lon="6.65387">
        <ele>1985.6</ele>
        <time>2010-07-04T09:48:43Z</time>
      </trkpt>
      <trkpt lat="44.77099" lon="6.65376">
        <ele>1985.26</ele>
        <time>2010-07-04T09:48:46Z</time>
      </trkpt>
      <trkpt lat="44.77099" lon="6.65347">
        <ele>1981.245</ele>
        <time>2010-07-04T09:48:53Z</time>
      </trkpt>
      <trkpt lat="44.77097" lon="6.65318">
        <ele>1977.865</ele>
        <time>2010-07-04T09:48:58Z</time>
      </trkpt>
      <trkpt lat="44.77096" lon="6.65298">
        <ele>1975.236</ele>
        <time>2010-07-04T09:49:02Z</time>
      </trkpt>
      <trkpt lat="44.77096" lon="6.65277">
        <ele>1972.796</ele>
        <time>2010-07-04T09:49:06Z</time>
      </trkpt>
      <trkpt lat="44.77097" lon="6.65241">
        <ele>1965.461</ele>
        <time>2010-07-04T09:49:12Z</time>
      </trkpt>
      <trkpt lat="44.77097" lon="6.65234">
        <ele>1964.405</ele>
        <time>2010-07-04T09:49:13Z</time>
      </trkpt>
      <trkpt lat="44.771" lon="6.65213">
        <ele>1960.714</ele>
        <time>2010-07-04T09:49:16Z</time>
      </trkpt>
      <trkpt lat="44.77102" lon="6.65179">
        <ele>1955.935</ele>
        <time>2010-07-04T09:49:21Z</time>
      </trkpt>
      <trkpt lat="44.77105" lon="6.65146">
        <ele>1950.145</ele>
        <time>2010-07-04T09:49:27Z</time>
      </trkpt>
      <trkpt lat="44.77106" lon="6.65136">
        <ele>1948.635</ele>
        <time>2010-07-04T09:49:29Z</time>
      </trkpt>
      <trkpt lat="44.77101" lon="6.65108">
        <ele>1945.916</ele>
        <time>2010-07-04T09:49:34Z</time>
      </trkpt>
      <trkpt lat="44.77105" lon="6.65093">
        <ele>1942.834</ele>
        <time>2010-07-04T09:49:37Z</time>
      </trkpt>
      <trkpt lat="44.77111" lon="6.65075">
        <ele>1940.193</ele>
        <time>2010-07-04T09:49:40Z</time>
      </trkpt>
      <trkpt lat="44.77112" lon="6.65049">
        <ele>1937.494</ele>
        <time>2010-07-04T09:49:44Z</time>
      </trkpt>
      <trkpt lat="44.77114" lon="6.65034">
        <ele>1936.585</ele>
        <time>2010-07-04T09:49:46Z</time>
      </trkpt>
      <trkpt lat="44.77113" lon="6.65002">
        <ele>1933.175</ele>
        <time>2010-07-04T09:49:51Z</time>
      </trkpt>
      <trkpt lat="44.77106" lon="6.6498">
        <ele>1931.776</ele>
        <time>2010-07-04T09:49:54Z</time>
      </trkpt>
      <trkpt lat="44.77092" lon="6.64943">
        <ele>1929.937</ele>
        <time>2010-07-04T09:50:00Z</time>
      </trkpt>
      <trkpt lat="44.77087" lon="6.64917">
        <ele>1926.825</ele>
        <time>2010-07-04T09:50:05Z</time>
      </trkpt>
      <trkpt lat="44.77082" lon="6.64893">
        <ele>1923.875</ele>
        <time>2010-07-04T09:50:09Z</time>
      </trkpt>
      <trkpt lat="44.77082" lon="6.64882">
        <ele>1922.825</ele>
        <time>2010-07-04T09:50:11Z</time>
      </trkpt>
      <trkpt lat="44.77079" lon="6.64858">
        <ele>1920.605</ele>
        <time>2010-07-04T09:50:16Z</time>
      </trkpt>
      <trkpt lat="44.77078" lon="6.6485">
        <ele>1919.195</ele>
        <time>2010-07-04T09:50:18Z</time>
      </trkpt>
      <trkpt lat="44.77067" lon="6.64808">
        <ele>1913.984</ele>
        <time>2010-07-04T09:50:25Z</time>
      </trkpt>
      <trkpt lat="44.77059" lon="6.64781">
        <ele>1910.463</ele>
        <time>2010-07-04T09:50:29Z</time>
      </trkpt>
      <trkpt lat="44.77054" lon="6.64754">
        <ele>1906.952</ele>
        <time>2010-07-04T09:50:33Z</time>
      </trkpt>
      <trkpt lat="44.77056" lon="6.64741">
        <ele>1905.333</ele>
        <time>2010-07-04T09:50:35Z</time>
      </trkpt>
      <trkpt lat="44.7706" lon="6.64718">
        <ele>1902.506</ele>
        <time>2010-07-04T09:50:40Z</time>
      </trkpt>
      <trkpt lat="44.7706" lon="6.64716">
        <ele>1902.038</ele>
        <time>2010-07-04T09:50:44Z</time>
      </trkpt>
      <trkpt lat="44.7706" lon="6.64715">
        <ele>1902.579</ele>
        <time>2010-07-04T09:50:51Z</time>
      </trkpt>
      <trkpt lat="44.77059" lon="6.64715">
        <ele>1903.749</ele>
        <time>2010-07-04T09:51:00Z</time>
      </trkpt>
      <trkpt lat="44.7706" lon="6.64716">
        <ele>1905.589</ele>
        <time>2010-07-04T09:51:16Z</time>
      </trkpt>
      <trkpt lat="44.77059" lon="6.64717">
        <ele>1904.639</ele>
        <time>2010-07-04T09:51:32Z</time>
      </trkpt>
      <trkpt lat="44.77055" lon="6.6471">
        <ele>1904.027</ele>
        <time>2010-07-04T09:51:36Z</time>
      </trkpt>
      <trkpt lat="44.77045" lon="6.64675">
        <ele>1900.744</ele>
        <time>2010-07-04T09:51:41Z</time>
      </trkpt>
      <trkpt lat="44.77018" lon="6.6461">
        <ele>1893.04</ele>
        <time>2010-07-04T09:51:48Z</time>
      </trkpt>
      <trkpt lat="44.77011" lon="6.64588">
        <ele>1891.171</ele>
        <time>2010-07-04T09:51:50Z</time>
      </trkpt>
      <trkpt lat="44.77002" lon="6.64566">
        <ele>1888.861</ele>
        <time>2010-07-04T09:51:52Z</time>
      </trkpt>
      <trkpt lat="44.7698" lon="6.64497">
        <ele>1883.292</ele>
        <time>2010-07-04T09:51:58Z</time>
      </trkpt>
      <trkpt lat="44.76955" lon="6.64449">
        <ele>1879.673</ele>
        <time>2010-07-04T09:52:03Z</time>
      </trkpt>
      <trkpt lat="44.7695" lon="6.64441">
        <ele>1878.733</ele>
        <time>2010-07-04T09:52:04Z</time>
      </trkpt>
      <trkpt lat="44.76928" lon="6.64388">
        <ele>1873.782</ele>
        <time>2010-07-04T09:52:09Z</time>
      </trkpt>
      <trkpt lat="44.76915" lon="6.64356">
        <ele>1871.42</ele>
        <time>2010-07-04T09:52:12Z</time>
      </trkpt>
      <trkpt lat="44.76899" lon="6.64299">
        <ele>1867.844</ele>
        <time>2010-07-04T09:52:17Z</time>
      </trkpt>
      <trkpt lat="44.76868" lon="6.64227">
        <ele>1862.993</ele>
        <time>2010-07-04T09:52:24Z</time>
      </trkpt>
      <trkpt lat="44.76833" lon="6.64168">
        <ele>1858.613</ele>
        <time>2010-07-04T09:52:30Z</time>
      </trkpt>
      <trkpt lat="44.7681" lon="6.64131">
        <ele>1855.984</ele>
        <time>2010-07-04T09:52:34Z</time>
      </trkpt>
      <trkpt lat="44.76783" lon="6.64104">
        <ele>1852.853</ele>
        <time>2010-07-04T09:52:38Z</time>
      </trkpt>
      <trkpt lat="44.76764" lon="6.64073">
        <ele>1849.783</ele>
        <time>2010-07-04T09:52:42Z</time>
      </trkpt>
      <trkpt lat="44.76734" lon="6.63995">
        <ele>1845.183</ele>
        <time>2010-07-04T09:52:50Z</time>
      </trkpt>
      <trkpt lat="44.76697" lon="6.63921">
        <ele>1840.512</ele>
        <time>2010-07-04T09:52:58Z</time>
      </trkpt>
      <trkpt lat="44.76673" lon="6.63871">
        <ele>1837.232</ele>
        <time>2010-07-04T09:53:03Z</time>
      </trkpt>
      <trkpt lat="44.76656" lon="6.63845">
        <ele>1835.272</ele>
        <time>2010-07-04T09:53:06Z</time>
      </trkpt>
      <trkpt lat="44.76615" lon="6.63809">
        <ele>1831.56</ele>
        <time>2010-07-04T09:53:12Z</time>
      </trkpt>
      <trkpt lat="44.76608" lon="6.63805">
        <ele>1830.772</ele>
        <time>2010-07-04T09:53:13Z</time>
      </trkpt>
      <trkpt lat="44.7658" lon="6.63773">
        <ele>1826.942</ele>
        <time>2010-07-04T09:53:18Z</time>
      </trkpt>
      <trkpt lat="44.76563" lon="6.6373">
        <ele>1827.046</ele>
        <time>2010-07-04T09:53:23Z</time>
      </trkpt>
      <trkpt lat="44.7654" lon="6.63662">
        <ele>1826.187</ele>
        <time>2010-07-04T09:53:31Z</time>
      </trkpt>
      <trkpt lat="44.76513" lon="6.63621">
        <ele>1825.206</ele>
        <time>2010-07-04T09:53:37Z</time>
      </trkpt>
      <trkpt lat="44.76487" lon="6.63574">
        <ele>1824.686</ele>
        <time>2010-07-04T09:53:43Z</time>
      </trkpt>
      <trkpt lat="44.76477" lon="6.6356">
        <ele>1824.095</ele>
        <time>2010-07-04T09:53:45Z</time>
      </trkpt>
      <trkpt lat="44.76462" lon="6.63536">
        <ele>1822.984</ele>
        <time>2010-07-04T09:53:48Z</time>
      </trkpt>
      <trkpt lat="44.7643" lon="6.63473">
        <ele>1819.132</ele>
        <time>2010-07-04T09:53:55Z</time>
      </trkpt>
      <trkpt lat="44.76408" lon="6.63421">
        <ele>1815.682</ele>
        <time>2010-07-04T09:54:00Z</time>
      </trkpt>
      <trkpt lat="44.76387" lon="6.6336">
        <ele>1813.293</ele>
        <time>2010-07-04T09:54:06Z</time>
      </trkpt>
      <trkpt lat="44.76364" lon="6.63309">
        <ele>1812.284</ele>
        <time>2010-07-04T09:54:12Z</time>
      </trkpt>
      <trkpt lat="44.76353" lon="6.63281">
        <ele>1812.445</ele>
        <time>2010-07-04T09:54:15Z</time>
      </trkpt>
      <trkpt lat="44.76321" lon="6.63239">
        <ele>1811.033</ele>
        <time>2010-07-04T09:54:21Z</time>
      </trkpt>
      <trkpt lat="44.76297" lon="6.63213">
        <ele>1810.045</ele>
        <time>2010-07-04T09:54:25Z</time>
      </trkpt>
      <trkpt lat="44.76279" lon="6.63184">
        <ele>1808.915</ele>
        <time>2010-07-04T09:54:29Z</time>
      </trkpt>
      <trkpt lat="44.7625" lon="6.63129">
        <ele>1806.784</ele>
        <time>2010-07-04T09:54:36Z</time>
      </trkpt>
      <trkpt lat="44.76218" lon="6.63075">
        <ele>1804.794</ele>
        <time>2010-07-04T09:54:43Z</time>
      </trkpt>
      <trkpt lat="44.76186" lon="6.6302">
        <ele>1802.813</ele>
        <time>2010-07-04T09:54:50Z</time>
      </trkpt>
      <trkpt lat="44.76175" lon="6.63005">
        <ele>1802.053</ele>
        <time>2010-07-04T09:54:52Z</time>
      </trkpt>
      <trkpt lat="44.76139" lon="6.62945">
        <ele>1801.424</ele>
        <time>2010-07-04T09:55:00Z</time>
      </trkpt>
      <trkpt lat="44.76107" lon="6.62887">
        <ele>1799.504</ele>
        <time>2010-07-04T09:55:08Z</time>
      </trkpt>
      <trkpt lat="44.76088" lon="6.62841">
        <ele>1798.594</ele>
        <time>2010-07-04T09:55:14Z</time>
      </trkpt>
      <trkpt lat="44.76073" lon="6.62788">
        <ele>1798.415</ele>
        <time>2010-07-04T09:55:21Z</time>
      </trkpt>
      <trkpt lat="44.76068" lon="6.62768">
        <ele>1798.486</ele>
        <time>2010-07-04T09:55:24Z</time>
      </trkpt>
      <trkpt lat="44.76052" lon="6.62739">
        <ele>1797.643</ele>
        <time>2010-07-04T09:55:29Z</time>
      </trkpt>
      <trkpt lat="44.76035" lon="6.62715">
        <ele>1796.542</ele>
        <time>2010-07-04T09:55:33Z</time>
      </trkpt>
      <trkpt lat="44.76029" lon="6.62687">
        <ele>1795.422</ele>
        <time>2010-07-04T09:55:37Z</time>
      </trkpt>
      <trkpt lat="44.7603" lon="6.6268">
        <ele>1795.012</ele>
        <time>2010-07-04T09:55:38Z</time>
      </trkpt>
      <trkpt lat="44.76044" lon="6.62615">
        <ele>1791.693</ele>
        <time>2010-07-04T09:55:46Z</time>
      </trkpt>
      <trkpt lat="44.76048" lon="6.62567">
        <ele>1789.622</ele>
        <time>2010-07-04T09:55:52Z</time>
      </trkpt>
      <trkpt lat="44.76053" lon="6.62524">
        <ele>1788.604</ele>
        <time>2010-07-04T09:55:58Z</time>
      </trkpt>
      <trkpt lat="44.76055" lon="6.62493">
        <ele>1789.834</ele>
        <time>2010-07-04T09:56:04Z</time>
      </trkpt>
      <trkpt lat="44.76059" lon="6.62486">
        <ele>1789.792</ele>
        <time>2010-07-04T09:56:06Z</time>
      </trkpt>
      <trkpt lat="44.76077" lon="6.62482">
        <ele>1789.843</ele>
        <time>2010-07-04T09:56:10Z</time>
      </trkpt>
      <trkpt lat="44.76094" lon="6.62489">
        <ele>1789.763</ele>
        <time>2010-07-04T09:56:15Z</time>
      </trkpt>
      <trkpt lat="44.76103" lon="6.62489">
        <ele>1790.535</ele>
        <time>2010-07-04T09:56:20Z</time>
      </trkpt>
      <trkpt lat="44.76108" lon="6.62477">
        <ele>1791.255</ele>
        <time>2010-07-04T09:56:25Z</time>
      </trkpt>
      <trkpt lat="44.76112" lon="6.62449">
        <ele>1793.335</ele>
        <time>2010-07-04T09:56:34Z</time>
      </trkpt>
      <trkpt lat="44.76114" lon="6.62417">
        <ele>1796.396</ele>
        <time>2010-07-04T09:56:44Z</time>
      </trkpt>
      <trkpt lat="44.76111" lon="6.62395">
        <ele>1797.574</ele>
        <time>2010-07-04T09:56:52Z</time>
      </trkpt>
      <trkpt lat="44.76107" lon="6.62376">
        <ele>1803.709</ele>
        <time>2010-07-04T09:56:59Z</time>
      </trkpt>
      <trkpt lat="44.76104" lon="6.62362">
        <ele>1813.594</ele>
        <time>2010-07-04T09:57:05Z</time>
      </trkpt>
      <trkpt lat="44.76098" lon="6.62342">
        <ele>1824.304</ele>
        <time>2010-07-04T09:57:13Z</time>
      </trkpt>
      <trkpt lat="44.76097" lon="6.62326">
        <ele>1826.992</ele>
        <time>2010-07-04T09:57:18Z</time>
      </trkpt>
      <trkpt lat="44.76096" lon="6.62308">
        <ele>1833.114</ele>
        <time>2010-07-04T09:57:24Z</time>
      </trkpt>
      <trkpt lat="44.76095" lon="6.62288">
        <ele>1837.519</ele>
        <time>2010-07-04T09:57:32Z</time>
      </trkpt>
      <trkpt lat="44.76094" lon="6.62267">
        <ele>1842.228</ele>
        <time>2010-07-04T09:57:40Z</time>
      </trkpt>
      <trkpt lat="44.76096" lon="6.62246">
        <ele>1842.687</ele>
        <time>2010-07-04T09:57:47Z</time>
      </trkpt>
      <trkpt lat="44.76098" lon="6.62228">
        <ele>1839.405</ele>
        <time>2010-07-04T09:57:53Z</time>
      </trkpt>
      <trkpt lat="44.761" lon="6.62212">
        <ele>1837.124</ele>
        <time>2010-07-04T09:57:59Z</time>
      </trkpt>
      <trkpt lat="44.76103" lon="6.62192">
        <ele>1833.443</ele>
        <time>2010-07-04T09:58:06Z</time>
      </trkpt>
      <trkpt lat="44.76104" lon="6.62167">
        <ele>1830.634</ele>
        <time>2010-07-04T09:58:15Z</time>
      </trkpt>
      <trkpt lat="44.76097" lon="6.62151">
        <ele>1830.234</ele>
        <time>2010-07-04T09:58:22Z</time>
      </trkpt>
      <trkpt lat="44.76088" lon="6.62132">
        <ele>1828.853</ele>
        <time>2010-07-04T09:58:30Z</time>
      </trkpt>
      <trkpt lat="44.76077" lon="6.62111">
        <ele>1826.532</ele>
        <time>2010-07-04T09:58:39Z</time>
      </trkpt>
      <trkpt lat="44.76073" lon="6.62085">
        <ele>1824.765</ele>
        <time>2010-07-04T09:58:47Z</time>
      </trkpt>
      <trkpt lat="44.76071" lon="6.62061">
        <ele>1824.894</ele>
        <time>2010-07-04T09:58:55Z</time>
      </trkpt>
      <trkpt lat="44.76063" lon="6.62048">
        <ele>1827.376</ele>
        <time>2010-07-04T09:59:02Z</time>
      </trkpt>
      <trkpt lat="44.76052" lon="6.62038">
        <ele>1830.956</ele>
        <time>2010-07-04T09:59:09Z</time>
      </trkpt>
      <trkpt lat="44.76046" lon="6.62023">
        <ele>1830.883</ele>
        <time>2010-07-04T09:59:16Z</time>
      </trkpt>
      <trkpt lat="44.76039" lon="6.61998">
        <ele>1832.556</ele>
        <time>2010-07-04T09:59:26Z</time>
      </trkpt>
      <trkpt lat="44.76034" lon="6.61982">
        <ele>1835.005</ele>
        <time>2010-07-04T09:59:32Z</time>
      </trkpt>
      <trkpt lat="44.76029" lon="6.61958">
        <ele>1836.085</ele>
        <time>2010-07-04T09:59:40Z</time>
      </trkpt>
      <trkpt lat="44.76028" lon="6.61941">
        <ele>1838.226</ele>
        <time>2010-07-04T09:59:46Z</time>
      </trkpt>
      <trkpt lat="44.76029" lon="6.61922">
        <ele>1838.803</ele>
        <time>2010-07-04T09:59:52Z</time>
      </trkpt>
      <trkpt lat="44.76034" lon="6.61905">
        <ele>1842.286</ele>
        <time>2010-07-04T09:59:56Z</time>
      </trkpt>
      <trkpt lat="44.76042" lon="6.61874">
        <ele>1847.998</ele>
        <time>2010-07-04T10:00:03Z</time>
      </trkpt>
      <trkpt lat="44.76048" lon="6.61839">
        <ele>1850.897</ele>
        <time>2010-07-04T10:00:11Z</time>
      </trkpt>
      <trkpt lat="44.76052" lon="6.61811">
        <ele>1857.258</ele>
        <time>2010-07-04T10:00:18Z</time>
      </trkpt>
      <trkpt lat="44.76055" lon="6.61785">
        <ele>1859.268</ele>
        <time>2010-07-04T10:00:24Z</time>
      </trkpt>
      <trkpt lat="44.76062" lon="6.61757">
        <ele>1858.005</ele>
        <time>2010-07-04T10:00:31Z</time>
      </trkpt>
      <trkpt lat="44.7607" lon="6.61739">
        <ele>1855.453</ele>
        <time>2010-07-04T10:00:36Z</time>
      </trkpt>
      <trkpt lat="44.76075" lon="6.61715">
        <ele>1852.801</ele>
        <time>2010-07-04T10:00:42Z</time>
      </trkpt>
      <trkpt lat="44.7608" lon="6.61687">
        <ele>1858.595</ele>
        <time>2010-07-04T10:00:48Z</time>
      </trkpt>
      <trkpt lat="44.76083" lon="6.61666">
        <ele>1863.976</ele>
        <time>2010-07-04T10:00:54Z</time>
      </trkpt>
      <trkpt lat="44.76086" lon="6.61644">
        <ele>1864.957</ele>
        <time>2010-07-04T10:00:59Z</time>
      </trkpt>
      <trkpt lat="44.76089" lon="6.61613">
        <ele>1860.284</ele>
        <time>2010-07-04T10:01:06Z</time>
      </trkpt>
      <trkpt lat="44.7608" lon="6.616">
        <ele>1855.299</ele>
        <time>2010-07-04T10:01:11Z</time>
      </trkpt>
      <trkpt lat="44.76078" lon="6.61585">
        <ele>1851.979</ele>
        <time>2010-07-04T10:01:15Z</time>
      </trkpt>
      <trkpt lat="44.76082" lon="6.61567">
        <ele>1848.627</ele>
        <time>2010-07-04T10:01:19Z</time>
      </trkpt>
      <trkpt lat="44.76084" lon="6.61555">
        <ele>1846.616</ele>
        <time>2010-07-04T10:01:21Z</time>
      </trkpt>
      <trkpt lat="44.76086" lon="6.61525">
        <ele>1842.586</ele>
        <time>2010-07-04T10:01:26Z</time>
      </trkpt>
      <trkpt lat="44.76087" lon="6.61504">
        <ele>1839.546</ele>
        <time>2010-07-04T10:01:30Z</time>
      </trkpt>
      <trkpt lat="44.76079" lon="6.61492">
        <ele>1837.367</ele>
        <time>2010-07-04T10:01:33Z</time>
      </trkpt>
      <trkpt lat="44.76071" lon="6.61476">
        <ele>1834.385</ele>
        <time>2010-07-04T10:01:36Z</time>
      </trkpt>
      <trkpt lat="44.76064" lon="6.61467">
        <ele>1831.906</ele>
        <time>2010-07-04T10:01:38Z</time>
      </trkpt>
      <trkpt lat="44.76058" lon="6.61461">
        <ele>1830.166</ele>
        <time>2010-07-04T10:01:40Z</time>
      </trkpt>
      <trkpt lat="44.7606" lon="6.6145">
        <ele>1826.105</ele>
        <time>2010-07-04T10:01:44Z</time>
      </trkpt>
      <trkpt lat="44.76064" lon="6.61447">
        <ele>1824.484</ele>
        <time>2010-07-04T10:01:45Z</time>
      </trkpt>
      <trkpt lat="44.76074" lon="6.61432">
        <ele>1816.29</ele>
        <time>2010-07-04T10:01:49Z</time>
      </trkpt>
      <trkpt lat="44.7609" lon="6.61415">
        <ele>1814.122</ele>
        <time>2010-07-04T10:01:53Z</time>
      </trkpt>
      <trkpt lat="44.76093" lon="6.614">
        <ele>1814.075</ele>
        <time>2010-07-04T10:01:56Z</time>
      </trkpt>
      <trkpt lat="44.76087" lon="6.61391">
        <ele>1812.436</ele>
        <time>2010-07-04T10:01:59Z</time>
      </trkpt>
      <trkpt lat="44.76082" lon="6.61389">
        <ele>1810.318</ele>
        <time>2010-07-04T10:02:04Z</time>
      </trkpt>
      <trkpt lat="44.76075" lon="6.61386">
        <ele>1808.629</ele>
        <time>2010-07-04T10:02:08Z</time>
      </trkpt>
      <trkpt lat="44.76046" lon="6.61362">
        <ele>1803.648</ele>
        <time>2010-07-04T10:02:15Z</time>
      </trkpt>
      <trkpt lat="44.76038" lon="6.61356">
        <ele>1802.959</ele>
        <time>2010-07-04T10:02:19Z</time>
      </trkpt>
      <trkpt lat="44.76035" lon="6.61352">
        <ele>1800.27</ele>
        <time>2010-07-04T10:02:24Z</time>
      </trkpt>
      <trkpt lat="44.76024" lon="6.61339">
        <ele>1798.279</ele>
        <time>2010-07-04T10:02:28Z</time>
      </trkpt>
      <trkpt lat="44.7602" lon="6.61311">
        <ele>1796.34</ele>
        <time>2010-07-04T10:02:33Z</time>
      </trkpt>
      <trkpt lat="44.7602" lon="6.61303">
        <ele>1796.33</ele>
        <time>2010-07-04T10:02:34Z</time>
      </trkpt>
      <trkpt lat="44.7601" lon="6.61275">
        <ele>1793.07</ele>
        <time>2010-07-04T10:02:38Z</time>
      </trkpt>
      <trkpt lat="44.75991" lon="6.61253">
        <ele>1784.407</ele>
        <time>2010-07-04T10:02:43Z</time>
      </trkpt>
      <trkpt lat="44.75975" lon="6.61225">
        <ele>1777.065</ele>
        <time>2010-07-04T10:02:47Z</time>
      </trkpt>
      <trkpt lat="44.75965" lon="6.61194">
        <ele>1772.185</ele>
        <time>2010-07-04T10:02:51Z</time>
      </trkpt>
      <trkpt lat="44.75963" lon="6.61178">
        <ele>1770.255</ele>
        <time>2010-07-04T10:02:53Z</time>
      </trkpt>
      <trkpt lat="44.75962" lon="6.61154">
        <ele>1767.115</ele>
        <time>2010-07-04T10:02:56Z</time>
      </trkpt>
      <trkpt lat="44.75957" lon="6.61113">
        <ele>1763.434</ele>
        <time>2010-07-04T10:03:01Z</time>
      </trkpt>
      <trkpt lat="44.75959" lon="6.61095">
        <ele>1761.025</ele>
        <time>2010-07-04T10:03:03Z</time>
      </trkpt>
      <trkpt lat="44.75968" lon="6.61065">
        <ele>1757.235</ele>
        <time>2010-07-04T10:03:07Z</time>
      </trkpt>
      <trkpt lat="44.75963" lon="6.61052">
        <ele>1747.71</ele>
        <time>2010-07-04T10:03:11Z</time>
      </trkpt>
      <trkpt lat="44.75951" lon="6.61067">
        <ele>1743.481</ele>
        <time>2010-07-04T10:03:14Z</time>
      </trkpt>
      <trkpt lat="44.75941" lon="6.61089">
        <ele>1740.252</ele>
        <time>2010-07-04T10:03:18Z</time>
      </trkpt>
      <trkpt lat="44.75933" lon="6.61106">
        <ele>1735.05</ele>
        <time>2010-07-04T10:03:22Z</time>
      </trkpt>
      <trkpt lat="44.75933" lon="6.61111">
        <ele>1734.181</ele>
        <time>2010-07-04T10:03:23Z</time>
      </trkpt>
      <trkpt lat="44.75925" lon="6.61146">
        <ele>1728.74</ele>
        <time>2010-07-04T10:03:29Z</time>
      </trkpt>
      <trkpt lat="44.75921" lon="6.61142">
        <ele>1727.003</ele>
        <time>2010-07-04T10:03:33Z</time>
      </trkpt>
      <trkpt lat="44.75918" lon="6.6113">
        <ele>1725.994</ele>
        <time>2010-07-04T10:03:35Z</time>
      </trkpt>
      <trkpt lat="44.75916" lon="6.61103">
        <ele>1726.496</ele>
        <time>2010-07-04T10:03:39Z</time>
      </trkpt>
      <trkpt lat="44.75914" lon="6.61081">
        <ele>1726.658</ele>
        <time>2010-07-04T10:03:42Z</time>
      </trkpt>
      <trkpt lat="44.75912" lon="6.61047">
        <ele>1726.43</ele>
        <time>2010-07-04T10:03:47Z</time>
      </trkpt>
      <trkpt lat="44.75923" lon="6.61013">
        <ele>1720.328</ele>
        <time>2010-07-04T10:03:53Z</time>
      </trkpt>
      <trkpt lat="44.75929" lon="6.61001">
        <ele>1719.698</ele>
        <time>2010-07-04T10:03:56Z</time>
      </trkpt>
      <trkpt lat="44.75925" lon="6.61001">
        <ele>1715.467</ele>
        <time>2010-07-04T10:04:01Z</time>
      </trkpt>
      <trkpt lat="44.759" lon="6.61016">
        <ele>1710.716</ele>
        <time>2010-07-04T10:04:07Z</time>
      </trkpt>
      <trkpt lat="44.75882" lon="6.61041">
        <ele>1704.2</ele>
        <time>2010-07-04T10:04:12Z</time>
      </trkpt>
      <trkpt lat="44.75873" lon="6.61061">
        <ele>1698.212</ele>
        <time>2010-07-04T10:04:15Z</time>
      </trkpt>
      <trkpt lat="44.75858" lon="6.61107">
        <ele>1689.633</ele>
        <time>2010-07-04T10:04:22Z</time>
      </trkpt>
      <trkpt lat="44.75855" lon="6.61112">
        <ele>1688.532</ele>
        <time>2010-07-04T10:04:23Z</time>
      </trkpt>
      <trkpt lat="44.75844" lon="6.61133">
        <ele>1683.371</ele>
        <time>2010-07-04T10:04:27Z</time>
      </trkpt>
      <trkpt lat="44.75839" lon="6.61137">
        <ele>1680.321</ele>
        <time>2010-07-04T10:04:29Z</time>
      </trkpt>
      <trkpt lat="44.75827" lon="6.6113">
        <ele>1677.663</ele>
        <time>2010-07-04T10:04:33Z</time>
      </trkpt>
      <trkpt lat="44.75821" lon="6.61133">
        <ele>1676.775</ele>
        <time>2010-07-04T10:04:36Z</time>
      </trkpt>
      <trkpt lat="44.75817" lon="6.61131">
        <ele>1676.456</ele>
        <time>2010-07-04T10:04:38Z</time>
      </trkpt>
      <trkpt lat="44.75803" lon="6.61105">
        <ele>1669.754</ele>
        <time>2010-07-04T10:04:44Z</time>
      </trkpt>
      <trkpt lat="44.75803" lon="6.611">
        <ele>1670.135</ele>
        <time>2010-07-04T10:04:45Z</time>
      </trkpt>
      <trkpt lat="44.758" lon="6.61091">
        <ele>1670.548</ele>
        <time>2010-07-04T10:04:48Z</time>
      </trkpt>
      <trkpt lat="44.75798" lon="6.61089">
        <ele>1671.37</ele>
        <time>2010-07-04T10:04:50Z</time>
      </trkpt>
      <trkpt lat="44.75794" lon="6.61104">
        <ele>1667.267</ele>
        <time>2010-07-04T10:04:55Z</time>
      </trkpt>
      <trkpt lat="44.75791" lon="6.6111">
        <ele>1665.646</ele>
        <time>2010-07-04T10:04:56Z</time>
      </trkpt>
      <trkpt lat="44.75785" lon="6.61134">
        <ele>1656.492</ele>
        <time>2010-07-04T10:05:01Z</time>
      </trkpt>
      <trkpt lat="44.75771" lon="6.61146">
        <ele>1649.42</ele>
        <time>2010-07-04T10:05:06Z</time>
      </trkpt>
      <trkpt lat="44.75768" lon="6.6115">
        <ele>1647.4</ele>
        <time>2010-07-04T10:05:07Z</time>
      </trkpt>
      <trkpt lat="44.75758" lon="6.61182">
        <ele>1637.807</ele>
        <time>2010-07-04T10:05:13Z</time>
      </trkpt>
      <trkpt lat="44.75765" lon="6.61202">
        <ele>1632.93</ele>
        <time>2010-07-04T10:05:17Z</time>
      </trkpt>
      <trkpt lat="44.75767" lon="6.6121">
        <ele>1630.942</ele>
        <time>2010-07-04T10:05:20Z</time>
      </trkpt>
      <trkpt lat="44.7576" lon="6.61211">
        <ele>1626.963</ele>
        <time>2010-07-04T10:05:25Z</time>
      </trkpt>
      <trkpt lat="44.75748" lon="6.61203">
        <ele>1624.745</ele>
        <time>2010-07-04T10:05:31Z</time>
      </trkpt>
      <trkpt lat="44.75743" lon="6.61199">
        <ele>1623.264</ele>
        <time>2010-07-04T10:05:33Z</time>
      </trkpt>
      <trkpt lat="44.7573" lon="6.61178">
        <ele>1621.045</ele>
        <time>2010-07-04T10:05:37Z</time>
      </trkpt>
      <trkpt lat="44.75723" lon="6.61144">
        <ele>1619.845</ele>
        <time>2010-07-04T10:05:41Z</time>
      </trkpt>
      <trkpt lat="44.75714" lon="6.61081">
        <ele>1616.076</ele>
        <time>2010-07-04T10:05:47Z</time>
      </trkpt>
      <trkpt lat="44.7572" lon="6.61036">
        <ele>1615.397</ele>
        <time>2010-07-04T10:05:51Z</time>
      </trkpt>
      <trkpt lat="44.75724" lon="6.61025">
        <ele>1615.238</ele>
        <time>2010-07-04T10:05:52Z</time>
      </trkpt>
      <trkpt lat="44.75735" lon="6.60973">
        <ele>1615.589</ele>
        <time>2010-07-04T10:05:57Z</time>
      </trkpt>
      <trkpt lat="44.75747" lon="6.60925">
        <ele>1615.47</ele>
        <time>2010-07-04T10:06:02Z</time>
      </trkpt>
      <trkpt lat="44.7575" lon="6.60886">
        <ele>1615.31</ele>
        <time>2010-07-04T10:06:06Z</time>
      </trkpt>
      <trkpt lat="44.75751" lon="6.60857">
        <ele>1615.09</ele>
        <time>2010-07-04T10:06:09Z</time>
      </trkpt>
      <trkpt lat="44.75745" lon="6.6081">
        <ele>1612.379</ele>
        <time>2010-07-04T10:06:14Z</time>
      </trkpt>
      <trkpt lat="44.75727" lon="6.60771">
        <ele>1611.029</ele>
        <time>2010-07-04T10:06:19Z</time>
      </trkpt>
      <trkpt lat="44.75727" lon="6.60747">
        <ele>1611.249</ele>
        <time>2010-07-04T10:06:22Z</time>
      </trkpt>
      <trkpt lat="44.7574" lon="6.60724">
        <ele>1611.201</ele>
        <time>2010-07-04T10:06:25Z</time>
      </trkpt>
      <trkpt lat="44.75747" lon="6.60694">
        <ele>1610.821</ele>
        <time>2010-07-04T10:06:28Z</time>
      </trkpt>
      <trkpt lat="44.7575" lon="6.60662">
        <ele>1610.021</ele>
        <time>2010-07-04T10:06:31Z</time>
      </trkpt>
      <trkpt lat="44.75752" lon="6.60615">
        <ele>1606.597</ele>
        <time>2010-07-04T10:06:36Z</time>
      </trkpt>
      <trkpt lat="44.75758" lon="6.6058">
        <ele>1602.135</ele>
        <time>2010-07-04T10:06:40Z</time>
      </trkpt>
      <trkpt lat="44.75771" lon="6.60547">
        <ele>1598.295</ele>
        <time>2010-07-04T10:06:45Z</time>
      </trkpt>
      <trkpt lat="44.75768" lon="6.60515">
        <ele>1595.255</ele>
        <time>2010-07-04T10:06:49Z</time>
      </trkpt>
      <trkpt lat="44.75764" lon="6.60484">
        <ele>1591.995</ele>
        <time>2010-07-04T10:06:53Z</time>
      </trkpt>
      <trkpt lat="44.75759" lon="6.60475">
        <ele>1591.675</ele>
        <time>2010-07-04T10:06:55Z</time>
      </trkpt>
      <trkpt lat="44.75757" lon="6.6046">
        <ele>1593.48</ele>
        <time>2010-07-04T10:07:01Z</time>
      </trkpt>
      <trkpt lat="44.75758" lon="6.60436">
        <ele>1595.231</ele>
        <time>2010-07-04T10:07:08Z</time>
      </trkpt>
      <trkpt lat="44.75758" lon="6.60409">
        <ele>1596.111</ele>
        <time>2010-07-04T10:07:14Z</time>
      </trkpt>
      <trkpt lat="44.75756" lon="6.60384">
        <ele>1595.5</ele>
        <time>2010-07-04T10:07:19Z</time>
      </trkpt>
      <trkpt lat="44.75752" lon="6.60362">
        <ele>1593.229</ele>
        <time>2010-07-04T10:07:24Z</time>
      </trkpt>
      <trkpt lat="44.75747" lon="6.60331">
        <ele>1591.448</ele>
        <time>2010-07-04T10:07:30Z</time>
      </trkpt>
      <trkpt lat="44.7574" lon="6.60309">
        <ele>1590.148</ele>
        <time>2010-07-04T10:07:36Z</time>
      </trkpt>
      <trkpt lat="44.75737" lon="6.60288">
        <ele>1591.88</ele>
        <time>2010-07-04T10:07:41Z</time>
      </trkpt>
      <trkpt lat="44.75729" lon="6.60262">
        <ele>1591.269</ele>
        <time>2010-07-04T10:07:46Z</time>
      </trkpt>
      <trkpt lat="44.75725" lon="6.60249">
        <ele>1588.297</ele>
        <time>2010-07-04T10:07:49Z</time>
      </trkpt>
      <trkpt lat="44.75732" lon="6.60221">
        <ele>1582.745</ele>
        <time>2010-07-04T10:07:55Z</time>
      </trkpt>
      <trkpt lat="44.75736" lon="6.60203">
        <ele>1579.685</ele>
        <time>2010-07-04T10:07:59Z</time>
      </trkpt>
      <trkpt lat="44.75745" lon="6.60189">
        <ele>1576.754</ele>
        <time>2010-07-04T10:08:02Z</time>
      </trkpt>
      <trkpt lat="44.75751" lon="6.60177">
        <ele>1573.923</ele>
        <time>2010-07-04T10:08:04Z</time>
      </trkpt>
      <trkpt lat="44.7576" lon="6.60154">
        <ele>1569.203</ele>
        <time>2010-07-04T10:08:08Z</time>
      </trkpt>
      <trkpt lat="44.75773" lon="6.60132">
        <ele>1564.744</ele>
        <time>2010-07-04T10:08:13Z</time>
      </trkpt>
      <trkpt lat="44.75775" lon="6.60129">
        <ele>1563.013</ele>
        <time>2010-07-04T10:08:14Z</time>
      </trkpt>
      <trkpt lat="44.7578" lon="6.60109">
        <ele>1556.811</ele>
        <time>2010-07-04T10:08:19Z</time>
      </trkpt>
      <trkpt lat="44.75787" lon="6.60091">
        <ele>1552.464</ele>
        <time>2010-07-04T10:08:24Z</time>
      </trkpt>
      <trkpt lat="44.75789" lon="6.6009">
        <ele>1551.844</ele>
        <time>2010-07-04T10:08:25Z</time>
      </trkpt>
      <trkpt lat="44.75798" lon="6.60077">
        <ele>1547.192</ele>
        <time>2010-07-04T10:08:30Z</time>
      </trkpt>
      <trkpt lat="44.75815" lon="6.60064">
        <ele>1544.695</ele>
        <time>2010-07-04T10:08:35Z</time>
      </trkpt>
      <trkpt lat="44.75825" lon="6.60056">
        <ele>1541.614</ele>
        <time>2010-07-04T10:08:38Z</time>
      </trkpt>
      <trkpt lat="44.75821" lon="6.60037">
        <ele>1538.353</ele>
        <time>2010-07-04T10:08:42Z</time>
      </trkpt>
      <trkpt lat="44.7582" lon="6.60032">
        <ele>1537.983</ele>
        <time>2010-07-04T10:08:43Z</time>
      </trkpt>
      <trkpt lat="44.75817" lon="6.60006">
        <ele>1535.274</ele>
        <time>2010-07-04T10:08:48Z</time>
      </trkpt>
      <trkpt lat="44.75825" lon="6.59988">
        <ele>1532.954</ele>
        <time>2010-07-04T10:08:52Z</time>
      </trkpt>
      <trkpt lat="44.75831" lon="6.5997">
        <ele>1529.774</ele>
        <time>2010-07-04T10:08:56Z</time>
      </trkpt>
      <trkpt lat="44.75836" lon="6.59941">
        <ele>1527.415</ele>
        <time>2010-07-04T10:09:01Z</time>
      </trkpt>
      <trkpt lat="44.75839" lon="6.5993">
        <ele>1522.923</ele>
        <time>2010-07-04T10:09:04Z</time>
      </trkpt>
      <trkpt lat="44.75832" lon="6.59919">
        <ele>1513.48</ele>
        <time>2010-07-04T10:09:09Z</time>
      </trkpt>
      <trkpt lat="44.75829" lon="6.59916">
        <ele>1511.59</ele>
        <time>2010-07-04T10:09:10Z</time>
      </trkpt>
      <trkpt lat="44.75809" lon="6.59902">
        <ele>1502.798</ele>
        <time>2010-07-04T10:09:15Z</time>
      </trkpt>
      <trkpt lat="44.7579" lon="6.59903">
        <ele>1492.296</ele>
        <time>2010-07-04T10:09:20Z</time>
      </trkpt>
      <trkpt lat="44.75786" lon="6.59902">
        <ele>1490.126</ele>
        <time>2010-07-04T10:09:21Z</time>
      </trkpt>
      <trkpt lat="44.75772" lon="6.59896">
        <ele>1484.239</ele>
        <time>2010-07-04T10:09:26Z</time>
      </trkpt>
      <trkpt lat="44.75763" lon="6.59897">
        <ele>1481.234</ele>
        <time>2010-07-04T10:09:32Z</time>
      </trkpt>
      <trkpt lat="44.75759" lon="6.59897">
        <ele>1479.565</ele>
        <time>2010-07-04T10:09:36Z</time>
      </trkpt>
      <trkpt lat="44.75758" lon="6.59888">
        <ele>1478.544</ele>
        <time>2010-07-04T10:09:38Z</time>
      </trkpt>
      <trkpt lat="44.75763" lon="6.59853">
        <ele>1476.165</ele>
        <time>2010-07-04T10:09:44Z</time>
      </trkpt>
      <trkpt lat="44.75766" lon="6.59843">
        <ele>1475.595</ele>
        <time>2010-07-04T10:09:46Z</time>
      </trkpt>
      <trkpt lat="44.75769" lon="6.59838">
        <ele>1473.655</ele>
        <time>2010-07-04T10:09:49Z</time>
      </trkpt>
      <trkpt lat="44.7576" lon="6.59833">
        <ele>1467.884</ele>
        <time>2010-07-04T10:09:54Z</time>
      </trkpt>
      <trkpt lat="44.75753" lon="6.59829">
        <ele>1465.663</ele>
        <time>2010-07-04T10:09:56Z</time>
      </trkpt>
      <trkpt lat="44.75736" lon="6.59823">
        <ele>1461.483</ele>
        <time>2010-07-04T10:10:00Z</time>
      </trkpt>
      <trkpt lat="44.75721" lon="6.59823">
        <ele>1456.172</ele>
        <time>2010-07-04T10:10:04Z</time>
      </trkpt>
      <trkpt lat="44.75714" lon="6.59825">
        <ele>1454.832</ele>
        <time>2010-07-04T10:10:06Z</time>
      </trkpt>
      <trkpt lat="44.75706" lon="6.59811">
        <ele>1452.322</ele>
        <time>2010-07-04T10:10:10Z</time>
      </trkpt>
      <trkpt lat="44.75705" lon="6.59807">
        <ele>1451.812</ele>
        <time>2010-07-04T10:10:11Z</time>
      </trkpt>
      <trkpt lat="44.75697" lon="6.59808">
        <ele>1449.492</ele>
        <time>2010-07-04T10:10:15Z</time>
      </trkpt>
      <trkpt lat="44.7569" lon="6.59807">
        <ele>1443.643</ele>
        <time>2010-07-04T10:10:20Z</time>
      </trkpt>
      <trkpt lat="44.75686" lon="6.59812">
        <ele>1441.203</ele>
        <time>2010-07-04T10:10:23Z</time>
      </trkpt>
      <trkpt lat="44.75682" lon="6.59806">
        <ele>1439.574</ele>
        <time>2010-07-04T10:10:26Z</time>
      </trkpt>
      <trkpt lat="44.75678" lon="6.59782">
        <ele>1437.015</ele>
        <time>2010-07-04T10:10:30Z</time>
      </trkpt>
      <trkpt lat="44.75671" lon="6.59757">
        <ele>1435.365</ele>
        <time>2010-07-04T10:10:35Z</time>
      </trkpt>
      <trkpt lat="44.75667" lon="6.5975">
        <ele>1433.944</ele>
        <time>2010-07-04T10:10:37Z</time>
      </trkpt>
      <trkpt lat="44.75671" lon="6.59738">
        <ele>1431.855</ele>
        <time>2010-07-04T10:10:41Z</time>
      </trkpt>
      <trkpt lat="44.7568" lon="6.59736">
        <ele>1428.694</ele>
        <time>2010-07-04T10:10:46Z</time>
      </trkpt>
      <trkpt lat="44.75692" lon="6.59735">
        <ele>1425.565</ele>
        <time>2010-07-04T10:10:50Z</time>
      </trkpt>
      <trkpt lat="44.75686" lon="6.59723">
        <ele>1423.215</ele>
        <time>2010-07-04T10:10:54Z</time>
      </trkpt>
      <trkpt lat="44.75678" lon="6.59711">
        <ele>1419.922</ele>
        <time>2010-07-04T10:10:57Z</time>
      </trkpt>
      <trkpt lat="44.7567" lon="6.59689">
        <ele>1417.543</ele>
        <time>2010-07-04T10:11:01Z</time>
      </trkpt>
      <trkpt lat="44.75657" lon="6.59666">
        <ele>1412.983</ele>
        <time>2010-07-04T10:11:07Z</time>
      </trkpt>
      <trkpt lat="44.75655" lon="6.59649">
        <ele>1408.452</ele>
        <time>2010-07-04T10:11:11Z</time>
      </trkpt>
      <trkpt lat="44.75654" lon="6.59618">
        <ele>1402.313</ele>
        <time>2010-07-04T10:11:17Z</time>
      </trkpt>
      <trkpt lat="44.75659" lon="6.59585">
        <ele>1395.462</ele>
        <time>2010-07-04T10:11:23Z</time>
      </trkpt>
      <trkpt lat="44.75659" lon="6.59568">
        <ele>1392.583</ele>
        <time>2010-07-04T10:11:26Z</time>
      </trkpt>
      <trkpt lat="44.75656" lon="6.59544">
        <ele>1388.883</ele>
        <time>2010-07-04T10:11:30Z</time>
      </trkpt>
      <trkpt lat="44.75655" lon="6.59525">
        <ele>1385.904</ele>
        <time>2010-07-04T10:11:34Z</time>
      </trkpt>
      <trkpt lat="44.75652" lon="6.59524">
        <ele>1384.226</ele>
        <time>2010-07-04T10:11:38Z</time>
      </trkpt>
      <trkpt lat="44.75639" lon="6.59541">
        <ele>1381.285</ele>
        <time>2010-07-04T10:11:43Z</time>
      </trkpt>
      <trkpt lat="44.75637" lon="6.59549">
        <ele>1380.335</ele>
        <time>2010-07-04T10:11:45Z</time>
      </trkpt>
      <trkpt lat="44.75635" lon="6.5957">
        <ele>1378.325</ele>
        <time>2010-07-04T10:11:49Z</time>
      </trkpt>
      <trkpt lat="44.75627" lon="6.59589">
        <ele>1375.305</ele>
        <time>2010-07-04T10:11:53Z</time>
      </trkpt>
      <trkpt lat="44.75622" lon="6.59584">
        <ele>1373.985</ele>
        <time>2010-07-04T10:11:57Z</time>
      </trkpt>
      <trkpt lat="44.75624" lon="6.59564">
        <ele>1373.386</ele>
        <time>2010-07-04T10:12:01Z</time>
      </trkpt>
      <trkpt lat="44.75623" lon="6.59558">
        <ele>1372.846</ele>
        <time>2010-07-04T10:12:02Z</time>
      </trkpt>
      <trkpt lat="44.75612" lon="6.5953">
        <ele>1369.794</ele>
        <time>2010-07-04T10:12:08Z</time>
      </trkpt>
      <trkpt lat="44.75613" lon="6.59511">
        <ele>1367.142</ele>
        <time>2010-07-04T10:12:12Z</time>
      </trkpt>
      <trkpt lat="44.75619" lon="6.59488">
        <ele>1362.313</ele>
        <time>2010-07-04T10:12:17Z</time>
      </trkpt>
      <trkpt lat="44.75624" lon="6.59468">
        <ele>1357.663</ele>
        <time>2010-07-04T10:12:22Z</time>
      </trkpt>
      <trkpt lat="44.75615" lon="6.5947">
        <ele>1354.303</ele>
        <time>2010-07-04T10:12:26Z</time>
      </trkpt>
      <trkpt lat="44.75602" lon="6.59482">
        <ele>1350.604</ele>
        <time>2010-07-04T10:12:31Z</time>
      </trkpt>
      <trkpt lat="44.75599" lon="6.59474">
        <ele>1347.663</ele>
        <time>2010-07-04T10:12:35Z</time>
      </trkpt>
      <trkpt lat="44.75598" lon="6.59453">
        <ele>1344.263</ele>
        <time>2010-07-04T10:12:39Z</time>
      </trkpt>
      <trkpt lat="44.75599" lon="6.59448">
        <ele>1343.713</ele>
        <time>2010-07-04T10:12:40Z</time>
      </trkpt>
      <trkpt lat="44.75602" lon="6.59439">
        <ele>1342.532</ele>
        <time>2010-07-04T10:12:42Z</time>
      </trkpt>
      <trkpt lat="44.75598" lon="6.59435">
        <ele>1339.692</ele>
        <time>2010-07-04T10:12:46Z</time>
      </trkpt>
      <trkpt lat="44.75595" lon="6.59435">
        <ele>1338.713</ele>
        <time>2010-07-04T10:12:47Z</time>
      </trkpt>
      <trkpt lat="44.75587" lon="6.59437">
        <ele>1336.512</ele>
        <time>2010-07-04T10:12:49Z</time>
      </trkpt>
      <trkpt lat="44.75575" lon="6.59455">
        <ele>1331.642</ele>
        <time>2010-07-04T10:12:54Z</time>
      </trkpt>
      <trkpt lat="44.75571" lon="6.59477">
        <ele>1328.642</ele>
        <time>2010-07-04T10:12:58Z</time>
      </trkpt>
      <trkpt lat="44.75563" lon="6.59492">
        <ele>1325.653</ele>
        <time>2010-07-04T10:13:03Z</time>
      </trkpt>
      <trkpt lat="44.75562" lon="6.59484">
        <ele>1324.273</ele>
        <time>2010-07-04T10:13:06Z</time>
      </trkpt>
      <trkpt lat="44.75558" lon="6.59468">
        <ele>1323.324</ele>
        <time>2010-07-04T10:13:09Z</time>
      </trkpt>
      <trkpt lat="44.75551" lon="6.59455">
        <ele>1322.333</ele>
        <time>2010-07-04T10:13:12Z</time>
      </trkpt>
      <trkpt lat="44.75541" lon="6.59444">
        <ele>1322.256</ele>
        <time>2010-07-04T10:13:15Z</time>
      </trkpt>
      <trkpt lat="44.75537" lon="6.5945">
        <ele>1318.715</ele>
        <time>2010-07-04T10:13:19Z</time>
      </trkpt>
      <trkpt lat="44.75534" lon="6.59477">
        <ele>1315.625</ele>
        <time>2010-07-04T10:13:24Z</time>
      </trkpt>
      <trkpt lat="44.75522" lon="6.59503">
        <ele>1312.605</ele>
        <time>2010-07-04T10:13:29Z</time>
      </trkpt>
      <trkpt lat="44.75511" lon="6.59495">
        <ele>1308.263</ele>
        <time>2010-07-04T10:13:33Z</time>
      </trkpt>
      <trkpt lat="44.75503" lon="6.5948">
        <ele>1305.834</ele>
        <time>2010-07-04T10:13:37Z</time>
      </trkpt>
      <trkpt lat="44.75503" lon="6.59481">
        <ele>1304.165</ele>
        <time>2010-07-04T10:13:41Z</time>
      </trkpt>
      <trkpt lat="44.75503" lon="6.59474">
        <ele>1303.037</ele>
        <time>2010-07-04T10:14:01Z</time>
      </trkpt>
      <trkpt lat="44.75499" lon="6.59459">
        <ele>1300.915</ele>
        <time>2010-07-04T10:14:05Z</time>
      </trkpt>
      <trkpt lat="44.75491" lon="6.59429">
        <ele>1296.403</ele>
        <time>2010-07-04T10:14:11Z</time>
      </trkpt>
      <trkpt lat="44.75477" lon="6.59403">
        <ele>1290.213</ele>
        <time>2010-07-04T10:14:17Z</time>
      </trkpt>
      <trkpt lat="44.75467" lon="6.59361">
        <ele>1280.831</ele>
        <time>2010-07-04T10:14:25Z</time>
      </trkpt>
      <trkpt lat="44.75467" lon="6.59356">
        <ele>1279.661</ele>
        <time>2010-07-04T10:14:26Z</time>
      </trkpt>
      <trkpt lat="44.75468" lon="6.59344">
        <ele>1277.621</ele>
        <time>2010-07-04T10:14:28Z</time>
      </trkpt>
      <trkpt lat="44.75482" lon="6.59315">
        <ele>1271.782</ele>
        <time>2010-07-04T10:14:34Z</time>
      </trkpt>
      <trkpt lat="44.75495" lon="6.59293">
        <ele>1267.582</ele>
        <time>2010-07-04T10:14:39Z</time>
      </trkpt>
      <trkpt lat="44.755" lon="6.59259">
        <ele>1261.23</ele>
        <time>2010-07-04T10:14:45Z</time>
      </trkpt>
      <trkpt lat="44.755" lon="6.59253">
        <ele>1259.871</ele>
        <time>2010-07-04T10:14:46Z</time>
      </trkpt>
      <trkpt lat="44.75497" lon="6.59234">
        <ele>1256.521</ele>
        <time>2010-07-04T10:14:49Z</time>
      </trkpt>
      <trkpt lat="44.755" lon="6.59216">
        <ele>1253.423</ele>
        <time>2010-07-04T10:14:53Z</time>
      </trkpt>
      <trkpt lat="44.75509" lon="6.59217">
        <ele>1250.883</ele>
        <time>2010-07-04T10:14:57Z</time>
      </trkpt>
      <trkpt lat="44.75527" lon="6.59227">
        <ele>1244.973</ele>
        <time>2010-07-04T10:15:04Z</time>
      </trkpt>
      <trkpt lat="44.75529" lon="6.59227">
        <ele>1244.203</ele>
        <time>2010-07-04T10:15:05Z</time>
      </trkpt>
      <trkpt lat="44.75536" lon="6.59223">
        <ele>1241.013</ele>
        <time>2010-07-04T10:15:09Z</time>
      </trkpt>
      <trkpt lat="44.75537" lon="6.59214">
        <ele>1237.843</ele>
        <time>2010-07-04T10:15:15Z</time>
      </trkpt>
      <trkpt lat="44.75533" lon="6.59204">
        <ele>1235.324</ele>
        <time>2010-07-04T10:15:19Z</time>
      </trkpt>
      <trkpt lat="44.7553" lon="6.59182">
        <ele>1231.003</ele>
        <time>2010-07-04T10:15:26Z</time>
      </trkpt>
      <trkpt lat="44.75531" lon="6.59167">
        <ele>1228.584</ele>
        <time>2010-07-04T10:15:31Z</time>
      </trkpt>
      <trkpt lat="44.75526" lon="6.59152">
        <ele>1226.184</ele>
        <time>2010-07-04T10:15:37Z</time>
      </trkpt>
      <trkpt lat="44.75527" lon="6.59133">
        <ele>1222.233</ele>
        <time>2010-07-04T10:15:42Z</time>
      </trkpt>
      <trkpt lat="44.75533" lon="6.59108">
        <ele>1216.903</ele>
        <time>2010-07-04T10:15:48Z</time>
      </trkpt>
      <trkpt lat="44.75537" lon="6.5909">
        <ele>1214.063</ele>
        <time>2010-07-04T10:15:52Z</time>
      </trkpt>
      <trkpt lat="44.75537" lon="6.59064">
        <ele>1209.063</ele>
        <time>2010-07-04T10:15:58Z</time>
      </trkpt>
      <trkpt lat="44.75542" lon="6.59056">
        <ele>1207.212</ele>
        <time>2010-07-04T10:16:00Z</time>
      </trkpt>
      <trkpt lat="44.75553" lon="6.59045">
        <ele>1205.042</ele>
        <time>2010-07-04T10:16:03Z</time>
      </trkpt>
      <trkpt lat="44.75589" lon="6.59018">
        <ele>1198.341</ele>
        <time>2010-07-04T10:16:12Z</time>
      </trkpt>
      <trkpt lat="44.75598" lon="6.59007">
        <ele>1195.802</ele>
        <time>2010-07-04T10:16:15Z</time>
      </trkpt>
      <trkpt lat="44.75618" lon="6.58983">
        <ele>1190.071</ele>
        <time>2010-07-04T10:16:21Z</time>
      </trkpt>
      <trkpt lat="44.75632" lon="6.58968">
        <ele>1186.232</ele>
        <time>2010-07-04T10:16:26Z</time>
      </trkpt>
      <trkpt lat="44.75634" lon="6.58964">
        <ele>1185.161</ele>
        <time>2010-07-04T10:16:27Z</time>
      </trkpt>
      <trkpt lat="44.75652" lon="6.58944">
        <ele>1179.261</ele>
        <time>2010-07-04T10:16:33Z</time>
      </trkpt>
      <trkpt lat="44.75663" lon="6.58931">
        <ele>1175.701</ele>
        <time>2010-07-04T10:16:37Z</time>
      </trkpt>
      <trkpt lat="44.75671" lon="6.58924">
        <ele>1174.151</ele>
        <time>2010-07-04T10:16:39Z</time>
      </trkpt>
      <trkpt lat="44.75691" lon="6.58902">
        <ele>1168.24</ele>
        <time>2010-07-04T10:16:44Z</time>
      </trkpt>
      <trkpt lat="44.7572" lon="6.58863">
        <ele>1160.64</ele>
        <time>2010-07-04T10:16:51Z</time>
      </trkpt>
      <trkpt lat="44.75728" lon="6.58854">
        <ele>1158.731</ele>
        <time>2010-07-04T10:16:53Z</time>
      </trkpt>
      <trkpt lat="44.75739" lon="6.58839">
        <ele>1154.919</ele>
        <time>2010-07-04T10:16:56Z</time>
      </trkpt>
      <trkpt lat="44.75756" lon="6.58818">
        <ele>1148.479</ele>
        <time>2010-07-04T10:17:01Z</time>
      </trkpt>
      <trkpt lat="44.75769" lon="6.58796">
        <ele>1144.45</ele>
        <time>2010-07-04T10:17:05Z</time>
      </trkpt>
      <trkpt lat="44.75777" lon="6.58775">
        <ele>1142.731</ele>
        <time>2010-07-04T10:17:08Z</time>
      </trkpt>
      <trkpt lat="44.75781" lon="6.58724">
        <ele>1139.783</ele>
        <time>2010-07-04T10:17:14Z</time>
      </trkpt>
      <trkpt lat="44.75778" lon="6.587">
        <ele>1138.414</ele>
        <time>2010-07-04T10:17:17Z</time>
      </trkpt>
      <trkpt lat="44.75782" lon="6.58667">
        <ele>1136.695</ele>
        <time>2010-07-04T10:17:22Z</time>
      </trkpt>
      <trkpt lat="44.75784" lon="6.58661">
        <ele>1136.786</ele>
        <time>2010-07-04T10:17:23Z</time>
      </trkpt>
      <trkpt lat="44.75804" lon="6.58614">
        <ele>1134.185</ele>
        <time>2010-07-04T10:17:31Z</time>
      </trkpt>
      <trkpt lat="44.75809" lon="6.58603">
        <ele>1133.775</ele>
        <time>2010-07-04T10:17:33Z</time>
      </trkpt>
      <trkpt lat="44.75824" lon="6.58598">
        <ele>1131.504</ele>
        <time>2010-07-04T10:17:37Z</time>
      </trkpt>
      <trkpt lat="44.75829" lon="6.58598">
        <ele>1131.064</ele>
        <time>2010-07-04T10:17:38Z</time>
      </trkpt>
      <trkpt lat="44.75851" lon="6.58586">
        <ele>1129.195</ele>
        <time>2010-07-04T10:17:43Z</time>
      </trkpt>
      <trkpt lat="44.75872" lon="6.5857">
        <ele>1124.863</ele>
        <time>2010-07-04T10:17:49Z</time>
      </trkpt>
      <trkpt lat="44.75883" lon="6.5857">
        <ele>1120.971</ele>
        <time>2010-07-04T10:17:53Z</time>
      </trkpt>
      <trkpt lat="44.75884" lon="6.58564">
        <ele>1118.311</ele>
        <time>2010-07-04T10:17:56Z</time>
      </trkpt>
      <trkpt lat="44.75872" lon="6.58552">
        <ele>1114.2</ele>
        <time>2010-07-04T10:18:00Z</time>
      </trkpt>
      <trkpt lat="44.75861" lon="6.58542">
        <ele>1109.801</ele>
        <time>2010-07-04T10:18:05Z</time>
      </trkpt>
      <trkpt lat="44.75856" lon="6.58538">
        <ele>1107.061</ele>
        <time>2010-07-04T10:18:08Z</time>
      </trkpt>
      <trkpt lat="44.75856" lon="6.5853">
        <ele>1103.398</ele>
        <time>2010-07-04T10:18:12Z</time>
      </trkpt>
      <trkpt lat="44.75866" lon="6.58527">
        <ele>1100.541</ele>
        <time>2010-07-04T10:18:15Z</time>
      </trkpt>
      <trkpt lat="44.75897" lon="6.58525">
        <ele>1094.672</ele>
        <time>2010-07-04T10:18:22Z</time>
      </trkpt>
      <trkpt lat="44.75901" lon="6.58526">
        <ele>1093.811</ele>
        <time>2010-07-04T10:18:23Z</time>
      </trkpt>
      <trkpt lat="44.75911" lon="6.58529">
        <ele>1091.311</ele>
        <time>2010-07-04T10:18:26Z</time>
      </trkpt>
      <trkpt lat="44.75915" lon="6.58517">
        <ele>1086.881</ele>
        <time>2010-07-04T10:18:31Z</time>
      </trkpt>
      <trkpt lat="44.75915" lon="6.58497">
        <ele>1083.811</ele>
        <time>2010-07-04T10:18:36Z</time>
      </trkpt>
      <trkpt lat="44.75915" lon="6.5849">
        <ele>1082.891</ele>
        <time>2010-07-04T10:18:37Z</time>
      </trkpt>
      <trkpt lat="44.75917" lon="6.58455">
        <ele>1078.441</ele>
        <time>2010-07-04T10:18:42Z</time>
      </trkpt>
      <trkpt lat="44.75925" lon="6.58419">
        <ele>1074.011</ele>
        <time>2010-07-04T10:18:47Z</time>
      </trkpt>
      <trkpt lat="44.75934" lon="6.58402">
        <ele>1070.22</ele>
        <time>2010-07-04T10:18:51Z</time>
      </trkpt>
      <trkpt lat="44.75941" lon="6.58378">
        <ele>1066.17</ele>
        <time>2010-07-04T10:18:55Z</time>
      </trkpt>
      <trkpt lat="44.75951" lon="6.58338">
        <ele>1060.961</ele>
        <time>2010-07-04T10:19:01Z</time>
      </trkpt>
      <trkpt lat="44.75954" lon="6.58326">
        <ele>1057.078</ele>
        <time>2010-07-04T10:19:04Z</time>
      </trkpt>
      <trkpt lat="44.75963" lon="6.58309">
        <ele>1052.65</ele>
        <time>2010-07-04T10:19:09Z</time>
      </trkpt>
      <trkpt lat="44.75964" lon="6.58303">
        <ele>1051.791</ele>
        <time>2010-07-04T10:19:10Z</time>
      </trkpt>
      <trkpt lat="44.75965" lon="6.58291">
        <ele>1050.538</ele>
        <time>2010-07-04T10:19:12Z</time>
      </trkpt>
      <trkpt lat="44.75961" lon="6.58237">
        <ele>1043.96</ele>
        <time>2010-07-04T10:19:19Z</time>
      </trkpt>
      <trkpt lat="44.7596" lon="6.5823">
        <ele>1043.049</ele>
        <time>2010-07-04T10:19:20Z</time>
      </trkpt>
      <trkpt lat="44.75951" lon="6.58195">
        <ele>1037.681</ele>
        <time>2010-07-04T10:19:26Z</time>
      </trkpt>
      <trkpt lat="44.75935" lon="6.58166">
        <ele>1033.101</ele>
        <time>2010-07-04T10:19:31Z</time>
      </trkpt>
      <trkpt lat="44.75913" lon="6.58135">
        <ele>1029.481</ele>
        <time>2010-07-04T10:19:36Z</time>
      </trkpt>
      <trkpt lat="44.75899" lon="6.58105">
        <ele>1026.011</ele>
        <time>2010-07-04T10:19:41Z</time>
      </trkpt>
      <trkpt lat="44.7588" lon="6.58057">
        <ele>1021.049</ele>
        <time>2010-07-04T10:19:46Z</time>
      </trkpt>
      <trkpt lat="44.7587" lon="6.58036">
        <ele>1019.069</ele>
        <time>2010-07-04T10:19:48Z</time>
      </trkpt>
      <trkpt lat="44.75858" lon="6.5798">
        <ele>1013.709</ele>
        <time>2010-07-04T10:19:53Z</time>
      </trkpt>
      <trkpt lat="44.75852" lon="6.57931">
        <ele>1009.61</ele>
        <time>2010-07-04T10:19:58Z</time>
      </trkpt>
      <trkpt lat="44.75862" lon="6.57904">
        <ele>1006.791</ele>
        <time>2010-07-04T10:20:02Z</time>
      </trkpt>
      <trkpt lat="44.75897" lon="6.5786">
        <ele>1004.312</ele>
        <time>2010-07-04T10:20:08Z</time>
      </trkpt>
      <trkpt lat="44.75926" lon="6.57838">
        <ele>1003.621</ele>
        <time>2010-07-04T10:20:12Z</time>
      </trkpt>
      <trkpt lat="44.7595" lon="6.57837">
        <ele>1003.734</ele>
        <time>2010-07-04T10:20:15Z</time>
      </trkpt>
      <trkpt lat="44.7597" lon="6.5784">
        <ele>1003.695</ele>
        <time>2010-07-04T10:20:18Z</time>
      </trkpt>
      <trkpt lat="44.76" lon="6.57828">
        <ele>1002.464</ele>
        <time>2010-07-04T10:20:23Z</time>
      </trkpt>
      <trkpt lat="44.76039" lon="6.57793">
        <ele>1000.594</ele>
        <time>2010-07-04T10:20:29Z</time>
      </trkpt>
      <trkpt lat="44.76072" lon="6.57763">
        <ele>1000.556</ele>
        <time>2010-07-04T10:20:34Z</time>
      </trkpt>
      <trkpt lat="44.76086" lon="6.57742">
        <ele>1000.216</ele>
        <time>2010-07-04T10:20:37Z</time>
      </trkpt>
      <trkpt lat="44.76106" lon="6.57686">
        <ele>1001.047</ele>
        <time>2010-07-04T10:20:44Z</time>
      </trkpt>
      <trkpt lat="44.7612" lon="6.57643">
        <ele>1002.917</ele>
        <time>2010-07-04T10:20:50Z</time>
      </trkpt>
      <trkpt lat="44.76128" lon="6.57614">
        <ele>1003.066</ele>
        <time>2010-07-04T10:20:54Z</time>
      </trkpt>
      <trkpt lat="44.76135" lon="6.57595">
        <ele>1002.675</ele>
        <time>2010-07-04T10:20:57Z</time>
      </trkpt>
      <trkpt lat="44.76159" lon="6.57558">
        <ele>999.954</ele>
        <time>2010-07-04T10:21:03Z</time>
      </trkpt>
      <trkpt lat="44.76163" lon="6.57551">
        <ele>999.975</ele>
        <time>2010-07-04T10:21:04Z</time>
      </trkpt>
      <trkpt lat="44.76178" lon="6.57516">
        <ele>998.695</ele>
        <time>2010-07-04T10:21:09Z</time>
      </trkpt>
      <trkpt lat="44.76182" lon="6.57494">
        <ele>997.654</ele>
        <time>2010-07-04T10:21:12Z</time>
      </trkpt>
      <trkpt lat="44.76199" lon="6.57458">
        <ele>996.464</ele>
        <time>2010-07-04T10:21:17Z</time>
      </trkpt>
      <trkpt lat="44.76229" lon="6.57419">
        <ele>994.054</ele>
        <time>2010-07-04T10:21:24Z</time>
      </trkpt>
      <trkpt lat="44.76253" lon="6.57398">
        <ele>992.164</ele>
        <time>2010-07-04T10:21:29Z</time>
      </trkpt>
      <trkpt lat="44.7626" lon="6.57389">
        <ele>990.903</ele>
        <time>2010-07-04T10:21:32Z</time>
      </trkpt>
      <trkpt lat="44.76263" lon="6.57389">
        <ele>989.344</ele>
        <time>2010-07-04T10:21:36Z</time>
      </trkpt>
      <trkpt lat="44.76264" lon="6.57391">
        <ele>988.435</ele>
        <time>2010-07-04T10:21:41Z</time>
      </trkpt>
      <trkpt lat="44.76262" lon="6.57392">
        <ele>986.016</ele>
        <time>2010-07-04T10:21:55Z</time>
      </trkpt>
      <trkpt lat="44.76259" lon="6.57396">
        <ele>986.016</ele>
        <time>2010-07-04T10:22:01Z</time>
      </trkpt>
      <trkpt lat="44.7626" lon="6.57393">
        <ele>985.256</ele>
        <time>2010-07-04T10:22:20Z</time>
      </trkpt>
      <trkpt lat="44.76263" lon="6.57393">
        <ele>985.666</ele>
        <time>2010-07-04T10:22:28Z</time>
      </trkpt>
      <trkpt lat="44.76256" lon="6.57399">
        <ele>984.876</ele>
        <time>2010-07-04T10:50:10Z</time>
      </trkpt>
      <trkpt lat="44.76256" lon="6.57398">
        <ele>986.577</ele>
        <time>2010-07-04T10:50:15Z</time>
      </trkpt>
      <trkpt lat="44.76258" lon="6.57395">
        <ele>987.385</ele>
        <time>2010-07-04T10:50:31Z</time>
      </trkpt>
      <trkpt lat="44.76259" lon="6.57395">
        <ele>985.696</ele>
        <time>2010-07-04T10:50:37Z</time>
      </trkpt>
      <trkpt lat="44.7626" lon="6.57396">
        <ele>983.265</ele>
        <time>2010-07-04T10:50:49Z</time>
      </trkpt>
      <trkpt lat="44.7626" lon="6.57396">
        <ele>982.355</ele>
        <time>2010-07-04T10:50:52Z</time>
      </trkpt>
      <trkpt lat="44.76267" lon="6.57389">
        <ele>981.055</ele>
        <time>2010-07-04T10:50:56Z</time>
      </trkpt>
      <trkpt lat="44.76286" lon="6.57382">
        <ele>983.917</ele>
        <time>2010-07-04T10:51:02Z</time>
      </trkpt>
      <trkpt lat="44.76295" lon="6.57385">
        <ele>986.158</ele>
        <time>2010-07-04T10:51:06Z</time>
      </trkpt>
      <trkpt lat="44.76309" lon="6.57386">
        <ele>988.319</ele>
        <time>2010-07-04T10:51:11Z</time>
      </trkpt>
      <trkpt lat="44.76323" lon="6.57391">
        <ele>997.551</ele>
        <time>2010-07-04T10:51:17Z</time>
      </trkpt>
      <trkpt lat="44.76333" lon="6.57398">
        <ele>1001.541</ele>
        <time>2010-07-04T10:51:21Z</time>
      </trkpt>
      <trkpt lat="44.76342" lon="6.57395">
        <ele>1002.818</ele>
        <time>2010-07-04T10:51:25Z</time>
      </trkpt>
      <trkpt lat="44.76357" lon="6.57375">
        <ele>1001.776</ele>
        <time>2010-07-04T10:51:31Z</time>
      </trkpt>
      <trkpt lat="44.76362" lon="6.57358">
        <ele>1001.966</ele>
        <time>2010-07-04T10:51:34Z</time>
      </trkpt>
      <trkpt lat="44.76378" lon="6.57335">
        <ele>999.095</ele>
        <time>2010-07-04T10:51:39Z</time>
      </trkpt>
      <trkpt lat="44.7639" lon="6.57324">
        <ele>997.365</ele>
        <time>2010-07-04T10:51:42Z</time>
      </trkpt>
      <trkpt lat="44.76405" lon="6.57319">
        <ele>997.196</ele>
        <time>2010-07-04T10:51:46Z</time>
      </trkpt>
      <trkpt lat="44.76421" lon="6.5732">
        <ele>1000.586</ele>
        <time>2010-07-04T10:51:55Z</time>
      </trkpt>
      <trkpt lat="44.76435" lon="6.57312">
        <ele>999.867</ele>
        <time>2010-07-04T10:52:04Z</time>
      </trkpt>
      <trkpt lat="44.76448" lon="6.57303">
        <ele>1000.588</ele>
        <time>2010-07-04T10:52:13Z</time>
      </trkpt>
      <trkpt lat="44.76453" lon="6.57299">
        <ele>998.956</ele>
        <time>2010-07-04T10:52:19Z</time>
      </trkpt>
      <trkpt lat="44.76453" lon="6.573">
        <ele>998.096</ele>
        <time>2010-07-04T10:52:24Z</time>
      </trkpt>
      <trkpt lat="44.76457" lon="6.57296">
        <ele>997.707</ele>
        <time>2010-07-04T10:52:31Z</time>
      </trkpt>
      <trkpt lat="44.76467" lon="6.57291">
        <ele>1000.218</ele>
        <time>2010-07-04T10:52:38Z</time>
      </trkpt>
      <trkpt lat="44.76475" lon="6.57286">
        <ele>1001.419</ele>
        <time>2010-07-04T10:52:44Z</time>
      </trkpt>
      <trkpt lat="44.76482" lon="6.57281">
        <ele>1001.787</ele>
        <time>2010-07-04T10:52:50Z</time>
      </trkpt>
      <trkpt lat="44.76496" lon="6.57271">
        <ele>1004.079</ele>
        <time>2010-07-04T10:53:00Z</time>
      </trkpt>
      <trkpt lat="44.76508" lon="6.57262">
        <ele>1005.016</ele>
        <time>2010-07-04T10:53:08Z</time>
      </trkpt>
      <trkpt lat="44.7652" lon="6.5725">
        <ele>1005</ele>
        <time>2010-07-04T10:53:13Z</time>
      </trkpt>
      <trkpt lat="44.76528" lon="6.57243">
        <ele>1005.307</ele>
        <time>2010-07-04T10:53:19Z</time>
      </trkpt>
      <trkpt lat="44.76538" lon="6.57232">
        <ele>1005.787</ele>
        <time>2010-07-04T10:53:26Z</time>
      </trkpt>
      <trkpt lat="44.76548" lon="6.57223">
        <ele>1005.857</ele>
        <time>2010-07-04T10:53:31Z</time>
      </trkpt>
      <trkpt lat="44.7656" lon="6.57214">
        <ele>1005.856</ele>
        <time>2010-07-04T10:53:36Z</time>
      </trkpt>
      <trkpt lat="44.76576" lon="6.572">
        <ele>1006.177</ele>
        <time>2010-07-04T10:53:43Z</time>
      </trkpt>
      <trkpt lat="44.7659" lon="6.57186">
        <ele>1006.126</ele>
        <time>2010-07-04T10:53:49Z</time>
      </trkpt>
      <trkpt lat="44.766" lon="6.57179">
        <ele>1006.697</ele>
        <time>2010-07-04T10:53:54Z</time>
      </trkpt>
      <trkpt lat="44.76613" lon="6.57175">
        <ele>1012.27</ele>
        <time>2010-07-04T10:54:02Z</time>
      </trkpt>
      <trkpt lat="44.76625" lon="6.57168">
        <ele>1014.908</ele>
        <time>2010-07-04T10:54:10Z</time>
      </trkpt>
      <trkpt lat="44.76628" lon="6.57167">
        <ele>1016.957</ele>
        <time>2010-07-04T10:54:15Z</time>
      </trkpt>
      <trkpt lat="44.76633" lon="6.57166">
        <ele>1016.937</ele>
        <time>2010-07-04T10:54:21Z</time>
      </trkpt>
      <trkpt lat="44.76633" lon="6.57165">
        <ele>1017.487</ele>
        <time>2010-07-04T10:54:29Z</time>
      </trkpt>
      <trkpt lat="44.76645" lon="6.5716">
        <ele>1018.228</ele>
        <time>2010-07-04T10:54:38Z</time>
      </trkpt>
      <trkpt lat="44.76656" lon="6.57151">
        <ele>1017.756</ele>
        <time>2010-07-04T10:54:45Z</time>
      </trkpt>
      <trkpt lat="44.76666" lon="6.57144">
        <ele>1017.527</ele>
        <time>2010-07-04T10:54:49Z</time>
      </trkpt>
      <trkpt lat="44.76677" lon="6.57141">
        <ele>1018.488</ele>
        <time>2010-07-04T10:54:56Z</time>
      </trkpt>
      <trkpt lat="44.76688" lon="6.57137">
        <ele>1019.638</ele>
        <time>2010-07-04T10:55:04Z</time>
      </trkpt>
      <trkpt lat="44.76703" lon="6.57134">
        <ele>1020.618</ele>
        <time>2010-07-04T10:55:14Z</time>
      </trkpt>
      <trkpt lat="44.76716" lon="6.57131">
        <ele>1021.788</ele>
        <time>2010-07-04T10:55:22Z</time>
      </trkpt>
      <trkpt lat="44.76724" lon="6.57126">
        <ele>1022.268</ele>
        <time>2010-07-04T10:55:27Z</time>
      </trkpt>
      <trkpt lat="44.76725" lon="6.57125">
        <ele>1022.207</ele>
        <time>2010-07-04T10:55:28Z</time>
      </trkpt>
      <trkpt lat="44.76738" lon="6.57117">
        <ele>1023.388</ele>
        <time>2010-07-04T10:55:37Z</time>
      </trkpt>
      <trkpt lat="44.76749" lon="6.57112">
        <ele>1024.578</ele>
        <time>2010-07-04T10:55:44Z</time>
      </trkpt>
      <trkpt lat="44.76755" lon="6.57103">
        <ele>1025.278</ele>
        <time>2010-07-04T10:55:50Z</time>
      </trkpt>
      <trkpt lat="44.76765" lon="6.57093">
        <ele>1026.919</ele>
        <time>2010-07-04T10:55:57Z</time>
      </trkpt>
      <trkpt lat="44.76773" lon="6.57088">
        <ele>1029.211</ele>
        <time>2010-07-04T10:56:03Z</time>
      </trkpt>
      <trkpt lat="44.76775" lon="6.57087">
        <ele>1029.519</ele>
        <time>2010-07-04T10:56:08Z</time>
      </trkpt>
      <trkpt lat="44.76777" lon="6.57086">
        <ele>1029.447</ele>
        <time>2010-07-04T10:56:15Z</time>
      </trkpt>
      <trkpt lat="44.76777" lon="6.57085">
        <ele>1029.037</ele>
        <time>2010-07-04T10:56:20Z</time>
      </trkpt>
      <trkpt lat="44.76785" lon="6.57075">
        <ele>1027.018</ele>
        <time>2010-07-04T10:56:28Z</time>
      </trkpt>
      <trkpt lat="44.76793" lon="6.57064">
        <ele>1027.191</ele>
        <time>2010-07-04T10:56:35Z</time>
      </trkpt>
      <trkpt lat="44.76802" lon="6.57056">
        <ele>1028.83</ele>
        <time>2010-07-04T10:56:43Z</time>
      </trkpt>
      <trkpt lat="44.76807" lon="6.5705">
        <ele>1029.157</ele>
        <time>2010-07-04T10:56:51Z</time>
      </trkpt>
      <trkpt lat="44.76807" lon="6.57049">
        <ele>1029.217</ele>
        <time>2010-07-04T10:56:56Z</time>
      </trkpt>
      <trkpt lat="44.76809" lon="6.57046">
        <ele>1031.727</ele>
        <time>2010-07-04T10:57:24Z</time>
      </trkpt>
      <trkpt lat="44.76811" lon="6.57044">
        <ele>1032.488</ele>
        <time>2010-07-04T10:57:29Z</time>
      </trkpt>
      <trkpt lat="44.76814" lon="6.57044">
        <ele>1033.17</ele>
        <time>2010-07-04T10:57:37Z</time>
      </trkpt>
      <trkpt lat="44.76818" lon="6.57039">
        <ele>1036.03</ele>
        <time>2010-07-04T10:57:49Z</time>
      </trkpt>
      <trkpt lat="44.76826" lon="6.57033">
        <ele>1048.803</ele>
        <time>2010-07-04T10:58:29Z</time>
      </trkpt>
      <trkpt lat="44.76825" lon="6.57034">
        <ele>1050.158</ele>
        <time>2010-07-04T10:58:35Z</time>
      </trkpt>
      <trkpt lat="44.76829" lon="6.57028">
        <ele>1050.209</ele>
        <time>2010-07-04T10:58:43Z</time>
      </trkpt>
      <trkpt lat="44.76836" lon="6.57019">
        <ele>1049.638</ele>
        <time>2010-07-04T10:58:50Z</time>
      </trkpt>
      <trkpt lat="44.76836" lon="6.57019">
        <ele>1048.446</ele>
        <time>2010-07-04T10:58:58Z</time>
      </trkpt>
      <trkpt lat="44.76839" lon="6.57015">
        <ele>1049.688</ele>
        <time>2010-07-04T10:59:09Z</time>
      </trkpt>
      <trkpt lat="44.76843" lon="6.57012">
        <ele>1052.539</ele>
        <time>2010-07-04T10:59:20Z</time>
      </trkpt>
      <trkpt lat="44.76846" lon="6.57011">
        <ele>1054.908</ele>
        <time>2010-07-04T10:59:28Z</time>
      </trkpt>
      <trkpt lat="44.76847" lon="6.57009">
        <ele>1056.178</ele>
        <time>2010-07-04T10:59:33Z</time>
      </trkpt>
      <trkpt lat="44.7685" lon="6.57009">
        <ele>1056.129</ele>
        <time>2010-07-04T10:59:39Z</time>
      </trkpt>
      <trkpt lat="44.76854" lon="6.57008">
        <ele>1057.657</ele>
        <time>2010-07-04T10:59:47Z</time>
      </trkpt>
      <trkpt lat="44.76855" lon="6.57008">
        <ele>1062.768</ele>
        <time>2010-07-04T10:59:52Z</time>
      </trkpt>
      <trkpt lat="44.76854" lon="6.57008">
        <ele>1063.958</ele>
        <time>2010-07-04T10:59:58Z</time>
      </trkpt>
      <trkpt lat="44.76857" lon="6.57005">
        <ele>1063.599</ele>
        <time>2010-07-04T11:00:02Z</time>
      </trkpt>
      <trkpt lat="44.76864" lon="6.56998">
        <ele>1063.101</ele>
        <time>2010-07-04T11:00:07Z</time>
      </trkpt>
      <trkpt lat="44.76869" lon="6.56997">
        <ele>1064.913</ele>
        <time>2010-07-04T11:00:12Z</time>
      </trkpt>
      <trkpt lat="44.7687" lon="6.56996">
        <ele>1063.208</ele>
        <time>2010-07-04T11:00:21Z</time>
      </trkpt>
      <trkpt lat="44.76881" lon="6.56989">
        <ele>1064.442</ele>
        <time>2010-07-04T11:00:29Z</time>
      </trkpt>
      <trkpt lat="44.76888" lon="6.56982">
        <ele>1065.242</ele>
        <time>2010-07-04T11:00:35Z</time>
      </trkpt>
      <trkpt lat="44.76899" lon="6.56968">
        <ele>1066.878</ele>
        <time>2010-07-04T11:00:45Z</time>
      </trkpt>
      <trkpt lat="44.76907" lon="6.56956">
        <ele>1066.47</ele>
        <time>2010-07-04T11:00:53Z</time>
      </trkpt>
      <trkpt lat="44.76916" lon="6.5694">
        <ele>1068.608</ele>
        <time>2010-07-04T11:01:02Z</time>
      </trkpt>
      <trkpt lat="44.76919" lon="6.56931">
        <ele>1069.137</ele>
        <time>2010-07-04T11:01:09Z</time>
      </trkpt>
      <trkpt lat="44.76919" lon="6.56932">
        <ele>1067.747</ele>
        <time>2010-07-04T11:01:17Z</time>
      </trkpt>
      <trkpt lat="44.76921" lon="6.56927">
        <ele>1066.658</ele>
        <time>2010-07-04T11:01:25Z</time>
      </trkpt>
      <trkpt lat="44.76924" lon="6.56923">
        <ele>1065.45</ele>
        <time>2010-07-04T11:01:32Z</time>
      </trkpt>
      <trkpt lat="44.76926" lon="6.56921">
        <ele>1065.558</ele>
        <time>2010-07-04T11:01:37Z</time>
      </trkpt>
      <trkpt lat="44.76928" lon="6.56918">
        <ele>1065.29</ele>
        <time>2010-07-04T11:01:43Z</time>
      </trkpt>
      <trkpt lat="44.76931" lon="6.56914">
        <ele>1067.82</ele>
        <time>2010-07-04T11:01:53Z</time>
      </trkpt>
      <trkpt lat="44.76933" lon="6.5691">
        <ele>1069.072</ele>
        <time>2010-07-04T11:02:00Z</time>
      </trkpt>
      <trkpt lat="44.76935" lon="6.56907">
        <ele>1069.841</ele>
        <time>2010-07-04T11:02:06Z</time>
      </trkpt>
      <trkpt lat="44.76939" lon="6.56906">
        <ele>1072.94</ele>
        <time>2010-07-04T11:02:17Z</time>
      </trkpt>
      <trkpt lat="44.76941" lon="6.56903">
        <ele>1075.998</ele>
        <time>2010-07-04T11:02:25Z</time>
      </trkpt>
      <trkpt lat="44.76941" lon="6.569">
        <ele>1077.948</ele>
        <time>2010-07-04T11:02:37Z</time>
      </trkpt>
      <trkpt lat="44.76949" lon="6.56893">
        <ele>1079.224</ele>
        <time>2010-07-04T11:02:44Z</time>
      </trkpt>
      <trkpt lat="44.76952" lon="6.56892">
        <ele>1079.471</ele>
        <time>2010-07-04T11:02:49Z</time>
      </trkpt>
      <trkpt lat="44.76959" lon="6.56888">
        <ele>1080.333</ele>
        <time>2010-07-04T11:03:00Z</time>
      </trkpt>
      <trkpt lat="44.76964" lon="6.56886">
        <ele>1082.174</ele>
        <time>2010-07-04T11:03:08Z</time>
      </trkpt>
      <trkpt lat="44.7697" lon="6.56883">
        <ele>1083.823</ele>
        <time>2010-07-04T11:03:17Z</time>
      </trkpt>
      <trkpt lat="44.76975" lon="6.56882">
        <ele>1084.982</ele>
        <time>2010-07-04T11:03:25Z</time>
      </trkpt>
      <trkpt lat="44.7698" lon="6.56879">
        <ele>1087.583</ele>
        <time>2010-07-04T11:03:35Z</time>
      </trkpt>
      <trkpt lat="44.76988" lon="6.56875">
        <ele>1091.152</ele>
        <time>2010-07-04T11:03:47Z</time>
      </trkpt>
      <trkpt lat="44.76989" lon="6.56876">
        <ele>1094.2</ele>
        <time>2010-07-04T11:03:54Z</time>
      </trkpt>
      <trkpt lat="44.76995" lon="6.56872">
        <ele>1093.612</ele>
        <time>2010-07-04T11:04:03Z</time>
      </trkpt>
      <trkpt lat="44.77004" lon="6.56862">
        <ele>1093.713</ele>
        <time>2010-07-04T11:04:11Z</time>
      </trkpt>
      <trkpt lat="44.77013" lon="6.56858">
        <ele>1094.883</ele>
        <time>2010-07-04T11:04:18Z</time>
      </trkpt>
      <trkpt lat="44.77023" lon="6.56854">
        <ele>1095.201</ele>
        <time>2010-07-04T11:04:24Z</time>
      </trkpt>
      <trkpt lat="44.77031" lon="6.5685">
        <ele>1101.862</ele>
        <time>2010-07-04T11:04:32Z</time>
      </trkpt>
      <trkpt lat="44.77043" lon="6.56839">
        <ele>1102.423</ele>
        <time>2010-07-04T11:04:41Z</time>
      </trkpt>
      <trkpt lat="44.7706" lon="6.56827">
        <ele>1104.131</ele>
        <time>2010-07-04T11:04:53Z</time>
      </trkpt>
      <trkpt lat="44.77069" lon="6.56817">
        <ele>1103.55</ele>
        <time>2010-07-04T11:05:00Z</time>
      </trkpt>
      <trkpt lat="44.77077" lon="6.56802">
        <ele>1102.229</ele>
        <time>2010-07-04T11:05:07Z</time>
      </trkpt>
      <trkpt lat="44.77088" lon="6.5679">
        <ele>1102.634</ele>
        <time>2010-07-04T11:05:15Z</time>
      </trkpt>
      <trkpt lat="44.77101" lon="6.56779">
        <ele>1104.992</ele>
        <time>2010-07-04T11:05:24Z</time>
      </trkpt>
      <trkpt lat="44.77105" lon="6.56775">
        <ele>1106.278</ele>
        <time>2010-07-04T11:05:27Z</time>
      </trkpt>
      <trkpt lat="44.77111" lon="6.56763">
        <ele>1108.129</ele>
        <time>2010-07-04T11:05:34Z</time>
      </trkpt>
      <trkpt lat="44.77113" lon="6.56761">
        <ele>1108.738</ele>
        <time>2010-07-04T11:05:39Z</time>
      </trkpt>
      <trkpt lat="44.77115" lon="6.56759">
        <ele>1111.752</ele>
        <time>2010-07-04T11:05:48Z</time>
      </trkpt>
      <trkpt lat="44.77112" lon="6.56758">
        <ele>1117.427</ele>
        <time>2010-07-04T11:05:57Z</time>
      </trkpt>
      <trkpt lat="44.77112" lon="6.56757">
        <ele>1117.368</ele>
        <time>2010-07-04T11:06:03Z</time>
      </trkpt>
      <trkpt lat="44.77114" lon="6.56757">
        <ele>1115.569</ele>
        <time>2010-07-04T11:06:08Z</time>
      </trkpt>
      <trkpt lat="44.77118" lon="6.56753">
        <ele>1115.054</ele>
        <time>2010-07-04T11:06:12Z</time>
      </trkpt>
      <trkpt lat="44.77128" lon="6.56748">
        <ele>1115.073</ele>
        <time>2010-07-04T11:06:20Z</time>
      </trkpt>
      <trkpt lat="44.7714" lon="6.56746">
        <ele>1120.307</ele>
        <time>2010-07-04T11:06:29Z</time>
      </trkpt>
      <trkpt lat="44.77149" lon="6.56738">
        <ele>1121.887</ele>
        <time>2010-07-04T11:06:36Z</time>
      </trkpt>
      <trkpt lat="44.77157" lon="6.56734">
        <ele>1124.236</ele>
        <time>2010-07-04T11:06:42Z</time>
      </trkpt>
      <trkpt lat="44.77158" lon="6.56736">
        <ele>1125.609</ele>
        <time>2010-07-04T11:06:47Z</time>
      </trkpt>
      <trkpt lat="44.77161" lon="6.56735">
        <ele>1126.121</ele>
        <time>2010-07-04T11:06:52Z</time>
      </trkpt>
      <trkpt lat="44.77159" lon="6.56736">
        <ele>1127.337</ele>
        <time>2010-07-04T11:06:57Z</time>
      </trkpt>
      <trkpt lat="44.77163" lon="6.56736">
        <ele>1122.898</ele>
        <time>2010-07-04T11:07:42Z</time>
      </trkpt>
      <trkpt lat="44.77164" lon="6.56735">
        <ele>1122.088</ele>
        <time>2010-07-04T11:07:46Z</time>
      </trkpt>
      <trkpt lat="44.77177" lon="6.56728">
        <ele>1122.021</ele>
        <time>2010-07-04T11:07:54Z</time>
      </trkpt>
      <trkpt lat="44.77188" lon="6.56725">
        <ele>1122.335</ele>
        <time>2010-07-04T11:08:00Z</time>
      </trkpt>
      <trkpt lat="44.772" lon="6.56715">
        <ele>1124.25</ele>
        <time>2010-07-04T11:08:08Z</time>
      </trkpt>
      <trkpt lat="44.77211" lon="6.56705">
        <ele>1123.885</ele>
        <time>2010-07-04T11:08:15Z</time>
      </trkpt>
      <trkpt lat="44.77218" lon="6.56699">
        <ele>1124.151</ele>
        <time>2010-07-04T11:08:21Z</time>
      </trkpt>
      <trkpt lat="44.7723" lon="6.56689">
        <ele>1125.489</ele>
        <time>2010-07-04T11:08:29Z</time>
      </trkpt>
      <trkpt lat="44.7724" lon="6.5668">
        <ele>1126.917</ele>
        <time>2010-07-04T11:08:37Z</time>
      </trkpt>
      <trkpt lat="44.77247" lon="6.56673">
        <ele>1129.149</ele>
        <time>2010-07-04T11:08:43Z</time>
      </trkpt>
      <trkpt lat="44.77259" lon="6.56664">
        <ele>1131.638</ele>
        <time>2010-07-04T11:08:52Z</time>
      </trkpt>
      <trkpt lat="44.77271" lon="6.56657">
        <ele>1132.103</ele>
        <time>2010-07-04T11:09:01Z</time>
      </trkpt>
      <trkpt lat="44.77283" lon="6.56651">
        <ele>1134.839</ele>
        <time>2010-07-04T11:09:10Z</time>
      </trkpt>
      <trkpt lat="44.77292" lon="6.56647">
        <ele>1140.818</ele>
        <time>2010-07-04T11:09:19Z</time>
      </trkpt>
      <trkpt lat="44.77301" lon="6.56641">
        <ele>1142.2</ele>
        <time>2010-07-04T11:09:26Z</time>
      </trkpt>
      <trkpt lat="44.77311" lon="6.56637">
        <ele>1145.31</ele>
        <time>2010-07-04T11:09:35Z</time>
      </trkpt>
      <trkpt lat="44.77311" lon="6.56638">
        <ele>1147.32</ele>
        <time>2010-07-04T11:09:45Z</time>
      </trkpt>
      <trkpt lat="44.77315" lon="6.56639">
        <ele>1144.496</ele>
        <time>2010-07-04T11:09:58Z</time>
      </trkpt>
      <trkpt lat="44.77322" lon="6.56639">
        <ele>1140.99</ele>
        <time>2010-07-04T11:11:04Z</time>
      </trkpt>
      <trkpt lat="44.77328" lon="6.56633">
        <ele>1146.038</ele>
        <time>2010-07-04T11:11:11Z</time>
      </trkpt>
      <trkpt lat="44.77329" lon="6.56632">
        <ele>1145.776</ele>
        <time>2010-07-04T11:11:12Z</time>
      </trkpt>
      <trkpt lat="44.77336" lon="6.56626">
        <ele>1148.794</ele>
        <time>2010-07-04T11:11:20Z</time>
      </trkpt>
      <trkpt lat="44.77344" lon="6.56622">
        <ele>1152.82</ele>
        <time>2010-07-04T11:11:26Z</time>
      </trkpt>
      <trkpt lat="44.77352" lon="6.56615">
        <ele>1153.79</ele>
        <time>2010-07-04T11:11:32Z</time>
      </trkpt>
      <trkpt lat="44.77358" lon="6.56612">
        <ele>1158.006</ele>
        <time>2010-07-04T11:11:37Z</time>
      </trkpt>
      <trkpt lat="44.77365" lon="6.56607">
        <ele>1161.584</ele>
        <time>2010-07-04T11:11:43Z</time>
      </trkpt>
      <trkpt lat="44.77371" lon="6.56605">
        <ele>1163.745</ele>
        <time>2010-07-04T11:11:48Z</time>
      </trkpt>
      <trkpt lat="44.77376" lon="6.56602">
        <ele>1165.662</ele>
        <time>2010-07-04T11:11:52Z</time>
      </trkpt>
      <trkpt lat="44.77389" lon="6.56599">
        <ele>1167.298</ele>
        <time>2010-07-04T11:11:59Z</time>
      </trkpt>
      <trkpt lat="44.77399" lon="6.56597">
        <ele>1165.632</ele>
        <time>2010-07-04T11:12:05Z</time>
      </trkpt>
      <trkpt lat="44.77409" lon="6.56593">
        <ele>1160.616</ele>
        <time>2010-07-04T11:12:12Z</time>
      </trkpt>
      <trkpt lat="44.7742" lon="6.56587">
        <ele>1161.328</ele>
        <time>2010-07-04T11:12:19Z</time>
      </trkpt>
      <trkpt lat="44.77428" lon="6.56583">
        <ele>1164.131</ele>
        <time>2010-07-04T11:12:24Z</time>
      </trkpt>
      <trkpt lat="44.77435" lon="6.56583">
        <ele>1163.181</ele>
        <time>2010-07-04T11:12:27Z</time>
      </trkpt>
      <trkpt lat="44.77451" lon="6.56576">
        <ele>1161.899</ele>
        <time>2010-07-04T11:12:35Z</time>
      </trkpt>
      <trkpt lat="44.77462" lon="6.56572">
        <ele>1162.943</ele>
        <time>2010-07-04T11:12:41Z</time>
      </trkpt>
      <trkpt lat="44.77466" lon="6.56571">
        <ele>1161.838</ele>
        <time>2010-07-04T11:12:43Z</time>
      </trkpt>
      <trkpt lat="44.77473" lon="6.56568">
        <ele>1161.353</ele>
        <time>2010-07-04T11:12:47Z</time>
      </trkpt>
      <trkpt lat="44.77483" lon="6.56563">
        <ele>1164.617</ele>
        <time>2010-07-04T11:12:54Z</time>
      </trkpt>
      <trkpt lat="44.77488" lon="6.56559">
        <ele>1166.722</ele>
        <time>2010-07-04T11:12:57Z</time>
      </trkpt>
      <trkpt lat="44.77498" lon="6.56558">
        <ele>1163.688</ele>
        <time>2010-07-04T11:13:04Z</time>
      </trkpt>
      <trkpt lat="44.775" lon="6.56558">
        <ele>1163.076</ele>
        <time>2010-07-04T11:13:05Z</time>
      </trkpt>
      <trkpt lat="44.7751" lon="6.56557">
        <ele>1162.997</ele>
        <time>2010-07-04T11:13:11Z</time>
      </trkpt>
      <trkpt lat="44.77517" lon="6.56557">
        <ele>1167.313</ele>
        <time>2010-07-04T11:13:17Z</time>
      </trkpt>
      <trkpt lat="44.77519" lon="6.56558">
        <ele>1170.3</ele>
        <time>2010-07-04T11:13:19Z</time>
      </trkpt>
      <trkpt lat="44.77527" lon="6.56558">
        <ele>1177.304</ele>
        <time>2010-07-04T11:13:26Z</time>
      </trkpt>
      <trkpt lat="44.77531" lon="6.56558">
        <ele>1180.441</ele>
        <time>2010-07-04T11:13:30Z</time>
      </trkpt>
      <trkpt lat="44.77536" lon="6.5656">
        <ele>1182.272</ele>
        <time>2010-07-04T11:13:34Z</time>
      </trkpt>
      <trkpt lat="44.77547" lon="6.56563">
        <ele>1180.842</ele>
        <time>2010-07-04T11:13:41Z</time>
      </trkpt>
      <trkpt lat="44.77553" lon="6.56563">
        <ele>1180.459</ele>
        <time>2010-07-04T11:13:46Z</time>
      </trkpt>
      <trkpt lat="44.77557" lon="6.56563">
        <ele>1179.565</ele>
        <time>2010-07-04T11:13:48Z</time>
      </trkpt>
      <trkpt lat="44.77565" lon="6.56561">
        <ele>1177.113</ele>
        <time>2010-07-04T11:13:53Z</time>
      </trkpt>
      <trkpt lat="44.77575" lon="6.56559">
        <ele>1178.193</ele>
        <time>2010-07-04T11:13:58Z</time>
      </trkpt>
      <trkpt lat="44.77588" lon="6.56555">
        <ele>1183.4</ele>
        <time>2010-07-04T11:14:05Z</time>
      </trkpt>
      <trkpt lat="44.77598" lon="6.56556">
        <ele>1186.01</ele>
        <time>2010-07-04T11:14:12Z</time>
      </trkpt>
      <trkpt lat="44.77607" lon="6.5655">
        <ele>1186.821</ele>
        <time>2010-07-04T11:14:18Z</time>
      </trkpt>
      <trkpt lat="44.77618" lon="6.56548">
        <ele>1186.39</ele>
        <time>2010-07-04T11:14:24Z</time>
      </trkpt>
      <trkpt lat="44.77632" lon="6.56547">
        <ele>1188.128</ele>
        <time>2010-07-04T11:14:33Z</time>
      </trkpt>
      <trkpt lat="44.77644" lon="6.56542">
        <ele>1186.77</ele>
        <time>2010-07-04T11:14:40Z</time>
      </trkpt>
      <trkpt lat="44.77655" lon="6.5654">
        <ele>1185.131</ele>
        <time>2010-07-04T11:14:46Z</time>
      </trkpt>
      <trkpt lat="44.77669" lon="6.56537">
        <ele>1184.307</ele>
        <time>2010-07-04T11:14:54Z</time>
      </trkpt>
      <trkpt lat="44.77678" lon="6.56532">
        <ele>1185.078</ele>
        <time>2010-07-04T11:15:01Z</time>
      </trkpt>
      <trkpt lat="44.77689" lon="6.56528">
        <ele>1184.789</ele>
        <time>2010-07-04T11:15:08Z</time>
      </trkpt>
      <trkpt lat="44.77703" lon="6.56528">
        <ele>1190.161</ele>
        <time>2010-07-04T11:15:18Z</time>
      </trkpt>
      <trkpt lat="44.77717" lon="6.56524">
        <ele>1190.565</ele>
        <time>2010-07-04T11:15:27Z</time>
      </trkpt>
      <trkpt lat="44.77719" lon="6.56524">
        <ele>1190.515</ele>
        <time>2010-07-04T11:15:28Z</time>
      </trkpt>
      <trkpt lat="44.77729" lon="6.56514">
        <ele>1190.078</ele>
        <time>2010-07-04T11:15:34Z</time>
      </trkpt>
      <trkpt lat="44.77741" lon="6.56515">
        <ele>1191.662</ele>
        <time>2010-07-04T11:15:41Z</time>
      </trkpt>
      <trkpt lat="44.77756" lon="6.56522">
        <ele>1192.694</ele>
        <time>2010-07-04T11:15:48Z</time>
      </trkpt>
      <trkpt lat="44.77773" lon="6.56539">
        <ele>1193.782</ele>
        <time>2010-07-04T11:15:55Z</time>
      </trkpt>
      <trkpt lat="44.77779" lon="6.56545">
        <ele>1193.829</ele>
        <time>2010-07-04T11:15:57Z</time>
      </trkpt>
      <trkpt lat="44.77808" lon="6.56558">
        <ele>1193.725</ele>
        <time>2010-07-04T11:16:03Z</time>
      </trkpt>
      <trkpt lat="44.77814" lon="6.5656">
        <ele>1193.231</ele>
        <time>2010-07-04T11:16:04Z</time>
      </trkpt>
      <trkpt lat="44.77838" lon="6.56559">
        <ele>1191.804</ele>
        <time>2010-07-04T11:16:08Z</time>
      </trkpt>
      <trkpt lat="44.77873" lon="6.56551">
        <ele>1189.792</ele>
        <time>2010-07-04T11:16:14Z</time>
      </trkpt>
      <trkpt lat="44.779" lon="6.56541">
        <ele>1187.296</ele>
        <time>2010-07-04T11:16:19Z</time>
      </trkpt>
      <trkpt lat="44.77932" lon="6.56526">
        <ele>1183.391</ele>
        <time>2010-07-04T11:16:24Z</time>
      </trkpt>
      <trkpt lat="44.77939" lon="6.56523">
        <ele>1182.886</ele>
        <time>2010-07-04T11:16:25Z</time>
      </trkpt>
      <trkpt lat="44.77958" lon="6.5651">
        <ele>1181.43</ele>
        <time>2010-07-04T11:16:28Z</time>
      </trkpt>
      <trkpt lat="44.7799" lon="6.56497">
        <ele>1176.66</ele>
        <time>2010-07-04T11:16:33Z</time>
      </trkpt>
      <trkpt lat="44.78011" lon="6.56496">
        <ele>1172.93</ele>
        <time>2010-07-04T11:16:36Z</time>
      </trkpt>
      <trkpt lat="44.78048" lon="6.56483">
        <ele>1167.2</ele>
        <time>2010-07-04T11:16:42Z</time>
      </trkpt>
      <trkpt lat="44.78056" lon="6.56481">
        <ele>1165.467</ele>
        <time>2010-07-04T11:16:43Z</time>
      </trkpt>
      <trkpt lat="44.78086" lon="6.5648">
        <ele>1159.708</ele>
        <time>2010-07-04T11:16:47Z</time>
      </trkpt>
      <trkpt lat="44.78101" lon="6.56478">
        <ele>1157.382</ele>
        <time>2010-07-04T11:16:49Z</time>
      </trkpt>
      <trkpt lat="44.78136" lon="6.56488">
        <ele>1151.857</ele>
        <time>2010-07-04T11:16:54Z</time>
      </trkpt>
      <trkpt lat="44.78159" lon="6.56483">
        <ele>1149.138</ele>
        <time>2010-07-04T11:16:57Z</time>
      </trkpt>
      <trkpt lat="44.78186" lon="6.56464">
        <ele>1146.7</ele>
        <time>2010-07-04T11:17:01Z</time>
      </trkpt>
      <trkpt lat="44.78207" lon="6.56457">
        <ele>1145.393</ele>
        <time>2010-07-04T11:17:04Z</time>
      </trkpt>
      <trkpt lat="44.78214" lon="6.5646">
        <ele>1144.591</ele>
        <time>2010-07-04T11:17:05Z</time>
      </trkpt>
      <trkpt lat="44.78247" lon="6.56457">
        <ele>1143.275</ele>
        <time>2010-07-04T11:17:10Z</time>
      </trkpt>
      <trkpt lat="44.78272" lon="6.56429">
        <ele>1141.902</ele>
        <time>2010-07-04T11:17:16Z</time>
      </trkpt>
      <trkpt lat="44.78284" lon="6.56417">
        <ele>1140.831</ele>
        <time>2010-07-04T11:17:20Z</time>
      </trkpt>
      <trkpt lat="44.78295" lon="6.56414">
        <ele>1139.844</ele>
        <time>2010-07-04T11:17:27Z</time>
      </trkpt>
      <trkpt lat="44.783" lon="6.56415">
        <ele>1139.348</ele>
        <time>2010-07-04T11:17:30Z</time>
      </trkpt>
      <trkpt lat="44.78306" lon="6.56414">
        <ele>1138.56</ele>
        <time>2010-07-04T11:17:32Z</time>
      </trkpt>
      <trkpt lat="44.78333" lon="6.56424">
        <ele>1134.937</ele>
        <time>2010-07-04T11:17:38Z</time>
      </trkpt>
      <trkpt lat="44.78369" lon="6.56435">
        <ele>1131.893</ele>
        <time>2010-07-04T11:17:44Z</time>
      </trkpt>
      <trkpt lat="44.78383" lon="6.56436">
        <ele>1131.097</ele>
        <time>2010-07-04T11:17:46Z</time>
      </trkpt>
      <trkpt lat="44.78435" lon="6.56439">
        <ele>1127.13</ele>
        <time>2010-07-04T11:17:53Z</time>
      </trkpt>
      <trkpt lat="44.78442" lon="6.56439">
        <ele>1126.134</ele>
        <time>2010-07-04T11:17:54Z</time>
      </trkpt>
      <trkpt lat="44.78471" lon="6.56452">
        <ele>1123.532</ele>
        <time>2010-07-04T11:17:58Z</time>
      </trkpt>
      <trkpt lat="44.78501" lon="6.56456">
        <ele>1121.039</ele>
        <time>2010-07-04T11:18:02Z</time>
      </trkpt>
      <trkpt lat="44.78524" lon="6.56457">
        <ele>1120.421</ele>
        <time>2010-07-04T11:18:05Z</time>
      </trkpt>
      <trkpt lat="44.78539" lon="6.56457">
        <ele>1119.84</ele>
        <time>2010-07-04T11:18:07Z</time>
      </trkpt>
      <trkpt lat="44.78559" lon="6.56465">
        <ele>1119.823</ele>
        <time>2010-07-04T11:18:11Z</time>
      </trkpt>
      <trkpt lat="44.78572" lon="6.56473">
        <ele>1120.602</ele>
        <time>2010-07-04T11:18:17Z</time>
      </trkpt>
      <trkpt lat="44.78586" lon="6.56487">
        <ele>1121.66</ele>
        <time>2010-07-04T11:18:25Z</time>
      </trkpt>
      <trkpt lat="44.786" lon="6.56498">
        <ele>1125.795</ele>
        <time>2010-07-04T11:18:35Z</time>
      </trkpt>
      <trkpt lat="44.78616" lon="6.56504">
        <ele>1127.889</ele>
        <time>2010-07-04T11:18:45Z</time>
      </trkpt>
      <trkpt lat="44.78631" lon="6.56514">
        <ele>1129.652</ele>
        <time>2010-07-04T11:18:55Z</time>
      </trkpt>
      <trkpt lat="44.78632" lon="6.56515">
        <ele>1130.022</ele>
        <time>2010-07-04T11:18:56Z</time>
      </trkpt>
      <trkpt lat="44.78634" lon="6.56527">
        <ele>1130.964</ele>
        <time>2010-07-04T11:19:03Z</time>
      </trkpt>
      <trkpt lat="44.78632" lon="6.56528">
        <ele>1130.747</ele>
        <time>2010-07-04T11:19:04Z</time>
      </trkpt>
      <trkpt lat="44.7863" lon="6.56529">
        <ele>1130.648</ele>
        <time>2010-07-04T11:19:06Z</time>
      </trkpt>
      <trkpt lat="44.78616" lon="6.56528">
        <ele>1131.339</ele>
        <time>2010-07-04T11:19:16Z</time>
      </trkpt>
      <trkpt lat="44.78602" lon="6.56529">
        <ele>1133.523</ele>
        <time>2010-07-04T11:19:26Z</time>
      </trkpt>
      <trkpt lat="44.78591" lon="6.56531">
        <ele>1135.267</ele>
        <time>2010-07-04T11:19:34Z</time>
      </trkpt>
      <trkpt lat="44.78585" lon="6.56529">
        <ele>1138.108</ele>
        <time>2010-07-04T11:19:40Z</time>
      </trkpt>
      <trkpt lat="44.78577" lon="6.56527">
        <ele>1141.822</ele>
        <time>2010-07-04T11:19:47Z</time>
      </trkpt>
      <trkpt lat="44.78564" lon="6.56529">
        <ele>1144.947</ele>
        <time>2010-07-04T11:19:56Z</time>
      </trkpt>
      <trkpt lat="44.78555" lon="6.5653">
        <ele>1148.763</ele>
        <time>2010-07-04T11:20:03Z</time>
      </trkpt>
      <trkpt lat="44.78548" lon="6.56532">
        <ele>1150.802</ele>
        <time>2010-07-04T11:20:09Z</time>
      </trkpt>
      <trkpt lat="44.7854" lon="6.56535">
        <ele>1150.561</ele>
        <time>2010-07-04T11:20:15Z</time>
      </trkpt>
      <trkpt lat="44.78535" lon="6.56537">
        <ele>1153.521</ele>
        <time>2010-07-04T11:20:22Z</time>
      </trkpt>
      <trkpt lat="44.78525" lon="6.56541">
        <ele>1151.455</ele>
        <time>2010-07-04T11:20:28Z</time>
      </trkpt>
      <trkpt lat="44.7852" lon="6.56544">
        <ele>1153.613</ele>
        <time>2010-07-04T11:20:33Z</time>
      </trkpt>
      <trkpt lat="44.78512" lon="6.56547">
        <ele>1156.358</ele>
        <time>2010-07-04T11:20:40Z</time>
      </trkpt>
      <trkpt lat="44.78498" lon="6.5655">
        <ele>1159.906</ele>
        <time>2010-07-04T11:20:50Z</time>
      </trkpt>
      <trkpt lat="44.78486" lon="6.5655">
        <ele>1162.032</ele>
        <time>2010-07-04T11:20:58Z</time>
      </trkpt>
      <trkpt lat="44.78473" lon="6.5655">
        <ele>1163.269</ele>
        <time>2010-07-04T11:21:06Z</time>
      </trkpt>
      <trkpt lat="44.78461" lon="6.5655">
        <ele>1164.129</ele>
        <time>2010-07-04T11:21:14Z</time>
      </trkpt>
      <trkpt lat="44.78449" lon="6.56549">
        <ele>1166.265</ele>
        <time>2010-07-04T11:21:21Z</time>
      </trkpt>
      <trkpt lat="44.78439" lon="6.5655">
        <ele>1167.946</ele>
        <time>2010-07-04T11:21:28Z</time>
      </trkpt>
      <trkpt lat="44.78429" lon="6.5655">
        <ele>1168.7</ele>
        <time>2010-07-04T11:21:35Z</time>
      </trkpt>
      <trkpt lat="44.78424" lon="6.5655">
        <ele>1169.451</ele>
        <time>2010-07-04T11:21:39Z</time>
      </trkpt>
      <trkpt lat="44.78411" lon="6.56547">
        <ele>1170.394</ele>
        <time>2010-07-04T11:21:46Z</time>
      </trkpt>
      <trkpt lat="44.78398" lon="6.56546">
        <ele>1172.011</ele>
        <time>2010-07-04T11:21:55Z</time>
      </trkpt>
      <trkpt lat="44.78389" lon="6.56545">
        <ele>1173.15</ele>
        <time>2010-07-04T11:22:02Z</time>
      </trkpt>
      <trkpt lat="44.78377" lon="6.56544">
        <ele>1175.087</ele>
        <time>2010-07-04T11:22:09Z</time>
      </trkpt>
      <trkpt lat="44.78369" lon="6.56542">
        <ele>1178.266</ele>
        <time>2010-07-04T11:22:15Z</time>
      </trkpt>
      <trkpt lat="44.78357" lon="6.56539">
        <ele>1181.755</ele>
        <time>2010-07-04T11:22:24Z</time>
      </trkpt>
      <trkpt lat="44.78354" lon="6.56537">
        <ele>1183.652</ele>
        <time>2010-07-04T11:22:27Z</time>
      </trkpt>
      <trkpt lat="44.78344" lon="6.56538">
        <ele>1185.09</ele>
        <time>2010-07-04T11:22:35Z</time>
      </trkpt>
      <trkpt lat="44.78342" lon="6.56537">
        <ele>1186</ele>
        <time>2010-07-04T11:22:37Z</time>
      </trkpt>
      <trkpt lat="44.78333" lon="6.56538">
        <ele>1187.201</ele>
        <time>2010-07-04T11:22:42Z</time>
      </trkpt>
      <trkpt lat="44.78321" lon="6.56538">
        <ele>1187.457</ele>
        <time>2010-07-04T11:22:49Z</time>
      </trkpt>
      <trkpt lat="44.78316" lon="6.56536">
        <ele>1190.386</ele>
        <time>2010-07-04T11:22:54Z</time>
      </trkpt>
      <trkpt lat="44.78311" lon="6.56536">
        <ele>1192.96</ele>
        <time>2010-07-04T11:22:58Z</time>
      </trkpt>
      <trkpt lat="44.78299" lon="6.56541">
        <ele>1193.208</ele>
        <time>2010-07-04T11:23:06Z</time>
      </trkpt>
      <trkpt lat="44.78277" lon="6.56556">
        <ele>1185.95</ele>
        <time>2010-07-04T11:23:15Z</time>
      </trkpt>
      <trkpt lat="44.78264" lon="6.56569">
        <ele>1186.498</ele>
        <time>2010-07-04T11:23:25Z</time>
      </trkpt>
      <trkpt lat="44.78255" lon="6.56578">
        <ele>1187.965</ele>
        <time>2010-07-04T11:23:34Z</time>
      </trkpt>
      <trkpt lat="44.78245" lon="6.56584">
        <ele>1188.063</ele>
        <time>2010-07-04T11:23:41Z</time>
      </trkpt>
      <trkpt lat="44.78236" lon="6.56588">
        <ele>1188.717</ele>
        <time>2010-07-04T11:23:48Z</time>
      </trkpt>
      <trkpt lat="44.78225" lon="6.5659">
        <ele>1190.266</ele>
        <time>2010-07-04T11:23:56Z</time>
      </trkpt>
      <trkpt lat="44.78212" lon="6.56592">
        <ele>1190.648</ele>
        <time>2010-07-04T11:24:05Z</time>
      </trkpt>
      <trkpt lat="44.78202" lon="6.56598">
        <ele>1191.963</ele>
        <time>2010-07-04T11:24:13Z</time>
      </trkpt>
      <trkpt lat="44.7819" lon="6.56602">
        <ele>1193.768</ele>
        <time>2010-07-04T11:24:21Z</time>
      </trkpt>
      <trkpt lat="44.78179" lon="6.56603">
        <ele>1195.197</ele>
        <time>2010-07-04T11:24:29Z</time>
      </trkpt>
      <trkpt lat="44.78168" lon="6.56605">
        <ele>1196.538</ele>
        <time>2010-07-04T11:24:37Z</time>
      </trkpt>
      <trkpt lat="44.78155" lon="6.56607">
        <ele>1197.836</ele>
        <time>2010-07-04T11:24:46Z</time>
      </trkpt>
      <trkpt lat="44.78143" lon="6.56606">
        <ele>1198.731</ele>
        <time>2010-07-04T11:24:55Z</time>
      </trkpt>
      <trkpt lat="44.78131" lon="6.56601">
        <ele>1199.594</ele>
        <time>2010-07-04T11:25:03Z</time>
      </trkpt>
      <trkpt lat="44.78119" lon="6.56596">
        <ele>1200.833</ele>
        <time>2010-07-04T11:25:12Z</time>
      </trkpt>
      <trkpt lat="44.78104" lon="6.56593">
        <ele>1202.556</ele>
        <time>2010-07-04T11:25:22Z</time>
      </trkpt>
      <trkpt lat="44.78089" lon="6.56592">
        <ele>1203.994</ele>
        <time>2010-07-04T11:25:32Z</time>
      </trkpt>
      <trkpt lat="44.78076" lon="6.56592">
        <ele>1205.006</ele>
        <time>2010-07-04T11:25:41Z</time>
      </trkpt>
      <trkpt lat="44.78062" lon="6.56593">
        <ele>1206.604</ele>
        <time>2010-07-04T11:25:51Z</time>
      </trkpt>
      <trkpt lat="44.78056" lon="6.56597">
        <ele>1206.434</ele>
        <time>2010-07-04T11:25:55Z</time>
      </trkpt>
      <trkpt lat="44.78057" lon="6.56605">
        <ele>1206.536</ele>
        <time>2010-07-04T11:25:59Z</time>
      </trkpt>
      <trkpt lat="44.78059" lon="6.56607">
        <ele>1206.753</ele>
        <time>2010-07-04T11:26:01Z</time>
      </trkpt>
      <trkpt lat="44.78065" lon="6.56608">
        <ele>1207.769</ele>
        <time>2010-07-04T11:26:05Z</time>
      </trkpt>
      <trkpt lat="44.78079" lon="6.56612">
        <ele>1210.245</ele>
        <time>2010-07-04T11:26:14Z</time>
      </trkpt>
      <trkpt lat="44.78095" lon="6.56617">
        <ele>1212.428</ele>
        <time>2010-07-04T11:26:24Z</time>
      </trkpt>
      <trkpt lat="44.78112" lon="6.56626">
        <ele>1213.005</ele>
        <time>2010-07-04T11:26:35Z</time>
      </trkpt>
      <trkpt lat="44.78126" lon="6.56639">
        <ele>1213.816</ele>
        <time>2010-07-04T11:26:45Z</time>
      </trkpt>
      <trkpt lat="44.78136" lon="6.56652">
        <ele>1214.609</ele>
        <time>2010-07-04T11:26:53Z</time>
      </trkpt>
      <trkpt lat="44.78145" lon="6.56665">
        <ele>1216.074</ele>
        <time>2010-07-04T11:27:01Z</time>
      </trkpt>
      <trkpt lat="44.78155" lon="6.56675">
        <ele>1217.199</ele>
        <time>2010-07-04T11:27:10Z</time>
      </trkpt>
      <trkpt lat="44.78167" lon="6.56684">
        <ele>1218.278</ele>
        <time>2010-07-04T11:27:20Z</time>
      </trkpt>
      <trkpt lat="44.78169" lon="6.56686">
        <ele>1218.661</ele>
        <time>2010-07-04T11:27:22Z</time>
      </trkpt>
      <trkpt lat="44.78165" lon="6.56693">
        <ele>1221.84</ele>
        <time>2010-07-04T11:27:28Z</time>
      </trkpt>
      <trkpt lat="44.78159" lon="6.56692">
        <ele>1223.101</ele>
        <time>2010-07-04T11:27:32Z</time>
      </trkpt>
      <trkpt lat="44.78147" lon="6.56689">
        <ele>1225.275</ele>
        <time>2010-07-04T11:27:41Z</time>
      </trkpt>
      <trkpt lat="44.78135" lon="6.56687">
        <ele>1226.903</ele>
        <time>2010-07-04T11:27:50Z</time>
      </trkpt>
      <trkpt lat="44.78123" lon="6.56682">
        <ele>1228.504</ele>
        <time>2010-07-04T11:27:59Z</time>
      </trkpt>
      <trkpt lat="44.78112" lon="6.56679">
        <ele>1230.355</ele>
        <time>2010-07-04T11:28:07Z</time>
      </trkpt>
      <trkpt lat="44.781" lon="6.56676">
        <ele>1232.507</ele>
        <time>2010-07-04T11:28:16Z</time>
      </trkpt>
      <trkpt lat="44.78088" lon="6.56675">
        <ele>1234.132</ele>
        <time>2010-07-04T11:28:24Z</time>
      </trkpt>
      <trkpt lat="44.78076" lon="6.56676">
        <ele>1235.852</ele>
        <time>2010-07-04T11:28:33Z</time>
      </trkpt>
      <trkpt lat="44.78065" lon="6.56677">
        <ele>1237.212</ele>
        <time>2010-07-04T11:28:42Z</time>
      </trkpt>
      <trkpt lat="44.78064" lon="6.56687">
        <ele>1236.715</ele>
        <time>2010-07-04T11:28:48Z</time>
      </trkpt>
      <trkpt lat="44.78071" lon="6.56687">
        <ele>1236.947</ele>
        <time>2010-07-04T11:28:53Z</time>
      </trkpt>
      <trkpt lat="44.78085" lon="6.5669">
        <ele>1237.627</ele>
        <time>2010-07-04T11:29:02Z</time>
      </trkpt>
      <trkpt lat="44.78098" lon="6.56699">
        <ele>1237.865</ele>
        <time>2010-07-04T11:29:10Z</time>
      </trkpt>
      <trkpt lat="44.78113" lon="6.56714">
        <ele>1238.513</ele>
        <time>2010-07-04T11:29:20Z</time>
      </trkpt>
      <trkpt lat="44.78124" lon="6.56728">
        <ele>1239.781</ele>
        <time>2010-07-04T11:29:29Z</time>
      </trkpt>
      <trkpt lat="44.78136" lon="6.5674">
        <ele>1240.83</ele>
        <time>2010-07-04T11:29:38Z</time>
      </trkpt>
      <trkpt lat="44.78151" lon="6.56747">
        <ele>1242.058</ele>
        <time>2010-07-04T11:29:48Z</time>
      </trkpt>
      <trkpt lat="44.78165" lon="6.56748">
        <ele>1246.08</ele>
        <time>2010-07-04T11:29:57Z</time>
      </trkpt>
      <trkpt lat="44.78177" lon="6.56746">
        <ele>1248.653</ele>
        <time>2010-07-04T11:30:05Z</time>
      </trkpt>
      <trkpt lat="44.78192" lon="6.56744">
        <ele>1250.369</ele>
        <time>2010-07-04T11:30:14Z</time>
      </trkpt>
      <trkpt lat="44.78206" lon="6.56748">
        <ele>1251.24</ele>
        <time>2010-07-04T11:30:22Z</time>
      </trkpt>
      <trkpt lat="44.7822" lon="6.56752">
        <ele>1253.215</ele>
        <time>2010-07-04T11:30:31Z</time>
      </trkpt>
      <trkpt lat="44.78235" lon="6.56756">
        <ele>1254.93</ele>
        <time>2010-07-04T11:30:40Z</time>
      </trkpt>
      <trkpt lat="44.78251" lon="6.56759">
        <ele>1256.608</ele>
        <time>2010-07-04T11:30:50Z</time>
      </trkpt>
      <trkpt lat="44.7827" lon="6.5676">
        <ele>1258.617</ele>
        <time>2010-07-04T11:31:01Z</time>
      </trkpt>
      <trkpt lat="44.78285" lon="6.56761">
        <ele>1260.642</ele>
        <time>2010-07-04T11:31:10Z</time>
      </trkpt>
      <trkpt lat="44.78302" lon="6.56769">
        <ele>1261.752</ele>
        <time>2010-07-04T11:31:20Z</time>
      </trkpt>
      <trkpt lat="44.78316" lon="6.56781">
        <ele>1262.893</ele>
        <time>2010-07-04T11:31:30Z</time>
      </trkpt>
      <trkpt lat="44.78329" lon="6.56793">
        <ele>1264.085</ele>
        <time>2010-07-04T11:31:39Z</time>
      </trkpt>
      <trkpt lat="44.78342" lon="6.56803">
        <ele>1265.305</ele>
        <time>2010-07-04T11:31:48Z</time>
      </trkpt>
      <trkpt lat="44.78354" lon="6.56805">
        <ele>1268.085</ele>
        <time>2010-07-04T11:31:55Z</time>
      </trkpt>
      <trkpt lat="44.7837" lon="6.56811">
        <ele>1270.983</ele>
        <time>2010-07-04T11:32:05Z</time>
      </trkpt>
      <trkpt lat="44.78387" lon="6.56819">
        <ele>1272.246</ele>
        <time>2010-07-04T11:32:15Z</time>
      </trkpt>
      <trkpt lat="44.78403" lon="6.56821">
        <ele>1273.939</ele>
        <time>2010-07-04T11:32:24Z</time>
      </trkpt>
      <trkpt lat="44.78415" lon="6.56822">
        <ele>1275.364</ele>
        <time>2010-07-04T11:32:31Z</time>
      </trkpt>
      <trkpt lat="44.78424" lon="6.56824">
        <ele>1276.355</ele>
        <time>2010-07-04T11:32:37Z</time>
      </trkpt>
      <trkpt lat="44.78435" lon="6.56829">
        <ele>1277.359</ele>
        <time>2010-07-04T11:32:44Z</time>
      </trkpt>
      <trkpt lat="44.78451" lon="6.56834">
        <ele>1278.629</ele>
        <time>2010-07-04T11:32:54Z</time>
      </trkpt>
      <trkpt lat="44.78473" lon="6.56835">
        <ele>1281.546</ele>
        <time>2010-07-04T11:33:07Z</time>
      </trkpt>
      <trkpt lat="44.7849" lon="6.56839">
        <ele>1283.841</ele>
        <time>2010-07-04T11:33:17Z</time>
      </trkpt>
      <trkpt lat="44.78504" lon="6.56845">
        <ele>1285.073</ele>
        <time>2010-07-04T11:33:26Z</time>
      </trkpt>
      <trkpt lat="44.78517" lon="6.56846">
        <ele>1287.013</ele>
        <time>2010-07-04T11:33:34Z</time>
      </trkpt>
      <trkpt lat="44.78526" lon="6.56852">
        <ele>1287.941</ele>
        <time>2010-07-04T11:33:41Z</time>
      </trkpt>
      <trkpt lat="44.78541" lon="6.56864">
        <ele>1289.314</ele>
        <time>2010-07-04T11:33:52Z</time>
      </trkpt>
      <trkpt lat="44.78553" lon="6.5687">
        <ele>1290.217</ele>
        <time>2010-07-04T11:34:00Z</time>
      </trkpt>
      <trkpt lat="44.78565" lon="6.56878">
        <ele>1291.33</ele>
        <time>2010-07-04T11:34:09Z</time>
      </trkpt>
      <trkpt lat="44.78577" lon="6.56879">
        <ele>1294.285</ele>
        <time>2010-07-04T11:34:18Z</time>
      </trkpt>
      <trkpt lat="44.7859" lon="6.5688">
        <ele>1296.642</ele>
        <time>2010-07-04T11:34:27Z</time>
      </trkpt>
      <trkpt lat="44.78601" lon="6.56882">
        <ele>1298.214</ele>
        <time>2010-07-04T11:34:35Z</time>
      </trkpt>
      <trkpt lat="44.78613" lon="6.56878">
        <ele>1300.034</ele>
        <time>2010-07-04T11:34:44Z</time>
      </trkpt>
      <trkpt lat="44.78625" lon="6.56877">
        <ele>1301.815</ele>
        <time>2010-07-04T11:34:52Z</time>
      </trkpt>
      <trkpt lat="44.78646" lon="6.56879">
        <ele>1303.74</ele>
        <time>2010-07-04T11:35:05Z</time>
      </trkpt>
      <trkpt lat="44.78659" lon="6.56881">
        <ele>1305.076</ele>
        <time>2010-07-04T11:35:13Z</time>
      </trkpt>
      <trkpt lat="44.7868" lon="6.56882">
        <ele>1307.372</ele>
        <time>2010-07-04T11:35:25Z</time>
      </trkpt>
      <trkpt lat="44.78695" lon="6.56885">
        <ele>1308.082</ele>
        <time>2010-07-04T11:35:34Z</time>
      </trkpt>
      <trkpt lat="44.78712" lon="6.56886">
        <ele>1309.968</ele>
        <time>2010-07-04T11:35:44Z</time>
      </trkpt>
      <trkpt lat="44.78725" lon="6.56886">
        <ele>1312.035</ele>
        <time>2010-07-04T11:35:53Z</time>
      </trkpt>
      <trkpt lat="44.78737" lon="6.56888">
        <ele>1313.642</ele>
        <time>2010-07-04T11:36:02Z</time>
      </trkpt>
      <trkpt lat="44.78754" lon="6.56891">
        <ele>1315.105</ele>
        <time>2010-07-04T11:36:14Z</time>
      </trkpt>
      <trkpt lat="44.78757" lon="6.56897">
        <ele>1315.918</ele>
        <time>2010-07-04T11:36:18Z</time>
      </trkpt>
      <trkpt lat="44.78753" lon="6.56904">
        <ele>1317.829</ele>
        <time>2010-07-04T11:36:23Z</time>
      </trkpt>
      <trkpt lat="44.78742" lon="6.56912">
        <ele>1320.8</ele>
        <time>2010-07-04T11:36:33Z</time>
      </trkpt>
      <trkpt lat="44.78733" lon="6.56921">
        <ele>1322.228</ele>
        <time>2010-07-04T11:36:41Z</time>
      </trkpt>
      <trkpt lat="44.78724" lon="6.56927">
        <ele>1323.911</ele>
        <time>2010-07-04T11:36:49Z</time>
      </trkpt>
      <trkpt lat="44.78715" lon="6.56932">
        <ele>1326.077</ele>
        <time>2010-07-04T11:36:57Z</time>
      </trkpt>
      <trkpt lat="44.78709" lon="6.56937">
        <ele>1326.891</ele>
        <time>2010-07-04T11:37:02Z</time>
      </trkpt>
      <trkpt lat="44.78712" lon="6.56944">
        <ele>1327.436</ele>
        <time>2010-07-04T11:37:07Z</time>
      </trkpt>
      <trkpt lat="44.78724" lon="6.56948">
        <ele>1328.083</ele>
        <time>2010-07-04T11:37:16Z</time>
      </trkpt>
      <trkpt lat="44.78738" lon="6.56949">
        <ele>1329.494</ele>
        <time>2010-07-04T11:37:26Z</time>
      </trkpt>
      <trkpt lat="44.78753" lon="6.56951">
        <ele>1331.88</ele>
        <time>2010-07-04T11:37:37Z</time>
      </trkpt>
      <trkpt lat="44.78768" lon="6.56952">
        <ele>1333.843</ele>
        <time>2010-07-04T11:37:48Z</time>
      </trkpt>
      <trkpt lat="44.78782" lon="6.56954">
        <ele>1335.462</ele>
        <time>2010-07-04T11:37:58Z</time>
      </trkpt>
      <trkpt lat="44.78794" lon="6.56958">
        <ele>1337.009</ele>
        <time>2010-07-04T11:38:07Z</time>
      </trkpt>
      <trkpt lat="44.78806" lon="6.56967">
        <ele>1338.052</ele>
        <time>2010-07-04T11:38:16Z</time>
      </trkpt>
      <trkpt lat="44.78816" lon="6.56978">
        <ele>1339.368</ele>
        <time>2010-07-04T11:38:25Z</time>
      </trkpt>
      <trkpt lat="44.78825" lon="6.56986">
        <ele>1340.753</ele>
        <time>2010-07-04T11:38:33Z</time>
      </trkpt>
      <trkpt lat="44.78837" lon="6.56986">
        <ele>1343.971</ele>
        <time>2010-07-04T11:38:42Z</time>
      </trkpt>
      <trkpt lat="44.78851" lon="6.56982">
        <ele>1346.991</ele>
        <time>2010-07-04T11:38:52Z</time>
      </trkpt>
      <trkpt lat="44.78862" lon="6.56981">
        <ele>1349.051</ele>
        <time>2010-07-04T11:39:00Z</time>
      </trkpt>
      <trkpt lat="44.78874" lon="6.56985">
        <ele>1350.3</ele>
        <time>2010-07-04T11:39:08Z</time>
      </trkpt>
      <trkpt lat="44.78886" lon="6.56992">
        <ele>1349.669</ele>
        <time>2010-07-04T11:39:16Z</time>
      </trkpt>
      <trkpt lat="44.78896" lon="6.56998">
        <ele>1349.379</ele>
        <time>2010-07-04T11:39:23Z</time>
      </trkpt>
      <trkpt lat="44.78909" lon="6.5701">
        <ele>1348.719</ele>
        <time>2010-07-04T11:39:31Z</time>
      </trkpt>
      <trkpt lat="44.78917" lon="6.57023">
        <ele>1349.86</ele>
        <time>2010-07-04T11:39:39Z</time>
      </trkpt>
      <trkpt lat="44.7893" lon="6.57042">
        <ele>1350.83</ele>
        <time>2010-07-04T11:39:51Z</time>
      </trkpt>
      <trkpt lat="44.78942" lon="6.57059">
        <ele>1352.49</ele>
        <time>2010-07-04T11:40:02Z</time>
      </trkpt>
      <trkpt lat="44.78951" lon="6.5707">
        <ele>1353.911</ele>
        <time>2010-07-04T11:40:10Z</time>
      </trkpt>
      <trkpt lat="44.78961" lon="6.57085">
        <ele>1354.951</ele>
        <time>2010-07-04T11:40:19Z</time>
      </trkpt>
      <trkpt lat="44.78972" lon="6.57103">
        <ele>1356.481</ele>
        <time>2010-07-04T11:40:30Z</time>
      </trkpt>
      <trkpt lat="44.78981" lon="6.57118">
        <ele>1358.191</ele>
        <time>2010-07-04T11:40:39Z</time>
      </trkpt>
      <trkpt lat="44.7899" lon="6.57136">
        <ele>1360.031</ele>
        <time>2010-07-04T11:40:50Z</time>
      </trkpt>
      <trkpt lat="44.78998" lon="6.57151">
        <ele>1361.24</ele>
        <time>2010-07-04T11:40:59Z</time>
      </trkpt>
      <trkpt lat="44.79004" lon="6.57167">
        <ele>1363.412</ele>
        <time>2010-07-04T11:41:08Z</time>
      </trkpt>
      <trkpt lat="44.79002" lon="6.57183">
        <ele>1366.392</ele>
        <time>2010-07-04T11:41:16Z</time>
      </trkpt>
      <trkpt lat="44.79" lon="6.57197">
        <ele>1368.391</ele>
        <time>2010-07-04T11:41:24Z</time>
      </trkpt>
      <trkpt lat="44.79003" lon="6.57214">
        <ele>1370.131</ele>
        <time>2010-07-04T11:41:33Z</time>
      </trkpt>
      <trkpt lat="44.79012" lon="6.57232">
        <ele>1369.65</ele>
        <time>2010-07-04T11:41:40Z</time>
      </trkpt>
      <trkpt lat="44.79025" lon="6.57244">
        <ele>1370.17</ele>
        <time>2010-07-04T11:41:45Z</time>
      </trkpt>
      <trkpt lat="44.79037" lon="6.57246">
        <ele>1373.401</ele>
        <time>2010-07-04T11:41:54Z</time>
      </trkpt>
      <trkpt lat="44.79049" lon="6.57251">
        <ele>1376.672</ele>
        <time>2010-07-04T11:42:03Z</time>
      </trkpt>
      <trkpt lat="44.79062" lon="6.57254">
        <ele>1379.083</ele>
        <time>2010-07-04T11:42:12Z</time>
      </trkpt>
      <trkpt lat="44.79076" lon="6.57261">
        <ele>1381.031</ele>
        <time>2010-07-04T11:42:23Z</time>
      </trkpt>
      <trkpt lat="44.79084" lon="6.57265">
        <ele>1380.611</ele>
        <time>2010-07-04T11:42:31Z</time>
      </trkpt>
      <trkpt lat="44.79095" lon="6.57268">
        <ele>1380.123</ele>
        <time>2010-07-04T11:42:40Z</time>
      </trkpt>
      <trkpt lat="44.79106" lon="6.57262">
        <ele>1383.031</ele>
        <time>2010-07-04T11:42:49Z</time>
      </trkpt>
      <trkpt lat="44.79117" lon="6.57257">
        <ele>1384.911</ele>
        <time>2010-07-04T11:42:57Z</time>
      </trkpt>
      <trkpt lat="44.79129" lon="6.57254">
        <ele>1386.591</ele>
        <time>2010-07-04T11:43:06Z</time>
      </trkpt>
      <trkpt lat="44.7914" lon="6.57262">
        <ele>1388.082</ele>
        <time>2010-07-04T11:43:15Z</time>
      </trkpt>
      <trkpt lat="44.79148" lon="6.57276">
        <ele>1389.812</ele>
        <time>2010-07-04T11:43:24Z</time>
      </trkpt>
      <trkpt lat="44.79159" lon="6.5728">
        <ele>1391.641</ele>
        <time>2010-07-04T11:43:32Z</time>
      </trkpt>
      <trkpt lat="44.79168" lon="6.57281">
        <ele>1393.032</ele>
        <time>2010-07-04T11:43:38Z</time>
      </trkpt>
      <trkpt lat="44.79176" lon="6.5728">
        <ele>1394.702</ele>
        <time>2010-07-04T11:43:44Z</time>
      </trkpt>
      <trkpt lat="44.79187" lon="6.57277">
        <ele>1397.122</ele>
        <time>2010-07-04T11:43:52Z</time>
      </trkpt>
      <trkpt lat="44.792" lon="6.57275">
        <ele>1398.721</ele>
        <time>2010-07-04T11:44:02Z</time>
      </trkpt>
      <trkpt lat="44.7921" lon="6.57274">
        <ele>1400.692</ele>
        <time>2010-07-04T11:44:09Z</time>
      </trkpt>
      <trkpt lat="44.79214" lon="6.57275">
        <ele>1401.142</ele>
        <time>2010-07-04T11:44:12Z</time>
      </trkpt>
      <trkpt lat="44.79224" lon="6.5728">
        <ele>1402.202</ele>
        <time>2010-07-04T11:44:20Z</time>
      </trkpt>
      <trkpt lat="44.79233" lon="6.5729">
        <ele>1404.193</ele>
        <time>2010-07-04T11:44:27Z</time>
      </trkpt>
      <trkpt lat="44.79244" lon="6.573">
        <ele>1405.191</ele>
        <time>2010-07-04T11:44:35Z</time>
      </trkpt>
      <trkpt lat="44.7926" lon="6.5731">
        <ele>1404.521</ele>
        <time>2010-07-04T11:44:43Z</time>
      </trkpt>
      <trkpt lat="44.79276" lon="6.5732">
        <ele>1403.8</ele>
        <time>2010-07-04T11:44:50Z</time>
      </trkpt>
      <trkpt lat="44.79297" lon="6.57322">
        <ele>1401.588</ele>
        <time>2010-07-04T11:44:55Z</time>
      </trkpt>
      <trkpt lat="44.79318" lon="6.57322">
        <ele>1401.461</ele>
        <time>2010-07-04T11:45:00Z</time>
      </trkpt>
      <trkpt lat="44.79335" lon="6.57327">
        <ele>1401.451</ele>
        <time>2010-07-04T11:45:06Z</time>
      </trkpt>
      <trkpt lat="44.79355" lon="6.57331">
        <ele>1400.177</ele>
        <time>2010-07-04T11:45:12Z</time>
      </trkpt>
      <trkpt lat="44.7936" lon="6.57332">
        <ele>1399.878</ele>
        <time>2010-07-04T11:45:13Z</time>
      </trkpt>
      <trkpt lat="44.7938" lon="6.5734">
        <ele>1399.571</ele>
        <time>2010-07-04T11:45:18Z</time>
      </trkpt>
      <trkpt lat="44.79386" lon="6.57344">
        <ele>1400.432</ele>
        <time>2010-07-04T11:45:23Z</time>
      </trkpt>
      <trkpt lat="44.79385" lon="6.57354">
        <ele>1401.202</ele>
        <time>2010-07-04T11:45:29Z</time>
      </trkpt>
      <trkpt lat="44.79377" lon="6.57355">
        <ele>1403.343</ele>
        <time>2010-07-04T11:45:35Z</time>
      </trkpt>
      <trkpt lat="44.79367" lon="6.57352">
        <ele>1407.635</ele>
        <time>2010-07-04T11:45:43Z</time>
      </trkpt>
      <trkpt lat="44.79359" lon="6.57352">
        <ele>1412.164</ele>
        <time>2010-07-04T11:45:51Z</time>
      </trkpt>
      <trkpt lat="44.79356" lon="6.57352">
        <ele>1413.582</ele>
        <time>2010-07-04T11:45:57Z</time>
      </trkpt>
      <trkpt lat="44.79357" lon="6.57352">
        <ele>1413.691</ele>
        <time>2010-07-04T11:46:03Z</time>
      </trkpt>
      <trkpt lat="44.79355" lon="6.5735">
        <ele>1410.441</ele>
        <time>2010-07-04T11:47:48Z</time>
      </trkpt>
      <trkpt lat="44.7935" lon="6.57352">
        <ele>1412.743</ele>
        <time>2010-07-04T11:47:56Z</time>
      </trkpt>
      <trkpt lat="44.7934" lon="6.57353">
        <ele>1415.633</ele>
        <time>2010-07-04T11:48:04Z</time>
      </trkpt>
      <trkpt lat="44.79328" lon="6.57354">
        <ele>1418.873</ele>
        <time>2010-07-04T11:48:13Z</time>
      </trkpt>
      <trkpt lat="44.7932" lon="6.57358">
        <ele>1421.242</ele>
        <time>2010-07-04T11:48:20Z</time>
      </trkpt>
      <trkpt lat="44.79316" lon="6.57358">
        <ele>1416.06</ele>
        <time>2010-07-04T11:48:28Z</time>
      </trkpt>
      <trkpt lat="44.79316" lon="6.57357">
        <ele>1414.1</ele>
        <time>2010-07-04T11:48:36Z</time>
      </trkpt>
      <trkpt lat="44.79316" lon="6.57356">
        <ele>1413.291</ele>
        <time>2010-07-04T11:49:08Z</time>
      </trkpt>
      <trkpt lat="44.79311" lon="6.57361">
        <ele>1414.532</ele>
        <time>2010-07-04T11:49:13Z</time>
      </trkpt>
      <trkpt lat="44.79309" lon="6.57362">
        <ele>1415.102</ele>
        <time>2010-07-04T11:49:15Z</time>
      </trkpt>
      <trkpt lat="44.79303" lon="6.57361">
        <ele>1416.922</ele>
        <time>2010-07-04T11:49:21Z</time>
      </trkpt>
      <trkpt lat="44.79289" lon="6.57358">
        <ele>1419.472</ele>
        <time>2010-07-04T11:49:32Z</time>
      </trkpt>
      <trkpt lat="44.79279" lon="6.57363">
        <ele>1422.203</ele>
        <time>2010-07-04T11:49:40Z</time>
      </trkpt>
      <trkpt lat="44.79278" lon="6.57363">
        <ele>1422.583</ele>
        <time>2010-07-04T11:49:41Z</time>
      </trkpt>
      <trkpt lat="44.79278" lon="6.57361">
        <ele>1423.101</ele>
        <time>2010-07-04T11:49:46Z</time>
      </trkpt>
      <trkpt lat="44.79275" lon="6.57363">
        <ele>1423.251</ele>
        <time>2010-07-04T11:49:54Z</time>
      </trkpt>
      <trkpt lat="44.79271" lon="6.57364">
        <ele>1423.911</ele>
        <time>2010-07-04T11:50:01Z</time>
      </trkpt>
      <trkpt lat="44.79265" lon="6.57365">
        <ele>1425.131</ele>
        <time>2010-07-04T11:50:10Z</time>
      </trkpt>
      <trkpt lat="44.7926" lon="6.57366">
        <ele>1426.872</ele>
        <time>2010-07-04T11:50:19Z</time>
      </trkpt>
      <trkpt lat="44.79255" lon="6.57369">
        <ele>1428.012</ele>
        <time>2010-07-04T11:50:27Z</time>
      </trkpt>
      <trkpt lat="44.79251" lon="6.5737">
        <ele>1428.792</ele>
        <time>2010-07-04T11:50:34Z</time>
      </trkpt>
      <trkpt lat="44.7925" lon="6.57371">
        <ele>1429.051</ele>
        <time>2010-07-04T11:50:40Z</time>
      </trkpt>
      <trkpt lat="44.79243" lon="6.57371">
        <ele>1429.932</ele>
        <time>2010-07-04T11:50:46Z</time>
      </trkpt>
      <trkpt lat="44.79232" lon="6.5737">
        <ele>1431.302</ele>
        <time>2010-07-04T11:50:55Z</time>
      </trkpt>
      <trkpt lat="44.7922" lon="6.5737">
        <ele>1430.211</ele>
        <time>2010-07-04T11:51:02Z</time>
      </trkpt>
      <trkpt lat="44.79202" lon="6.57377">
        <ele>1424.362</ele>
        <time>2010-07-04T11:51:11Z</time>
      </trkpt>
      <trkpt lat="44.79186" lon="6.57383">
        <ele>1421.763</ele>
        <time>2010-07-04T11:51:20Z</time>
      </trkpt>
      <trkpt lat="44.7917" lon="6.57389">
        <ele>1421.123</ele>
        <time>2010-07-04T11:51:29Z</time>
      </trkpt>
      <trkpt lat="44.79168" lon="6.57392">
        <ele>1421.512</ele>
        <time>2010-07-04T11:51:31Z</time>
      </trkpt>
      <trkpt lat="44.79173" lon="6.57397">
        <ele>1421.112</ele>
        <time>2010-07-04T11:51:37Z</time>
      </trkpt>
      <trkpt lat="44.79174" lon="6.57396">
        <ele>1421.292</ele>
        <time>2010-07-04T11:51:38Z</time>
      </trkpt>
      <trkpt lat="44.79186" lon="6.57395">
        <ele>1424.902</ele>
        <time>2010-07-04T11:51:47Z</time>
      </trkpt>
      <trkpt lat="44.79199" lon="6.57397">
        <ele>1427.721</ele>
        <time>2010-07-04T11:51:56Z</time>
      </trkpt>
      <trkpt lat="44.79212" lon="6.57399">
        <ele>1430.942</ele>
        <time>2010-07-04T11:52:04Z</time>
      </trkpt>
      <trkpt lat="44.79229" lon="6.57406">
        <ele>1434.111</ele>
        <time>2010-07-04T11:52:15Z</time>
      </trkpt>
      <trkpt lat="44.79242" lon="6.57411">
        <ele>1436.522</ele>
        <time>2010-07-04T11:52:24Z</time>
      </trkpt>
      <trkpt lat="44.79256" lon="6.57416">
        <ele>1439.743</ele>
        <time>2010-07-04T11:52:32Z</time>
      </trkpt>
      <trkpt lat="44.79266" lon="6.57416">
        <ele>1444.493</ele>
        <time>2010-07-04T11:52:39Z</time>
      </trkpt>
      <trkpt lat="44.79282" lon="6.57421">
        <ele>1447.802</ele>
        <time>2010-07-04T11:52:51Z</time>
      </trkpt>
      <trkpt lat="44.79291" lon="6.57429">
        <ele>1449.802</ele>
        <time>2010-07-04T11:52:59Z</time>
      </trkpt>
      <trkpt lat="44.793" lon="6.57434">
        <ele>1451.442</ele>
        <time>2010-07-04T11:53:06Z</time>
      </trkpt>
      <trkpt lat="44.7931" lon="6.57439">
        <ele>1452.54</ele>
        <time>2010-07-04T11:53:14Z</time>
      </trkpt>
      <trkpt lat="44.79322" lon="6.57444">
        <ele>1454.432</ele>
        <time>2010-07-04T11:53:23Z</time>
      </trkpt>
      <trkpt lat="44.79334" lon="6.57448">
        <ele>1459.264</ele>
        <time>2010-07-04T11:53:33Z</time>
      </trkpt>
      <trkpt lat="44.79344" lon="6.57454">
        <ele>1463.453</ele>
        <time>2010-07-04T11:53:42Z</time>
      </trkpt>
      <trkpt lat="44.79353" lon="6.57461">
        <ele>1465.373</ele>
        <time>2010-07-04T11:53:49Z</time>
      </trkpt>
      <trkpt lat="44.79365" lon="6.57471">
        <ele>1467.302</ele>
        <time>2010-07-04T11:53:59Z</time>
      </trkpt>
      <trkpt lat="44.79376" lon="6.57482">
        <ele>1469.462</ele>
        <time>2010-07-04T11:54:09Z</time>
      </trkpt>
      <trkpt lat="44.79386" lon="6.57487">
        <ele>1469.651</ele>
        <time>2010-07-04T11:54:15Z</time>
      </trkpt>
      <trkpt lat="44.79397" lon="6.57489">
        <ele>1469.722</ele>
        <time>2010-07-04T11:54:22Z</time>
      </trkpt>
      <trkpt lat="44.79413" lon="6.57494">
        <ele>1469.882</ele>
        <time>2010-07-04T11:54:31Z</time>
      </trkpt>
      <trkpt lat="44.79425" lon="6.57501">
        <ele>1471.763</ele>
        <time>2010-07-04T11:54:39Z</time>
      </trkpt>
      <trkpt lat="44.79436" lon="6.57511">
        <ele>1474.142</ele>
        <time>2010-07-04T11:54:48Z</time>
      </trkpt>
      <trkpt lat="44.79451" lon="6.57517">
        <ele>1473.461</ele>
        <time>2010-07-04T11:54:55Z</time>
      </trkpt>
      <trkpt lat="44.7946" lon="6.57528">
        <ele>1473.221</ele>
        <time>2010-07-04T11:55:01Z</time>
      </trkpt>
      <trkpt lat="44.79461" lon="6.5753">
        <ele>1471.281</ele>
        <time>2010-07-04T11:55:12Z</time>
      </trkpt>
      <trkpt lat="44.79463" lon="6.57529">
        <ele>1471.722</ele>
        <time>2010-07-04T11:55:29Z</time>
      </trkpt>
      <trkpt lat="44.79464" lon="6.57528">
        <ele>1473.982</ele>
        <time>2010-07-04T11:55:54Z</time>
      </trkpt>
      <trkpt lat="44.79464" lon="6.57529">
        <ele>1474.221</ele>
        <time>2010-07-04T11:56:07Z</time>
      </trkpt>
      <trkpt lat="44.79464" lon="6.57529">
        <ele>1475.402</ele>
        <time>2010-07-04T11:56:12Z</time>
      </trkpt>
      <trkpt lat="44.79464" lon="6.57529">
        <ele>1475.561</ele>
        <time>2010-07-04T11:56:22Z</time>
      </trkpt>
      <trkpt lat="44.79462" lon="6.5753">
        <ele>1475.161</ele>
        <time>2010-07-04T11:56:27Z</time>
      </trkpt>
      <trkpt lat="44.79463" lon="6.57531">
        <ele>1474.752</ele>
        <time>2010-07-04T11:56:30Z</time>
      </trkpt>
      <trkpt lat="44.79471" lon="6.57541">
        <ele>1474.001</ele>
        <time>2010-07-04T11:56:36Z</time>
      </trkpt>
      <trkpt lat="44.79482" lon="6.57548">
        <ele>1475.103</ele>
        <time>2010-07-04T11:56:43Z</time>
      </trkpt>
      <trkpt lat="44.79486" lon="6.57559">
        <ele>1476.123</ele>
        <time>2010-07-04T11:56:48Z</time>
      </trkpt>
      <trkpt lat="44.79488" lon="6.57568">
        <ele>1476.031</ele>
        <time>2010-07-04T11:56:53Z</time>
      </trkpt>
      <trkpt lat="44.7949" lon="6.57579">
        <ele>1476.362</ele>
        <time>2010-07-04T11:56:58Z</time>
      </trkpt>
      <trkpt lat="44.79493" lon="6.57592">
        <ele>1476.151</ele>
        <time>2010-07-04T11:57:04Z</time>
      </trkpt>
      <trkpt lat="44.79499" lon="6.57603">
        <ele>1475.18</ele>
        <time>2010-07-04T11:57:09Z</time>
      </trkpt>
      <trkpt lat="44.79505" lon="6.57609">
        <ele>1473.787</ele>
        <time>2010-07-04T11:57:12Z</time>
      </trkpt>
      <trkpt lat="44.79508" lon="6.57618">
        <ele>1473.6</ele>
        <time>2010-07-04T11:57:16Z</time>
      </trkpt>
      <trkpt lat="44.79514" lon="6.57631">
        <ele>1474.142</ele>
        <time>2010-07-04T11:57:23Z</time>
      </trkpt>
      <trkpt lat="44.79515" lon="6.57632">
        <ele>1473.972</ele>
        <time>2010-07-04T11:57:24Z</time>
      </trkpt>
      <trkpt lat="44.79525" lon="6.57641">
        <ele>1473.851</ele>
        <time>2010-07-04T11:57:30Z</time>
      </trkpt>
      <trkpt lat="44.79534" lon="6.57641">
        <ele>1470.586</ele>
        <time>2010-07-04T11:57:35Z</time>
      </trkpt>
      <trkpt lat="44.79539" lon="6.57641">
        <ele>1469.327</ele>
        <time>2010-07-04T11:57:37Z</time>
      </trkpt>
      <trkpt lat="44.7954" lon="6.57642">
        <ele>1468.221</ele>
        <time>2010-07-04T11:57:44Z</time>
      </trkpt>
      <trkpt lat="44.79542" lon="6.57643">
        <ele>1467.191</ele>
        <time>2010-07-04T11:57:51Z</time>
      </trkpt>
      <trkpt lat="44.79544" lon="6.57645">
        <ele>1466.551</ele>
        <time>2010-07-04T11:58:04Z</time>
      </trkpt>
      <trkpt lat="44.79548" lon="6.57649">
        <ele>1464.277</ele>
        <time>2010-07-04T11:58:12Z</time>
      </trkpt>
      <trkpt lat="44.79549" lon="6.57651">
        <ele>1463.079</ele>
        <time>2010-07-04T11:58:17Z</time>
      </trkpt>
      <trkpt lat="44.79551" lon="6.57654">
        <ele>1463.141</ele>
        <time>2010-07-04T11:58:23Z</time>
      </trkpt>
      <trkpt lat="44.79554" lon="6.57655">
        <ele>1465.553</ele>
        <time>2010-07-04T11:58:28Z</time>
      </trkpt>
      <trkpt lat="44.79558" lon="6.57656">
        <ele>1467.453</ele>
        <time>2010-07-04T11:58:34Z</time>
      </trkpt>
      <trkpt lat="44.79559" lon="6.57657">
        <ele>1467.842</ele>
        <time>2010-07-04T11:58:38Z</time>
      </trkpt>
      <trkpt lat="44.79562" lon="6.57654">
        <ele>1467.682</ele>
        <time>2010-07-04T11:58:43Z</time>
      </trkpt>
      <trkpt lat="44.79562" lon="6.57655">
        <ele>1467.552</ele>
        <time>2010-07-04T11:58:47Z</time>
      </trkpt>
      <trkpt lat="44.79564" lon="6.57651">
        <ele>1468.751</ele>
        <time>2010-07-04T11:59:07Z</time>
      </trkpt>
      <trkpt lat="44.79564" lon="6.57648">
        <ele>1468.051</ele>
        <time>2010-07-04T11:59:14Z</time>
      </trkpt>
      <trkpt lat="44.79563" lon="6.57645">
        <ele>1465.78</ele>
        <time>2010-07-04T11:59:21Z</time>
      </trkpt>
      <trkpt lat="44.79562" lon="6.57644">
        <ele>1463.701</ele>
        <time>2010-07-04T11:59:27Z</time>
      </trkpt>
      <trkpt lat="44.79564" lon="6.57641">
        <ele>1461.99</ele>
        <time>2010-07-04T11:59:31Z</time>
      </trkpt>
      <trkpt lat="44.79569" lon="6.57633">
        <ele>1461.02</ele>
        <time>2010-07-04T11:59:34Z</time>
      </trkpt>
      <trkpt lat="44.79579" lon="6.57629">
        <ele>1457.899</ele>
        <time>2010-07-04T11:59:39Z</time>
      </trkpt>
      <trkpt lat="44.79586" lon="6.57635">
        <ele>1457.702</ele>
        <time>2010-07-04T11:59:43Z</time>
      </trkpt>
      <trkpt lat="44.79591" lon="6.57638">
        <ele>1456.58</ele>
        <time>2010-07-04T11:59:46Z</time>
      </trkpt>
      <trkpt lat="44.79598" lon="6.57649">
        <ele>1454.659</ele>
        <time>2010-07-04T11:59:50Z</time>
      </trkpt>
      <trkpt lat="44.79606" lon="6.57646">
        <ele>1455.002</ele>
        <time>2010-07-04T11:59:55Z</time>
      </trkpt>
      <trkpt lat="44.79616" lon="6.57645">
        <ele>1455.972</ele>
        <time>2010-07-04T12:00:01Z</time>
      </trkpt>
      <trkpt lat="44.7963" lon="6.57647">
        <ele>1455.289</ele>
        <time>2010-07-04T12:00:06Z</time>
      </trkpt>
      <trkpt lat="44.79643" lon="6.57647">
        <ele>1455.391</ele>
        <time>2010-07-04T12:00:10Z</time>
      </trkpt>
      <trkpt lat="44.79654" lon="6.57643">
        <ele>1455.513</ele>
        <time>2010-07-04T12:00:14Z</time>
      </trkpt>
      <trkpt lat="44.79668" lon="6.57639">
        <ele>1457.213</ele>
        <time>2010-07-04T12:00:21Z</time>
      </trkpt>
      <trkpt lat="44.79682" lon="6.57635">
        <ele>1457.323</ele>
        <time>2010-07-04T12:00:27Z</time>
      </trkpt>
      <trkpt lat="44.79695" lon="6.57625">
        <ele>1457.192</ele>
        <time>2010-07-04T12:00:33Z</time>
      </trkpt>
      <trkpt lat="44.79705" lon="6.57616">
        <ele>1456.602</ele>
        <time>2010-07-04T12:00:38Z</time>
      </trkpt>
      <trkpt lat="44.79708" lon="6.57604">
        <ele>1455.04</ele>
        <time>2010-07-04T12:00:42Z</time>
      </trkpt>
      <trkpt lat="44.79721" lon="6.57601">
        <ele>1452.919</ele>
        <time>2010-07-04T12:00:47Z</time>
      </trkpt>
      <trkpt lat="44.79725" lon="6.576">
        <ele>1452.049</ele>
        <time>2010-07-04T12:00:48Z</time>
      </trkpt>
      <trkpt lat="44.79749" lon="6.57593">
        <ele>1447.287</ele>
        <time>2010-07-04T12:00:53Z</time>
      </trkpt>
      <trkpt lat="44.79778" lon="6.57589">
        <ele>1443.068</ele>
        <time>2010-07-04T12:00:59Z</time>
      </trkpt>
      <trkpt lat="44.79798" lon="6.57588">
        <ele>1439.736</ele>
        <time>2010-07-04T12:01:03Z</time>
      </trkpt>
      <trkpt lat="44.79812" lon="6.57597">
        <ele>1436.707</ele>
        <time>2010-07-04T12:01:07Z</time>
      </trkpt>
      <trkpt lat="44.79821" lon="6.5761">
        <ele>1435.288</ele>
        <time>2010-07-04T12:01:12Z</time>
      </trkpt>
      <trkpt lat="44.79823" lon="6.57623">
        <ele>1433.3</ele>
        <time>2010-07-04T12:01:17Z</time>
      </trkpt>
      <trkpt lat="44.79824" lon="6.5764">
        <ele>1434.512</ele>
        <time>2010-07-04T12:01:24Z</time>
      </trkpt>
      <trkpt lat="44.79824" lon="6.5765">
        <ele>1436.333</ele>
        <time>2010-07-04T12:01:30Z</time>
      </trkpt>
      <trkpt lat="44.79826" lon="6.57652">
        <ele>1436.382</ele>
        <time>2010-07-04T12:01:36Z</time>
      </trkpt>
      <trkpt lat="44.79829" lon="6.57653">
        <ele>1436.912</ele>
        <time>2010-07-04T12:01:45Z</time>
      </trkpt>
      <trkpt lat="44.79836" lon="6.57654">
        <ele>1438.804</ele>
        <time>2010-07-04T12:02:12Z</time>
      </trkpt>
      <trkpt lat="44.79835" lon="6.57658">
        <ele>1442.584</ele>
        <time>2010-07-04T12:02:20Z</time>
      </trkpt>
      <trkpt lat="44.79837" lon="6.57667">
        <ele>1453.344</ele>
        <time>2010-07-04T12:02:49Z</time>
      </trkpt>
      <trkpt lat="44.79839" lon="6.5767">
        <ele>1454.582</ele>
        <time>2010-07-04T12:02:56Z</time>
      </trkpt>
      <trkpt lat="44.79839" lon="6.57673">
        <ele>1454.282</ele>
        <time>2010-07-04T12:03:03Z</time>
      </trkpt>
      <trkpt lat="44.79838" lon="6.57676">
        <ele>1456.703</ele>
        <time>2010-07-04T12:03:14Z</time>
      </trkpt>
      <trkpt lat="44.79844" lon="6.57692">
        <ele>1463.834</ele>
        <time>2010-07-04T12:03:46Z</time>
      </trkpt>
      <trkpt lat="44.79846" lon="6.577">
        <ele>1466.823</ele>
        <time>2010-07-04T12:04:04Z</time>
      </trkpt>
      <trkpt lat="44.79846" lon="6.57706">
        <ele>1467.392</ele>
        <time>2010-07-04T12:04:13Z</time>
      </trkpt>
      <trkpt lat="44.79849" lon="6.57713">
        <ele>1467.714</ele>
        <time>2010-07-04T12:04:24Z</time>
      </trkpt>
      <trkpt lat="44.79853" lon="6.57716">
        <ele>1473.793</ele>
        <time>2010-07-04T12:04:46Z</time>
      </trkpt>
      <trkpt lat="44.79856" lon="6.57719">
        <ele>1475.484</ele>
        <time>2010-07-04T12:04:54Z</time>
      </trkpt>
      <trkpt lat="44.79862" lon="6.57721">
        <ele>1479.914</ele>
        <time>2010-07-04T12:05:10Z</time>
      </trkpt>
      <trkpt lat="44.79862" lon="6.57725">
        <ele>1482.515</ele>
        <time>2010-07-04T12:05:18Z</time>
      </trkpt>
      <trkpt lat="44.79862" lon="6.57729">
        <ele>1484.004</ele>
        <time>2010-07-04T12:05:24Z</time>
      </trkpt>
      <trkpt lat="44.79864" lon="6.57736">
        <ele>1482.933</ele>
        <time>2010-07-04T12:05:31Z</time>
      </trkpt>
      <trkpt lat="44.79864" lon="6.57742">
        <ele>1481.312</ele>
        <time>2010-07-04T12:05:38Z</time>
      </trkpt>
      <trkpt lat="44.79865" lon="6.57745">
        <ele>1480.474</ele>
        <time>2010-07-04T12:05:47Z</time>
      </trkpt>
      <trkpt lat="44.7987" lon="6.57751">
        <ele>1482.123</ele>
        <time>2010-07-04T12:06:03Z</time>
      </trkpt>
      <trkpt lat="44.79872" lon="6.57755">
        <ele>1482.043</ele>
        <time>2010-07-04T12:06:13Z</time>
      </trkpt>
      <trkpt lat="44.79876" lon="6.57762">
        <ele>1482.163</ele>
        <time>2010-07-04T12:06:27Z</time>
      </trkpt>
      <trkpt lat="44.79879" lon="6.57766">
        <ele>1482.544</ele>
        <time>2010-07-04T12:06:37Z</time>
      </trkpt>
      <trkpt lat="44.79884" lon="6.57772">
        <ele>1487.404</ele>
        <time>2010-07-04T12:06:54Z</time>
      </trkpt>
      <trkpt lat="44.79889" lon="6.57777">
        <ele>1489.603</ele>
        <time>2010-07-04T12:07:09Z</time>
      </trkpt>
      <trkpt lat="44.79891" lon="6.57781">
        <ele>1489.683</ele>
        <time>2010-07-04T12:07:15Z</time>
      </trkpt>
      <trkpt lat="44.79893" lon="6.57785">
        <ele>1491.054</ele>
        <time>2010-07-04T12:07:23Z</time>
      </trkpt>
      <trkpt lat="44.79896" lon="6.57787">
        <ele>1493.655</ele>
        <time>2010-07-04T12:07:30Z</time>
      </trkpt>
      <trkpt lat="44.799" lon="6.57791">
        <ele>1498.415</ele>
        <time>2010-07-04T12:07:41Z</time>
      </trkpt>
      <trkpt lat="44.79901" lon="6.57795">
        <ele>1499.214</ele>
        <time>2010-07-04T12:07:46Z</time>
      </trkpt>
      <trkpt lat="44.79903" lon="6.578">
        <ele>1497.986</ele>
        <time>2010-07-04T12:07:54Z</time>
      </trkpt>
      <trkpt lat="44.79905" lon="6.57806">
        <ele>1495.283</ele>
        <time>2010-07-04T12:08:00Z</time>
      </trkpt>
      <trkpt lat="44.79908" lon="6.57811">
        <ele>1499.784</ele>
        <time>2010-07-04T12:08:15Z</time>
      </trkpt>
      <trkpt lat="44.79911" lon="6.57822">
        <ele>1496.513</ele>
        <time>2010-07-04T12:08:22Z</time>
      </trkpt>
      <trkpt lat="44.79911" lon="6.57825">
        <ele>1498.435</ele>
        <time>2010-07-04T12:08:27Z</time>
      </trkpt>
      <trkpt lat="44.79913" lon="6.57841">
        <ele>1497.934</ele>
        <time>2010-07-04T12:08:51Z</time>
      </trkpt>
      <trkpt lat="44.79914" lon="6.57849">
        <ele>1498.733</ele>
        <time>2010-07-04T12:09:09Z</time>
      </trkpt>
      <trkpt lat="44.79912" lon="6.57852">
        <ele>1499.545</ele>
        <time>2010-07-04T12:09:15Z</time>
      </trkpt>
      <trkpt lat="44.79911" lon="6.57855">
        <ele>1501.484</ele>
        <time>2010-07-04T12:09:22Z</time>
      </trkpt>
      <trkpt lat="44.79928" lon="6.57912">
        <ele>1538.784</ele>
        <time>2010-07-04T12:11:50Z</time>
      </trkpt>
      <trkpt lat="44.79929" lon="6.57921">
        <ele>1536.404</ele>
        <time>2010-07-04T12:12:01Z</time>
      </trkpt>
      <trkpt lat="44.79932" lon="6.57934">
        <ele>1529.782</ele>
        <time>2010-07-04T12:12:14Z</time>
      </trkpt>
      <trkpt lat="44.79934" lon="6.57937">
        <ele>1528.513</ele>
        <time>2010-07-04T12:12:17Z</time>
      </trkpt>
      <trkpt lat="44.79938" lon="6.57941">
        <ele>1528.123</ele>
        <time>2010-07-04T12:12:21Z</time>
      </trkpt>
      <trkpt lat="44.79946" lon="6.57956">
        <ele>1528.933</ele>
        <time>2010-07-04T12:12:27Z</time>
      </trkpt>
      <trkpt lat="44.79952" lon="6.57977">
        <ele>1528.282</ele>
        <time>2010-07-04T12:12:32Z</time>
      </trkpt>
      <trkpt lat="44.79958" lon="6.57988">
        <ele>1529.394</ele>
        <time>2010-07-04T12:12:38Z</time>
      </trkpt>
      <trkpt lat="44.79965" lon="6.58">
        <ele>1532.416</ele>
        <time>2010-07-04T12:12:46Z</time>
      </trkpt>
      <trkpt lat="44.79975" lon="6.58011">
        <ele>1536.806</ele>
        <time>2010-07-04T12:12:55Z</time>
      </trkpt>
      <trkpt lat="44.7998" lon="6.58029">
        <ele>1536.623</ele>
        <time>2010-07-04T12:13:04Z</time>
      </trkpt>
      <trkpt lat="44.79983" lon="6.58052">
        <ele>1532.772</ele>
        <time>2010-07-04T12:13:12Z</time>
      </trkpt>
      <trkpt lat="44.79983" lon="6.58057">
        <ele>1532.001</ele>
        <time>2010-07-04T12:13:16Z</time>
      </trkpt>
      <trkpt lat="44.79983" lon="6.5806">
        <ele>1530.692</ele>
        <time>2010-07-04T12:13:24Z</time>
      </trkpt>
      <trkpt lat="44.79989" lon="6.5807">
        <ele>1537.131</ele>
        <time>2010-07-04T12:15:00Z</time>
      </trkpt>
      <trkpt lat="44.79989" lon="6.58069">
        <ele>1536.393</ele>
        <time>2010-07-04T12:15:08Z</time>
      </trkpt>
      <trkpt lat="44.79985" lon="6.58066">
        <ele>1530.713</ele>
        <time>2010-07-04T12:15:23Z</time>
      </trkpt>
      <trkpt lat="44.79982" lon="6.58069">
        <ele>1524.293</ele>
        <time>2010-07-04T12:15:47Z</time>
      </trkpt>
      <trkpt lat="44.79985" lon="6.58084">
        <ele>1526.083</ele>
        <time>2010-07-04T12:15:54Z</time>
      </trkpt>
      <trkpt lat="44.7999" lon="6.581">
        <ele>1528.383</ele>
        <time>2010-07-04T12:16:01Z</time>
      </trkpt>
      <trkpt lat="44.79999" lon="6.58113">
        <ele>1531.125</ele>
        <time>2010-07-04T12:16:08Z</time>
      </trkpt>
      <trkpt lat="44.80008" lon="6.58126">
        <ele>1534.536</ele>
        <time>2010-07-04T12:16:15Z</time>
      </trkpt>
      <trkpt lat="44.80021" lon="6.5814">
        <ele>1536.014</ele>
        <time>2010-07-04T12:16:22Z</time>
      </trkpt>
      <trkpt lat="44.80038" lon="6.58159">
        <ele>1538.103</ele>
        <time>2010-07-04T12:16:29Z</time>
      </trkpt>
      <trkpt lat="44.80046" lon="6.58169">
        <ele>1538.373</ele>
        <time>2010-07-04T12:16:32Z</time>
      </trkpt>
      <trkpt lat="44.80052" lon="6.58196">
        <ele>1536.342</ele>
        <time>2010-07-04T12:16:36Z</time>
      </trkpt>
      <trkpt lat="44.80058" lon="6.58228">
        <ele>1534.381</ele>
        <time>2010-07-04T12:16:40Z</time>
      </trkpt>
      <trkpt lat="44.80064" lon="6.58266">
        <ele>1530.21</ele>
        <time>2010-07-04T12:16:45Z</time>
      </trkpt>
      <trkpt lat="44.80064" lon="6.58278">
        <ele>1529.561</ele>
        <time>2010-07-04T12:16:47Z</time>
      </trkpt>
      <trkpt lat="44.80075" lon="6.58285">
        <ele>1528.261</ele>
        <time>2010-07-04T12:16:52Z</time>
      </trkpt>
      <trkpt lat="44.80079" lon="6.58283">
        <ele>1528.951</ele>
        <time>2010-07-04T12:16:53Z</time>
      </trkpt>
      <trkpt lat="44.80105" lon="6.58261">
        <ele>1526.85</ele>
        <time>2010-07-04T12:17:00Z</time>
      </trkpt>
      <trkpt lat="44.80122" lon="6.58233">
        <ele>1527.311</ele>
        <time>2010-07-04T12:17:05Z</time>
      </trkpt>
      <trkpt lat="44.80142" lon="6.58221">
        <ele>1525.651</ele>
        <time>2010-07-04T12:17:09Z</time>
      </trkpt>
      <trkpt lat="44.80153" lon="6.5823">
        <ele>1524.06</ele>
        <time>2010-07-04T12:17:12Z</time>
      </trkpt>
      <trkpt lat="44.80161" lon="6.58259">
        <ele>1519.62</ele>
        <time>2010-07-04T12:17:16Z</time>
      </trkpt>
      <trkpt lat="44.80172" lon="6.58276">
        <ele>1517.88</ele>
        <time>2010-07-04T12:17:19Z</time>
      </trkpt>
      <trkpt lat="44.80177" lon="6.58278">
        <ele>1517.51</ele>
        <time>2010-07-04T12:17:20Z</time>
      </trkpt>
      <trkpt lat="44.80196" lon="6.58281">
        <ele>1515.069</ele>
        <time>2010-07-04T12:17:23Z</time>
      </trkpt>
      <trkpt lat="44.80225" lon="6.58298">
        <ele>1512.56</ele>
        <time>2010-07-04T12:17:28Z</time>
      </trkpt>
      <trkpt lat="44.80233" lon="6.58322">
        <ele>1509.749</ele>
        <time>2010-07-04T12:17:31Z</time>
      </trkpt>
      <trkpt lat="44.80241" lon="6.58345">
        <ele>1506.669</ele>
        <time>2010-07-04T12:17:34Z</time>
      </trkpt>
      <trkpt lat="44.80252" lon="6.5835">
        <ele>1504.84</ele>
        <time>2010-07-04T12:17:36Z</time>
      </trkpt>
      <trkpt lat="44.80269" lon="6.58339">
        <ele>1501.99</ele>
        <time>2010-07-04T12:17:39Z</time>
      </trkpt>
      <trkpt lat="44.80296" lon="6.58322">
        <ele>1499.581</ele>
        <time>2010-07-04T12:17:44Z</time>
      </trkpt>
      <trkpt lat="44.80304" lon="6.58333">
        <ele>1499.061</ele>
        <time>2010-07-04T12:17:46Z</time>
      </trkpt>
      <trkpt lat="44.80309" lon="6.58359">
        <ele>1499.262</ele>
        <time>2010-07-04T12:17:50Z</time>
      </trkpt>
      <trkpt lat="44.80322" lon="6.5839">
        <ele>1500.412</ele>
        <time>2010-07-04T12:17:54Z</time>
      </trkpt>
      <trkpt lat="44.80327" lon="6.58423">
        <ele>1498.482</ele>
        <time>2010-07-04T12:17:58Z</time>
      </trkpt>
      <trkpt lat="44.8033" lon="6.58451">
        <ele>1497.843</ele>
        <time>2010-07-04T12:18:03Z</time>
      </trkpt>
      <trkpt lat="44.80338" lon="6.58453">
        <ele>1499.824</ele>
        <time>2010-07-04T12:18:07Z</time>
      </trkpt>
      <trkpt lat="44.80342" lon="6.58452">
        <ele>1501.405</ele>
        <time>2010-07-04T12:18:09Z</time>
      </trkpt>
      <trkpt lat="44.80354" lon="6.58451">
        <ele>1503.565</ele>
        <time>2010-07-04T12:18:15Z</time>
      </trkpt>
      <trkpt lat="44.80368" lon="6.58456">
        <ele>1503.684</ele>
        <time>2010-07-04T12:18:22Z</time>
      </trkpt>
      <trkpt lat="44.80377" lon="6.58467">
        <ele>1503.675</ele>
        <time>2010-07-04T12:18:28Z</time>
      </trkpt>
      <trkpt lat="44.80388" lon="6.58471">
        <ele>1504.785</ele>
        <time>2010-07-04T12:18:35Z</time>
      </trkpt>
      <trkpt lat="44.80395" lon="6.58464">
        <ele>1507.046</ele>
        <time>2010-07-04T12:18:42Z</time>
      </trkpt>
      <trkpt lat="44.804" lon="6.58457">
        <ele>1509.868</ele>
        <time>2010-07-04T12:18:47Z</time>
      </trkpt>
      <trkpt lat="44.80412" lon="6.58444">
        <ele>1511.797</ele>
        <time>2010-07-04T12:18:56Z</time>
      </trkpt>
      <trkpt lat="44.80427" lon="6.58437">
        <ele>1512.696</ele>
        <time>2010-07-04T12:19:05Z</time>
      </trkpt>
      <trkpt lat="44.80441" lon="6.58436">
        <ele>1515.467</ele>
        <time>2010-07-04T12:19:14Z</time>
      </trkpt>
      <trkpt lat="44.80456" lon="6.58433">
        <ele>1518.166</ele>
        <time>2010-07-04T12:19:23Z</time>
      </trkpt>
      <trkpt lat="44.80469" lon="6.58428">
        <ele>1520.387</ele>
        <time>2010-07-04T12:19:31Z</time>
      </trkpt>
      <trkpt lat="44.80472" lon="6.58426">
        <ele>1521.367</ele>
        <time>2010-07-04T12:19:33Z</time>
      </trkpt>
      <trkpt lat="44.80479" lon="6.58417">
        <ele>1522.336</ele>
        <time>2010-07-04T12:19:40Z</time>
      </trkpt>
      <trkpt lat="44.80484" lon="6.58408">
        <ele>1521.996</ele>
        <time>2010-07-04T12:19:46Z</time>
      </trkpt>
      <trkpt lat="44.80486" lon="6.58405">
        <ele>1520.397</ele>
        <time>2010-07-04T12:19:49Z</time>
      </trkpt>
      <trkpt lat="44.80488" lon="6.58402">
        <ele>1520.828</ele>
        <time>2010-07-04T12:19:51Z</time>
      </trkpt>
      <trkpt lat="44.80494" lon="6.58391">
        <ele>1522.667</ele>
        <time>2010-07-04T12:19:58Z</time>
      </trkpt>
      <trkpt lat="44.80501" lon="6.58386">
        <ele>1521.356</ele>
        <time>2010-07-04T12:20:02Z</time>
      </trkpt>
      <trkpt lat="44.80511" lon="6.58379">
        <ele>1520.106</ele>
        <time>2010-07-04T12:20:08Z</time>
      </trkpt>
      <trkpt lat="44.80522" lon="6.58372">
        <ele>1521.286</ele>
        <time>2010-07-04T12:20:15Z</time>
      </trkpt>
      <trkpt lat="44.80528" lon="6.58369">
        <ele>1521.966</ele>
        <time>2010-07-04T12:20:19Z</time>
      </trkpt>
      <trkpt lat="44.80542" lon="6.58362">
        <ele>1525.346</ele>
        <time>2010-07-04T12:20:28Z</time>
      </trkpt>
      <trkpt lat="44.80552" lon="6.58357">
        <ele>1525.196</ele>
        <time>2010-07-04T12:20:35Z</time>
      </trkpt>
      <trkpt lat="44.80563" lon="6.58357">
        <ele>1523.775</ele>
        <time>2010-07-04T12:20:41Z</time>
      </trkpt>
      <trkpt lat="44.80577" lon="6.58346">
        <ele>1525.046</ele>
        <time>2010-07-04T12:20:50Z</time>
      </trkpt>
      <trkpt lat="44.80593" lon="6.58339">
        <ele>1525.575</ele>
        <time>2010-07-04T12:20:59Z</time>
      </trkpt>
      <trkpt lat="44.80608" lon="6.58332">
        <ele>1527.167</ele>
        <time>2010-07-04T12:21:08Z</time>
      </trkpt>
      <trkpt lat="44.80622" lon="6.58321">
        <ele>1528.066</ele>
        <time>2010-07-04T12:21:18Z</time>
      </trkpt>
      <trkpt lat="44.80632" lon="6.5831">
        <ele>1528.077</ele>
        <time>2010-07-04T12:21:26Z</time>
      </trkpt>
      <trkpt lat="44.80642" lon="6.58305">
        <ele>1529.187</ele>
        <time>2010-07-04T12:21:33Z</time>
      </trkpt>
      <trkpt lat="44.8066" lon="6.58298">
        <ele>1531.396</ele>
        <time>2010-07-04T12:21:44Z</time>
      </trkpt>
      <trkpt lat="44.80668" lon="6.58297">
        <ele>1531.896</ele>
        <time>2010-07-04T12:21:49Z</time>
      </trkpt>
      <trkpt lat="44.80681" lon="6.58298">
        <ele>1534.207</ele>
        <time>2010-07-04T12:21:58Z</time>
      </trkpt>
      <trkpt lat="44.8069" lon="6.583">
        <ele>1536.287</ele>
        <time>2010-07-04T12:22:05Z</time>
      </trkpt>
      <trkpt lat="44.80701" lon="6.58302">
        <ele>1539.576</ele>
        <time>2010-07-04T12:22:13Z</time>
      </trkpt>
      <trkpt lat="44.80717" lon="6.58296">
        <ele>1540.737</ele>
        <time>2010-07-04T12:22:23Z</time>
      </trkpt>
      <trkpt lat="44.80727" lon="6.58289">
        <ele>1541.067</ele>
        <time>2010-07-04T12:22:30Z</time>
      </trkpt>
      <trkpt lat="44.80739" lon="6.58284">
        <ele>1541.166</ele>
        <time>2010-07-04T12:22:37Z</time>
      </trkpt>
      <trkpt lat="44.80751" lon="6.58282">
        <ele>1543.658</ele>
        <time>2010-07-04T12:22:44Z</time>
      </trkpt>
      <trkpt lat="44.80762" lon="6.58278">
        <ele>1546.778</ele>
        <time>2010-07-04T12:22:51Z</time>
      </trkpt>
      <trkpt lat="44.80775" lon="6.58276">
        <ele>1546.166</ele>
        <time>2010-07-04T12:22:59Z</time>
      </trkpt>
      <trkpt lat="44.8078" lon="6.58286">
        <ele>1545.466</ele>
        <time>2010-07-04T12:23:05Z</time>
      </trkpt>
      <trkpt lat="44.80777" lon="6.58294">
        <ele>1545.836</ele>
        <time>2010-07-04T12:23:09Z</time>
      </trkpt>
      <trkpt lat="44.80769" lon="6.58294">
        <ele>1544.644</ele>
        <time>2010-07-04T12:23:14Z</time>
      </trkpt>
      <trkpt lat="44.80753" lon="6.58295">
        <ele>1542.785</ele>
        <time>2010-07-04T12:23:25Z</time>
      </trkpt>
      <trkpt lat="44.80743" lon="6.583">
        <ele>1542.635</ele>
        <time>2010-07-04T12:23:32Z</time>
      </trkpt>
      <trkpt lat="44.80735" lon="6.58313">
        <ele>1543.937</ele>
        <time>2010-07-04T12:23:40Z</time>
      </trkpt>
      <trkpt lat="44.8073" lon="6.58326">
        <ele>1545.706</ele>
        <time>2010-07-04T12:23:47Z</time>
      </trkpt>
      <trkpt lat="44.80722" lon="6.58341">
        <ele>1547.556</ele>
        <time>2010-07-04T12:23:55Z</time>
      </trkpt>
      <trkpt lat="44.80717" lon="6.58345">
        <ele>1548.883</ele>
        <time>2010-07-04T12:23:59Z</time>
      </trkpt>
      <trkpt lat="44.80712" lon="6.58354">
        <ele>1546.965</ele>
        <time>2010-07-04T12:24:04Z</time>
      </trkpt>
      <trkpt lat="44.80701" lon="6.58372">
        <ele>1547.387</ele>
        <time>2010-07-04T12:24:15Z</time>
      </trkpt>
      <trkpt lat="44.8069" lon="6.58388">
        <ele>1548.345</ele>
        <time>2010-07-04T12:24:25Z</time>
      </trkpt>
      <trkpt lat="44.80683" lon="6.58402">
        <ele>1549.175</ele>
        <time>2010-07-04T12:24:33Z</time>
      </trkpt>
      <trkpt lat="44.80689" lon="6.5841">
        <ele>1551.177</ele>
        <time>2010-07-04T12:24:39Z</time>
      </trkpt>
      <trkpt lat="44.80699" lon="6.58407">
        <ele>1552.897</ele>
        <time>2010-07-04T12:24:45Z</time>
      </trkpt>
      <trkpt lat="44.8071" lon="6.58394">
        <ele>1554.367</ele>
        <time>2010-07-04T12:24:53Z</time>
      </trkpt>
      <trkpt lat="44.8072" lon="6.58385">
        <ele>1556.034</ele>
        <time>2010-07-04T12:25:00Z</time>
      </trkpt>
      <trkpt lat="44.80734" lon="6.58376">
        <ele>1558.717</ele>
        <time>2010-07-04T12:25:08Z</time>
      </trkpt>
      <trkpt lat="44.80749" lon="6.58372">
        <ele>1562.537</ele>
        <time>2010-07-04T12:25:17Z</time>
      </trkpt>
      <trkpt lat="44.8076" lon="6.58377">
        <ele>1564.576</ele>
        <time>2010-07-04T12:25:24Z</time>
      </trkpt>
      <trkpt lat="44.80766" lon="6.58384">
        <ele>1564.426</ele>
        <time>2010-07-04T12:25:30Z</time>
      </trkpt>
      <trkpt lat="44.80774" lon="6.58391">
        <ele>1566.286</ele>
        <time>2010-07-04T12:25:37Z</time>
      </trkpt>
      <trkpt lat="44.80782" lon="6.58401">
        <ele>1568.828</ele>
        <time>2010-07-04T12:25:45Z</time>
      </trkpt>
      <trkpt lat="44.80786" lon="6.58416">
        <ele>1571.238</ele>
        <time>2010-07-04T12:25:53Z</time>
      </trkpt>
      <trkpt lat="44.80781" lon="6.58435">
        <ele>1569.445</ele>
        <time>2010-07-04T12:26:01Z</time>
      </trkpt>
      <trkpt lat="44.80774" lon="6.58455">
        <ele>1569.136</ele>
        <time>2010-07-04T12:26:10Z</time>
      </trkpt>
      <trkpt lat="44.80766" lon="6.5847">
        <ele>1569.976</ele>
        <time>2010-07-04T12:26:18Z</time>
      </trkpt>
      <trkpt lat="44.80757" lon="6.58476">
        <ele>1570.436</ele>
        <time>2010-07-04T12:26:25Z</time>
      </trkpt>
      <trkpt lat="44.80747" lon="6.58478">
        <ele>1571.126</ele>
        <time>2010-07-04T12:26:32Z</time>
      </trkpt>
      <trkpt lat="44.80734" lon="6.58478">
        <ele>1570.745</ele>
        <time>2010-07-04T12:26:41Z</time>
      </trkpt>
      <trkpt lat="44.80723" lon="6.58485">
        <ele>1572.686</ele>
        <time>2010-07-04T12:26:49Z</time>
      </trkpt>
      <trkpt lat="44.80712" lon="6.58494">
        <ele>1573.967</ele>
        <time>2010-07-04T12:26:57Z</time>
      </trkpt>
      <trkpt lat="44.80703" lon="6.585">
        <ele>1575.947</ele>
        <time>2010-07-04T12:27:04Z</time>
      </trkpt>
      <trkpt lat="44.80693" lon="6.58508">
        <ele>1577.736</ele>
        <time>2010-07-04T12:27:12Z</time>
      </trkpt>
      <trkpt lat="44.80685" lon="6.58518">
        <ele>1577.035</ele>
        <time>2010-07-04T12:27:19Z</time>
      </trkpt>
      <trkpt lat="44.80677" lon="6.58526">
        <ele>1578.535</ele>
        <time>2010-07-04T12:27:26Z</time>
      </trkpt>
      <trkpt lat="44.80664" lon="6.58539">
        <ele>1580.434</ele>
        <time>2010-07-04T12:27:36Z</time>
      </trkpt>
      <trkpt lat="44.80655" lon="6.58546">
        <ele>1580.755</ele>
        <time>2010-07-04T12:27:43Z</time>
      </trkpt>
      <trkpt lat="44.80642" lon="6.58555">
        <ele>1581.515</ele>
        <time>2010-07-04T12:27:52Z</time>
      </trkpt>
      <trkpt lat="44.80627" lon="6.58553">
        <ele>1583.025</ele>
        <time>2010-07-04T12:28:01Z</time>
      </trkpt>
      <trkpt lat="44.80615" lon="6.58551">
        <ele>1584.395</ele>
        <time>2010-07-04T12:28:08Z</time>
      </trkpt>
      <trkpt lat="44.80605" lon="6.5855">
        <ele>1586.567</ele>
        <time>2010-07-04T12:28:15Z</time>
      </trkpt>
      <trkpt lat="44.80594" lon="6.58548">
        <ele>1587.506</ele>
        <time>2010-07-04T12:28:22Z</time>
      </trkpt>
      <trkpt lat="44.80582" lon="6.58545">
        <ele>1587.705</ele>
        <time>2010-07-04T12:28:29Z</time>
      </trkpt>
      <trkpt lat="44.8057" lon="6.58545">
        <ele>1587.705</ele>
        <time>2010-07-04T12:28:37Z</time>
      </trkpt>
      <trkpt lat="44.80566" lon="6.58545">
        <ele>1587.715</ele>
        <time>2010-07-04T12:28:40Z</time>
      </trkpt>
      <trkpt lat="44.80563" lon="6.58556">
        <ele>1587.835</ele>
        <time>2010-07-04T12:28:46Z</time>
      </trkpt>
      <trkpt lat="44.80567" lon="6.5856">
        <ele>1588.596</ele>
        <time>2010-07-04T12:28:49Z</time>
      </trkpt>
      <trkpt lat="44.80582" lon="6.58563">
        <ele>1592.327</ele>
        <time>2010-07-04T12:28:58Z</time>
      </trkpt>
      <trkpt lat="44.80598" lon="6.58568">
        <ele>1594.906</ele>
        <time>2010-07-04T12:29:07Z</time>
      </trkpt>
      <trkpt lat="44.80611" lon="6.58578">
        <ele>1596.066</ele>
        <time>2010-07-04T12:29:15Z</time>
      </trkpt>
      <trkpt lat="44.80629" lon="6.58586">
        <ele>1597.486</ele>
        <time>2010-07-04T12:29:24Z</time>
      </trkpt>
      <trkpt lat="44.80643" lon="6.58585">
        <ele>1600.918</ele>
        <time>2010-07-04T12:29:31Z</time>
      </trkpt>
      <trkpt lat="44.80656" lon="6.58586">
        <ele>1602.887</ele>
        <time>2010-07-04T12:29:38Z</time>
      </trkpt>
      <trkpt lat="44.80672" lon="6.58584">
        <ele>1602.256</ele>
        <time>2010-07-04T12:29:46Z</time>
      </trkpt>
      <trkpt lat="44.80688" lon="6.58585">
        <ele>1604.988</ele>
        <time>2010-07-04T12:29:54Z</time>
      </trkpt>
      <trkpt lat="44.80703" lon="6.5859">
        <ele>1606.997</ele>
        <time>2010-07-04T12:30:02Z</time>
      </trkpt>
      <trkpt lat="44.80711" lon="6.58595">
        <ele>1607.395</ele>
        <time>2010-07-04T12:30:08Z</time>
      </trkpt>
      <trkpt lat="44.80721" lon="6.58605">
        <ele>1608.296</ele>
        <time>2010-07-04T12:30:15Z</time>
      </trkpt>
      <trkpt lat="44.80736" lon="6.5862">
        <ele>1610.127</ele>
        <time>2010-07-04T12:30:24Z</time>
      </trkpt>
      <trkpt lat="44.80747" lon="6.58627">
        <ele>1610.526</ele>
        <time>2010-07-04T12:30:30Z</time>
      </trkpt>
      <trkpt lat="44.80756" lon="6.5863">
        <ele>1614.929</ele>
        <time>2010-07-04T12:30:36Z</time>
      </trkpt>
      <trkpt lat="44.8077" lon="6.58636">
        <ele>1619.48</ele>
        <time>2010-07-04T12:30:44Z</time>
      </trkpt>
      <trkpt lat="44.80786" lon="6.58642">
        <ele>1621.438</ele>
        <time>2010-07-04T12:30:52Z</time>
      </trkpt>
      <trkpt lat="44.80801" lon="6.58645">
        <ele>1624.679</ele>
        <time>2010-07-04T12:31:00Z</time>
      </trkpt>
      <trkpt lat="44.80815" lon="6.58647">
        <ele>1631.201</ele>
        <time>2010-07-04T12:31:08Z</time>
      </trkpt>
      <trkpt lat="44.80829" lon="6.58648">
        <ele>1634.249</ele>
        <time>2010-07-04T12:31:15Z</time>
      </trkpt>
      <trkpt lat="44.80853" lon="6.58651">
        <ele>1623.286</ele>
        <time>2010-07-04T12:31:25Z</time>
      </trkpt>
      <trkpt lat="44.80868" lon="6.58645">
        <ele>1623.296</ele>
        <time>2010-07-04T12:31:32Z</time>
      </trkpt>
      <trkpt lat="44.80883" lon="6.58646">
        <ele>1625.688</ele>
        <time>2010-07-04T12:31:40Z</time>
      </trkpt>
      <trkpt lat="44.80896" lon="6.58657">
        <ele>1625.988</ele>
        <time>2010-07-04T12:31:47Z</time>
      </trkpt>
      <trkpt lat="44.80909" lon="6.58674">
        <ele>1625.967</ele>
        <time>2010-07-04T12:31:55Z</time>
      </trkpt>
      <trkpt lat="44.80917" lon="6.58677">
        <ele>1625.768</ele>
        <time>2010-07-04T12:32:00Z</time>
      </trkpt>
      <trkpt lat="44.80935" lon="6.58679">
        <ele>1627.159</ele>
        <time>2010-07-04T12:32:07Z</time>
      </trkpt>
      <trkpt lat="44.80951" lon="6.58682">
        <ele>1629.909</ele>
        <time>2010-07-04T12:32:14Z</time>
      </trkpt>
      <trkpt lat="44.80968" lon="6.58688">
        <ele>1627.637</ele>
        <time>2010-07-04T12:32:21Z</time>
      </trkpt>
      <trkpt lat="44.80984" lon="6.58697">
        <ele>1625.576</ele>
        <time>2010-07-04T12:32:28Z</time>
      </trkpt>
      <trkpt lat="44.81001" lon="6.58712">
        <ele>1625.237</ele>
        <time>2010-07-04T12:32:36Z</time>
      </trkpt>
      <trkpt lat="44.81018" lon="6.58732">
        <ele>1625.676</ele>
        <time>2010-07-04T12:32:45Z</time>
      </trkpt>
      <trkpt lat="44.81035" lon="6.5874">
        <ele>1626.437</ele>
        <time>2010-07-04T12:32:52Z</time>
      </trkpt>
      <trkpt lat="44.81057" lon="6.58744">
        <ele>1628.688</ele>
        <time>2010-07-04T12:33:00Z</time>
      </trkpt>
      <trkpt lat="44.81076" lon="6.58735">
        <ele>1631.999</ele>
        <time>2010-07-04T12:33:07Z</time>
      </trkpt>
      <trkpt lat="44.81098" lon="6.58727">
        <ele>1635.349</ele>
        <time>2010-07-04T12:33:15Z</time>
      </trkpt>
      <trkpt lat="44.81123" lon="6.58724">
        <ele>1633.818</ele>
        <time>2010-07-04T12:33:23Z</time>
      </trkpt>
      <trkpt lat="44.81143" lon="6.5873">
        <ele>1636.919</ele>
        <time>2010-07-04T12:33:30Z</time>
      </trkpt>
      <trkpt lat="44.81162" lon="6.58729">
        <ele>1639.288</ele>
        <time>2010-07-04T12:33:37Z</time>
      </trkpt>
      <trkpt lat="44.81183" lon="6.58722">
        <ele>1641.898</ele>
        <time>2010-07-04T12:33:45Z</time>
      </trkpt>
      <trkpt lat="44.81199" lon="6.58713">
        <ele>1642.989</ele>
        <time>2010-07-04T12:33:52Z</time>
      </trkpt>
      <trkpt lat="44.81217" lon="6.58709">
        <ele>1644.187</ele>
        <time>2010-07-04T12:33:59Z</time>
      </trkpt>
      <trkpt lat="44.81234" lon="6.58702">
        <ele>1644.077</ele>
        <time>2010-07-04T12:34:06Z</time>
      </trkpt>
      <trkpt lat="44.8125" lon="6.58704">
        <ele>1646.159</ele>
        <time>2010-07-04T12:34:13Z</time>
      </trkpt>
      <trkpt lat="44.81263" lon="6.58719">
        <ele>1640.086</ele>
        <time>2010-07-04T12:34:19Z</time>
      </trkpt>
      <trkpt lat="44.81276" lon="6.58727">
        <ele>1638.456</ele>
        <time>2010-07-04T12:34:25Z</time>
      </trkpt>
      <trkpt lat="44.81295" lon="6.58728">
        <ele>1641.738</ele>
        <time>2010-07-04T12:34:32Z</time>
      </trkpt>
      <trkpt lat="44.81315" lon="6.58721">
        <ele>1644.199</ele>
        <time>2010-07-04T12:34:39Z</time>
      </trkpt>
      <trkpt lat="44.81332" lon="6.58723">
        <ele>1646.139</ele>
        <time>2010-07-04T12:34:47Z</time>
      </trkpt>
      <trkpt lat="44.81344" lon="6.58727">
        <ele>1645.997</ele>
        <time>2010-07-04T12:34:54Z</time>
      </trkpt>
      <trkpt lat="44.81355" lon="6.58732">
        <ele>1644.948</ele>
        <time>2010-07-04T12:35:01Z</time>
      </trkpt>
      <trkpt lat="44.81368" lon="6.5874">
        <ele>1644.037</ele>
        <time>2010-07-04T12:35:09Z</time>
      </trkpt>
      <trkpt lat="44.81381" lon="6.58748">
        <ele>1643.427</ele>
        <time>2010-07-04T12:35:17Z</time>
      </trkpt>
      <trkpt lat="44.81397" lon="6.58759">
        <ele>1643.257</ele>
        <time>2010-07-04T12:35:27Z</time>
      </trkpt>
      <trkpt lat="44.81411" lon="6.58767">
        <ele>1643.437</ele>
        <time>2010-07-04T12:35:35Z</time>
      </trkpt>
      <trkpt lat="44.81424" lon="6.58775">
        <ele>1643.997</ele>
        <time>2010-07-04T12:35:44Z</time>
      </trkpt>
      <trkpt lat="44.81434" lon="6.58779">
        <ele>1645.968</ele>
        <time>2010-07-04T12:35:51Z</time>
      </trkpt>
      <trkpt lat="44.81448" lon="6.58785">
        <ele>1647.538</ele>
        <time>2010-07-04T12:36:00Z</time>
      </trkpt>
      <trkpt lat="44.8146" lon="6.58793">
        <ele>1648.397</ele>
        <time>2010-07-04T12:36:08Z</time>
      </trkpt>
      <trkpt lat="44.81474" lon="6.58798">
        <ele>1649.438</ele>
        <time>2010-07-04T12:36:16Z</time>
      </trkpt>
      <trkpt lat="44.81488" lon="6.58796">
        <ele>1653.49</ele>
        <time>2010-07-04T12:36:24Z</time>
      </trkpt>
      <trkpt lat="44.81497" lon="6.58801">
        <ele>1654.699</ele>
        <time>2010-07-04T12:36:31Z</time>
      </trkpt>
      <trkpt lat="44.81508" lon="6.58812">
        <ele>1655.979</ele>
        <time>2010-07-04T12:36:40Z</time>
      </trkpt>
      <trkpt lat="44.81523" lon="6.58812">
        <ele>1658.469</ele>
        <time>2010-07-04T12:36:49Z</time>
      </trkpt>
      <trkpt lat="44.81539" lon="6.58813">
        <ele>1660.02</ele>
        <time>2010-07-04T12:36:58Z</time>
      </trkpt>
      <trkpt lat="44.81549" lon="6.58823">
        <ele>1660.308</ele>
        <time>2010-07-04T12:37:05Z</time>
      </trkpt>
      <trkpt lat="44.81563" lon="6.58833">
        <ele>1661.088</ele>
        <time>2010-07-04T12:37:13Z</time>
      </trkpt>
      <trkpt lat="44.81576" lon="6.58836">
        <ele>1661.628</ele>
        <time>2010-07-04T12:37:21Z</time>
      </trkpt>
      <trkpt lat="44.81591" lon="6.58846">
        <ele>1661.928</ele>
        <time>2010-07-04T12:37:31Z</time>
      </trkpt>
      <trkpt lat="44.81603" lon="6.58854">
        <ele>1662.568</ele>
        <time>2010-07-04T12:37:40Z</time>
      </trkpt>
      <trkpt lat="44.81613" lon="6.58859">
        <ele>1665.369</ele>
        <time>2010-07-04T12:37:48Z</time>
      </trkpt>
      <trkpt lat="44.81628" lon="6.58865">
        <ele>1665.959</ele>
        <time>2010-07-04T12:37:57Z</time>
      </trkpt>
      <trkpt lat="44.81642" lon="6.58871">
        <ele>1665.818</ele>
        <time>2010-07-04T12:38:07Z</time>
      </trkpt>
      <trkpt lat="44.8165" lon="6.58878">
        <ele>1668.039</ele>
        <time>2010-07-04T12:38:15Z</time>
      </trkpt>
      <trkpt lat="44.81659" lon="6.58891">
        <ele>1670.96</ele>
        <time>2010-07-04T12:38:25Z</time>
      </trkpt>
      <trkpt lat="44.81663" lon="6.58903">
        <ele>1672.549</ele>
        <time>2010-07-04T12:38:32Z</time>
      </trkpt>
      <trkpt lat="44.81669" lon="6.58912">
        <ele>1675.219</ele>
        <time>2010-07-04T12:38:39Z</time>
      </trkpt>
      <trkpt lat="44.81679" lon="6.58909">
        <ele>1679.461</ele>
        <time>2010-07-04T12:38:46Z</time>
      </trkpt>
      <trkpt lat="44.81691" lon="6.589">
        <ele>1682.69</ele>
        <time>2010-07-04T12:38:53Z</time>
      </trkpt>
      <trkpt lat="44.81704" lon="6.58895">
        <ele>1684.73</ele>
        <time>2010-07-04T12:39:00Z</time>
      </trkpt>
      <trkpt lat="44.81716" lon="6.58904">
        <ele>1683.369</ele>
        <time>2010-07-04T12:39:07Z</time>
      </trkpt>
      <trkpt lat="44.81725" lon="6.58917">
        <ele>1681.518</ele>
        <time>2010-07-04T12:39:15Z</time>
      </trkpt>
      <trkpt lat="44.81738" lon="6.58926">
        <ele>1678.887</ele>
        <time>2010-07-04T12:39:23Z</time>
      </trkpt>
      <trkpt lat="44.81753" lon="6.58936">
        <ele>1678.788</ele>
        <time>2010-07-04T12:39:33Z</time>
      </trkpt>
      <trkpt lat="44.81764" lon="6.58946">
        <ele>1680.349</ele>
        <time>2010-07-04T12:39:41Z</time>
      </trkpt>
      <trkpt lat="44.81776" lon="6.58955">
        <ele>1682.438</ele>
        <time>2010-07-04T12:39:50Z</time>
      </trkpt>
      <trkpt lat="44.81785" lon="6.58963">
        <ele>1684.94</ele>
        <time>2010-07-04T12:39:57Z</time>
      </trkpt>
      <trkpt lat="44.81796" lon="6.58974">
        <ele>1686.399</ele>
        <time>2010-07-04T12:40:05Z</time>
      </trkpt>
      <trkpt lat="44.81812" lon="6.58986">
        <ele>1689.58</ele>
        <time>2010-07-04T12:40:15Z</time>
      </trkpt>
      <trkpt lat="44.81825" lon="6.58994">
        <ele>1689.779</ele>
        <time>2010-07-04T12:40:23Z</time>
      </trkpt>
      <trkpt lat="44.81841" lon="6.59003">
        <ele>1691.449</ele>
        <time>2010-07-04T12:40:33Z</time>
      </trkpt>
      <trkpt lat="44.81853" lon="6.5901">
        <ele>1691.128</ele>
        <time>2010-07-04T12:40:41Z</time>
      </trkpt>
      <trkpt lat="44.81867" lon="6.59015">
        <ele>1693.4</ele>
        <time>2010-07-04T12:40:49Z</time>
      </trkpt>
      <trkpt lat="44.8188" lon="6.5902">
        <ele>1696.291</ele>
        <time>2010-07-04T12:40:57Z</time>
      </trkpt>
      <trkpt lat="44.8189" lon="6.59021">
        <ele>1698.711</ele>
        <time>2010-07-04T12:41:04Z</time>
      </trkpt>
      <trkpt lat="44.81901" lon="6.59017">
        <ele>1701.111</ele>
        <time>2010-07-04T12:41:11Z</time>
      </trkpt>
      <trkpt lat="44.81918" lon="6.59016">
        <ele>1702.47</ele>
        <time>2010-07-04T12:41:21Z</time>
      </trkpt>
      <trkpt lat="44.8193" lon="6.59019">
        <ele>1702.86</ele>
        <time>2010-07-04T12:41:28Z</time>
      </trkpt>
      <trkpt lat="44.81944" lon="6.59024">
        <ele>1703.649</ele>
        <time>2010-07-04T12:41:36Z</time>
      </trkpt>
      <trkpt lat="44.81957" lon="6.59028">
        <ele>1704.178</ele>
        <time>2010-07-04T12:41:44Z</time>
      </trkpt>
      <trkpt lat="44.8197" lon="6.59034">
        <ele>1704.84</ele>
        <time>2010-07-04T12:41:52Z</time>
      </trkpt>
      <trkpt lat="44.81984" lon="6.59044">
        <ele>1706.23</ele>
        <time>2010-07-04T12:42:00Z</time>
      </trkpt>
      <trkpt lat="44.81999" lon="6.59054">
        <ele>1708.871</ele>
        <time>2010-07-04T12:42:09Z</time>
      </trkpt>
      <trkpt lat="44.82011" lon="6.59059">
        <ele>1710.991</ele>
        <time>2010-07-04T12:42:16Z</time>
      </trkpt>
      <trkpt lat="44.82026" lon="6.59064">
        <ele>1712.38</ele>
        <time>2010-07-04T12:42:24Z</time>
      </trkpt>
      <trkpt lat="44.82036" lon="6.59069">
        <ele>1713.901</ele>
        <time>2010-07-04T12:42:30Z</time>
      </trkpt>
      <trkpt lat="44.8205" lon="6.59079">
        <ele>1713.59</ele>
        <time>2010-07-04T12:42:38Z</time>
      </trkpt>
      <trkpt lat="44.82064" lon="6.59084">
        <ele>1714.17</ele>
        <time>2010-07-04T12:42:46Z</time>
      </trkpt>
      <trkpt lat="44.82079" lon="6.59084">
        <ele>1715.751</ele>
        <time>2010-07-04T12:42:55Z</time>
      </trkpt>
      <trkpt lat="44.82091" lon="6.59082">
        <ele>1716.75</ele>
        <time>2010-07-04T12:43:03Z</time>
      </trkpt>
      <trkpt lat="44.82104" lon="6.59083">
        <ele>1716.661</ele>
        <time>2010-07-04T12:43:11Z</time>
      </trkpt>
      <trkpt lat="44.82116" lon="6.59089">
        <ele>1719.101</ele>
        <time>2010-07-04T12:43:20Z</time>
      </trkpt>
      <trkpt lat="44.82123" lon="6.59096">
        <ele>1721.911</ele>
        <time>2010-07-04T12:43:27Z</time>
      </trkpt>
      <trkpt lat="44.82126" lon="6.59099">
        <ele>1722.74</ele>
        <time>2010-07-04T12:43:31Z</time>
      </trkpt>
      <trkpt lat="44.8214" lon="6.59102">
        <ele>1716.894</ele>
        <time>2010-07-04T12:43:38Z</time>
      </trkpt>
      <trkpt lat="44.82151" lon="6.59104">
        <ele>1714.235</ele>
        <time>2010-07-04T12:43:43Z</time>
      </trkpt>
      <trkpt lat="44.82157" lon="6.59115">
        <ele>1711.574</ele>
        <time>2010-07-04T12:43:48Z</time>
      </trkpt>
      <trkpt lat="44.8216" lon="6.59133">
        <ele>1708.223</ele>
        <time>2010-07-04T12:43:53Z</time>
      </trkpt>
      <trkpt lat="44.82166" lon="6.59156">
        <ele>1704.483</ele>
        <time>2010-07-04T12:43:59Z</time>
      </trkpt>
      <trkpt lat="44.82168" lon="6.5918">
        <ele>1697.26</ele>
        <time>2010-07-04T12:44:04Z</time>
      </trkpt>
      <trkpt lat="44.82171" lon="6.59212">
        <ele>1689.429</ele>
        <time>2010-07-04T12:44:10Z</time>
      </trkpt>
      <trkpt lat="44.82171" lon="6.59217">
        <ele>1688.269</ele>
        <time>2010-07-04T12:44:11Z</time>
      </trkpt>
      <trkpt lat="44.82166" lon="6.59257">
        <ele>1680.118</ele>
        <time>2010-07-04T12:44:18Z</time>
      </trkpt>
      <trkpt lat="44.82162" lon="6.59275">
        <ele>1674.558</ele>
        <time>2010-07-04T12:44:22Z</time>
      </trkpt>
      <trkpt lat="44.82158" lon="6.59283">
        <ele>1672.262</ele>
        <time>2010-07-04T12:44:27Z</time>
      </trkpt>
      <trkpt lat="44.82151" lon="6.59292">
        <ele>1673.616</ele>
        <time>2010-07-04T12:44:32Z</time>
      </trkpt>
      <trkpt lat="44.8215" lon="6.59296">
        <ele>1674.697</ele>
        <time>2010-07-04T12:44:34Z</time>
      </trkpt>
      <trkpt lat="44.82143" lon="6.59309">
        <ele>1675.187</ele>
        <time>2010-07-04T12:44:41Z</time>
      </trkpt>
      <trkpt lat="44.82136" lon="6.59318">
        <ele>1675.597</ele>
        <time>2010-07-04T12:44:47Z</time>
      </trkpt>
      <trkpt lat="44.82129" lon="6.59334">
        <ele>1680.52</ele>
        <time>2010-07-04T12:44:55Z</time>
      </trkpt>
      <trkpt lat="44.82118" lon="6.59347">
        <ele>1681.027</ele>
        <time>2010-07-04T12:45:02Z</time>
      </trkpt>
      <trkpt lat="44.82114" lon="6.59349">
        <ele>1681.228</ele>
        <time>2010-07-04T12:45:03Z</time>
      </trkpt>
      <trkpt lat="44.82106" lon="6.59354">
        <ele>1682.008</ele>
        <time>2010-07-04T12:45:05Z</time>
      </trkpt>
      <trkpt lat="44.82092" lon="6.59367">
        <ele>1683.029</ele>
        <time>2010-07-04T12:45:10Z</time>
      </trkpt>
      <trkpt lat="44.82083" lon="6.59376">
        <ele>1684.999</ele>
        <time>2010-07-04T12:45:14Z</time>
      </trkpt>
      <trkpt lat="44.82076" lon="6.59387">
        <ele>1688.58</ele>
        <time>2010-07-04T12:45:19Z</time>
      </trkpt>
      <trkpt lat="44.82064" lon="6.59401">
        <ele>1690.32</ele>
        <time>2010-07-04T12:45:24Z</time>
      </trkpt>
      <trkpt lat="44.82053" lon="6.59417">
        <ele>1692.51</ele>
        <time>2010-07-04T12:45:28Z</time>
      </trkpt>
      <trkpt lat="44.82043" lon="6.59438">
        <ele>1693.64</ele>
        <time>2010-07-04T12:45:33Z</time>
      </trkpt>
      <trkpt lat="44.82036" lon="6.59461">
        <ele>1689.495</ele>
        <time>2010-07-04T12:45:37Z</time>
      </trkpt>
      <trkpt lat="44.82028" lon="6.59484">
        <ele>1686.495</ele>
        <time>2010-07-04T12:45:40Z</time>
      </trkpt>
      <trkpt lat="44.82024" lon="6.59489">
        <ele>1684.367</ele>
        <time>2010-07-04T12:45:44Z</time>
      </trkpt>
      <trkpt lat="44.82023" lon="6.5949">
        <ele>1683.568</ele>
        <time>2010-07-04T12:45:46Z</time>
      </trkpt>
      <trkpt lat="44.82017" lon="6.59503">
        <ele>1681.326</ele>
        <time>2010-07-04T12:45:53Z</time>
      </trkpt>
      <trkpt lat="44.8202" lon="6.59518">
        <ele>1682.007</ele>
        <time>2010-07-04T12:45:58Z</time>
      </trkpt>
      <trkpt lat="44.82022" lon="6.59538">
        <ele>1680.746</ele>
        <time>2010-07-04T12:46:02Z</time>
      </trkpt>
      <trkpt lat="44.82022" lon="6.59541">
        <ele>1680.515</ele>
        <time>2010-07-04T12:46:03Z</time>
      </trkpt>
      <trkpt lat="44.82027" lon="6.59558">
        <ele>1679.576</ele>
        <time>2010-07-04T12:46:09Z</time>
      </trkpt>
      <trkpt lat="44.82028" lon="6.59563">
        <ele>1676.046</ele>
        <time>2010-07-04T12:46:15Z</time>
      </trkpt>
      <trkpt lat="44.82027" lon="6.59575">
        <ele>1677.927</ele>
        <time>2010-07-04T12:47:31Z</time>
      </trkpt>
      <trkpt lat="44.82028" lon="6.59575">
        <ele>1676.618</ele>
        <time>2010-07-04T12:47:38Z</time>
      </trkpt>
      <trkpt lat="44.82032" lon="6.59584">
        <ele>1674.975</ele>
        <time>2010-07-04T12:48:03Z</time>
      </trkpt>
      <trkpt lat="44.82035" lon="6.59591">
        <ele>1673.726</ele>
        <time>2010-07-04T12:48:07Z</time>
      </trkpt>
      <trkpt lat="44.82047" lon="6.59596">
        <ele>1667.282</ele>
        <time>2010-07-04T12:48:15Z</time>
      </trkpt>
      <trkpt lat="44.82053" lon="6.596">
        <ele>1664.604</ele>
        <time>2010-07-04T12:48:19Z</time>
      </trkpt>
      <trkpt lat="44.82055" lon="6.59609">
        <ele>1661.333</ele>
        <time>2010-07-04T12:48:23Z</time>
      </trkpt>
      <trkpt lat="44.82055" lon="6.59618">
        <ele>1657.916</ele>
        <time>2010-07-04T12:48:30Z</time>
      </trkpt>
      <trkpt lat="44.8206" lon="6.59619">
        <ele>1659.879</ele>
        <time>2010-07-04T12:48:56Z</time>
      </trkpt>
      <trkpt lat="44.82061" lon="6.59622">
        <ele>1659.109</ele>
        <time>2010-07-04T12:49:02Z</time>
      </trkpt>
      <trkpt lat="44.82063" lon="6.59624">
        <ele>1658.99</ele>
        <time>2010-07-04T12:49:08Z</time>
      </trkpt>
      <trkpt lat="44.82064" lon="6.59628">
        <ele>1662.05</ele>
        <time>2010-07-04T12:49:22Z</time>
      </trkpt>
      <trkpt lat="44.82066" lon="6.5963">
        <ele>1662.98</ele>
        <time>2010-07-04T12:49:27Z</time>
      </trkpt>
      <trkpt lat="44.82067" lon="6.59632">
        <ele>1664.22</ele>
        <time>2010-07-04T12:49:34Z</time>
      </trkpt>
      <trkpt lat="44.82069" lon="6.59633">
        <ele>1664.94</ele>
        <time>2010-07-04T12:49:39Z</time>
      </trkpt>
      <trkpt lat="44.82071" lon="6.59632">
        <ele>1663.489</ele>
        <time>2010-07-04T12:49:49Z</time>
      </trkpt>
      <trkpt lat="44.82072" lon="6.59631">
        <ele>1658.978</ele>
        <time>2010-07-04T12:49:55Z</time>
      </trkpt>
      <trkpt lat="44.82073" lon="6.59631">
        <ele>1657.288</ele>
        <time>2010-07-04T12:50:01Z</time>
      </trkpt>
      <trkpt lat="44.82075" lon="6.59629">
        <ele>1656.37</ele>
        <time>2010-07-04T12:50:10Z</time>
      </trkpt>
      <trkpt lat="44.82077" lon="6.59626">
        <ele>1658.5</ele>
        <time>2010-07-04T12:50:19Z</time>
      </trkpt>
      <trkpt lat="44.82079" lon="6.59625">
        <ele>1668.971</ele>
        <time>2010-07-04T12:50:59Z</time>
      </trkpt>
      <trkpt lat="44.82082" lon="6.59614">
        <ele>1668.12</ele>
        <time>2010-07-04T12:51:06Z</time>
      </trkpt>
      <trkpt lat="44.82091" lon="6.59618">
        <ele>1664.839</ele>
        <time>2010-07-04T12:51:12Z</time>
      </trkpt>
      <trkpt lat="44.82092" lon="6.59622">
        <ele>1665.09</ele>
        <time>2010-07-04T12:51:14Z</time>
      </trkpt>
      <trkpt lat="44.82097" lon="6.59634">
        <ele>1667.25</ele>
        <time>2010-07-04T12:51:20Z</time>
      </trkpt>
      <trkpt lat="44.82097" lon="6.59635">
        <ele>1667.9</ele>
        <time>2010-07-04T12:51:21Z</time>
      </trkpt>
      <trkpt lat="44.82107" lon="6.5964">
        <ele>1671.902</ele>
        <time>2010-07-04T12:51:27Z</time>
      </trkpt>
      <trkpt lat="44.82113" lon="6.59642">
        <ele>1675.584</ele>
        <time>2010-07-04T12:51:31Z</time>
      </trkpt>
      <trkpt lat="44.82122" lon="6.59635">
        <ele>1683.337</ele>
        <time>2010-07-04T12:51:38Z</time>
      </trkpt>
      <trkpt lat="44.82132" lon="6.59627">
        <ele>1688.288</ele>
        <time>2010-07-04T12:51:43Z</time>
      </trkpt>
      <trkpt lat="44.82147" lon="6.59613">
        <ele>1690.073</ele>
        <time>2010-07-04T12:51:49Z</time>
      </trkpt>
      <trkpt lat="44.8215" lon="6.5961">
        <ele>1690.914</ele>
        <time>2010-07-04T12:51:51Z</time>
      </trkpt>
      <trkpt lat="44.82161" lon="6.59608">
        <ele>1678.385</ele>
        <time>2010-07-04T12:51:57Z</time>
      </trkpt>
      <trkpt lat="44.82166" lon="6.59598">
        <ele>1677.665</ele>
        <time>2010-07-04T12:52:00Z</time>
      </trkpt>
      <trkpt lat="44.82181" lon="6.59585">
        <ele>1674.806</ele>
        <time>2010-07-04T12:52:06Z</time>
      </trkpt>
      <trkpt lat="44.82192" lon="6.59582">
        <ele>1672.095</ele>
        <time>2010-07-04T12:52:10Z</time>
      </trkpt>
      <trkpt lat="44.82206" lon="6.5957">
        <ele>1670.427</ele>
        <time>2010-07-04T12:52:14Z</time>
      </trkpt>
      <trkpt lat="44.82217" lon="6.59558">
        <ele>1666.325</ele>
        <time>2010-07-04T12:52:19Z</time>
      </trkpt>
      <trkpt lat="44.82229" lon="6.59551">
        <ele>1661.795</ele>
        <time>2010-07-04T12:52:24Z</time>
      </trkpt>
      <trkpt lat="44.82248" lon="6.5954">
        <ele>1655.595</ele>
        <time>2010-07-04T12:52:30Z</time>
      </trkpt>
      <trkpt lat="44.82251" lon="6.5954">
        <ele>1651.844</ele>
        <time>2010-07-04T12:52:31Z</time>
      </trkpt>
      <trkpt lat="44.82274" lon="6.59549">
        <ele>1642.254</ele>
        <time>2010-07-04T12:52:37Z</time>
      </trkpt>
      <trkpt lat="44.82279" lon="6.5955">
        <ele>1641.235</ele>
        <time>2010-07-04T12:52:38Z</time>
      </trkpt>
      <trkpt lat="44.82295" lon="6.5955">
        <ele>1639.815</ele>
        <time>2010-07-04T12:52:42Z</time>
      </trkpt>
      <trkpt lat="44.82319" lon="6.59543">
        <ele>1637.176</ele>
        <time>2010-07-04T12:52:48Z</time>
      </trkpt>
      <trkpt lat="44.82326" lon="6.59543">
        <ele>1634.926</ele>
        <time>2010-07-04T12:52:50Z</time>
      </trkpt>
      <trkpt lat="44.82343" lon="6.59544">
        <ele>1632.687</ele>
        <time>2010-07-04T12:52:54Z</time>
      </trkpt>
      <trkpt lat="44.8237" lon="6.59535">
        <ele>1632.879</ele>
        <time>2010-07-04T12:53:01Z</time>
      </trkpt>
      <trkpt lat="44.82384" lon="6.59527">
        <ele>1634.13</ele>
        <time>2010-07-04T12:53:07Z</time>
      </trkpt>
      <trkpt lat="44.82399" lon="6.59526">
        <ele>1631.308</ele>
        <time>2010-07-04T12:53:11Z</time>
      </trkpt>
      <trkpt lat="44.82421" lon="6.59527">
        <ele>1628.118</ele>
        <time>2010-07-04T12:53:17Z</time>
      </trkpt>
      <trkpt lat="44.8244" lon="6.5953">
        <ele>1625.548</ele>
        <time>2010-07-04T12:53:22Z</time>
      </trkpt>
      <trkpt lat="44.82463" lon="6.59527">
        <ele>1623.037</ele>
        <time>2010-07-04T12:53:27Z</time>
      </trkpt>
      <trkpt lat="44.82488" lon="6.59519">
        <ele>1624.658</ele>
        <time>2010-07-04T12:53:33Z</time>
      </trkpt>
      <trkpt lat="44.82502" lon="6.59511">
        <ele>1625.508</ele>
        <time>2010-07-04T12:53:36Z</time>
      </trkpt>
      <trkpt lat="44.82523" lon="6.5949">
        <ele>1625.518</ele>
        <time>2010-07-04T12:53:41Z</time>
      </trkpt>
      <trkpt lat="44.82526" lon="6.5949">
        <ele>1626.239</ele>
        <time>2010-07-04T12:53:42Z</time>
      </trkpt>
      <trkpt lat="44.82546" lon="6.59486">
        <ele>1626.289</ele>
        <time>2010-07-04T12:53:49Z</time>
      </trkpt>
      <trkpt lat="44.82564" lon="6.59489">
        <ele>1622.829</ele>
        <time>2010-07-04T12:53:54Z</time>
      </trkpt>
      <trkpt lat="44.82585" lon="6.59487">
        <ele>1621.278</ele>
        <time>2010-07-04T12:54:01Z</time>
      </trkpt>
      <trkpt lat="44.82599" lon="6.59474">
        <ele>1621.438</ele>
        <time>2010-07-04T12:54:07Z</time>
      </trkpt>
      <trkpt lat="44.82606" lon="6.59467">
        <ele>1621.309</ele>
        <time>2010-07-04T12:54:11Z</time>
      </trkpt>
      <trkpt lat="44.82614" lon="6.59452">
        <ele>1625.591</ele>
        <time>2010-07-04T12:54:16Z</time>
      </trkpt>
      <trkpt lat="44.82623" lon="6.5944">
        <ele>1625.471</ele>
        <time>2010-07-04T12:54:20Z</time>
      </trkpt>
      <trkpt lat="44.82631" lon="6.59437">
        <ele>1628.352</ele>
        <time>2010-07-04T12:54:23Z</time>
      </trkpt>
      <trkpt lat="44.82646" lon="6.5944">
        <ele>1625.88</ele>
        <time>2010-07-04T12:54:26Z</time>
      </trkpt>
      <trkpt lat="44.82669" lon="6.59434">
        <ele>1623.438</ele>
        <time>2010-07-04T12:54:30Z</time>
      </trkpt>
      <trkpt lat="44.8268" lon="6.59426">
        <ele>1623.419</ele>
        <time>2010-07-04T12:54:32Z</time>
      </trkpt>
      <trkpt lat="44.82689" lon="6.59416">
        <ele>1623.53</ele>
        <time>2010-07-04T12:54:34Z</time>
      </trkpt>
      <trkpt lat="44.82704" lon="6.59384">
        <ele>1630.164</ele>
        <time>2010-07-04T12:54:40Z</time>
      </trkpt>
      <trkpt lat="44.82716" lon="6.59358">
        <ele>1632.173</ele>
        <time>2010-07-04T12:54:46Z</time>
      </trkpt>
      <trkpt lat="44.82731" lon="6.59337">
        <ele>1635.013</ele>
        <time>2010-07-04T12:54:52Z</time>
      </trkpt>
      <trkpt lat="44.82741" lon="6.59318">
        <ele>1632.932</ele>
        <time>2010-07-04T12:54:57Z</time>
      </trkpt>
      <trkpt lat="44.82757" lon="6.59306">
        <ele>1625.611</ele>
        <time>2010-07-04T12:55:03Z</time>
      </trkpt>
      <trkpt lat="44.82773" lon="6.59309">
        <ele>1621.319</ele>
        <time>2010-07-04T12:55:08Z</time>
      </trkpt>
      <trkpt lat="44.82791" lon="6.59315">
        <ele>1619.19</ele>
        <time>2010-07-04T12:55:14Z</time>
      </trkpt>
      <trkpt lat="44.82803" lon="6.59327">
        <ele>1618.289</ele>
        <time>2010-07-04T12:55:20Z</time>
      </trkpt>
      <trkpt lat="44.82816" lon="6.59328">
        <ele>1616.708</ele>
        <time>2010-07-04T12:55:26Z</time>
      </trkpt>
      <trkpt lat="44.82833" lon="6.59335">
        <ele>1616.06</ele>
        <time>2010-07-04T12:55:32Z</time>
      </trkpt>
      <trkpt lat="44.82847" lon="6.59339">
        <ele>1615.698</ele>
        <time>2010-07-04T12:55:38Z</time>
      </trkpt>
      <trkpt lat="44.82863" lon="6.59335">
        <ele>1613.786</ele>
        <time>2010-07-04T12:55:42Z</time>
      </trkpt>
      <trkpt lat="44.82884" lon="6.59343">
        <ele>1613.118</ele>
        <time>2010-07-04T12:55:48Z</time>
      </trkpt>
      <trkpt lat="44.82899" lon="6.59351">
        <ele>1613.139</ele>
        <time>2010-07-04T12:55:54Z</time>
      </trkpt>
      <trkpt lat="44.82915" lon="6.59366">
        <ele>1613.67</ele>
        <time>2010-07-04T12:56:01Z</time>
      </trkpt>
      <trkpt lat="44.82932" lon="6.5938">
        <ele>1614.5</ele>
        <time>2010-07-04T12:56:09Z</time>
      </trkpt>
      <trkpt lat="44.82951" lon="6.59388">
        <ele>1614.63</ele>
        <time>2010-07-04T12:56:17Z</time>
      </trkpt>
      <trkpt lat="44.82975" lon="6.59393">
        <ele>1613.76</ele>
        <time>2010-07-04T12:56:27Z</time>
      </trkpt>
      <trkpt lat="44.83007" lon="6.59394">
        <ele>1613.39</ele>
        <time>2010-07-04T12:56:40Z</time>
      </trkpt>
      <trkpt lat="44.83029" lon="6.5939">
        <ele>1614.34</ele>
        <time>2010-07-04T12:56:49Z</time>
      </trkpt>
      <trkpt lat="44.83048" lon="6.59382">
        <ele>1615.09</ele>
        <time>2010-07-04T12:56:57Z</time>
      </trkpt>
      <trkpt lat="44.83068" lon="6.59377">
        <ele>1615.37</ele>
        <time>2010-07-04T12:57:05Z</time>
      </trkpt>
      <trkpt lat="44.83089" lon="6.59372">
        <ele>1616.751</ele>
        <time>2010-07-04T12:57:15Z</time>
      </trkpt>
      <trkpt lat="44.83102" lon="6.59372">
        <ele>1618.931</ele>
        <time>2010-07-04T12:57:21Z</time>
      </trkpt>
      <trkpt lat="44.83122" lon="6.59376">
        <ele>1619.271</ele>
        <time>2010-07-04T12:57:30Z</time>
      </trkpt>
      <trkpt lat="44.83131" lon="6.59377">
        <ele>1620.021</ele>
        <time>2010-07-04T12:57:35Z</time>
      </trkpt>
      <trkpt lat="44.8314" lon="6.59377">
        <ele>1622.883</ele>
        <time>2010-07-04T12:57:41Z</time>
      </trkpt>
      <trkpt lat="44.83153" lon="6.59374">
        <ele>1628.194</ele>
        <time>2010-07-04T12:57:49Z</time>
      </trkpt>
      <trkpt lat="44.83168" lon="6.59373">
        <ele>1629.173</ele>
        <time>2010-07-04T12:57:57Z</time>
      </trkpt>
      <trkpt lat="44.83178" lon="6.59368">
        <ele>1631.212</ele>
        <time>2010-07-04T12:58:04Z</time>
      </trkpt>
      <trkpt lat="44.83188" lon="6.59362">
        <ele>1631.021</ele>
        <time>2010-07-04T12:58:12Z</time>
      </trkpt>
      <trkpt lat="44.83198" lon="6.5936">
        <ele>1629.22</ele>
        <time>2010-07-04T12:58:19Z</time>
      </trkpt>
      <trkpt lat="44.83212" lon="6.59355">
        <ele>1630.341</ele>
        <time>2010-07-04T12:58:29Z</time>
      </trkpt>
      <trkpt lat="44.83224" lon="6.59351">
        <ele>1629.48</ele>
        <time>2010-07-04T12:58:38Z</time>
      </trkpt>
      <trkpt lat="44.83235" lon="6.59347">
        <ele>1629.72</ele>
        <time>2010-07-04T12:58:46Z</time>
      </trkpt>
      <trkpt lat="44.83246" lon="6.59345">
        <ele>1630.361</ele>
        <time>2010-07-04T12:58:54Z</time>
      </trkpt>
      <trkpt lat="44.83258" lon="6.59347">
        <ele>1631.861</ele>
        <time>2010-07-04T12:59:03Z</time>
      </trkpt>
      <trkpt lat="44.8327" lon="6.59349">
        <ele>1633.591</ele>
        <time>2010-07-04T12:59:12Z</time>
      </trkpt>
      <trkpt lat="44.8328" lon="6.59353">
        <ele>1635.181</ele>
        <time>2010-07-04T12:59:21Z</time>
      </trkpt>
      <trkpt lat="44.8329" lon="6.59359">
        <ele>1636.601</ele>
        <time>2010-07-04T12:59:29Z</time>
      </trkpt>
      <trkpt lat="44.83304" lon="6.59365">
        <ele>1638.291</ele>
        <time>2010-07-04T12:59:39Z</time>
      </trkpt>
      <trkpt lat="44.83314" lon="6.59366">
        <ele>1639.511</ele>
        <time>2010-07-04T12:59:47Z</time>
      </trkpt>
      <trkpt lat="44.83328" lon="6.59361">
        <ele>1641.511</ele>
        <time>2010-07-04T12:59:57Z</time>
      </trkpt>
      <trkpt lat="44.83339" lon="6.59354">
        <ele>1643.031</ele>
        <time>2010-07-04T13:00:06Z</time>
      </trkpt>
      <trkpt lat="44.83346" lon="6.59346">
        <ele>1645.071</ele>
        <time>2010-07-04T13:00:13Z</time>
      </trkpt>
      <trkpt lat="44.83356" lon="6.59337">
        <ele>1648.652</ele>
        <time>2010-07-04T13:00:22Z</time>
      </trkpt>
      <trkpt lat="44.83368" lon="6.59337">
        <ele>1648.911</ele>
        <time>2010-07-04T13:00:31Z</time>
      </trkpt>
      <trkpt lat="44.8338" lon="6.59337">
        <ele>1649.722</ele>
        <time>2010-07-04T13:00:39Z</time>
      </trkpt>
      <trkpt lat="44.83393" lon="6.59339">
        <ele>1650.691</ele>
        <time>2010-07-04T13:00:49Z</time>
      </trkpt>
      <trkpt lat="44.83404" lon="6.5934">
        <ele>1651.721</ele>
        <time>2010-07-04T13:00:57Z</time>
      </trkpt>
      <trkpt lat="44.83415" lon="6.59341">
        <ele>1653.011</ele>
        <time>2010-07-04T13:01:04Z</time>
      </trkpt>
      <trkpt lat="44.83425" lon="6.59342">
        <ele>1654.261</ele>
        <time>2010-07-04T13:01:11Z</time>
      </trkpt>
      <trkpt lat="44.83436" lon="6.59345">
        <ele>1655.471</ele>
        <time>2010-07-04T13:01:19Z</time>
      </trkpt>
      <trkpt lat="44.83449" lon="6.59348">
        <ele>1656.771</ele>
        <time>2010-07-04T13:01:28Z</time>
      </trkpt>
      <trkpt lat="44.83461" lon="6.59352">
        <ele>1657.191</ele>
        <time>2010-07-04T13:01:37Z</time>
      </trkpt>
      <trkpt lat="44.83472" lon="6.59349">
        <ele>1658.991</ele>
        <time>2010-07-04T13:01:45Z</time>
      </trkpt>
      <trkpt lat="44.83485" lon="6.59344">
        <ele>1660.431</ele>
        <time>2010-07-04T13:01:54Z</time>
      </trkpt>
      <trkpt lat="44.83495" lon="6.59341">
        <ele>1661.961</ele>
        <time>2010-07-04T13:02:02Z</time>
      </trkpt>
      <trkpt lat="44.83509" lon="6.59341">
        <ele>1662.941</ele>
        <time>2010-07-04T13:02:12Z</time>
      </trkpt>
      <trkpt lat="44.83519" lon="6.59333">
        <ele>1665.322</ele>
        <time>2010-07-04T13:02:20Z</time>
      </trkpt>
      <trkpt lat="44.83533" lon="6.59328">
        <ele>1667.912</ele>
        <time>2010-07-04T13:02:29Z</time>
      </trkpt>
      <trkpt lat="44.83545" lon="6.59329">
        <ele>1669.411</ele>
        <time>2010-07-04T13:02:37Z</time>
      </trkpt>
      <trkpt lat="44.83559" lon="6.59329">
        <ele>1669.961</ele>
        <time>2010-07-04T13:02:45Z</time>
      </trkpt>
      <trkpt lat="44.83576" lon="6.59327">
        <ele>1670.431</ele>
        <time>2010-07-04T13:02:54Z</time>
      </trkpt>
      <trkpt lat="44.83594" lon="6.59331">
        <ele>1671.811</ele>
        <time>2010-07-04T13:03:04Z</time>
      </trkpt>
      <trkpt lat="44.83608" lon="6.59333">
        <ele>1674.544</ele>
        <time>2010-07-04T13:03:12Z</time>
      </trkpt>
      <trkpt lat="44.83621" lon="6.59345">
        <ele>1675.882</ele>
        <time>2010-07-04T13:03:21Z</time>
      </trkpt>
      <trkpt lat="44.83635" lon="6.5936">
        <ele>1677.452</ele>
        <time>2010-07-04T13:03:31Z</time>
      </trkpt>
      <trkpt lat="44.83645" lon="6.59377">
        <ele>1678.341</ele>
        <time>2010-07-04T13:03:40Z</time>
      </trkpt>
      <trkpt lat="44.83653" lon="6.59401">
        <ele>1678.881</ele>
        <time>2010-07-04T13:03:50Z</time>
      </trkpt>
      <trkpt lat="44.83664" lon="6.59415">
        <ele>1679.111</ele>
        <time>2010-07-04T13:03:56Z</time>
      </trkpt>
      <trkpt lat="44.83677" lon="6.59437">
        <ele>1679.381</ele>
        <time>2010-07-04T13:04:04Z</time>
      </trkpt>
      <trkpt lat="44.83692" lon="6.59464">
        <ele>1680.392</ele>
        <time>2010-07-04T13:04:12Z</time>
      </trkpt>
      <trkpt lat="44.83706" lon="6.59499">
        <ele>1682.071</ele>
        <time>2010-07-04T13:04:21Z</time>
      </trkpt>
      <trkpt lat="44.83714" lon="6.5953">
        <ele>1683.882</ele>
        <time>2010-07-04T13:04:28Z</time>
      </trkpt>
      <trkpt lat="44.8372" lon="6.59558">
        <ele>1685.761</ele>
        <time>2010-07-04T13:04:35Z</time>
      </trkpt>
      <trkpt lat="44.83726" lon="6.59582">
        <ele>1688.332</ele>
        <time>2010-07-04T13:04:41Z</time>
      </trkpt>
      <trkpt lat="44.83737" lon="6.59611">
        <ele>1688.6</ele>
        <time>2010-07-04T13:04:48Z</time>
      </trkpt>
      <trkpt lat="44.83748" lon="6.59645">
        <ele>1688.711</ele>
        <time>2010-07-04T13:04:56Z</time>
      </trkpt>
      <trkpt lat="44.83762" lon="6.59678">
        <ele>1688.101</ele>
        <time>2010-07-04T13:05:04Z</time>
      </trkpt>
      <trkpt lat="44.83769" lon="6.59704">
        <ele>1688.351</ele>
        <time>2010-07-04T13:05:10Z</time>
      </trkpt>
      <trkpt lat="44.83772" lon="6.59727">
        <ele>1690.052</ele>
        <time>2010-07-04T13:05:16Z</time>
      </trkpt>
      <trkpt lat="44.83772" lon="6.59739">
        <ele>1683.491</ele>
        <time>2010-07-04T13:05:23Z</time>
      </trkpt>
      <trkpt lat="44.83772" lon="6.5974">
        <ele>1682.991</ele>
        <time>2010-07-04T13:05:24Z</time>
      </trkpt>
      <trkpt lat="44.83771" lon="6.59744">
        <ele>1681.721</ele>
        <time>2010-07-04T13:05:28Z</time>
      </trkpt>
      <trkpt lat="44.83775" lon="6.59743">
        <ele>1682.062</ele>
        <time>2010-07-04T13:05:33Z</time>
      </trkpt>
      <trkpt lat="44.83775" lon="6.59735">
        <ele>1682.463</ele>
        <time>2010-07-04T13:05:38Z</time>
      </trkpt>
      <trkpt lat="44.83775" lon="6.59733">
        <ele>1682.643</ele>
        <time>2010-07-04T13:05:39Z</time>
      </trkpt>
      <trkpt lat="44.83772" lon="6.5973">
        <ele>1683.332</ele>
        <time>2010-07-04T13:05:46Z</time>
      </trkpt>
      <trkpt lat="44.83773" lon="6.59728">
        <ele>1682.892</ele>
        <time>2010-07-04T13:05:54Z</time>
      </trkpt>
      <trkpt lat="44.83775" lon="6.59728">
        <ele>1681.332</ele>
        <time>2010-07-04T13:06:26Z</time>
      </trkpt>
      <trkpt lat="44.83774" lon="6.59734">
        <ele>1681.923</ele>
        <time>2010-07-04T13:06:33Z</time>
      </trkpt>
      <trkpt lat="44.83775" lon="6.59731">
        <ele>1683.964</ele>
        <time>2010-07-04T13:07:04Z</time>
      </trkpt>
      <trkpt lat="44.83769" lon="6.59735">
        <ele>1679.602</ele>
        <time>2010-07-04T13:10:27Z</time>
      </trkpt>
      <trkpt lat="44.8377" lon="6.59732">
        <ele>1681.822</ele>
        <time>2010-07-04T13:10:34Z</time>
      </trkpt>
      <trkpt lat="44.83771" lon="6.59731">
        <ele>1684.562</ele>
        <time>2010-07-04T13:10:46Z</time>
      </trkpt>
      <trkpt lat="44.83772" lon="6.5973">
        <ele>1687.343</ele>
        <time>2010-07-04T13:10:50Z</time>
      </trkpt>
      <trkpt lat="44.83774" lon="6.59739">
        <ele>1689.592</ele>
        <time>2010-07-04T13:10:55Z</time>
      </trkpt>
      <trkpt lat="44.83779" lon="6.5975">
        <ele>1690.252</ele>
        <time>2010-07-04T13:10:58Z</time>
      </trkpt>
      <trkpt lat="44.83783" lon="6.59775">
        <ele>1689.771</ele>
        <time>2010-07-04T13:11:02Z</time>
      </trkpt>
      <trkpt lat="44.83792" lon="6.59812">
        <ele>1686.809</ele>
        <time>2010-07-04T13:11:07Z</time>
      </trkpt>
      <trkpt lat="44.83809" lon="6.59854">
        <ele>1682.476</ele>
        <time>2010-07-04T13:11:12Z</time>
      </trkpt>
      <trkpt lat="44.83819" lon="6.59893">
        <ele>1680.759</ele>
        <time>2010-07-04T13:11:17Z</time>
      </trkpt>
      <trkpt lat="44.83823" lon="6.59932">
        <ele>1679.189</ele>
        <time>2010-07-04T13:11:22Z</time>
      </trkpt>
      <trkpt lat="44.83826" lon="6.59949">
        <ele>1677.088</ele>
        <time>2010-07-04T13:11:24Z</time>
      </trkpt>
      <trkpt lat="44.83847" lon="6.59987">
        <ele>1673.448</ele>
        <time>2010-07-04T13:11:30Z</time>
      </trkpt>
      <trkpt lat="44.83853" lon="6.59994">
        <ele>1673.009</ele>
        <time>2010-07-04T13:11:32Z</time>
      </trkpt>
      <trkpt lat="44.83867" lon="6.60006">
        <ele>1673.22</ele>
        <time>2010-07-04T13:11:36Z</time>
      </trkpt>
      <trkpt lat="44.83887" lon="6.6002">
        <ele>1676.373</ele>
        <time>2010-07-04T13:11:41Z</time>
      </trkpt>
      <trkpt lat="44.83918" lon="6.60051">
        <ele>1676.163</ele>
        <time>2010-07-04T13:11:48Z</time>
      </trkpt>
      <trkpt lat="44.83927" lon="6.6006">
        <ele>1677.474</ele>
        <time>2010-07-04T13:11:50Z</time>
      </trkpt>
      <trkpt lat="44.83945" lon="6.60085">
        <ele>1669.929</ele>
        <time>2010-07-04T13:11:54Z</time>
      </trkpt>
      <trkpt lat="44.83957" lon="6.60117">
        <ele>1665.018</ele>
        <time>2010-07-04T13:11:58Z</time>
      </trkpt>
      <trkpt lat="44.83959" lon="6.6015">
        <ele>1661.187</ele>
        <time>2010-07-04T13:12:02Z</time>
      </trkpt>
      <trkpt lat="44.83955" lon="6.60177">
        <ele>1659.307</ele>
        <time>2010-07-04T13:12:05Z</time>
      </trkpt>
      <trkpt lat="44.83946" lon="6.60205">
        <ele>1656.707</ele>
        <time>2010-07-04T13:12:08Z</time>
      </trkpt>
      <trkpt lat="44.83933" lon="6.60262">
        <ele>1652.477</ele>
        <time>2010-07-04T13:12:14Z</time>
      </trkpt>
      <trkpt lat="44.83916" lon="6.60292">
        <ele>1651.549</ele>
        <time>2010-07-04T13:12:18Z</time>
      </trkpt>
      <trkpt lat="44.83909" lon="6.60333">
        <ele>1647.558</ele>
        <time>2010-07-04T13:12:23Z</time>
      </trkpt>
      <trkpt lat="44.83911" lon="6.60352">
        <ele>1645.357</ele>
        <time>2010-07-04T13:12:25Z</time>
      </trkpt>
      <trkpt lat="44.83917" lon="6.60396">
        <ele>1643.449</ele>
        <time>2010-07-04T13:12:30Z</time>
      </trkpt>
      <trkpt lat="44.83906" lon="6.60422">
        <ele>1642.339</ele>
        <time>2010-07-04T13:12:33Z</time>
      </trkpt>
      <trkpt lat="44.83901" lon="6.60429">
        <ele>1642.089</ele>
        <time>2010-07-04T13:12:34Z</time>
      </trkpt>
      <trkpt lat="44.83887" lon="6.60451">
        <ele>1640.479</ele>
        <time>2010-07-04T13:12:37Z</time>
      </trkpt>
      <trkpt lat="44.8388" lon="6.6049">
        <ele>1638.46</ele>
        <time>2010-07-04T13:12:42Z</time>
      </trkpt>
      <trkpt lat="44.83893" lon="6.60505">
        <ele>1637.58</ele>
        <time>2010-07-04T13:12:45Z</time>
      </trkpt>
      <trkpt lat="44.83904" lon="6.60503">
        <ele>1637.35</ele>
        <time>2010-07-04T13:12:47Z</time>
      </trkpt>
      <trkpt lat="44.83933" lon="6.6049">
        <ele>1635.641</ele>
        <time>2010-07-04T13:12:52Z</time>
      </trkpt>
      <trkpt lat="44.83952" lon="6.60486">
        <ele>1634.11</ele>
        <time>2010-07-04T13:12:55Z</time>
      </trkpt>
      <trkpt lat="44.83973" lon="6.60469">
        <ele>1631.759</ele>
        <time>2010-07-04T13:12:59Z</time>
      </trkpt>
      <trkpt lat="44.83983" lon="6.60457">
        <ele>1630.929</ele>
        <time>2010-07-04T13:13:01Z</time>
      </trkpt>
      <trkpt lat="44.83994" lon="6.60436">
        <ele>1628.81</ele>
        <time>2010-07-04T13:13:04Z</time>
      </trkpt>
      <trkpt lat="44.84022" lon="6.60413">
        <ele>1624.979</ele>
        <time>2010-07-04T13:13:09Z</time>
      </trkpt>
      <trkpt lat="44.84054" lon="6.60403">
        <ele>1621.038</ele>
        <time>2010-07-04T13:13:14Z</time>
      </trkpt>
      <trkpt lat="44.84072" lon="6.60384">
        <ele>1617.889</ele>
        <time>2010-07-04T13:13:18Z</time>
      </trkpt>
      <trkpt lat="44.84073" lon="6.60367">
        <ele>1618.771</ele>
        <time>2010-07-04T13:13:20Z</time>
      </trkpt>
      <trkpt lat="44.84081" lon="6.60315">
        <ele>1617.931</ele>
        <time>2010-07-04T13:13:26Z</time>
      </trkpt>
      <trkpt lat="44.84089" lon="6.60302">
        <ele>1617.302</ele>
        <time>2010-07-04T13:13:28Z</time>
      </trkpt>
      <trkpt lat="44.84099" lon="6.60284">
        <ele>1616.792</ele>
        <time>2010-07-04T13:13:31Z</time>
      </trkpt>
      <trkpt lat="44.84115" lon="6.60274">
        <ele>1616.612</ele>
        <time>2010-07-04T13:13:35Z</time>
      </trkpt>
      <trkpt lat="44.84135" lon="6.60273">
        <ele>1615.682</ele>
        <time>2010-07-04T13:13:39Z</time>
      </trkpt>
      <trkpt lat="44.84154" lon="6.6026">
        <ele>1614.181</ele>
        <time>2010-07-04T13:13:43Z</time>
      </trkpt>
      <trkpt lat="44.84157" lon="6.60253">
        <ele>1613.781</ele>
        <time>2010-07-04T13:13:44Z</time>
      </trkpt>
      <trkpt lat="44.84177" lon="6.60213">
        <ele>1612.782</ele>
        <time>2010-07-04T13:13:50Z</time>
      </trkpt>
      <trkpt lat="44.84189" lon="6.60183">
        <ele>1611.092</ele>
        <time>2010-07-04T13:13:54Z</time>
      </trkpt>
      <trkpt lat="44.84197" lon="6.60165">
        <ele>1609.641</ele>
        <time>2010-07-04T13:13:57Z</time>
      </trkpt>
      <trkpt lat="44.8421" lon="6.60168">
        <ele>1607.651</ele>
        <time>2010-07-04T13:14:00Z</time>
      </trkpt>
      <trkpt lat="44.84226" lon="6.60179">
        <ele>1606.521</ele>
        <time>2010-07-04T13:14:03Z</time>
      </trkpt>
      <trkpt lat="44.84245" lon="6.60173">
        <ele>1604.66</ele>
        <time>2010-07-04T13:14:06Z</time>
      </trkpt>
      <trkpt lat="44.84257" lon="6.60151">
        <ele>1603.831</ele>
        <time>2010-07-04T13:14:09Z</time>
      </trkpt>
      <trkpt lat="44.84271" lon="6.60139">
        <ele>1602.05</ele>
        <time>2010-07-04T13:14:12Z</time>
      </trkpt>
      <trkpt lat="44.84279" lon="6.60146">
        <ele>1600.62</ele>
        <time>2010-07-04T13:14:14Z</time>
      </trkpt>
      <trkpt lat="44.84281" lon="6.60166">
        <ele>1597.909</ele>
        <time>2010-07-04T13:14:17Z</time>
      </trkpt>
      <trkpt lat="44.84287" lon="6.60185">
        <ele>1596.169</ele>
        <time>2010-07-04T13:14:20Z</time>
      </trkpt>
      <trkpt lat="44.84296" lon="6.60188">
        <ele>1594.829</ele>
        <time>2010-07-04T13:14:22Z</time>
      </trkpt>
      <trkpt lat="44.84311" lon="6.60178">
        <ele>1593.079</ele>
        <time>2010-07-04T13:14:25Z</time>
      </trkpt>
      <trkpt lat="44.84331" lon="6.6015">
        <ele>1587.337</ele>
        <time>2010-07-04T13:14:30Z</time>
      </trkpt>
      <trkpt lat="44.8435" lon="6.60129">
        <ele>1584.658</ele>
        <time>2010-07-04T13:14:34Z</time>
      </trkpt>
      <trkpt lat="44.84373" lon="6.60113">
        <ele>1583.329</ele>
        <time>2010-07-04T13:14:38Z</time>
      </trkpt>
      <trkpt lat="44.84395" lon="6.60083">
        <ele>1580.95</ele>
        <time>2010-07-04T13:14:43Z</time>
      </trkpt>
      <trkpt lat="44.84412" lon="6.60075">
        <ele>1578.22</ele>
        <time>2010-07-04T13:14:47Z</time>
      </trkpt>
      <trkpt lat="44.84433" lon="6.60091">
        <ele>1575.44</ele>
        <time>2010-07-04T13:14:51Z</time>
      </trkpt>
      <trkpt lat="44.84445" lon="6.60088">
        <ele>1574.981</ele>
        <time>2010-07-04T13:14:53Z</time>
      </trkpt>
      <trkpt lat="44.84467" lon="6.60079">
        <ele>1574.071</ele>
        <time>2010-07-04T13:14:57Z</time>
      </trkpt>
      <trkpt lat="44.8448" lon="6.60068">
        <ele>1572.822</ele>
        <time>2010-07-04T13:15:00Z</time>
      </trkpt>
      <trkpt lat="44.84489" lon="6.6006">
        <ele>1572.263</ele>
        <time>2010-07-04T13:15:04Z</time>
      </trkpt>
      <trkpt lat="44.84492" lon="6.60058">
        <ele>1572.743</ele>
        <time>2010-07-04T13:15:11Z</time>
      </trkpt>
      <trkpt lat="44.84492" lon="6.60052">
        <ele>1581.325</ele>
        <time>2010-07-04T13:17:05Z</time>
      </trkpt>
      <trkpt lat="44.84504" lon="6.60043">
        <ele>1577.554</ele>
        <time>2010-07-04T13:17:13Z</time>
      </trkpt>
      <trkpt lat="44.84518" lon="6.60032">
        <ele>1576.845</ele>
        <time>2010-07-04T13:17:24Z</time>
      </trkpt>
      <trkpt lat="44.84525" lon="6.60036">
        <ele>1577.185</ele>
        <time>2010-07-04T13:17:30Z</time>
      </trkpt>
      <trkpt lat="44.84528" lon="6.60049">
        <ele>1577.625</ele>
        <time>2010-07-04T13:17:38Z</time>
      </trkpt>
      <trkpt lat="44.84526" lon="6.6006">
        <ele>1578.545</ele>
        <time>2010-07-04T13:17:45Z</time>
      </trkpt>
      <trkpt lat="44.84531" lon="6.60064">
        <ele>1579.185</ele>
        <time>2010-07-04T13:17:51Z</time>
      </trkpt>
      <trkpt lat="44.84533" lon="6.60062">
        <ele>1579.745</ele>
        <time>2010-07-04T13:17:53Z</time>
      </trkpt>
      <trkpt lat="44.84539" lon="6.60048">
        <ele>1580.734</ele>
        <time>2010-07-04T13:18:02Z</time>
      </trkpt>
      <trkpt lat="44.84547" lon="6.60036">
        <ele>1582.945</ele>
        <time>2010-07-04T13:18:11Z</time>
      </trkpt>
      <trkpt lat="44.84555" lon="6.60027">
        <ele>1584.825</ele>
        <time>2010-07-04T13:18:19Z</time>
      </trkpt>
      <trkpt lat="44.84565" lon="6.60022">
        <ele>1587.266</ele>
        <time>2010-07-04T13:18:27Z</time>
      </trkpt>
      <trkpt lat="44.84572" lon="6.60026">
        <ele>1588.596</ele>
        <time>2010-07-04T13:18:34Z</time>
      </trkpt>
      <trkpt lat="44.84581" lon="6.60028">
        <ele>1589.304</ele>
        <time>2010-07-04T13:18:41Z</time>
      </trkpt>
      <trkpt lat="44.84589" lon="6.60026">
        <ele>1589.694</ele>
        <time>2010-07-04T13:18:48Z</time>
      </trkpt>
      <trkpt lat="44.84593" lon="6.60022">
        <ele>1589.794</ele>
        <time>2010-07-04T13:18:51Z</time>
      </trkpt>
      <trkpt lat="44.84601" lon="6.60027">
        <ele>1587.821</ele>
        <time>2010-07-04T13:18:56Z</time>
      </trkpt>
      <trkpt lat="44.84611" lon="6.60031">
        <ele>1585.151</ele>
        <time>2010-07-04T13:19:00Z</time>
      </trkpt>
      <trkpt lat="44.84616" lon="6.60029">
        <ele>1584.402</ele>
        <time>2010-07-04T13:19:03Z</time>
      </trkpt>
      <trkpt lat="44.84626" lon="6.60022">
        <ele>1585.784</ele>
        <time>2010-07-04T13:19:09Z</time>
      </trkpt>
      <trkpt lat="44.84636" lon="6.60016">
        <ele>1590.466</ele>
        <time>2010-07-04T13:19:16Z</time>
      </trkpt>
      <trkpt lat="44.84637" lon="6.60015">
        <ele>1590.976</ele>
        <time>2010-07-04T13:19:17Z</time>
      </trkpt>
      <trkpt lat="44.84639" lon="6.60014">
        <ele>1589.576</ele>
        <time>2010-07-04T13:19:19Z</time>
      </trkpt>
      <trkpt lat="44.84651" lon="6.60008">
        <ele>1584.473</ele>
        <time>2010-07-04T13:19:27Z</time>
      </trkpt>
      <trkpt lat="44.84659" lon="6.60003">
        <ele>1585.815</ele>
        <time>2010-07-04T13:19:31Z</time>
      </trkpt>
      <trkpt lat="44.84669" lon="6.59993">
        <ele>1588.545</ele>
        <time>2010-07-04T13:19:36Z</time>
      </trkpt>
      <trkpt lat="44.84678" lon="6.59985">
        <ele>1588.505</ele>
        <time>2010-07-04T13:19:42Z</time>
      </trkpt>
      <trkpt lat="44.84684" lon="6.59978">
        <ele>1588.885</ele>
        <time>2010-07-04T13:19:47Z</time>
      </trkpt>
      <trkpt lat="44.84692" lon="6.59971">
        <ele>1590.515</ele>
        <time>2010-07-04T13:19:53Z</time>
      </trkpt>
      <trkpt lat="44.84698" lon="6.59965">
        <ele>1591.114</ele>
        <time>2010-07-04T13:19:57Z</time>
      </trkpt>
      <trkpt lat="44.8471" lon="6.59951">
        <ele>1590.963</ele>
        <time>2010-07-04T13:20:03Z</time>
      </trkpt>
      <trkpt lat="44.8472" lon="6.5994">
        <ele>1589.513</ele>
        <time>2010-07-04T13:20:08Z</time>
      </trkpt>
      <trkpt lat="44.84731" lon="6.59937">
        <ele>1589.104</ele>
        <time>2010-07-04T13:20:13Z</time>
      </trkpt>
      <trkpt lat="44.84748" lon="6.59939">
        <ele>1591.056</ele>
        <time>2010-07-04T13:20:20Z</time>
      </trkpt>
      <trkpt lat="44.84767" lon="6.59943">
        <ele>1591.915</ele>
        <time>2010-07-04T13:20:27Z</time>
      </trkpt>
      <trkpt lat="44.84788" lon="6.59949">
        <ele>1592.765</ele>
        <time>2010-07-04T13:20:33Z</time>
      </trkpt>
      <trkpt lat="44.8481" lon="6.59958">
        <ele>1593.886</ele>
        <time>2010-07-04T13:20:40Z</time>
      </trkpt>
      <trkpt lat="44.84832" lon="6.59973">
        <ele>1591.454</ele>
        <time>2010-07-04T13:20:48Z</time>
      </trkpt>
      <trkpt lat="44.8485" lon="6.59983">
        <ele>1586.892</ele>
        <time>2010-07-04T13:20:53Z</time>
      </trkpt>
      <trkpt lat="44.84871" lon="6.59992">
        <ele>1586.413</ele>
        <time>2010-07-04T13:21:00Z</time>
      </trkpt>
      <trkpt lat="44.84886" lon="6.60004">
        <ele>1578.081</ele>
        <time>2010-07-04T13:21:05Z</time>
      </trkpt>
      <trkpt lat="44.84902" lon="6.60014">
        <ele>1575.28</ele>
        <time>2010-07-04T13:21:10Z</time>
      </trkpt>
      <trkpt lat="44.84904" lon="6.60015">
        <ele>1575.391</ele>
        <time>2010-07-04T13:21:11Z</time>
      </trkpt>
      <trkpt lat="44.84916" lon="6.60029">
        <ele>1573.712</ele>
        <time>2010-07-04T13:21:18Z</time>
      </trkpt>
      <trkpt lat="44.84924" lon="6.60046">
        <ele>1570.521</ele>
        <time>2010-07-04T13:21:22Z</time>
      </trkpt>
      <trkpt lat="44.84929" lon="6.60059">
        <ele>1569.852</ele>
        <time>2010-07-04T13:21:27Z</time>
      </trkpt>
      <trkpt lat="44.84931" lon="6.60071">
        <ele>1569.924</ele>
        <time>2010-07-04T13:21:33Z</time>
      </trkpt>
      <trkpt lat="44.84933" lon="6.60086">
        <ele>1569.034</ele>
        <time>2010-07-04T13:21:40Z</time>
      </trkpt>
      <trkpt lat="44.84938" lon="6.60103">
        <ele>1566.433</ele>
        <time>2010-07-04T13:21:48Z</time>
      </trkpt>
      <trkpt lat="44.84942" lon="6.60115">
        <ele>1566.365</ele>
        <time>2010-07-04T13:21:55Z</time>
      </trkpt>
      <trkpt lat="44.84949" lon="6.60131">
        <ele>1567.484</ele>
        <time>2010-07-04T13:22:02Z</time>
      </trkpt>
      <trkpt lat="44.84958" lon="6.60144">
        <ele>1568.584</ele>
        <time>2010-07-04T13:22:08Z</time>
      </trkpt>
      <trkpt lat="44.84963" lon="6.60151">
        <ele>1569.935</ele>
        <time>2010-07-04T13:22:13Z</time>
      </trkpt>
      <trkpt lat="44.84973" lon="6.60159">
        <ele>1575.677</ele>
        <time>2010-07-04T13:22:21Z</time>
      </trkpt>
      <trkpt lat="44.84982" lon="6.60169">
        <ele>1580.627</ele>
        <time>2010-07-04T13:22:29Z</time>
      </trkpt>
      <trkpt lat="44.84986" lon="6.60179">
        <ele>1584.257</ele>
        <time>2010-07-04T13:22:35Z</time>
      </trkpt>
      <trkpt lat="44.84993" lon="6.60187">
        <ele>1586.476</ele>
        <time>2010-07-04T13:22:42Z</time>
      </trkpt>
      <trkpt lat="44.84996" lon="6.60198">
        <ele>1587.695</ele>
        <time>2010-07-04T13:22:49Z</time>
      </trkpt>
      <trkpt lat="44.85001" lon="6.60207">
        <ele>1588.825</ele>
        <time>2010-07-04T13:22:57Z</time>
      </trkpt>
      <trkpt lat="44.85005" lon="6.60222">
        <ele>1587.444</ele>
        <time>2010-07-04T13:23:04Z</time>
      </trkpt>
      <trkpt lat="44.85008" lon="6.60232">
        <ele>1588.284</ele>
        <time>2010-07-04T13:23:10Z</time>
      </trkpt>
      <trkpt lat="44.85015" lon="6.60246">
        <ele>1588.994</ele>
        <time>2010-07-04T13:23:18Z</time>
      </trkpt>
      <trkpt lat="44.8502" lon="6.60254">
        <ele>1590.924</ele>
        <time>2010-07-04T13:23:25Z</time>
      </trkpt>
      <trkpt lat="44.85025" lon="6.60261">
        <ele>1590.865</ele>
        <time>2010-07-04T13:23:31Z</time>
      </trkpt>
      <trkpt lat="44.85035" lon="6.60276">
        <ele>1589.654</ele>
        <time>2010-07-04T13:23:41Z</time>
      </trkpt>
      <trkpt lat="44.85044" lon="6.60283">
        <ele>1591.245</ele>
        <time>2010-07-04T13:23:45Z</time>
      </trkpt>
      <trkpt lat="44.85049" lon="6.60289">
        <ele>1589.324</ele>
        <time>2010-07-04T13:23:49Z</time>
      </trkpt>
      <trkpt lat="44.85063" lon="6.60299">
        <ele>1589.513</ele>
        <time>2010-07-04T13:23:55Z</time>
      </trkpt>
      <trkpt lat="44.85077" lon="6.60308">
        <ele>1590.455</ele>
        <time>2010-07-04T13:24:01Z</time>
      </trkpt>
      <trkpt lat="44.85089" lon="6.60314">
        <ele>1592.896</ele>
        <time>2010-07-04T13:24:08Z</time>
      </trkpt>
      <trkpt lat="44.85102" lon="6.60318">
        <ele>1590.615</ele>
        <time>2010-07-04T13:24:14Z</time>
      </trkpt>
      <trkpt lat="44.85111" lon="6.60322">
        <ele>1592.596</ele>
        <time>2010-07-04T13:24:19Z</time>
      </trkpt>
      <trkpt lat="44.85119" lon="6.60329">
        <ele>1593.936</ele>
        <time>2010-07-04T13:24:26Z</time>
      </trkpt>
      <trkpt lat="44.85127" lon="6.60345">
        <ele>1594.208</ele>
        <time>2010-07-04T13:24:35Z</time>
      </trkpt>
      <trkpt lat="44.85136" lon="6.60355">
        <ele>1596.358</ele>
        <time>2010-07-04T13:24:42Z</time>
      </trkpt>
      <trkpt lat="44.85145" lon="6.60364">
        <ele>1599.337</ele>
        <time>2010-07-04T13:24:50Z</time>
      </trkpt>
      <trkpt lat="44.85156" lon="6.60375">
        <ele>1600.955</ele>
        <time>2010-07-04T13:24:58Z</time>
      </trkpt>
      <trkpt lat="44.85168" lon="6.60387">
        <ele>1600.885</ele>
        <time>2010-07-04T13:25:02Z</time>
      </trkpt>
      <trkpt lat="44.85175" lon="6.60395">
        <ele>1601.796</ele>
        <time>2010-07-04T13:25:06Z</time>
      </trkpt>
      <trkpt lat="44.85188" lon="6.60409">
        <ele>1600.963</ele>
        <time>2010-07-04T13:25:12Z</time>
      </trkpt>
      <trkpt lat="44.852" lon="6.60422">
        <ele>1599.984</ele>
        <time>2010-07-04T13:25:15Z</time>
      </trkpt>
      <trkpt lat="44.85209" lon="6.60433">
        <ele>1599.604</ele>
        <time>2010-07-04T13:25:17Z</time>
      </trkpt>
      <trkpt lat="44.85225" lon="6.60454">
        <ele>1599.094</ele>
        <time>2010-07-04T13:25:22Z</time>
      </trkpt>
      <trkpt lat="44.85229" lon="6.60459">
        <ele>1598.693</ele>
        <time>2010-07-04T13:25:24Z</time>
      </trkpt>
      <trkpt lat="44.85235" lon="6.60459">
        <ele>1593.243</ele>
        <time>2010-07-04T13:25:28Z</time>
      </trkpt>
      <trkpt lat="44.85237" lon="6.60448">
        <ele>1591.653</ele>
        <time>2010-07-04T13:25:31Z</time>
      </trkpt>
      <trkpt lat="44.8525" lon="6.60433">
        <ele>1588.492</ele>
        <time>2010-07-04T13:25:36Z</time>
      </trkpt>
      <trkpt lat="44.85257" lon="6.60407">
        <ele>1587.343</ele>
        <time>2010-07-04T13:25:40Z</time>
      </trkpt>
      <trkpt lat="44.85269" lon="6.6039">
        <ele>1588.366</ele>
        <time>2010-07-04T13:25:44Z</time>
      </trkpt>
      <trkpt lat="44.85273" lon="6.60387">
        <ele>1587.265</ele>
        <time>2010-07-04T13:25:45Z</time>
      </trkpt>
      <trkpt lat="44.85294" lon="6.60383">
        <ele>1582.733</ele>
        <time>2010-07-04T13:25:51Z</time>
      </trkpt>
      <trkpt lat="44.85308" lon="6.6037">
        <ele>1576.289</ele>
        <time>2010-07-04T13:25:56Z</time>
      </trkpt>
      <trkpt lat="44.85315" lon="6.60357">
        <ele>1570.977</ele>
        <time>2010-07-04T13:25:59Z</time>
      </trkpt>
      <trkpt lat="44.85315" lon="6.6033">
        <ele>1563.955</ele>
        <time>2010-07-04T13:26:03Z</time>
      </trkpt>
      <trkpt lat="44.85309" lon="6.60293">
        <ele>1553.604</ele>
        <time>2010-07-04T13:26:09Z</time>
      </trkpt>
      <trkpt lat="44.85306" lon="6.60271">
        <ele>1548.585</ele>
        <time>2010-07-04T13:26:12Z</time>
      </trkpt>
      <trkpt lat="44.85296" lon="6.60239">
        <ele>1542.558</ele>
        <time>2010-07-04T13:26:17Z</time>
      </trkpt>
      <trkpt lat="44.85291" lon="6.60221">
        <ele>1538.427</ele>
        <time>2010-07-04T13:26:20Z</time>
      </trkpt>
      <trkpt lat="44.85276" lon="6.60195">
        <ele>1534.058</ele>
        <time>2010-07-04T13:26:24Z</time>
      </trkpt>
      <trkpt lat="44.85254" lon="6.60173">
        <ele>1530.318</ele>
        <time>2010-07-04T13:26:28Z</time>
      </trkpt>
      <trkpt lat="44.85235" lon="6.60162">
        <ele>1529.102</ele>
        <time>2010-07-04T13:26:32Z</time>
      </trkpt>
      <trkpt lat="44.85233" lon="6.60162">
        <ele>1529.303</ele>
        <time>2010-07-04T13:26:33Z</time>
      </trkpt>
      <trkpt lat="44.85219" lon="6.60163">
        <ele>1531.487</ele>
        <time>2010-07-04T13:26:41Z</time>
      </trkpt>
      <trkpt lat="44.85213" lon="6.60163">
        <ele>1533.137</ele>
        <time>2010-07-04T13:26:45Z</time>
      </trkpt>
      <trkpt lat="44.85208" lon="6.60157">
        <ele>1534.056</ele>
        <time>2010-07-04T13:26:49Z</time>
      </trkpt>
      <trkpt lat="44.85202" lon="6.60141">
        <ele>1533.284</ele>
        <time>2010-07-04T13:26:55Z</time>
      </trkpt>
      <trkpt lat="44.85198" lon="6.60127">
        <ele>1532.385</ele>
        <time>2010-07-04T13:27:00Z</time>
      </trkpt>
      <trkpt lat="44.85194" lon="6.60109">
        <ele>1533.296</ele>
        <time>2010-07-04T13:27:04Z</time>
      </trkpt>
      <trkpt lat="44.85187" lon="6.60089">
        <ele>1532.755</ele>
        <time>2010-07-04T13:27:09Z</time>
      </trkpt>
      <trkpt lat="44.85188" lon="6.60078">
        <ele>1532.124</ele>
        <time>2010-07-04T13:27:12Z</time>
      </trkpt>
      <trkpt lat="44.85204" lon="6.60063">
        <ele>1525.419</ele>
        <time>2010-07-04T13:27:18Z</time>
      </trkpt>
      <trkpt lat="44.8521" lon="6.60049">
        <ele>1521.609</ele>
        <time>2010-07-04T13:27:23Z</time>
      </trkpt>
      <trkpt lat="44.85215" lon="6.60049">
        <ele>1518.978</ele>
        <time>2010-07-04T13:27:25Z</time>
      </trkpt>
      <trkpt lat="44.8522" lon="6.6005">
        <ele>1517.108</ele>
        <time>2010-07-04T13:27:27Z</time>
      </trkpt>
      <trkpt lat="44.85222" lon="6.60042">
        <ele>1513.078</ele>
        <time>2010-07-04T13:27:31Z</time>
      </trkpt>
      <trkpt lat="44.85215" lon="6.60023">
        <ele>1508.21</ele>
        <time>2010-07-04T13:27:37Z</time>
      </trkpt>
      <trkpt lat="44.85208" lon="6.60009">
        <ele>1504.18</ele>
        <time>2010-07-04T13:27:42Z</time>
      </trkpt>
      <trkpt lat="44.85204" lon="6.59985">
        <ele>1503.041</ele>
        <time>2010-07-04T13:27:47Z</time>
      </trkpt>
      <trkpt lat="44.85197" lon="6.59973">
        <ele>1500.291</ele>
        <time>2010-07-04T13:27:51Z</time>
      </trkpt>
      <trkpt lat="44.85189" lon="6.59953">
        <ele>1495.908</ele>
        <time>2010-07-04T13:27:56Z</time>
      </trkpt>
      <trkpt lat="44.85185" lon="6.5994">
        <ele>1494.51</ele>
        <time>2010-07-04T13:27:59Z</time>
      </trkpt>
      <trkpt lat="44.85172" lon="6.59931">
        <ele>1492.15</ele>
        <time>2010-07-04T13:28:04Z</time>
      </trkpt>
      <trkpt lat="44.8516" lon="6.59927">
        <ele>1488</ele>
        <time>2010-07-04T13:28:08Z</time>
      </trkpt>
      <trkpt lat="44.85156" lon="6.59927">
        <ele>1488.791</ele>
        <time>2010-07-04T13:28:10Z</time>
      </trkpt>
      <trkpt lat="44.85144" lon="6.59922">
        <ele>1487.462</ele>
        <time>2010-07-04T13:28:14Z</time>
      </trkpt>
      <trkpt lat="44.8514" lon="6.5991">
        <ele>1485.551</ele>
        <time>2010-07-04T13:28:17Z</time>
      </trkpt>
      <trkpt lat="44.85143" lon="6.59902">
        <ele>1483.862</ele>
        <time>2010-07-04T13:28:20Z</time>
      </trkpt>
      <trkpt lat="44.85151" lon="6.59886">
        <ele>1482.213</ele>
        <time>2010-07-04T13:28:25Z</time>
      </trkpt>
      <trkpt lat="44.85148" lon="6.59868">
        <ele>1478.17</ele>
        <time>2010-07-04T13:28:30Z</time>
      </trkpt>
      <trkpt lat="44.85138" lon="6.59861">
        <ele>1474.38</ele>
        <time>2010-07-04T13:28:35Z</time>
      </trkpt>
      <trkpt lat="44.85133" lon="6.59853">
        <ele>1471.3</ele>
        <time>2010-07-04T13:28:40Z</time>
      </trkpt>
      <trkpt lat="44.85136" lon="6.5984">
        <ele>1466.511</ele>
        <time>2010-07-04T13:28:46Z</time>
      </trkpt>
      <trkpt lat="44.85137" lon="6.59838">
        <ele>1465.491</ele>
        <time>2010-07-04T13:28:48Z</time>
      </trkpt>
      <trkpt lat="44.8514" lon="6.59835">
        <ele>1465.541</ele>
        <time>2010-07-04T13:28:51Z</time>
      </trkpt>
      <trkpt lat="44.8515" lon="6.59842">
        <ele>1464.612</ele>
        <time>2010-07-04T13:28:57Z</time>
      </trkpt>
      <trkpt lat="44.85159" lon="6.5985">
        <ele>1461.732</ele>
        <time>2010-07-04T13:29:01Z</time>
      </trkpt>
      <trkpt lat="44.85174" lon="6.59848">
        <ele>1459.832</ele>
        <time>2010-07-04T13:29:05Z</time>
      </trkpt>
      <trkpt lat="44.85178" lon="6.59848">
        <ele>1459.702</ele>
        <time>2010-07-04T13:29:06Z</time>
      </trkpt>
      <trkpt lat="44.85197" lon="6.59844">
        <ele>1458.143</ele>
        <time>2010-07-04T13:29:11Z</time>
      </trkpt>
      <trkpt lat="44.85215" lon="6.59848">
        <ele>1455.143</ele>
        <time>2010-07-04T13:29:17Z</time>
      </trkpt>
      <trkpt lat="44.85225" lon="6.5985">
        <ele>1453.572</ele>
        <time>2010-07-04T13:29:20Z</time>
      </trkpt>
      <trkpt lat="44.85244" lon="6.59855">
        <ele>1448.848</ele>
        <time>2010-07-04T13:29:25Z</time>
      </trkpt>
      <trkpt lat="44.85251" lon="6.59853">
        <ele>1447.139</ele>
        <time>2010-07-04T13:29:27Z</time>
      </trkpt>
      <trkpt lat="44.85268" lon="6.59855">
        <ele>1442.929</ele>
        <time>2010-07-04T13:29:32Z</time>
      </trkpt>
      <trkpt lat="44.85278" lon="6.59859">
        <ele>1439.689</ele>
        <time>2010-07-04T13:29:36Z</time>
      </trkpt>
      <trkpt lat="44.85287" lon="6.59868">
        <ele>1438.38</ele>
        <time>2010-07-04T13:29:40Z</time>
      </trkpt>
      <trkpt lat="44.85302" lon="6.59877">
        <ele>1432.49</ele>
        <time>2010-07-04T13:29:46Z</time>
      </trkpt>
      <trkpt lat="44.85312" lon="6.59885">
        <ele>1427.879</ele>
        <time>2010-07-04T13:29:51Z</time>
      </trkpt>
      <trkpt lat="44.85315" lon="6.59892">
        <ele>1425.529</ele>
        <time>2010-07-04T13:29:55Z</time>
      </trkpt>
      <trkpt lat="44.85321" lon="6.59898">
        <ele>1422.969</ele>
        <time>2010-07-04T13:29:58Z</time>
      </trkpt>
      <trkpt lat="44.85328" lon="6.59904">
        <ele>1420.608</ele>
        <time>2010-07-04T13:30:00Z</time>
      </trkpt>
      <trkpt lat="44.85341" lon="6.5992">
        <ele>1415.978</ele>
        <time>2010-07-04T13:30:04Z</time>
      </trkpt>
      <trkpt lat="44.8535" lon="6.59935">
        <ele>1414.278</ele>
        <time>2010-07-04T13:30:07Z</time>
      </trkpt>
      <trkpt lat="44.85366" lon="6.59955">
        <ele>1412.338</ele>
        <time>2010-07-04T13:30:12Z</time>
      </trkpt>
      <trkpt lat="44.85376" lon="6.59964">
        <ele>1410.16</ele>
        <time>2010-07-04T13:30:17Z</time>
      </trkpt>
      <trkpt lat="44.85382" lon="6.59968">
        <ele>1409.631</ele>
        <time>2010-07-04T13:30:19Z</time>
      </trkpt>
      <trkpt lat="44.85403" lon="6.59973">
        <ele>1407.951</ele>
        <time>2010-07-04T13:30:24Z</time>
      </trkpt>
      <trkpt lat="44.85421" lon="6.59989">
        <ele>1406.261</ele>
        <time>2010-07-04T13:30:29Z</time>
      </trkpt>
      <trkpt lat="44.85431" lon="6.59992">
        <ele>1405.121</ele>
        <time>2010-07-04T13:30:32Z</time>
      </trkpt>
      <trkpt lat="44.85437" lon="6.59989">
        <ele>1405.633</ele>
        <time>2010-07-04T13:30:34Z</time>
      </trkpt>
      <trkpt lat="44.85453" lon="6.5998">
        <ele>1408.805</ele>
        <time>2010-07-04T13:30:40Z</time>
      </trkpt>
      <trkpt lat="44.85466" lon="6.59977">
        <ele>1412.747</ele>
        <time>2010-07-04T13:30:45Z</time>
      </trkpt>
      <trkpt lat="44.85479" lon="6.59976">
        <ele>1413.776</ele>
        <time>2010-07-04T13:30:49Z</time>
      </trkpt>
      <trkpt lat="44.85499" lon="6.59974">
        <ele>1413.506</ele>
        <time>2010-07-04T13:30:54Z</time>
      </trkpt>
      <trkpt lat="44.85514" lon="6.59981">
        <ele>1412.504</ele>
        <time>2010-07-04T13:30:58Z</time>
      </trkpt>
      <trkpt lat="44.8553" lon="6.59989">
        <ele>1412.464</ele>
        <time>2010-07-04T13:31:02Z</time>
      </trkpt>
      <trkpt lat="44.85532" lon="6.59989">
        <ele>1412.085</ele>
        <time>2010-07-04T13:31:04Z</time>
      </trkpt>
      <trkpt lat="44.85536" lon="6.59986">
        <ele>1403.521</ele>
        <time>2010-07-04T13:31:08Z</time>
      </trkpt>
      <trkpt lat="44.85532" lon="6.59978">
        <ele>1400.609</ele>
        <time>2010-07-04T13:31:10Z</time>
      </trkpt>
      <trkpt lat="44.85524" lon="6.59959">
        <ele>1394.718</ele>
        <time>2010-07-04T13:31:15Z</time>
      </trkpt>
      <trkpt lat="44.85522" lon="6.59955">
        <ele>1393.467</ele>
        <time>2010-07-04T13:31:16Z</time>
      </trkpt>
      <trkpt lat="44.85508" lon="6.59938">
        <ele>1388.848</ele>
        <time>2010-07-04T13:31:20Z</time>
      </trkpt>
      <trkpt lat="44.85498" lon="6.59918">
        <ele>1384.347</ele>
        <time>2010-07-04T13:31:24Z</time>
      </trkpt>
      <trkpt lat="44.85488" lon="6.5989">
        <ele>1380.328</ele>
        <time>2010-07-04T13:31:29Z</time>
      </trkpt>
      <trkpt lat="44.85484" lon="6.59872">
        <ele>1377.828</ele>
        <time>2010-07-04T13:31:32Z</time>
      </trkpt>
      <trkpt lat="44.85468" lon="6.59842">
        <ele>1372.246</ele>
        <time>2010-07-04T13:31:37Z</time>
      </trkpt>
      <trkpt lat="44.85456" lon="6.59821">
        <ele>1367.987</ele>
        <time>2010-07-04T13:31:41Z</time>
      </trkpt>
      <trkpt lat="44.85451" lon="6.59811">
        <ele>1366.037</ele>
        <time>2010-07-04T13:31:43Z</time>
      </trkpt>
      <trkpt lat="44.85444" lon="6.59784">
        <ele>1363.448</ele>
        <time>2010-07-04T13:31:47Z</time>
      </trkpt>
      <trkpt lat="44.8544" lon="6.59743">
        <ele>1359.458</ele>
        <time>2010-07-04T13:31:52Z</time>
      </trkpt>
      <trkpt lat="44.85434" lon="6.59717">
        <ele>1354.628</ele>
        <time>2010-07-04T13:31:56Z</time>
      </trkpt>
      <trkpt lat="44.85419" lon="6.59695">
        <ele>1350.379</ele>
        <time>2010-07-04T13:32:00Z</time>
      </trkpt>
      <trkpt lat="44.85402" lon="6.59676">
        <ele>1348.461</ele>
        <time>2010-07-04T13:32:03Z</time>
      </trkpt>
      <trkpt lat="44.854" lon="6.59658">
        <ele>1347.002</ele>
        <time>2010-07-04T13:32:07Z</time>
      </trkpt>
      <trkpt lat="44.85406" lon="6.59649">
        <ele>1346.052</ele>
        <time>2010-07-04T13:32:10Z</time>
      </trkpt>
      <trkpt lat="44.85408" lon="6.59649">
        <ele>1345.061</ele>
        <time>2010-07-04T13:32:11Z</time>
      </trkpt>
      <trkpt lat="44.85431" lon="6.59644">
        <ele>1336.936</ele>
        <time>2010-07-04T13:32:18Z</time>
      </trkpt>
      <trkpt lat="44.85434" lon="6.59642">
        <ele>1336.047</ele>
        <time>2010-07-04T13:32:19Z</time>
      </trkpt>
      <trkpt lat="44.85433" lon="6.59632">
        <ele>1332.739</ele>
        <time>2010-07-04T13:32:23Z</time>
      </trkpt>
      <trkpt lat="44.85424" lon="6.59622">
        <ele>1330.831</ele>
        <time>2010-07-04T13:32:27Z</time>
      </trkpt>
      <trkpt lat="44.85409" lon="6.59607">
        <ele>1328.542</ele>
        <time>2010-07-04T13:32:33Z</time>
      </trkpt>
      <trkpt lat="44.85403" lon="6.59598">
        <ele>1327.923</ele>
        <time>2010-07-04T13:32:38Z</time>
      </trkpt>
      <trkpt lat="44.854" lon="6.59592">
        <ele>1327.584</ele>
        <time>2010-07-04T13:32:43Z</time>
      </trkpt>
      <trkpt lat="44.85408" lon="6.59593">
        <ele>1325.802</ele>
        <time>2010-07-04T13:32:48Z</time>
      </trkpt>
      <trkpt lat="44.8541" lon="6.59595">
        <ele>1325.371</ele>
        <time>2010-07-04T13:32:49Z</time>
      </trkpt>
      <trkpt lat="44.85432" lon="6.5961">
        <ele>1322.973</ele>
        <time>2010-07-04T13:32:56Z</time>
      </trkpt>
      <trkpt lat="44.85445" lon="6.59621">
        <ele>1322.353</ele>
        <time>2010-07-04T13:33:01Z</time>
      </trkpt>
      <trkpt lat="44.85455" lon="6.59631">
        <ele>1321.903</ele>
        <time>2010-07-04T13:33:06Z</time>
      </trkpt>
      <trkpt lat="44.85466" lon="6.59644">
        <ele>1322.203</ele>
        <time>2010-07-04T13:33:12Z</time>
      </trkpt>
      <trkpt lat="44.85478" lon="6.59659">
        <ele>1322.903</ele>
        <time>2010-07-04T13:33:18Z</time>
      </trkpt>
      <trkpt lat="44.85486" lon="6.5967">
        <ele>1322.272</ele>
        <time>2010-07-04T13:33:24Z</time>
      </trkpt>
      <trkpt lat="44.85488" lon="6.59672">
        <ele>1324.204</ele>
        <time>2010-07-04T13:33:30Z</time>
      </trkpt>
      <trkpt lat="44.85491" lon="6.59675">
        <ele>1326.764</ele>
        <time>2010-07-04T13:33:41Z</time>
      </trkpt>
      <trkpt lat="44.85492" lon="6.59676">
        <ele>1327.405</ele>
        <time>2010-07-04T13:33:47Z</time>
      </trkpt>
      <trkpt lat="44.85493" lon="6.59676">
        <ele>1328.026</ele>
        <time>2010-07-04T13:33:53Z</time>
      </trkpt>
      <trkpt lat="44.85494" lon="6.59678">
        <ele>1328.074</ele>
        <time>2010-07-04T13:34:01Z</time>
      </trkpt>
      <trkpt lat="44.85495" lon="6.59678">
        <ele>1328.015</ele>
        <time>2010-07-04T13:34:49Z</time>
      </trkpt>
      <trkpt lat="44.85495" lon="6.59678">
        <ele>1326.884</ele>
        <time>2010-07-04T13:34:57Z</time>
      </trkpt>
      <trkpt lat="44.85494" lon="6.59679">
        <ele>1328.426</ele>
        <time>2010-07-04T13:35:13Z</time>
      </trkpt>
      <trkpt lat="44.85495" lon="6.59679">
        <ele>1329.466</ele>
        <time>2010-07-04T13:35:15Z</time>
      </trkpt>
      <trkpt lat="44.85507" lon="6.59687">
        <ele>1326.372</ele>
        <time>2010-07-04T13:35:20Z</time>
      </trkpt>
      <trkpt lat="44.85518" lon="6.59692">
        <ele>1324.211</ele>
        <time>2010-07-04T13:35:23Z</time>
      </trkpt>
      <trkpt lat="44.85523" lon="6.59691">
        <ele>1323.231</ele>
        <time>2010-07-04T13:35:25Z</time>
      </trkpt>
      <trkpt lat="44.85531" lon="6.59695">
        <ele>1322.032</ele>
        <time>2010-07-04T13:35:29Z</time>
      </trkpt>
      <trkpt lat="44.85549" lon="6.59718">
        <ele>1320.223</ele>
        <time>2010-07-04T13:35:36Z</time>
      </trkpt>
      <trkpt lat="44.85563" lon="6.59738">
        <ele>1318.513</ele>
        <time>2010-07-04T13:35:41Z</time>
      </trkpt>
      <trkpt lat="44.85566" lon="6.59741">
        <ele>1318.073</ele>
        <time>2010-07-04T13:35:42Z</time>
      </trkpt>
      <trkpt lat="44.85583" lon="6.5975">
        <ele>1316.032</ele>
        <time>2010-07-04T13:35:46Z</time>
      </trkpt>
      <trkpt lat="44.856" lon="6.59765">
        <ele>1312.972</ele>
        <time>2010-07-04T13:35:50Z</time>
      </trkpt>
      <trkpt lat="44.85617" lon="6.59784">
        <ele>1312.554</ele>
        <time>2010-07-04T13:35:55Z</time>
      </trkpt>
      <trkpt lat="44.85628" lon="6.59781">
        <ele>1312.615</ele>
        <time>2010-07-04T13:35:59Z</time>
      </trkpt>
      <trkpt lat="44.85633" lon="6.59788">
        <ele>1312.235</ele>
        <time>2010-07-04T13:36:02Z</time>
      </trkpt>
      <trkpt lat="44.85634" lon="6.59796">
        <ele>1311.924</ele>
        <time>2010-07-04T13:36:04Z</time>
      </trkpt>
      <trkpt lat="44.85635" lon="6.59802">
        <ele>1311.534</ele>
        <time>2010-07-04T13:36:06Z</time>
      </trkpt>
      <trkpt lat="44.8564" lon="6.59814">
        <ele>1309.011</ele>
        <time>2010-07-04T13:36:11Z</time>
      </trkpt>
      <trkpt lat="44.85646" lon="6.59825">
        <ele>1306.101</ele>
        <time>2010-07-04T13:36:16Z</time>
      </trkpt>
      <trkpt lat="44.85655" lon="6.59836">
        <ele>1306.624</ele>
        <time>2010-07-04T13:36:23Z</time>
      </trkpt>
      <trkpt lat="44.85655" lon="6.59835">
        <ele>1310.766</ele>
        <time>2010-07-04T13:36:28Z</time>
      </trkpt>
      <trkpt lat="44.85657" lon="6.59836">
        <ele>1310.205</ele>
        <time>2010-07-04T13:36:36Z</time>
      </trkpt>
      <trkpt lat="44.85657" lon="6.59838">
        <ele>1308.915</ele>
        <time>2010-07-04T13:36:46Z</time>
      </trkpt>
      <trkpt lat="44.85668" lon="6.59842">
        <ele>1308.935</ele>
        <time>2010-07-04T13:36:52Z</time>
      </trkpt>
      <trkpt lat="44.85678" lon="6.5985">
        <ele>1308.574</ele>
        <time>2010-07-04T13:36:58Z</time>
      </trkpt>
      <trkpt lat="44.85682" lon="6.59857">
        <ele>1307.945</ele>
        <time>2010-07-04T13:37:04Z</time>
      </trkpt>
      <trkpt lat="44.85686" lon="6.59864">
        <ele>1308.585</ele>
        <time>2010-07-04T13:37:10Z</time>
      </trkpt>
      <trkpt lat="44.85687" lon="6.59864">
        <ele>1309.655</ele>
        <time>2010-07-04T13:37:15Z</time>
      </trkpt>
      <trkpt lat="44.8569" lon="6.59867">
        <ele>1309.755</ele>
        <time>2010-07-04T13:37:22Z</time>
      </trkpt>
      <trkpt lat="44.85693" lon="6.59872">
        <ele>1309.815</ele>
        <time>2010-07-04T13:37:28Z</time>
      </trkpt>
      <trkpt lat="44.85702" lon="6.59893">
        <ele>1308.122</ele>
        <time>2010-07-04T13:37:33Z</time>
      </trkpt>
      <trkpt lat="44.8571" lon="6.59917">
        <ele>1307.583</ele>
        <time>2010-07-04T13:37:38Z</time>
      </trkpt>
      <trkpt lat="44.85721" lon="6.59933">
        <ele>1308.923</ele>
        <time>2010-07-04T13:37:43Z</time>
      </trkpt>
      <trkpt lat="44.85729" lon="6.59944">
        <ele>1308.585</ele>
        <time>2010-07-04T13:37:48Z</time>
      </trkpt>
      <trkpt lat="44.85737" lon="6.59954">
        <ele>1310.786</ele>
        <time>2010-07-04T13:37:55Z</time>
      </trkpt>
      <trkpt lat="44.85745" lon="6.59963">
        <ele>1311.647</ele>
        <time>2010-07-04T13:38:00Z</time>
      </trkpt>
      <trkpt lat="44.85753" lon="6.59974">
        <ele>1309.974</ele>
        <time>2010-07-04T13:38:05Z</time>
      </trkpt>
      <trkpt lat="44.85768" lon="6.59984">
        <ele>1305.582</ele>
        <time>2010-07-04T13:38:10Z</time>
      </trkpt>
      <trkpt lat="44.8577" lon="6.59985">
        <ele>1305.263</ele>
        <time>2010-07-04T13:38:11Z</time>
      </trkpt>
      <trkpt lat="44.85774" lon="6.60005">
        <ele>1300.712</ele>
        <time>2010-07-04T13:38:16Z</time>
      </trkpt>
      <trkpt lat="44.85775" lon="6.60036">
        <ele>1298.012</ele>
        <time>2010-07-04T13:38:22Z</time>
      </trkpt>
      <trkpt lat="44.85779" lon="6.60047">
        <ele>1298.684</ele>
        <time>2010-07-04T13:38:28Z</time>
      </trkpt>
      <trkpt lat="44.8578" lon="6.60049">
        <ele>1299.255</ele>
        <time>2010-07-04T13:38:29Z</time>
      </trkpt>
      <trkpt lat="44.85791" lon="6.60049">
        <ele>1300.217</ele>
        <time>2010-07-04T13:38:36Z</time>
      </trkpt>
      <trkpt lat="44.85802" lon="6.60047">
        <ele>1299.886</ele>
        <time>2010-07-04T13:38:43Z</time>
      </trkpt>
      <trkpt lat="44.85813" lon="6.60046">
        <ele>1300.847</ele>
        <time>2010-07-04T13:38:50Z</time>
      </trkpt>
      <trkpt lat="44.85824" lon="6.60042">
        <ele>1303.129</ele>
        <time>2010-07-04T13:38:56Z</time>
      </trkpt>
      <trkpt lat="44.85835" lon="6.60035">
        <ele>1305.047</ele>
        <time>2010-07-04T13:39:03Z</time>
      </trkpt>
      <trkpt lat="44.85845" lon="6.60042">
        <ele>1305.556</ele>
        <time>2010-07-04T13:39:07Z</time>
      </trkpt>
      <trkpt lat="44.85859" lon="6.60061">
        <ele>1304.964</ele>
        <time>2010-07-04T13:39:13Z</time>
      </trkpt>
      <trkpt lat="44.85863" lon="6.60072">
        <ele>1302.993</ele>
        <time>2010-07-04T13:39:15Z</time>
      </trkpt>
      <trkpt lat="44.85879" lon="6.60101">
        <ele>1301.544</ele>
        <time>2010-07-04T13:39:20Z</time>
      </trkpt>
      <trkpt lat="44.85886" lon="6.60111">
        <ele>1301.265</ele>
        <time>2010-07-04T13:39:24Z</time>
      </trkpt>
      <trkpt lat="44.85894" lon="6.60123">
        <ele>1300.813</ele>
        <time>2010-07-04T13:39:28Z</time>
      </trkpt>
      <trkpt lat="44.85902" lon="6.60137">
        <ele>1301.243</ele>
        <time>2010-07-04T13:39:33Z</time>
      </trkpt>
      <trkpt lat="44.85911" lon="6.60147">
        <ele>1301.324</ele>
        <time>2010-07-04T13:39:37Z</time>
      </trkpt>
      <trkpt lat="44.85932" lon="6.60171">
        <ele>1300.564</ele>
        <time>2010-07-04T13:39:42Z</time>
      </trkpt>
      <trkpt lat="44.8594" lon="6.6019">
        <ele>1298.572</ele>
        <time>2010-07-04T13:39:45Z</time>
      </trkpt>
      <trkpt lat="44.85954" lon="6.60213">
        <ele>1295.663</ele>
        <time>2010-07-04T13:39:50Z</time>
      </trkpt>
      <trkpt lat="44.85962" lon="6.60228">
        <ele>1295.696</ele>
        <time>2010-07-04T13:39:57Z</time>
      </trkpt>
      <trkpt lat="44.85968" lon="6.6024">
        <ele>1299.108</ele>
        <time>2010-07-04T13:40:04Z</time>
      </trkpt>
      <trkpt lat="44.85973" lon="6.60257">
        <ele>1297.794</ele>
        <time>2010-07-04T13:40:10Z</time>
      </trkpt>
      <trkpt lat="44.85978" lon="6.60297">
        <ele>1295.704</ele>
        <time>2010-07-04T13:40:15Z</time>
      </trkpt>
      <trkpt lat="44.8598" lon="6.60307">
        <ele>1295.305</ele>
        <time>2010-07-04T13:40:19Z</time>
      </trkpt>
      <trkpt lat="44.85978" lon="6.60322">
        <ele>1296.506</ele>
        <time>2010-07-04T13:40:26Z</time>
      </trkpt>
      <trkpt lat="44.85979" lon="6.60334">
        <ele>1297.607</ele>
        <time>2010-07-04T13:40:31Z</time>
      </trkpt>
      <trkpt lat="44.85978" lon="6.60341">
        <ele>1298.847</ele>
        <time>2010-07-04T13:40:35Z</time>
      </trkpt>
      <trkpt lat="44.85981" lon="6.60356">
        <ele>1300.897</ele>
        <time>2010-07-04T13:40:42Z</time>
      </trkpt>
      <trkpt lat="44.85985" lon="6.6037">
        <ele>1303.277</ele>
        <time>2010-07-04T13:40:50Z</time>
      </trkpt>
      <trkpt lat="44.85985" lon="6.60373">
        <ele>1303.978</ele>
        <time>2010-07-04T13:40:52Z</time>
      </trkpt>
      <trkpt lat="44.85985" lon="6.60379">
        <ele>1305.178</ele>
        <time>2010-07-04T13:40:56Z</time>
      </trkpt>
      <trkpt lat="44.85983" lon="6.60389">
        <ele>1304.568</ele>
        <time>2010-07-04T13:41:03Z</time>
      </trkpt>
      <trkpt lat="44.85976" lon="6.60391">
        <ele>1305.929</ele>
        <time>2010-07-04T13:41:10Z</time>
      </trkpt>
      <trkpt lat="44.85966" lon="6.6039">
        <ele>1306.148</ele>
        <time>2010-07-04T13:41:18Z</time>
      </trkpt>
      <trkpt lat="44.85964" lon="6.60392">
        <ele>1308.349</ele>
        <time>2010-07-04T13:41:23Z</time>
      </trkpt>
      <trkpt lat="44.85957" lon="6.60409">
        <ele>1309.448</ele>
        <time>2010-07-04T13:41:30Z</time>
      </trkpt>
      <trkpt lat="44.85953" lon="6.60418">
        <ele>1311.379</ele>
        <time>2010-07-04T13:41:35Z</time>
      </trkpt>
      <trkpt lat="44.85951" lon="6.60426">
        <ele>1315.64</ele>
        <time>2010-07-04T13:41:43Z</time>
      </trkpt>
      <trkpt lat="44.85946" lon="6.60433">
        <ele>1315.978</ele>
        <time>2010-07-04T13:41:48Z</time>
      </trkpt>
      <trkpt lat="44.85942" lon="6.60439">
        <ele>1314.636</ele>
        <time>2010-07-04T13:41:52Z</time>
      </trkpt>
      <trkpt lat="44.8594" lon="6.60448">
        <ele>1311.484</ele>
        <time>2010-07-04T13:41:57Z</time>
      </trkpt>
      <trkpt lat="44.85939" lon="6.60465">
        <ele>1311.276</ele>
        <time>2010-07-04T13:42:05Z</time>
      </trkpt>
      <trkpt lat="44.85939" lon="6.60481">
        <ele>1313.086</ele>
        <time>2010-07-04T13:42:12Z</time>
      </trkpt>
      <trkpt lat="44.8594" lon="6.60499">
        <ele>1314.656</ele>
        <time>2010-07-04T13:42:19Z</time>
      </trkpt>
      <trkpt lat="44.85946" lon="6.60518">
        <ele>1315.964</ele>
        <time>2010-07-04T13:42:25Z</time>
      </trkpt>
      <trkpt lat="44.85952" lon="6.60545">
        <ele>1314.304</ele>
        <time>2010-07-04T13:42:30Z</time>
      </trkpt>
      <trkpt lat="44.85949" lon="6.60574">
        <ele>1311.844</ele>
        <time>2010-07-04T13:42:35Z</time>
      </trkpt>
      <trkpt lat="44.85956" lon="6.60595">
        <ele>1309.652</ele>
        <time>2010-07-04T13:42:39Z</time>
      </trkpt>
      <trkpt lat="44.85966" lon="6.60617">
        <ele>1307.612</ele>
        <time>2010-07-04T13:42:43Z</time>
      </trkpt>
      <trkpt lat="44.85982" lon="6.60661">
        <ele>1305.972</ele>
        <time>2010-07-04T13:42:49Z</time>
      </trkpt>
      <trkpt lat="44.85993" lon="6.60689">
        <ele>1305.401</ele>
        <time>2010-07-04T13:42:53Z</time>
      </trkpt>
      <trkpt lat="44.86002" lon="6.60715">
        <ele>1305.833</ele>
        <time>2010-07-04T13:42:57Z</time>
      </trkpt>
      <trkpt lat="44.86006" lon="6.60728">
        <ele>1304.942</ele>
        <time>2010-07-04T13:42:59Z</time>
      </trkpt>
      <trkpt lat="44.86012" lon="6.60758">
        <ele>1303.633</ele>
        <time>2010-07-04T13:43:04Z</time>
      </trkpt>
      <trkpt lat="44.86022" lon="6.60785">
        <ele>1302.902</ele>
        <time>2010-07-04T13:43:09Z</time>
      </trkpt>
      <trkpt lat="44.86025" lon="6.60792">
        <ele>1303.453</ele>
        <time>2010-07-04T13:43:13Z</time>
      </trkpt>
      <trkpt lat="44.86035" lon="6.60784">
        <ele>1313.669</ele>
        <time>2010-07-04T13:43:34Z</time>
      </trkpt>
      <trkpt lat="44.86038" lon="6.60789">
        <ele>1315.769</ele>
        <time>2010-07-04T13:43:39Z</time>
      </trkpt>
      <trkpt lat="44.86039" lon="6.60803">
        <ele>1320.219</ele>
        <time>2010-07-04T13:43:46Z</time>
      </trkpt>
      <trkpt lat="44.86035" lon="6.60823">
        <ele>1317.026</ele>
        <time>2010-07-04T13:43:52Z</time>
      </trkpt>
      <trkpt lat="44.86041" lon="6.60843">
        <ele>1308.422</ele>
        <time>2010-07-04T13:43:58Z</time>
      </trkpt>
      <trkpt lat="44.86045" lon="6.60858">
        <ele>1309.384</ele>
        <time>2010-07-04T13:44:04Z</time>
      </trkpt>
      <trkpt lat="44.86054" lon="6.60874">
        <ele>1311.625</ele>
        <time>2010-07-04T13:44:11Z</time>
      </trkpt>
      <trkpt lat="44.8606" lon="6.60884">
        <ele>1309.684</ele>
        <time>2010-07-04T13:44:16Z</time>
      </trkpt>
      <trkpt lat="44.86065" lon="6.60891">
        <ele>1309.024</ele>
        <time>2010-07-04T13:44:20Z</time>
      </trkpt>
      <trkpt lat="44.86066" lon="6.60899">
        <ele>1308.415</ele>
        <time>2010-07-04T13:44:27Z</time>
      </trkpt>
      <trkpt lat="44.86068" lon="6.60905">
        <ele>1310.729</ele>
        <time>2010-07-04T13:44:33Z</time>
      </trkpt>
      <trkpt lat="44.86069" lon="6.60915">
        <ele>1312.138</ele>
        <time>2010-07-04T13:44:38Z</time>
      </trkpt>
      <trkpt lat="44.86073" lon="6.60933">
        <ele>1308.685</ele>
        <time>2010-07-04T13:44:43Z</time>
      </trkpt>
      <trkpt lat="44.86073" lon="6.60946">
        <ele>1307.645</ele>
        <time>2010-07-04T13:44:47Z</time>
      </trkpt>
      <trkpt lat="44.86081" lon="6.6096">
        <ele>1306.555</ele>
        <time>2010-07-04T13:44:52Z</time>
      </trkpt>
      <trkpt lat="44.8609" lon="6.60966">
        <ele>1306.055</ele>
        <time>2010-07-04T13:44:54Z</time>
      </trkpt>
      <trkpt lat="44.86099" lon="6.60976">
        <ele>1305.895</ele>
        <time>2010-07-04T13:44:56Z</time>
      </trkpt>
      <trkpt lat="44.86114" lon="6.61001">
        <ele>1306.687</ele>
        <time>2010-07-04T13:45:01Z</time>
      </trkpt>
      <trkpt lat="44.86125" lon="6.61022">
        <ele>1306.796</ele>
        <time>2010-07-04T13:45:08Z</time>
      </trkpt>
      <trkpt lat="44.86136" lon="6.61035">
        <ele>1306.967</ele>
        <time>2010-07-04T13:45:14Z</time>
      </trkpt>
      <trkpt lat="44.86148" lon="6.61054">
        <ele>1306.356</ele>
        <time>2010-07-04T13:45:21Z</time>
      </trkpt>
      <trkpt lat="44.86158" lon="6.6107">
        <ele>1306.216</ele>
        <time>2010-07-04T13:45:28Z</time>
      </trkpt>
      <trkpt lat="44.86166" lon="6.61085">
        <ele>1307.667</ele>
        <time>2010-07-04T13:45:35Z</time>
      </trkpt>
      <trkpt lat="44.86173" lon="6.61098">
        <ele>1308.706</ele>
        <time>2010-07-04T13:45:41Z</time>
      </trkpt>
      <trkpt lat="44.86179" lon="6.61109">
        <ele>1309.887</ele>
        <time>2010-07-04T13:45:47Z</time>
      </trkpt>
      <trkpt lat="44.86185" lon="6.61129">
        <ele>1308.747</ele>
        <time>2010-07-04T13:45:54Z</time>
      </trkpt>
      <trkpt lat="44.8619" lon="6.61147">
        <ele>1307.739</ele>
        <time>2010-07-04T13:46:01Z</time>
      </trkpt>
      <trkpt lat="44.86196" lon="6.61165">
        <ele>1309.4</ele>
        <time>2010-07-04T13:46:09Z</time>
      </trkpt>
      <trkpt lat="44.86203" lon="6.6118">
        <ele>1312.441</ele>
        <time>2010-07-04T13:46:17Z</time>
      </trkpt>
      <trkpt lat="44.86209" lon="6.61195">
        <ele>1315.79</ele>
        <time>2010-07-04T13:46:25Z</time>
      </trkpt>
      <trkpt lat="44.86209" lon="6.61209">
        <ele>1316.539</ele>
        <time>2010-07-04T13:46:32Z</time>
      </trkpt>
      <trkpt lat="44.86209" lon="6.61213">
        <ele>1316.969</ele>
        <time>2010-07-04T13:46:37Z</time>
      </trkpt>
      <trkpt lat="44.86209" lon="6.61221">
        <ele>1317.628</ele>
        <time>2010-07-04T13:46:41Z</time>
      </trkpt>
      <trkpt lat="44.86216" lon="6.61238">
        <ele>1318.318</ele>
        <time>2010-07-04T13:46:45Z</time>
      </trkpt>
      <trkpt lat="44.86225" lon="6.61254">
        <ele>1316.706</ele>
        <time>2010-07-04T13:46:50Z</time>
      </trkpt>
      <trkpt lat="44.86236" lon="6.61261">
        <ele>1316.937</ele>
        <time>2010-07-04T13:46:55Z</time>
      </trkpt>
      <trkpt lat="44.86237" lon="6.61262">
        <ele>1318.478</ele>
        <time>2010-07-04T13:46:56Z</time>
      </trkpt>
      <trkpt lat="44.86244" lon="6.61259">
        <ele>1324.742</ele>
        <time>2010-07-04T13:47:01Z</time>
      </trkpt>
      <trkpt lat="44.86245" lon="6.61259">
        <ele>1326.243</ele>
        <time>2010-07-04T13:47:02Z</time>
      </trkpt>
      <trkpt lat="44.86258" lon="6.61255">
        <ele>1318.187</ele>
        <time>2010-07-04T13:47:07Z</time>
      </trkpt>
      <trkpt lat="44.86269" lon="6.61251">
        <ele>1313.294</ele>
        <time>2010-07-04T13:47:10Z</time>
      </trkpt>
      <trkpt lat="44.86302" lon="6.61247">
        <ele>1309.516</ele>
        <time>2010-07-04T13:47:16Z</time>
      </trkpt>
      <trkpt lat="44.86306" lon="6.61248">
        <ele>1308.346</ele>
        <time>2010-07-04T13:47:17Z</time>
      </trkpt>
      <trkpt lat="44.86319" lon="6.61266">
        <ele>1304.797</ele>
        <time>2010-07-04T13:47:24Z</time>
      </trkpt>
      <trkpt lat="44.86328" lon="6.61289">
        <ele>1303.748</ele>
        <time>2010-07-04T13:47:30Z</time>
      </trkpt>
      <trkpt lat="44.8633" lon="6.613">
        <ele>1303.46</ele>
        <time>2010-07-04T13:47:33Z</time>
      </trkpt>
      <trkpt lat="44.86323" lon="6.61322">
        <ele>1304.249</ele>
        <time>2010-07-04T13:47:40Z</time>
      </trkpt>
      <trkpt lat="44.86318" lon="6.61331">
        <ele>1305.569</ele>
        <time>2010-07-04T13:47:45Z</time>
      </trkpt>
      <trkpt lat="44.86312" lon="6.61344">
        <ele>1304.769</ele>
        <time>2010-07-04T13:47:50Z</time>
      </trkpt>
      <trkpt lat="44.86311" lon="6.61348">
        <ele>1304.098</ele>
        <time>2010-07-04T13:47:51Z</time>
      </trkpt>
      <trkpt lat="44.8632" lon="6.61374">
        <ele>1302.847</ele>
        <time>2010-07-04T13:47:56Z</time>
      </trkpt>
      <trkpt lat="44.86333" lon="6.61386">
        <ele>1300.806</ele>
        <time>2010-07-04T13:48:01Z</time>
      </trkpt>
      <trkpt lat="44.86349" lon="6.61394">
        <ele>1301.367</ele>
        <time>2010-07-04T13:48:07Z</time>
      </trkpt>
      <trkpt lat="44.86366" lon="6.61402">
        <ele>1301.556</ele>
        <time>2010-07-04T13:48:12Z</time>
      </trkpt>
      <trkpt lat="44.86382" lon="6.61421">
        <ele>1301.628</ele>
        <time>2010-07-04T13:48:17Z</time>
      </trkpt>
      <trkpt lat="44.86391" lon="6.6144">
        <ele>1298.607</ele>
        <time>2010-07-04T13:48:22Z</time>
      </trkpt>
      <trkpt lat="44.86392" lon="6.61458">
        <ele>1296.006</ele>
        <time>2010-07-04T13:48:25Z</time>
      </trkpt>
      <trkpt lat="44.86387" lon="6.61488">
        <ele>1295.878</ele>
        <time>2010-07-04T13:48:29Z</time>
      </trkpt>
      <trkpt lat="44.86383" lon="6.61495">
        <ele>1296.018</ele>
        <time>2010-07-04T13:48:32Z</time>
      </trkpt>
      <trkpt lat="44.86379" lon="6.61509">
        <ele>1299.75</ele>
        <time>2010-07-04T13:48:41Z</time>
      </trkpt>
      <trkpt lat="44.8638" lon="6.61513">
        <ele>1300.311</ele>
        <time>2010-07-04T13:48:43Z</time>
      </trkpt>
      <trkpt lat="44.86377" lon="6.61531">
        <ele>1301.331</ele>
        <time>2010-07-04T13:48:52Z</time>
      </trkpt>
      <trkpt lat="44.86375" lon="6.61544">
        <ele>1303.753</ele>
        <time>2010-07-04T13:48:59Z</time>
      </trkpt>
      <trkpt lat="44.86369" lon="6.61556">
        <ele>1309.463</ele>
        <time>2010-07-04T13:49:07Z</time>
      </trkpt>
      <trkpt lat="44.86368" lon="6.61557">
        <ele>1309.993</ele>
        <time>2010-07-04T13:49:08Z</time>
      </trkpt>
      <trkpt lat="44.86366" lon="6.61568">
        <ele>1310.819</ele>
        <time>2010-07-04T13:49:15Z</time>
      </trkpt>
      <trkpt lat="44.86365" lon="6.61579">
        <ele>1308.758</ele>
        <time>2010-07-04T13:49:20Z</time>
      </trkpt>
      <trkpt lat="44.86366" lon="6.61581">
        <ele>1307.927</ele>
        <time>2010-07-04T13:49:21Z</time>
      </trkpt>
      <trkpt lat="44.86374" lon="6.61593">
        <ele>1304.956</ele>
        <time>2010-07-04T13:49:26Z</time>
      </trkpt>
      <trkpt lat="44.86382" lon="6.61595">
        <ele>1304.837</ele>
        <time>2010-07-04T13:49:28Z</time>
      </trkpt>
      <trkpt lat="44.86402" lon="6.61615">
        <ele>1303.735</ele>
        <time>2010-07-04T13:49:33Z</time>
      </trkpt>
      <trkpt lat="44.86406" lon="6.61621">
        <ele>1303.595</ele>
        <time>2010-07-04T13:49:34Z</time>
      </trkpt>
      <trkpt lat="44.86425" lon="6.61662">
        <ele>1299.246</ele>
        <time>2010-07-04T13:49:39Z</time>
      </trkpt>
      <trkpt lat="44.86428" lon="6.61668">
        <ele>1298.345</ele>
        <time>2010-07-04T13:49:40Z</time>
      </trkpt>
      <trkpt lat="44.86449" lon="6.61691">
        <ele>1301.141</ele>
        <time>2010-07-04T13:49:45Z</time>
      </trkpt>
      <trkpt lat="44.86454" lon="6.61702">
        <ele>1302.822</ele>
        <time>2010-07-04T13:49:49Z</time>
      </trkpt>
      <trkpt lat="44.86463" lon="6.6172">
        <ele>1302.558</ele>
        <time>2010-07-04T13:49:53Z</time>
      </trkpt>
      <trkpt lat="44.86472" lon="6.61739">
        <ele>1303.631</ele>
        <time>2010-07-04T13:49:57Z</time>
      </trkpt>
      <trkpt lat="44.86487" lon="6.61765">
        <ele>1303.829</ele>
        <time>2010-07-04T13:50:04Z</time>
      </trkpt>
      <trkpt lat="44.86497" lon="6.61797">
        <ele>1302.529</ele>
        <time>2010-07-04T13:50:10Z</time>
      </trkpt>
      <trkpt lat="44.86497" lon="6.61826">
        <ele>1299.247</ele>
        <time>2010-07-04T13:50:14Z</time>
      </trkpt>
      <trkpt lat="44.86498" lon="6.61836">
        <ele>1298.447</ele>
        <time>2010-07-04T13:50:15Z</time>
      </trkpt>
      <trkpt lat="44.86505" lon="6.61862">
        <ele>1297.698</ele>
        <time>2010-07-04T13:50:19Z</time>
      </trkpt>
      <trkpt lat="44.86514" lon="6.61866">
        <ele>1297.948</ele>
        <time>2010-07-04T13:50:22Z</time>
      </trkpt>
      <trkpt lat="44.86538" lon="6.61868">
        <ele>1300.231</ele>
        <time>2010-07-04T13:50:29Z</time>
      </trkpt>
      <trkpt lat="44.86551" lon="6.61879">
        <ele>1299.588</ele>
        <time>2010-07-04T13:50:33Z</time>
      </trkpt>
      <trkpt lat="44.8657" lon="6.61897">
        <ele>1299.048</ele>
        <time>2010-07-04T13:50:37Z</time>
      </trkpt>
      <trkpt lat="44.86591" lon="6.61928">
        <ele>1298.248</ele>
        <time>2010-07-04T13:50:42Z</time>
      </trkpt>
      <trkpt lat="44.86603" lon="6.61963">
        <ele>1297.629</ele>
        <time>2010-07-04T13:50:47Z</time>
      </trkpt>
      <trkpt lat="44.86617" lon="6.61975">
        <ele>1296.477</ele>
        <time>2010-07-04T13:50:50Z</time>
      </trkpt>
      <trkpt lat="44.86623" lon="6.61976">
        <ele>1296.479</ele>
        <time>2010-07-04T13:50:51Z</time>
      </trkpt>
      <trkpt lat="44.86641" lon="6.61977">
        <ele>1296.589</ele>
        <time>2010-07-04T13:50:54Z</time>
      </trkpt>
      <trkpt lat="44.86656" lon="6.61993">
        <ele>1295.418</ele>
        <time>2010-07-04T13:50:58Z</time>
      </trkpt>
      <trkpt lat="44.86657" lon="6.62">
        <ele>1295.359</ele>
        <time>2010-07-04T13:50:59Z</time>
      </trkpt>
      <trkpt lat="44.86661" lon="6.62025">
        <ele>1296.922</ele>
        <time>2010-07-04T13:51:04Z</time>
      </trkpt>
      <trkpt lat="44.86668" lon="6.62049">
        <ele>1297.281</ele>
        <time>2010-07-04T13:51:09Z</time>
      </trkpt>
      <trkpt lat="44.86676" lon="6.62084">
        <ele>1297.77</ele>
        <time>2010-07-04T13:51:17Z</time>
      </trkpt>
      <trkpt lat="44.86682" lon="6.62113">
        <ele>1298.121</ele>
        <time>2010-07-04T13:51:23Z</time>
      </trkpt>
      <trkpt lat="44.86686" lon="6.6212">
        <ele>1298.28</ele>
        <time>2010-07-04T13:51:26Z</time>
      </trkpt>
      <trkpt lat="44.86694" lon="6.62125">
        <ele>1298.03</ele>
        <time>2010-07-04T13:51:29Z</time>
      </trkpt>
      <trkpt lat="44.86704" lon="6.62146">
        <ele>1297.52</ele>
        <time>2010-07-04T13:51:35Z</time>
      </trkpt>
      <trkpt lat="44.86712" lon="6.62168">
        <ele>1297.81</ele>
        <time>2010-07-04T13:51:42Z</time>
      </trkpt>
      <trkpt lat="44.86724" lon="6.62188">
        <ele>1297.039</ele>
        <time>2010-07-04T13:51:47Z</time>
      </trkpt>
      <trkpt lat="44.86736" lon="6.6221">
        <ele>1297.271</ele>
        <time>2010-07-04T13:51:53Z</time>
      </trkpt>
      <trkpt lat="44.86745" lon="6.62222">
        <ele>1295.979</ele>
        <time>2010-07-04T13:51:59Z</time>
      </trkpt>
      <trkpt lat="44.86764" lon="6.62228">
        <ele>1292.366</ele>
        <time>2010-07-04T13:52:05Z</time>
      </trkpt>
      <trkpt lat="44.86774" lon="6.62235">
        <ele>1290.486</ele>
        <time>2010-07-04T13:52:08Z</time>
      </trkpt>
      <trkpt lat="44.86794" lon="6.62231">
        <ele>1284.585</ele>
        <time>2010-07-04T13:52:13Z</time>
      </trkpt>
      <trkpt lat="44.86802" lon="6.62228">
        <ele>1282.758</ele>
        <time>2010-07-04T13:52:17Z</time>
      </trkpt>
      <trkpt lat="44.86804" lon="6.6224">
        <ele>1281.669</ele>
        <time>2010-07-04T13:52:22Z</time>
      </trkpt>
      <trkpt lat="44.86808" lon="6.62273">
        <ele>1281.481</ele>
        <time>2010-07-04T13:52:29Z</time>
      </trkpt>
      <trkpt lat="44.86821" lon="6.62303">
        <ele>1281.881</ele>
        <time>2010-07-04T13:52:36Z</time>
      </trkpt>
      <trkpt lat="44.86828" lon="6.62327">
        <ele>1282.04</ele>
        <time>2010-07-04T13:52:42Z</time>
      </trkpt>
      <trkpt lat="44.86832" lon="6.62354">
        <ele>1282.472</ele>
        <time>2010-07-04T13:52:49Z</time>
      </trkpt>
      <trkpt lat="44.86836" lon="6.62379">
        <ele>1283.512</ele>
        <time>2010-07-04T13:52:55Z</time>
      </trkpt>
      <trkpt lat="44.86848" lon="6.62399">
        <ele>1284.021</ele>
        <time>2010-07-04T13:53:01Z</time>
      </trkpt>
      <trkpt lat="44.86865" lon="6.62422">
        <ele>1284.671</ele>
        <time>2010-07-04T13:53:09Z</time>
      </trkpt>
      <trkpt lat="44.86882" lon="6.62433">
        <ele>1284.24</ele>
        <time>2010-07-04T13:53:15Z</time>
      </trkpt>
      <trkpt lat="44.86894" lon="6.62446">
        <ele>1285.562</ele>
        <time>2010-07-04T13:53:20Z</time>
      </trkpt>
      <trkpt lat="44.86905" lon="6.62469">
        <ele>1286.461</ele>
        <time>2010-07-04T13:53:27Z</time>
      </trkpt>
      <trkpt lat="44.86917" lon="6.6248">
        <ele>1287.183</ele>
        <time>2010-07-04T13:53:32Z</time>
      </trkpt>
      <trkpt lat="44.86928" lon="6.62491">
        <ele>1287.161</ele>
        <time>2010-07-04T13:53:37Z</time>
      </trkpt>
      <trkpt lat="44.86934" lon="6.62509">
        <ele>1286.24</ele>
        <time>2010-07-04T13:53:42Z</time>
      </trkpt>
      <trkpt lat="44.8694" lon="6.62527">
        <ele>1286.181</ele>
        <time>2010-07-04T13:53:47Z</time>
      </trkpt>
      <trkpt lat="44.86949" lon="6.62553">
        <ele>1283.77</ele>
        <time>2010-07-04T13:53:53Z</time>
      </trkpt>
      <trkpt lat="44.86947" lon="6.62574">
        <ele>1281.42</ele>
        <time>2010-07-04T13:53:58Z</time>
      </trkpt>
      <trkpt lat="44.86944" lon="6.62597">
        <ele>1279.361</ele>
        <time>2010-07-04T13:54:03Z</time>
      </trkpt>
      <trkpt lat="44.86946" lon="6.6262">
        <ele>1279.741</ele>
        <time>2010-07-04T13:54:09Z</time>
      </trkpt>
      <trkpt lat="44.86949" lon="6.6264">
        <ele>1281.611</ele>
        <time>2010-07-04T13:54:15Z</time>
      </trkpt>
      <trkpt lat="44.8696" lon="6.62667">
        <ele>1284.292</ele>
        <time>2010-07-04T13:54:23Z</time>
      </trkpt>
      <trkpt lat="44.86971" lon="6.62682">
        <ele>1285.321</ele>
        <time>2010-07-04T13:54:29Z</time>
      </trkpt>
      <trkpt lat="44.86984" lon="6.62686">
        <ele>1286.422</ele>
        <time>2010-07-04T13:54:34Z</time>
      </trkpt>
      <trkpt lat="44.86993" lon="6.62694">
        <ele>1287.393</ele>
        <time>2010-07-04T13:54:38Z</time>
      </trkpt>
      <trkpt lat="44.87008" lon="6.62719">
        <ele>1288.583</ele>
        <time>2010-07-04T13:54:46Z</time>
      </trkpt>
      <trkpt lat="44.87018" lon="6.62739">
        <ele>1288.742</ele>
        <time>2010-07-04T13:54:52Z</time>
      </trkpt>
      <trkpt lat="44.87032" lon="6.62767">
        <ele>1289.122</ele>
        <time>2010-07-04T13:55:00Z</time>
      </trkpt>
      <trkpt lat="44.87041" lon="6.62784">
        <ele>1288.992</ele>
        <time>2010-07-04T13:55:05Z</time>
      </trkpt>
      <trkpt lat="44.87047" lon="6.62802">
        <ele>1288.662</ele>
        <time>2010-07-04T13:55:11Z</time>
      </trkpt>
      <trkpt lat="44.87054" lon="6.62818">
        <ele>1287.322</ele>
        <time>2010-07-04T13:55:17Z</time>
      </trkpt>
      <trkpt lat="44.87057" lon="6.62824">
        <ele>1287.813</ele>
        <time>2010-07-04T13:55:21Z</time>
      </trkpt>
      <trkpt lat="44.87057" lon="6.62833">
        <ele>1289.095</ele>
        <time>2010-07-04T13:55:25Z</time>
      </trkpt>
      <trkpt lat="44.87053" lon="6.62848">
        <ele>1288.205</ele>
        <time>2010-07-04T13:55:31Z</time>
      </trkpt>
      <trkpt lat="44.8705" lon="6.62851">
        <ele>1288.745</ele>
        <time>2010-07-04T13:55:34Z</time>
      </trkpt>
      <trkpt lat="44.87043" lon="6.62851">
        <ele>1289.495</ele>
        <time>2010-07-04T13:55:39Z</time>
      </trkpt>
      <trkpt lat="44.87037" lon="6.62842">
        <ele>1290.335</ele>
        <time>2010-07-04T13:55:44Z</time>
      </trkpt>
      <trkpt lat="44.87026" lon="6.62831">
        <ele>1290.333</ele>
        <time>2010-07-04T13:55:50Z</time>
      </trkpt>
      <trkpt lat="44.87024" lon="6.62824">
        <ele>1290.605</ele>
        <time>2010-07-04T13:55:53Z</time>
      </trkpt>
      <trkpt lat="44.87025" lon="6.62813">
        <ele>1292.956</ele>
        <time>2010-07-04T13:55:59Z</time>
      </trkpt>
      <trkpt lat="44.87025" lon="6.62811">
        <ele>1293.806</ele>
        <time>2010-07-04T13:56:00Z</time>
      </trkpt>
      <trkpt lat="44.8702" lon="6.62808">
        <ele>1293.623</ele>
        <time>2010-07-04T13:56:05Z</time>
      </trkpt>
      <trkpt lat="44.8702" lon="6.62814">
        <ele>1293.183</ele>
        <time>2010-07-04T13:56:09Z</time>
      </trkpt>
      <trkpt lat="44.87021" lon="6.62818">
        <ele>1292.262</ele>
        <time>2010-07-04T13:56:14Z</time>
      </trkpt>
      <trkpt lat="44.87021" lon="6.62814">
        <ele>1291.194</ele>
        <time>2010-07-04T13:56:35Z</time>
      </trkpt>
      <trkpt lat="44.87021" lon="6.62813">
        <ele>1288.952</ele>
        <time>2010-07-04T13:56:51Z</time>
      </trkpt>
      <trkpt lat="44.87021" lon="6.62816">
        <ele>1288.882</ele>
        <time>2010-07-04T13:56:59Z</time>
      </trkpt>
      <trkpt lat="44.87022" lon="6.62819">
        <ele>1289.543</ele>
        <time>2010-07-04T13:57:09Z</time>
      </trkpt>
      <trkpt lat="44.87021" lon="6.62817">
        <ele>1291.102</ele>
        <time>2010-07-04T13:57:23Z</time>
      </trkpt>
      <trkpt lat="44.8702" lon="6.62813">
        <ele>1292.102</ele>
        <time>2010-07-04T13:57:38Z</time>
      </trkpt>
      <trkpt lat="44.8702" lon="6.62813">
        <ele>1292.133</ele>
        <time>2010-07-04T13:57:39Z</time>
      </trkpt>
      <trkpt lat="44.87019" lon="6.62812">
        <ele>1290.592</ele>
        <time>2010-07-04T13:57:45Z</time>
      </trkpt>
      <trkpt lat="44.8702" lon="6.62812">
        <ele>1288.662</ele>
        <time>2010-07-04T13:58:10Z</time>
      </trkpt>
      <trkpt lat="44.87019" lon="6.62811">
        <ele>1287.721</ele>
        <time>2010-07-04T13:58:16Z</time>
      </trkpt>
      <trkpt lat="44.87019" lon="6.6281">
        <ele>1286.116</ele>
        <time>2010-07-04T13:58:49Z</time>
      </trkpt>
    </trkseg>
  </trk>
</gpx>